# Wetter Temperatur Luftdruck Luftfeuchtigkeit Sichtweite Windgeschwindigkeit Windrichtung Zeit
1 Clouds 28 1009 78 10000 1.5 170 09:40 29.01.2020
2 Clouds 28 1009 78 10000 1.5 170 09:40 29.01.2020
3 Clouds 28 1009 78 10000 1.5 170 09:22 29.01.2020
4 Clouds 28 1008 78 10000 1.5 170 08:58 29.01.2020
5 Clouds 28 1008 78 10000 1.5 170 08:39 29.01.2020
6 Clouds 28 1008 78 10000 1.5 170 08:20 29.01.2020
7 Clouds 26 1008 80 0 2.01 183 07:45 29.01.2020
8 Clouds 28 1008 83 10000 2.1 160 07:25 29.01.2020
9 Clouds 28 1008 83 10000 2.1 160 06:55 29.01.2020
10 Clouds 28 1008 83 10000 2.1 160 06:37 29.01.2020
11 Clouds 28 1008 83 10000 2.1 160 06:18 29.01.2020
12 Clouds 29 1007 74 10000 3.1 160 05:45 29.01.2020
13 Clouds 29 1007 74 10000 3.1 160 05:26 29.01.2020
14 Clouds 31 1008 66 10000 3.1 160 04:38 29.01.2020
15 Clouds 32 1009 62 10000 3.1 180 03:49 29.01.2020
16 Clouds 31 1010 66 10000 3.1 190 02:33 29.01.2020
17 Clouds 30 1010 70 10000 3.1 180 00:43 29.01.2020
18 Clouds 30 1010 70 10000 3.1 180 00:25 29.01.2020
19 Clouds 30 1011 74 10000 3.1 180 23:58 28.01.2020
20 Clouds 30 1011 74 10000 3.1 180 23:37 28.01.2020
21 Clouds 30 1011 74 10000 3.1 180 23:18 28.01.2020
22 Clouds 29 1011 79 10000 3.1 180 22:40 28.01.2020
23 Clouds 29 1011 79 10000 3.1 180 22:21 28.01.2020
24 Clouds 27 1011 88 10000 2.1 200 21:42 28.01.2020
25 Clouds 27 1011 88 10000 2.1 200 21:23 28.01.2020
26 Clouds 27 1011 88 10000 2.1 200 21:23 28.01.2020
27 Clouds 24 1010 100 10000 1 0 20:58 28.01.2020
28 Clouds 24 1010 100 10000 1 0 20:40 28.01.2020
29 Clouds 24 1010 100 10000 1 0 20:21 28.01.2020
30 Rain 24 1009 96 0 1.53 233 19:39 28.01.2020
31 Clouds 24 1009 100 10000 1 0 19:21 28.01.2020
32 Clouds 24 1009 100 10000 1 0 18:58 28.01.2020
33 Clouds 24 1009 100 10000 1 0 18:40 28.01.2020
34 Clouds 24 1009 100 10000 1 0 18:21 28.01.2020
35 Clouds 24 1009 100 10000 1 0 17:57 28.01.2020
36 Clouds 24 1009 100 10000 1 0 17:37 28.01.2020
37 Clouds 24 1009 100 10000 1 0 17:19 28.01.2020
38 Clouds 25 1009 94 10000 1.5 320 16:55 28.01.2020
39 Clouds 25 1009 94 10000 1.5 320 16:36 28.01.2020
40 Clouds 25 1009 94 10000 1.5 320 16:18 28.01.2020
41 Clouds 25 1009 94 10000 2.1 320 15:42 28.01.2020
42 Clouds 25 1009 94 10000 2.1 320 15:19 28.01.2020
43 Clouds 25 1010 100 10000 1.5 320 14:54 28.01.2020
44 Clouds 25 1010 100 10000 1.5 320 14:36 28.01.2020
45 Clouds 25 1010 100 10000 1.5 320 14:18 28.01.2020
46 Rain 24 1010 96 0 1.46 216 13:39 28.01.2020
47 Clouds 26 1010 94 10000 1 0 13:21 28.01.2020
48 Clouds 26 1010 94 10000 1 0 12:42 28.01.2020
49 Clouds 26 1010 94 10000 1 0 12:23 28.01.2020
50 Clouds 26 1010 94 10000 1.44 217 11:48 28.01.2020
51 Clouds 26 1010 94 10000 1.44 217 11:23 28.01.2020
52 Clouds 27 1010 88 10000 1.85 221 10:58 28.01.2020
53 Clouds 27 1010 88 10000 1.85 221 10:39 28.01.2020
54 Clouds 27 1010 88 10000 1.85 221 10:20 28.01.2020
55 Clouds 27 1009 83 10000 1.5 190 09:43 28.01.2020
56 Clouds 27 1009 83 10000 1.5 190 09:21 28.01.2020
57 Clouds 28 1009 83 10000 2.6 200 08:58 28.01.2020
58 Clouds 28 1009 83 10000 2.6 200 08:39 28.01.2020
59 Clouds 28 1009 83 10000 2.6 200 08:18 28.01.2020
60 Rain 26 1008 92 0 1.98 205 07:37 28.01.2020
61 Rain 26 1008 92 0 1.98 205 07:37 28.01.2020
62 Clouds 29 1008 79 10000 3.6 210 06:50 28.01.2020
63 Clouds 29 1008 79 10000 3.6 210 06:26 28.01.2020
64 Clouds 30 1008 74 10000 4.1 210 05:54 28.01.2020
65 Clouds 30 1008 74 10000 4.1 210 05:26 28.01.2020
66 Clouds 30 1009 66 10000 4.1 210 03:59 28.01.2020
67 Clouds 30 1009 70 10000 4.1 220 02:58 28.01.2020
68 Clouds 30 1009 70 10000 4.1 220 02:25 28.01.2020
69 Rain 29 1009 76 0 2.53 190 01:57 28.01.2020
70 Clouds 30 1010 70 10000 2.6 200 01:24 28.01.2020
71 Clouds 30 1010 70 10000 2.6 200 00:48 28.01.2020
72 Clouds 30 1010 70 10000 2.6 200 00:28 28.01.2020
73 Clouds 29 1010 74 10000 2.6 220 23:49 27.01.2020
74 Clouds 29 1010 74 10000 2.6 220 23:30 27.01.2020
75 Clouds 28 1010 83 10000 2.1 230 22:55 27.01.2020
76 Clouds 28 1010 83 10000 2.1 230 22:36 27.01.2020
77 Clouds 28 1010 83 10000 2.1 230 22:18 27.01.2020
78 Clouds 26 1010 94 10000 2.1 280 21:54 27.01.2020
79 Clouds 26 1010 94 10000 2.1 280 21:36 27.01.2020
80 Clouds 26 1010 94 10000 2.1 280 21:18 27.01.2020
81 Clouds 25 1009 94 10000 2.6 330 20:42 27.01.2020
82 Clouds 25 1009 94 10000 2.6 330 20:21 27.01.2020
83 Clouds 25 1009 94 10000 2.6 330 20:21 27.01.2020
84 Clouds 22 1008 96 0 1.74 270 19:58 27.01.2020
85 Clouds 22 1008 96 0 1.74 270 19:40 27.01.2020
86 Clouds 24 1008 94 10000 2.1 330 19:21 27.01.2020
87 Clouds 24 1008 94 10000 2.1 330 19:21 27.01.2020
88 Clouds 24 1008 94 10000 2.1 330 18:55 27.01.2020
89 Clouds 24 1008 94 10000 2.1 330 18:37 27.01.2020
90 Clouds 24 1008 94 10000 2.1 330 18:37 27.01.2020
91 Clouds 24 1008 94 10000 2.1 330 18:19 27.01.2020
92 Clouds 22 1008 96 0 1.74 270 17:39 27.01.2020
93 Clouds 24 1008 94 10000 2.1 330 17:19 27.01.2020
94 Clouds 24 1008 94 10000 2.1 330 16:57 27.01.2020
95 Clouds 24 1008 94 10000 2.1 330 16:39 27.01.2020
96 Clouds 24 1008 94 10000 2.1 330 16:21 27.01.2020
97 Clouds 24 1009 94 10000 2.1 330 15:54 27.01.2020
98 Clouds 24 1009 94 10000 2.1 330 15:36 27.01.2020
99 Clouds 24 1009 94 10000 2.1 330 15:18 27.01.2020
100 Clouds 24 1010 94 10000 1.5 330 14:40 27.01.2020
101 Clouds 24 1010 94 10000 1.5 330 14:21 27.01.2020
102 Clear 24 1010 95 0 1.81 222 13:54 27.01.2020
103 Clear 24 1010 95 0 1.81 222 13:36 27.01.2020
104 Clouds 25 1010 94 10000 1.89 218 13:18 27.01.2020
105 Clouds 25 1010 94 10000 1.89 218 12:41 27.01.2020
106 Clouds 25 1010 94 10000 1.89 218 12:22 27.01.2020
107 Clouds 26 1010 88 10000 1.89 218 11:43 27.01.2020
108 Clouds 26 1010 88 10000 1.89 218 11:22 27.01.2020
109 Clouds 27 1010 83 10000 1.5 200 10:57 27.01.2020
110 Clouds 27 1010 83 10000 1.5 200 10:39 27.01.2020
111 Clouds 27 1010 83 10000 1.5 200 10:20 27.01.2020
112 Clouds 27 1009 83 10000 1.5 190 09:40 27.01.2020
113 Clouds 27 1009 83 10000 1.5 190 09:19 27.01.2020
114 Rain 24 1009 93 0 2.16 187 08:56 27.01.2020
115 Rain 24 1009 93 0 2.16 187 08:38 27.01.2020
116 Rain 26 1006 92 0 2.09 190 08:18 27.01.2020
117 Rain 26 1006 92 0 2.09 190 07:46 27.01.2020
118 Clouds 30 1007 66 10000 3.1 180 07:26 27.01.2020
119 Clouds 30 1007 66 10000 3.1 180 06:38 27.01.2020
120 Clouds 29 1007 70 10000 3.6 170 05:43 27.01.2020
121 Clouds 30 1008 70 10000 4.6 170 04:37 27.01.2020
122 Clouds 28 1008 83 10000 2.1 190 03:35 27.01.2020
123 Clear 30 1008 65 0 3.31 190 01:54 27.01.2020
124 Clouds 28 1009 78 10000 3.1 200 01:25 27.01.2020
125 Clouds 28 1009 78 10000 3.1 200 00:41 27.01.2020
126 Clouds 28 1009 78 10000 3.1 200 00:21 27.01.2020
127 Clouds 28 1009 78 10000 3.1 190 23:43 26.01.2020
128 Clouds 28 1009 78 10000 3.1 190 23:22 26.01.2020
129 Clouds 27 1009 83 10000 2.6 230 22:58 26.01.2020
130 Clouds 27 1009 83 10000 2.6 230 22:38 26.01.2020
131 Clouds 27 1009 83 10000 2.6 230 22:20 26.01.2020
132 Clouds 26 1009 88 10000 3.6 220 21:57 26.01.2020
133 Clouds 26 1009 88 10000 3.6 220 21:39 26.01.2020
134 Clouds 26 1009 88 10000 3.6 220 21:20 26.01.2020
135 Clouds 24 1009 94 10000 2.6 240 20:57 26.01.2020
136 Clouds 24 1009 94 10000 2.6 240 20:38 26.01.2020
137 Clouds 24 1009 94 10000 2.6 240 20:38 26.01.2020
138 Clouds 24 1009 94 10000 2.6 240 20:19 26.01.2020
139 Clouds 24 1009 94 10000 2.6 240 20:19 26.01.2020
140 Clouds 24 1008 94 10000 1.31 236 19:57 26.01.2020
141 Clouds 24 1008 94 10000 1.31 236 19:38 26.01.2020
142 Clouds 24 1008 94 10000 1.31 236 19:19 26.01.2020
143 Clouds 24 1008 94 10000 1.31 236 19:19 26.01.2020
144 Clouds 24 1008 94 10000 1 0 18:55 26.01.2020
145 Clouds 24 1008 94 10000 1 0 18:54 26.01.2020
146 Clouds 24 1008 94 10000 1 0 18:36 26.01.2020
147 Clouds 24 1008 94 10000 1 0 18:18 26.01.2020
148 Clouds 24 1008 94 10000 1 0 18:18 26.01.2020
149 Clouds 24 1008 94 10000 1.5 260 17:54 26.01.2020
150 Clouds 24 1008 94 10000 1.5 260 17:36 26.01.2020
151 Clouds 24 1008 94 10000 1.5 260 17:18 26.01.2020
152 Rain 24 1008 94 10000 1.5 270 16:54 26.01.2020
153 Rain 24 1008 94 10000 1.5 270 16:36 26.01.2020
154 Rain 24 1008 94 10000 1.5 270 16:18 26.01.2020
155 Clear 23 1007 95 0 1.54 250 15:41 26.01.2020
156 Clear 23 1007 95 0 1.54 250 15:19 26.01.2020
157 Clear 23 1007 95 0 1.54 250 14:41 26.01.2020
158 Clear 23 1007 95 0 1.54 250 14:23 26.01.2020
159 Clear 23 1007 95 0 1.54 250 14:23 26.01.2020
160 Rain 23 1009 94 0 1.02 237 13:59 26.01.2020
161 Rain 23 1009 94 0 1.02 237 13:38 26.01.2020
162 Rain 23 1009 95 0 0.74 247 13:18 26.01.2020
163 Rain 23 1009 95 0 0.74 247 12:43 26.01.2020
164 Rain 23 1009 95 0 0.74 247 12:24 26.01.2020
165 Rain 23 1009 95 0 0.74 247 11:58 26.01.2020
166 Rain 23 1009 95 0 0.74 247 11:40 26.01.2020
167 Clouds 26 1009 88 10000 3.1 130 11:19 26.01.2020
168 Clouds 26 1009 88 10000 3.1 130 10:59 26.01.2020
169 Clouds 26 1009 88 10000 3.1 130 10:38 26.01.2020
170 Clouds 26 1009 88 10000 3.1 130 10:20 26.01.2020
171 Clouds 26 1009 88 10000 2.1 150 09:58 26.01.2020
172 Clouds 26 1009 88 10000 2.1 150 09:40 26.01.2020
173 Clouds 26 1009 88 10000 2.1 150 09:21 26.01.2020
174 Clouds 26 1008 88 10000 1.5 180 08:43 26.01.2020
175 Clouds 26 1008 88 10000 1.5 180 08:23 26.01.2020
176 Rain 26 1007 89 0 1.78 130 07:57 26.01.2020
177 Rain 26 1007 89 0 1.78 130 07:39 26.01.2020
178 Clouds 28 1007 78 10000 4.1 150 07:21 26.01.2020
179 Clouds 28 1007 78 10000 4.1 150 06:31 26.01.2020
180 Clouds 28 1007 78 10000 4.1 170 05:32 26.01.2020
181 Clouds 28 1007 78 10000 4.1 170 05:32 26.01.2020
182 Clouds 28 1007 78 10000 4.1 170 05:32 26.01.2020
183 Clouds 28 1008 74 10000 4.6 150 04:45 26.01.2020
184 Clouds 30 1008 66 10000 4.1 120 02:54 26.01.2020
185 Clouds 30 1008 70 10000 3.1 130 01:49 26.01.2020
186 Clouds 30 1008 70 10000 3.1 130 01:25 26.01.2020
187 Clouds 30 1009 66 10000 4.1 130 00:48 26.01.2020
188 Clouds 30 1009 66 10000 4.1 130 00:29 26.01.2020
189 Clouds 30 1008 58 0 2.52 107 23:41 25.01.2020
190 Clouds 30 1008 58 0 2.52 107 23:22 25.01.2020
191 Clouds 28 1009 70 0 1.37 102 22:59 25.01.2020
192 Clouds 28 1009 70 0 1.37 102 22:40 25.01.2020
193 Clouds 28 1009 70 0 1.37 102 22:19 25.01.2020
194 Clouds 28 1009 70 0 1.37 102 21:57 25.01.2020
195 Clouds 28 1009 70 0 1.37 102 21:38 25.01.2020
196 Clouds 28 1009 70 0 1.37 102 21:19 25.01.2020
197 Clouds 28 1009 70 0 1.37 102 20:44 25.01.2020
198 Clouds 28 1009 70 0 1.37 102 20:25 25.01.2020
199 Clear 22 1008 95 0 0.48 281 19:55 25.01.2020
200 Clear 22 1008 95 0 0.48 281 19:37 25.01.2020
201 Clear 22 1008 95 0 0.48 281 19:18 25.01.2020
202 Clear 22 1008 95 0 0.48 281 18:41 25.01.2020
203 Clear 22 1008 95 0 0.48 281 18:21 25.01.2020
204 Clear 22 1008 95 0 0.48 281 17:58 25.01.2020
205 Clear 22 1008 95 0 0.73 296 17:38 25.01.2020
206 Rain 23 1007 94 0 0.41 186 17:18 25.01.2020
207 Rain 23 1007 94 0 0.41 186 16:42 25.01.2020
208 Rain 23 1007 94 0 0.41 186 16:23 25.01.2020
209 Rain 23 1007 94 0 0.41 186 15:57 25.01.2020
210 Rain 23 1007 94 0 0.41 186 15:39 25.01.2020
211 Rain 23 1007 94 0 0.41 186 15:20 25.01.2020
212 Rain 23 1007 94 0 0.41 186 14:42 25.01.2020
213 Clear 23 1009 95 0 0.09 54 14:19 25.01.2020
214 Clear 23 1009 95 0 0.09 54 13:45 25.01.2020
215 Clear 23 1009 93 0 0.14 298 13:27 25.01.2020
216 Clear 23 1009 93 0 0.14 298 12:57 25.01.2020
217 Clear 23 1009 93 0 0.14 298 12:38 25.01.2020
218 Rain 25 1010 94 10000 0.14 298 12:19 25.01.2020
219 Rain 25 1010 94 10000 0.14 298 12:19 25.01.2020
220 Rain 25 1010 94 10000 0.14 298 11:40 25.01.2020
221 Rain 25 1010 94 10000 0.14 298 11:40 25.01.2020
222 Rain 25 1010 94 10000 0.11 127 11:19 25.01.2020
223 Clouds 26 1009 88 10000 0.11 127 10:55 25.01.2020
224 Clouds 26 1009 88 10000 0.11 127 10:37 25.01.2020
225 Clouds 26 1009 88 10000 0.11 127 10:18 25.01.2020
226 Clouds 26 1009 88 10000 0.11 127 09:40 25.01.2020
227 Clouds 26 1009 88 10000 0.11 127 09:19 25.01.2020
228 Clouds 27 1008 78 10000 1.5 140 08:42 25.01.2020
229 Clouds 27 1008 78 10000 1.5 140 08:42 25.01.2020
230 Clouds 27 1006 77 0 1.56 118 07:57 25.01.2020
231 Clouds 29 1007 62 10000 4.1 110 07:28 25.01.2020
232 Clouds 29 1007 62 10000 4.1 110 06:33 25.01.2020
233 Clouds 30 1007 58 10000 3.1 150 05:57 25.01.2020
234 Clouds 30 1007 58 10000 3.1 150 05:38 25.01.2020
235 Clouds 30 1007 58 10000 3.1 150 05:38 25.01.2020
236 Clouds 30 1007 62 10000 2.6 130 03:58 25.01.2020
237 Clouds 30 1007 62 10000 2.6 130 03:39 25.01.2020
238 Clouds 30 1008 66 10000 7.2 80 02:37 25.01.2020
239 Rain 29 1008 64 0 2.32 89 01:57 25.01.2020
240 Clouds 30 1009 66 10000 3.6 120 01:23 25.01.2020
241 Clouds 30 1009 66 10000 3.6 120 00:39 25.01.2020
242 Clouds 30 1009 66 10000 3.6 120 00:18 25.01.2020
243 Clouds 29 1009 70 10000 3.1 130 23:42 24.01.2020
244 Clouds 29 1009 70 10000 3.1 130 23:23 24.01.2020
245 Clouds 29 1009 74 10000 1.7 92 22:46 24.01.2020
246 Clouds 29 1009 74 10000 1.7 92 22:46 24.01.2020
247 Clouds 29 1009 74 10000 1.7 92 22:28 24.01.2020
248 Clouds 26 1009 88 10000 1.5 280 21:58 24.01.2020
249 Clouds 26 1009 88 10000 1.5 280 21:40 24.01.2020
250 Clouds 26 1009 88 10000 1.5 280 21:18 24.01.2020
251 Clouds 23 1008 100 10000 1.5 330 20:43 24.01.2020
252 Clouds 23 1008 100 10000 1.5 330 20:22 24.01.2020
253 Clouds 22 1007 95 0 0.64 284 19:58 24.01.2020
254 Clouds 22 1007 95 0 0.64 284 19:40 24.01.2020
255 Clouds 23 1007 94 10000 2.1 340 19:22 24.01.2020
256 Clouds 23 1007 94 10000 2.1 340 19:22 24.01.2020
257 Clouds 23 1007 94 10000 2.1 340 18:54 24.01.2020
258 Clouds 23 1007 94 10000 2.1 340 18:36 24.01.2020
259 Clouds 23 1007 94 10000 2.1 340 18:18 24.01.2020
260 Clouds 23 1007 100 10000 0.64 284 17:42 24.01.2020
261 Clouds 23 1007 100 10000 0.42 338 17:21 24.01.2020
262 Clouds 23 1007 100 10000 1.5 330 16:43 24.01.2020
263 Clouds 23 1007 100 10000 1.5 330 16:22 24.01.2020
264 Clouds 23 1007 100 10000 1.5 330 16:22 24.01.2020
265 Clouds 23 1008 100 10000 2.1 350 15:57 24.01.2020
266 Clouds 23 1008 100 10000 2.1 350 15:39 24.01.2020
267 Clouds 23 1008 100 10000 2.1 350 15:20 24.01.2020
268 Clouds 23 1008 100 10000 0.42 338 14:41 24.01.2020
269 Clouds 23 1008 100 10000 0.42 338 14:23 24.01.2020
270 Rain 23 1008 93 0 0.83 38 13:57 24.01.2020
271 Rain 23 1008 93 0 0.83 38 13:39 24.01.2020
272 Rain 23 1008 94 0 1.24 48 13:19 24.01.2020
273 Rain 23 1008 94 0 1.24 48 12:41 24.01.2020
274 Clouds 24 1009 88 10000 1 330 12:18 24.01.2020
275 Clouds 24 1009 88 10000 1 330 11:43 24.01.2020
276 Clouds 24 1009 88 10000 1 330 11:19 24.01.2020
277 Clouds 25 1009 83 10000 1 0 10:43 24.01.2020
278 Clouds 25 1009 83 10000 1 0 10:22 24.01.2020
279 Clouds 26 1009 83 10000 1.05 41 09:56 24.01.2020
280 Clouds 26 1009 83 10000 1.05 41 09:38 24.01.2020
281 Clouds 26 1009 83 10000 1.05 41 09:38 24.01.2020
282 Clouds 26 1009 83 10000 1.05 41 09:20 24.01.2020
283 Clouds 26 1008 88 10000 1 0 08:40 24.01.2020
284 Clouds 26 1008 88 10000 1 0 08:19 24.01.2020
285 Clouds 27 1008 78 10000 3.1 130 07:50 24.01.2020
286 Clouds 27 1008 78 10000 3.1 130 07:28 24.01.2020
287 Clouds 30 1007 66 10000 3.1 150 06:48 24.01.2020
288 Clouds 30 1007 66 10000 3.1 150 06:28 24.01.2020
289 Clouds 29 1007 70 10000 3.6 170 05:57 24.01.2020
290 Clouds 31 1007 62 10000 3.1 160 04:52 24.01.2020
291 Clouds 29 1008 74 10000 4.1 170 02:53 24.01.2020
292 Clouds 29 1008 74 10000 4.1 170 02:23 24.01.2020
293 Clouds 29 1008 63 0 2.66 171 01:40 24.01.2020
294 Clouds 30 1009 70 10000 4.1 180 01:19 24.01.2020
295 Clouds 30 1009 70 10000 4.1 180 00:20 24.01.2020
296 Clouds 28 1009 74 10000 3.1 170 23:48 23.01.2020
297 Clouds 28 1009 74 10000 3.1 170 23:30 23.01.2020
298 Clouds 29 1009 74 10000 2.6 170 22:59 23.01.2020
299 Clouds 29 1009 74 10000 2.6 170 22:37 23.01.2020
300 Clouds 29 1009 74 10000 2.6 170 22:19 23.01.2020
301 Clouds 26 1009 88 10000 1.83 137 21:56 23.01.2020
302 Clouds 26 1009 88 10000 1.83 137 21:38 23.01.2020
303 Clouds 26 1009 88 10000 1.83 137 21:19 23.01.2020
304 Clouds 23 1009 100 10000 1.83 137 20:56 23.01.2020
305 Clouds 23 1009 100 10000 1.83 137 20:37 23.01.2020
306 Clouds 23 1009 100 10000 1.1 230 20:19 23.01.2020
307 Clouds 22 1008 100 10000 1.5 310 19:44 23.01.2020
308 Clouds 22 1008 100 10000 1.5 310 19:24 23.01.2020
309 Clouds 23 1008 94 10000 1.1 230 18:59 23.01.2020
310 Clouds 23 1008 94 10000 1.1 230 18:39 23.01.2020
311 Clouds 23 1008 94 10000 1.1 230 18:20 23.01.2020
312 Rain 22 1008 100 10000 1.1 230 17:56 23.01.2020
313 Rain 22 1008 100 10000 1.1 230 17:38 23.01.2020
314 Rain 22 1008 100 10000 1.01 253 17:18 23.01.2020
315 Clouds 23 1008 100 10000 1.01 253 16:39 23.01.2020
316 Clouds 23 1008 100 10000 1.01 253 16:20 23.01.2020
317 Clouds 23 1009 100 10000 1.01 253 15:58 23.01.2020
318 Clouds 23 1009 100 10000 1.01 253 15:40 23.01.2020
319 Clouds 23 1009 100 10000 1.01 253 15:19 23.01.2020
320 Clouds 23 1010 100 10000 1.5 310 14:59 23.01.2020
321 Clouds 23 1010 100 10000 1.5 310 14:41 23.01.2020
322 Clouds 23 1010 100 10000 1.5 310 14:22 23.01.2020
323 Clouds 24 1010 94 10000 1.5 300 13:56 23.01.2020
324 Clouds 24 1010 94 10000 1.5 300 13:37 23.01.2020
325 Clouds 24 1010 94 10000 1.5 300 13:18 23.01.2020
326 Clouds 25 1011 94 10000 0.25 250 12:43 23.01.2020
327 Clouds 25 1011 94 10000 0.25 250 12:24 23.01.2020
328 Clouds 25 1011 94 10000 0.25 250 11:56 23.01.2020
329 Clouds 25 1011 94 10000 0.25 250 11:37 23.01.2020
330 Clouds 25 1011 94 10000 1.68 130 11:18 23.01.2020
331 Clouds 25 1011 94 10000 0.74 99 11:18 23.01.2020
332 Clouds 25 1010 88 10000 0.74 99 10:43 23.01.2020
333 Clouds 25 1010 88 10000 0.74 99 10:19 23.01.2020
334 Clouds 25 1010 88 10000 1 160 09:43 23.01.2020
335 Clouds 25 1010 88 10000 1 160 09:25 23.01.2020
336 Rain 24 1009 90 0 0.74 99 08:58 23.01.2020
337 Rain 23 1009 95 0 1.68 130 08:58 23.01.2020
338 Rain 23 1009 95 0 1.68 130 08:40 23.01.2020
339 Rain 26 1008 77 0 2.01 140 08:21 23.01.2020
340 Rain 26 1008 77 0 2.01 140 07:44 23.01.2020
341 Clouds 28 1008 74 10000 4.6 160 07:24 23.01.2020
342 Clouds 28 1008 74 10000 4.6 160 06:51 23.01.2020
343 Clouds 28 1008 74 10000 4.6 160 06:51 23.01.2020
344 Clouds 28 1008 74 10000 4.6 160 06:20 23.01.2020
345 Clouds 28 1008 78 10000 4.1 150 05:37 23.01.2020
346 Clouds 27 1008 83 10000 4.6 190 04:24 23.01.2020
347 Rain 26 1009 88 10000 2.1 150 02:33 23.01.2020
348 Clouds 29 1009 66 10000 2.6 150 00:58 23.01.2020
349 Clouds 29 1009 66 10000 2.6 150 00:27 23.01.2020
350 Clouds 29 1009 66 10000 2.1 130 23:47 22.01.2020
351 Clouds 29 1009 66 10000 2.1 130 23:29 22.01.2020
352 Clouds 28 1010 69 10000 1 180 22:58 22.01.2020
353 Clouds 28 1010 69 10000 1 180 22:39 22.01.2020
354 Clouds 28 1010 69 10000 1 180 22:21 22.01.2020
355 Clouds 24 1010 88 10000 1 0 21:39 22.01.2020
356 Clouds 24 1010 88 10000 1 0 21:21 22.01.2020
357 Clouds 27 1009 68 0 0.87 133 20:56 22.01.2020
358 Clouds 27 1009 68 0 0.87 133 20:37 22.01.2020
359 Clouds 20 1008 89 0 1.41 296 20:18 22.01.2020
360 Clouds 20 1008 89 0 1.41 296 19:55 22.01.2020
361 Clouds 20 1008 89 0 1.41 296 19:37 22.01.2020
362 Clouds 20 1009 100 10000 2.6 320 19:18 22.01.2020
363 Clouds 20 1009 100 10000 2.6 320 18:55 22.01.2020
364 Clouds 20 1009 100 10000 2.6 320 18:37 22.01.2020
365 Clouds 20 1009 100 10000 2.6 320 18:18 22.01.2020
366 Clouds 20 1008 100 10000 2.1 350 17:40 22.01.2020
367 Clouds 20 1008 100 10000 2.1 350 17:21 22.01.2020
368 Clouds 21 1009 94 10000 2.1 310 16:58 22.01.2020
369 Clouds 21 1009 94 10000 2.1 310 16:39 22.01.2020
370 Clouds 21 1009 94 10000 2.1 310 16:21 22.01.2020
371 Clouds 21 1009 94 10000 1.5 290 15:55 22.01.2020
372 Clouds 21 1009 94 10000 1.5 290 15:37 22.01.2020
373 Clouds 21 1009 94 10000 1.5 290 15:18 22.01.2020
374 Clouds 20 1007 89 0 1.47 297 14:39 22.01.2020
375 Clear 20 1010 89 0 1.11 285 14:20 22.01.2020
376 Clear 20 1010 89 0 1.11 285 13:58 22.01.2020
377 Clear 20 1010 89 0 1.11 285 13:37 22.01.2020
378 Clouds 22 1011 94 10000 2.1 320 13:19 22.01.2020
379 Clouds 22 1011 94 10000 2.1 320 12:57 22.01.2020
380 Clouds 22 1011 94 10000 2.1 320 12:38 22.01.2020
381 Clouds 22 1011 94 10000 2.1 320 12:19 22.01.2020
382 Clouds 23 1011 94 10000 1.02 287 11:57 22.01.2020
383 Clouds 23 1011 94 10000 1.02 287 11:38 22.01.2020
384 Clouds 23 1011 94 10000 0.57 212 11:19 22.01.2020
385 Clouds 23 1011 94 10000 0.57 212 11:19 22.01.2020
386 Clouds 23 1011 94 10000 0.57 212 10:45 22.01.2020
387 Clouds 23 1011 94 10000 0.57 212 10:21 22.01.2020
388 Clouds 25 1010 83 10000 0.57 212 09:58 22.01.2020
389 Clouds 25 1010 83 10000 0.57 212 09:40 22.01.2020
390 Clouds 25 1010 83 10000 0.57 212 09:21 22.01.2020
391 Clouds 26 1009 78 10000 1.5 170 08:55 22.01.2020
392 Clouds 26 1009 78 10000 1.5 170 08:36 22.01.2020
393 Clouds 26 1009 78 10000 1.5 170 08:18 22.01.2020
394 Clouds 28 1008 61 10000 2.6 160 07:42 22.01.2020
395 Clouds 28 1008 61 10000 2.6 160 07:23 22.01.2020
396 Clouds 29 1008 58 10000 3.6 160 06:34 22.01.2020
397 Clouds 29 1008 54 10000 3.6 150 05:45 22.01.2020
398 Clouds 30 1009 45 10000 3.6 190 04:25 22.01.2020
399 Clouds 30 1009 45 10000 3.6 190 03:26 22.01.2020
400 Clouds 30 1009 45 10000 3.1 200 02:39 22.01.2020
401 Clouds 29 1010 54 10000 2.6 180 00:47 22.01.2020
402 Clouds 29 1010 54 10000 2.6 180 00:47 22.01.2020
403 Clouds 29 1010 54 10000 2.6 180 00:27 22.01.2020
404 Clouds 28 1010 58 10000 2.6 180 23:55 21.01.2020
405 Clouds 28 1010 58 10000 2.6 180 23:37 21.01.2020
406 Clouds 28 1010 58 10000 2.6 180 23:18 21.01.2020
407 Clouds 28 1010 61 10000 3.1 150 22:40 21.01.2020
408 Clouds 28 1010 61 10000 3.1 150 22:21 21.01.2020
409 Clouds 27 1010 69 10000 2.1 160 21:57 21.01.2020
410 Clouds 27 1010 69 10000 2.1 160 21:38 21.01.2020
411 Clouds 27 1010 69 10000 2.1 160 21:20 21.01.2020
412 Clouds 26 1010 64 0 1.41 150 20:56 21.01.2020
413 Clouds 26 1010 64 0 1.41 150 20:37 21.01.2020
414 Clouds 20 1009 87 0 0.1 266 20:19 21.01.2020
415 Clouds 20 1009 87 0 0.1 266 19:56 21.01.2020
416 Clouds 20 1009 87 0 0.1 266 19:56 21.01.2020
417 Clouds 20 1009 87 0 0.1 266 19:38 21.01.2020
418 Clouds 22 1009 94 10000 0.1 266 19:20 21.01.2020
419 Clouds 22 1009 94 10000 0.1 266 18:55 21.01.2020
420 Clouds 22 1009 94 10000 0.1 266 18:37 21.01.2020
421 Clouds 22 1009 94 10000 0.1 266 18:18 21.01.2020
422 Clouds 21 1008 94 10000 0.1 266 17:45 21.01.2020
423 Clouds 21 1008 94 10000 0.81 208 17:20 21.01.2020
424 Clouds 23 1009 88 10000 0.81 208 16:59 21.01.2020
425 Clouds 23 1009 88 10000 0.81 208 16:37 21.01.2020
426 Clouds 23 1009 88 10000 0.81 208 16:19 21.01.2020
427 Clouds 22 1009 94 10000 0.81 208 15:42 21.01.2020
428 Clouds 22 1009 94 10000 0.81 208 15:22 21.01.2020
429 Clouds 21 1008 79 0 0.81 208 14:59 21.01.2020
430 Clouds 21 1008 79 0 0.81 208 14:38 21.01.2020
431 Clouds 23 1010 78 0 1.1 161 14:19 21.01.2020
432 Clouds 23 1010 78 0 1.1 161 13:40 21.01.2020
433 Clouds 25 1011 83 10000 1.26 157 13:19 21.01.2020
434 Clouds 25 1011 83 10000 1.26 157 12:44 21.01.2020
435 Clouds 25 1011 83 10000 1.26 157 12:25 21.01.2020
436 Clouds 25 1011 73 10000 1.5 170 11:57 21.01.2020
437 Clouds 25 1011 73 10000 1.5 170 11:39 21.01.2020
438 Clouds 25 1011 73 10000 1.5 170 11:21 21.01.2020
439 Clouds 25 1010 73 10000 1.5 200 10:44 21.01.2020
440 Clouds 25 1010 73 10000 1.5 200 10:24 21.01.2020
441 Clouds 26 1010 65 10000 1.5 150 09:59 21.01.2020
442 Clouds 26 1010 65 10000 1.5 150 09:41 21.01.2020
443 -273 0 0 0 0 0 09:22 21.01.2020
444 Clouds 23 1010 75 0 1.5 161 08:48 21.01.2020
445 Clouds 23 1010 75 0 1.5 161 08:29 21.01.2020
446 Clouds 24 1008 72 0 1.96 169 07:57 21.01.2020
447 Clouds 24 1008 72 0 1.96 169 07:38 21.01.2020
448 Clouds 27 1008 61 10000 2.6 160 07:20 21.01.2020
449 Clouds 27 1008 61 10000 2.6 160 06:45 21.01.2020
450 Clouds 27 1008 61 10000 2.6 160 06:25 21.01.2020
451 Clouds 27 1008 61 10000 2.6 160 05:41 21.01.2020
452 Clouds 28 1008 54 10000 3.6 170 04:39 21.01.2020
453 Clouds 29 1009 58 10000 3.6 130 02:55 21.01.2020
454 Clouds 29 1009 62 10000 3.1 160 01:47 21.01.2020
455 Clouds 29 1010 58 10000 3.1 160 00:54 21.01.2020
456 Clouds 29 1010 58 10000 3.1 160 00:32 21.01.2020
457 Clouds 28 1010 61 10000 2.6 160 23:57 20.01.2020
458 Clouds 28 1010 61 10000 2.6 160 23:37 20.01.2020
459 Clouds 28 1010 61 10000 2.6 160 23:18 20.01.2020
460 Clouds 28 1010 69 10000 3.1 150 22:56 20.01.2020
461 Clouds 28 1010 69 10000 3.1 150 22:36 20.01.2020
462 Clouds 28 1010 69 10000 3.1 150 22:18 20.01.2020
463 Clouds 27 1010 69 10000 2.69 182 21:55 20.01.2020
464 Clouds 27 1010 69 10000 2.69 182 21:36 20.01.2020
465 Clouds 27 1010 69 10000 2.69 182 21:18 20.01.2020
466 Clouds 24 1009 88 10000 2.69 182 20:54 20.01.2020
467 Clouds 24 1009 88 10000 2.69 182 20:36 20.01.2020
468 Clouds 24 1009 88 10000 1.59 177 20:18 20.01.2020
469 Clouds 24 1009 88 10000 1.59 177 20:18 20.01.2020
470 Clouds 24 1009 88 10000 1.59 177 20:18 20.01.2020
471 Clouds 23 1008 77 0 1.59 177 19:54 20.01.2020
472 Clouds 23 1008 77 0 1.59 177 19:54 20.01.2020
473 Clouds 23 1008 77 0 1.59 177 19:36 20.01.2020
474 Clouds 22 1008 100 10000 1.59 177 19:18 20.01.2020
475 Clouds 22 1008 100 10000 1.59 177 18:42 20.01.2020
476 Clouds 22 1008 100 10000 1.59 177 18:21 20.01.2020
477 Clouds 22 1008 100 10000 1.59 177 17:39 20.01.2020
478 Clouds 22 1008 100 10000 1.65 181 17:19 20.01.2020
479 Clouds 22 1008 100 10000 1.65 181 16:48 20.01.2020
480 Clouds 22 1008 100 10000 1.65 181 16:26 20.01.2020
481 Clouds 23 1008 94 10000 1.65 181 15:59 20.01.2020
482 Clouds 23 1008 94 10000 1.65 181 15:40 20.01.2020
483 Clouds 23 1008 94 10000 1.65 181 15:22 20.01.2020
484 Clouds 23 1007 80 0 1.65 181 14:59 20.01.2020
485 Clouds 23 1007 80 0 1.65 181 14:40 20.01.2020
486 Clouds 23 1009 82 0 1.42 178 14:21 20.01.2020
487 Clouds 23 1009 82 0 1.42 178 13:56 20.01.2020
488 Clouds 23 1009 82 0 1.42 178 13:38 20.01.2020
489 Clouds 23 1009 82 0 1.42 178 13:38 20.01.2020
490 Clouds 24 1010 88 10000 1.61 174 13:18 20.01.2020
491 Clouds 24 1010 88 10000 1.61 174 12:42 20.01.2020
492 Clouds 24 1010 88 10000 1.61 174 12:23 20.01.2020
493 Clouds 25 1010 78 10000 1.61 174 11:55 20.01.2020
494 Clouds 25 1010 78 10000 1.61 174 11:36 20.01.2020
495 Clouds 25 1010 78 10000 1.63 162 11:18 20.01.2020
496 Clouds 26 1009 74 10000 1.63 162 10:41 20.01.2020
497 Clouds 26 1009 74 10000 1.63 162 10:20 20.01.2020
498 Clouds 23 1009 85 0 1.63 162 09:41 20.01.2020
499 Clouds 23 1009 85 0 1.63 162 09:23 20.01.2020
500 Clouds 23 1009 85 0 1.63 162 08:55 20.01.2020
501 Clouds 23 1009 85 0 1.63 162 08:31 20.01.2020
502 Rain 24 1006 88 0 2.85 165 07:55 20.01.2020
503 Rain 24 1006 88 0 2.85 165 07:55 20.01.2020
504 Rain 24 1006 88 0 2.85 165 07:37 20.01.2020
505 Clouds 27 1007 69 10000 2.1 180 07:19 20.01.2020
506 Clouds 27 1007 69 10000 2.1 180 06:36 20.01.2020
507 Clouds 27 1007 69 10000 3.1 170 05:56 20.01.2020
508 Clouds 27 1007 69 10000 3.1 170 05:37 20.01.2020
509 Clouds 27 1007 69 10000 3.1 170 05:18 20.01.2020
510 Clouds 28 1007 74 10000 3.6 170 03:47 20.01.2020
511 Clouds 28 1008 69 10000 4.6 200 01:58 20.01.2020
512 Clouds 28 1008 69 10000 4.6 200 01:39 20.01.2020
513 Clouds 28 1008 74 10000 3.1 140 00:55 20.01.2020
514 Clouds 28 1008 74 10000 3.1 140 00:28 20.01.2020
515 Rain 26 1008 83 10000 2.6 180 23:56 19.01.2020
516 Rain 26 1008 83 10000 2.6 180 23:37 19.01.2020
517 Rain 26 1008 83 10000 2.6 180 23:18 19.01.2020
518 Clouds 28 1008 69 10000 3.1 160 22:55 19.01.2020
519 Clouds 28 1008 69 10000 3.1 160 22:36 19.01.2020
520 Clouds 28 1008 69 10000 3.1 160 22:18 19.01.2020
521 Clouds 28 1007 78 10000 2.1 160 21:55 19.01.2020
522 Clouds 28 1007 78 10000 2.1 160 21:55 19.01.2020
523 Clouds 28 1007 78 10000 2.1 160 21:37 19.01.2020
524 Clouds 28 1007 78 10000 2.1 160 21:18 19.01.2020
525 Clouds 27 1007 68 0 2.61 172 20:55 19.01.2020
526 Clouds 27 1007 68 0 2.61 172 20:37 19.01.2020
527 Clouds 23 1006 85 0 1.86 191 20:18 19.01.2020
528 Clouds 23 1006 85 0 1.78 191 19:54 19.01.2020
529 Clouds 23 1006 85 0 1.78 191 19:36 19.01.2020
530 Clouds 24 1006 94 10000 1 0 19:18 19.01.2020
531 Clouds 24 1006 94 10000 1 0 18:54 19.01.2020
532 Clouds 24 1006 94 10000 1 0 18:36 19.01.2020
533 Clouds 24 1006 94 10000 1 0 18:18 19.01.2020
534 Clouds 24 1006 94 10000 1 0 17:56 19.01.2020
535 Clouds 24 1006 94 10000 1 0 17:38 19.01.2020
536 Clouds 24 1006 94 10000 1 0 17:18 19.01.2020
537 Clouds 23 1006 100 10000 1.5 280 16:55 19.01.2020
538 Clouds 23 1006 100 10000 1.5 280 16:36 19.01.2020
539 Clouds 23 1006 100 10000 1.5 280 16:18 19.01.2020
540 Clouds 23 1006 100 10000 2.1 310 15:41 19.01.2020
541 Clouds 23 1006 100 10000 2.1 310 15:22 19.01.2020
542 Clouds 23 1006 100 10000 2.1 310 15:22 19.01.2020
543 Clouds 23 1005 89 0 1.45 197 14:59 19.01.2020
544 Clouds 23 1005 89 0 1.45 197 14:40 19.01.2020
545 Clouds 23 1007 91 0 1.22 182 14:19 19.01.2020
546 Clouds 23 1007 91 0 1.22 182 13:58 19.01.2020
547 Clouds 23 1007 91 0 1.22 182 13:39 19.01.2020
548 Clouds 25 1008 94 10000 2.1 310 13:21 19.01.2020
549 Clouds 25 1008 94 10000 2.1 310 12:58 19.01.2020
550 Clouds 25 1008 94 10000 2.1 310 12:58 19.01.2020
551 Clouds 25 1008 94 10000 2.1 310 12:58 19.01.2020
552 Clouds 25 1008 94 10000 2.1 310 12:40 19.01.2020
553 Clouds 25 1008 94 10000 2.1 310 12:40 19.01.2020
554 Clouds 25 1008 94 10000 2.1 310 12:21 19.01.2020
555 Clouds 26 1008 83 10000 1 0 11:56 19.01.2020
556 Clouds 26 1008 83 10000 1 0 11:37 19.01.2020
557 Clouds 26 1008 83 10000 1 0 11:18 19.01.2020
558 Clouds 26 1007 83 10000 1 0 10:39 19.01.2020
559 Clouds 26 1007 83 10000 1 0 10:20 19.01.2020
560 Clouds 27 1007 74 10000 1 0 09:57 19.01.2020
561 Clouds 27 1007 74 10000 1 0 09:57 19.01.2020
562 Clouds 27 1007 74 10000 1 0 09:57 19.01.2020
563 Clouds 27 1007 74 10000 1 0 09:38 19.01.2020
564 Clouds 27 1007 74 10000 1 0 09:19 19.01.2020
565 Clouds 27 1006 74 10000 1.5 170 08:54 19.01.2020
566 Clouds 27 1006 74 10000 1.5 170 08:31 19.01.2020
567 Clouds 28 1005 69 10000 3.1 160 07:49 19.01.2020
568 Clouds 28 1005 69 10000 3.1 160 07:28 19.01.2020
569 Clouds 29 1004 70 10000 3.1 170 06:55 19.01.2020
570 Clouds 29 1004 70 10000 3.1 170 06:21 19.01.2020
571 Clouds 30 1004 66 10000 3.6 170 03:52 19.01.2020
572 Rain 27 1003 74 0 3.97 178 02:32 19.01.2020
573 Rain 27 1004 84 0 3.58 180 01:39 19.01.2020
574 Clouds 28 1005 83 10000 2.6 180 01:18 19.01.2020
575 Clouds 28 1005 83 10000 2.6 180 00:44 19.01.2020
576 Rain 25 1006 94 10000 4.1 180 00:19 19.01.2020
577 Rain 25 1006 94 10000 4.1 180 23:42 18.01.2020
578 Rain 25 1006 94 10000 4.1 180 23:24 18.01.2020
579 Rain 26 1005 88 10000 2.1 220 22:58 18.01.2020
580 Rain 26 1005 88 10000 2.1 220 22:40 18.01.2020
581 Rain 26 1005 88 10000 2.1 220 22:21 18.01.2020
582 Rain 26 1005 88 10000 3.7 191 21:57 18.01.2020
583 Rain 26 1005 88 10000 3.7 191 21:38 18.01.2020
584 Rain 26 1005 88 10000 3.7 191 21:20 18.01.2020
585 Clouds 25 1004 94 10000 1.5 190 20:44 18.01.2020
586 Clouds 25 1004 94 10000 1.5 190 20:22 18.01.2020
587 Clouds 26 1003 94 10000 2.31 202 19:59 18.01.2020
588 Clouds 26 1003 94 10000 2.31 202 19:41 18.01.2020
589 Clouds 26 1003 94 10000 2.31 202 19:22 18.01.2020
590 Clouds 25 1002 94 10000 1 230 18:43 18.01.2020
591 Clouds 25 1002 94 10000 1 230 18:24 18.01.2020
592 Clouds 25 1002 100 10000 1.5 210 17:56 18.01.2020
593 Clouds 25 1002 100 10000 1.5 210 17:38 18.01.2020
594 Clouds 25 1002 100 10000 1.5 210 17:19 18.01.2020
595 Clouds 26 1002 94 10000 1.5 240 16:55 18.01.2020
596 Clouds 26 1002 94 10000 1.5 240 16:36 18.01.2020
597 Clouds 26 1002 94 10000 1.5 240 16:18 18.01.2020
598 Rain 26 1001 94 10000 1.5 230 15:42 18.01.2020
599 Rain 26 1001 94 10000 1.5 230 15:24 18.01.2020
600 Clouds 26 1002 94 10000 1.5 220 14:57 18.01.2020
601 Clouds 26 1002 94 10000 1.5 220 14:39 18.01.2020
602 Clouds 26 1002 94 10000 1.5 220 14:18 18.01.2020
603 Rain 26 1002 94 10000 1 230 13:44 18.01.2020
604 Rain 26 1002 94 10000 1 230 13:26 18.01.2020
605 Clouds 26 1002 94 10000 1.5 230 12:58 18.01.2020
606 Clouds 26 1002 94 10000 1.5 230 12:39 18.01.2020
607 Clouds 26 1002 94 10000 1.5 230 12:20 18.01.2020
608 Clouds 26 1002 94 10000 2.1 240 11:44 18.01.2020
609 Clouds 26 1002 94 10000 2.1 240 11:21 18.01.2020
610 Clouds 26 1001 94 10000 1.5 220 10:57 18.01.2020
611 Clouds 26 1001 94 10000 1.5 220 10:38 18.01.2020
612 Clouds 26 1001 94 10000 1.5 220 10:19 18.01.2020
613 Rain 26 1001 88 10000 2.6 230 09:43 18.01.2020
614 Rain 26 1001 88 10000 2.6 230 09:24 18.01.2020
615 Rain 25 1001 93 0 3.55 198 08:55 18.01.2020
616 Rain 25 1001 93 0 3.55 198 08:37 18.01.2020
617 Rain 26 998 87 0 4.67 196 08:18 18.01.2020
618 Rain 26 998 88 0 4.07 194 07:45 18.01.2020
619 Clouds 28 997 83 10000 5.1 230 07:26 18.01.2020
620 Clouds 28 997 83 10000 5.1 230 06:47 18.01.2020
621 Clouds 28 997 83 10000 5.7 210 05:58 18.01.2020
622 Clouds 29 997 79 10000 5.1 220 04:36 18.01.2020
623 Rain 28 996 76 0 5.44 193 02:53 18.01.2020
624 Rain 28 996 76 0 5.44 193 02:53 18.01.2020
625 Rain 27 996 91 0 5.21 186 01:51 18.01.2020
626 Clouds 29 997 83 10000 5.7 230 01:20 18.01.2020
627 Clouds 29 997 83 10000 5.7 230 00:36 18.01.2020
628 Clouds 29 997 83 10000 5.7 230 00:18 18.01.2020
629 Rain 25 997 94 10000 6.2 180 23:40 17.01.2020
630 Rain 25 997 94 10000 6.2 180 23:19 17.01.2020
631 Rain 26 997 94 10000 5.1 210 22:44 17.01.2020
632 Rain 26 997 94 10000 5.1 210 22:21 17.01.2020
633 Rain 26 996 94 0 4.48 189 21:58 17.01.2020
634 Rain 26 996 94 0 4.48 189 21:40 17.01.2020
635 Rain 26 996 94 0 4.48 189 21:22 17.01.2020
636 Rain 26 996 94 0 4.48 189 20:55 17.01.2020
637 Rain 26 996 94 0 4.48 189 20:37 17.01.2020
638 Rain 25 994 94 0 4.54 189 20:18 17.01.2020
639 Rain 25 993 94 0 4.98 191 19:54 17.01.2020
640 Rain 25 993 94 0 4.98 191 19:36 17.01.2020
641 Clouds 27 994 88 10000 4.6 200 19:18 17.01.2020
642 Clouds 27 994 88 10000 4.6 200 18:44 17.01.2020
643 Clouds 27 994 88 10000 4.6 200 18:26 17.01.2020
644 Clouds 26 994 94 10000 4.6 190 17:56 17.01.2020
645 Clouds 26 994 94 10000 4.6 190 17:38 17.01.2020
646 Clouds 26 994 94 10000 4.6 190 17:19 17.01.2020
647 Clouds 27 993 88 10000 5.7 190 16:41 17.01.2020
648 Clouds 27 993 88 10000 5.7 190 16:20 17.01.2020
649 Rain 26 994 94 10000 4.6 180 15:48 17.01.2020
650 Rain 26 994 94 10000 4.6 180 15:27 17.01.2020
651 Rain 25 990 94 0 5.67 178 14:54 17.01.2020
652 Rain 25 990 94 0 5.67 178 14:36 17.01.2020
653 Rain 25 993 95 0 5.19 167 14:18 17.01.2020
654 Rain 25 993 95 0 5.19 167 13:39 17.01.2020
655 Rain 26 995 94 10000 3.6 170 13:19 17.01.2020
656 Rain 26 995 94 10000 3.6 170 12:45 17.01.2020
657 Rain 26 995 94 10000 3.6 170 12:22 17.01.2020
658 Clouds 27 995 88 10000 4.6 150 11:40 17.01.2020
659 Clouds 27 995 88 10000 4.6 150 11:19 17.01.2020
660 Clouds 27 994 88 10000 3.6 140 10:45 17.01.2020
661 Clouds 27 994 88 10000 3.6 140 10:23 17.01.2020
662 Clouds 27 994 88 10000 3.6 140 09:59 17.01.2020
663 Clouds 27 994 88 10000 3.6 140 09:59 17.01.2020
664 Clouds 27 994 88 10000 3.6 140 09:41 17.01.2020
665 Clouds 27 994 88 10000 3.6 140 09:20 17.01.2020
666 Clouds 27 994 88 10000 3.6 140 09:20 17.01.2020
667 Clouds 26 994 94 10000 4.1 140 08:46 17.01.2020
668 Clouds 26 994 94 10000 4.1 140 08:25 17.01.2020
669 Clouds 26 994 94 10000 4.1 140 08:25 17.01.2020
670 Rain 27 993 94 10000 4.1 140 07:56 17.01.2020
671 Rain 27 993 94 10000 4.1 140 07:56 17.01.2020
672 Rain 27 993 94 10000 4.1 140 07:34 17.01.2020
673 Clouds 27 992 51 10000 5.7 120 06:59 17.01.2020
674 Clouds 27 992 51 10000 5.7 120 06:41 17.01.2020
675 Clouds 26 993 94 10000 4.1 110 05:57 17.01.2020
676 Rain 24 989 96 0 5.48 120 03:39 17.01.2020
677 Rain 24 989 96 0 5.48 120 02:53 17.01.2020
678 Rain 25 992 96 0 3.87 99 01:48 17.01.2020
679 Rain 25 991 93 0 4.51 100 01:29 17.01.2020
680 Rain 25 991 93 0 4.51 100 00:51 17.01.2020
681 Clouds 27 997 94 10000 3.1 90 00:28 17.01.2020
682 Clouds 27 997 94 10000 3.1 90 23:46 16.01.2020
683 Clouds 27 997 94 10000 3.1 90 23:46 16.01.2020
684 Clouds 27 997 94 10000 3.1 90 23:26 16.01.2020
685 Rain 27 997 94 10000 4.6 90 22:58 16.01.2020
686 Rain 27 997 94 10000 4.6 90 22:40 16.01.2020
687 Rain 27 997 94 10000 4.6 90 22:20 16.01.2020
688 Clouds 27 997 94 10000 4.6 100 21:55 16.01.2020
689 Clouds 27 997 94 10000 4.6 100 21:37 16.01.2020
690 Clouds 27 997 94 10000 4.6 100 21:18 16.01.2020
691 Rain 26 993 95 0 3.95 99 20:41 16.01.2020
692 Rain 25 994 95 0 4.1 117 20:21 16.01.2020
693 Rain 25 994 95 0 4.1 117 19:59 16.01.2020
694 Rain 25 994 95 0 4.1 117 19:41 16.01.2020
695 Clouds 27 997 94 10000 3.6 120 19:22 16.01.2020
696 Clouds 27 997 94 10000 3.6 120 19:22 16.01.2020
697 Clouds 27 997 94 10000 3.6 120 18:57 16.01.2020
698 Clouds 27 997 94 10000 3.6 120 18:38 16.01.2020
699 Clouds 27 997 94 10000 3.6 120 18:20 16.01.2020
700 Clouds 27 996 94 10000 3.1 110 17:59 16.01.2020
701 Clouds 27 996 94 10000 3.1 110 17:59 16.01.2020
702 Clouds 27 996 94 10000 3.1 110 17:40 16.01.2020
703 Clouds 27 996 94 10000 3.1 110 17:20 16.01.2020
704 Clouds 27 997 94 10000 4.6 110 16:42 16.01.2020
705 Clouds 27 997 94 10000 4.6 110 16:24 16.01.2020
706 Clouds 27 997 94 10000 5.1 100 15:59 16.01.2020
707 Clouds 27 997 94 10000 5.1 100 15:39 16.01.2020
708 Clouds 27 997 94 10000 5.1 100 15:20 16.01.2020
709 Rain 25 995 96 0 3.61 107 14:45 16.01.2020
710 Rain 25 998 96 0 3.31 115 14:24 16.01.2020
711 Rain 25 998 96 0 3.31 115 13:56 16.01.2020
712 Rain 25 998 96 0 3.31 115 13:37 16.01.2020
713 Clouds 27 1000 94 10000 4.1 120 13:19 16.01.2020
714 Clouds 27 1000 94 10000 4.1 120 12:42 16.01.2020
715 Clouds 27 1000 94 10000 4.1 120 12:22 16.01.2020
716 Clouds 27 1000 88 10000 3.6 120 11:43 16.01.2020
717 Clouds 27 1000 88 10000 3.6 120 11:24 16.01.2020
718 Clouds 27 1000 88 10000 2.6 120 10:59 16.01.2020
719 Clouds 27 1000 88 10000 2.6 120 10:38 16.01.2020
720 Clouds 27 1000 88 10000 2.6 120 10:20 16.01.2020
721 Clouds 26 1000 94 10000 2.6 110 09:56 16.01.2020
722 Clouds 26 1000 94 10000 2.6 110 09:37 16.01.2020
723 Clouds 26 1000 94 10000 2.6 110 09:18 16.01.2020
724 Rain 25 999 96 0 3.76 111 08:44 16.01.2020
725 Rain 25 999 96 0 3.76 111 08:23 16.01.2020
726 Rain 25 997 96 0 3.21 105 07:43 16.01.2020
727 Rain 26 999 94 10000 4.1 100 07:25 16.01.2020
728 Rain 26 999 94 10000 4.1 100 06:56 16.01.2020
729 Rain 26 999 94 10000 4.1 100 06:37 16.01.2020
730 Clouds 28 998 83 10000 6.7 100 05:56 16.01.2020
731 Clouds 28 998 83 10000 6.7 100 05:30 16.01.2020
732 Clouds 26 999 100 10000 5.7 100 04:37 16.01.2020
733 Clouds 26 999 100 10000 5.7 100 04:37 16.01.2020
734 Clouds 29 999 79 10000 7.2 100 03:27 16.01.2020
735 Clouds 28 1000 88 10000 6.7 110 02:24 16.01.2020
736 Rain 26 1001 100 10000 2.1 140 00:44 16.01.2020
737 Rain 26 1001 100 8000 6.2 110 00:24 16.01.2020
738 Rain 27 1001 94 5000 4.6 100 23:46 15.01.2020
739 Rain 27 1001 94 5000 4.6 100 23:46 15.01.2020
740 Drizzle 28 1001 88 10000 5.1 90 23:22 15.01.2020
741 Clouds 28 1002 88 10000 4.1 110 22:57 15.01.2020
742 Clouds 28 1002 88 10000 4.1 110 22:39 15.01.2020
743 Clouds 28 1002 88 10000 4.1 110 22:19 15.01.2020
744 Clouds 27 1002 94 10000 3.1 100 21:57 15.01.2020
745 Clouds 27 1002 94 10000 3.1 100 21:37 15.01.2020
746 Clouds 27 1002 94 10000 3.1 100 21:19 15.01.2020
747 Clouds 26 1002 94 10000 1.5 120 20:56 15.01.2020
748 Clouds 26 1002 94 10000 1.5 120 20:38 15.01.2020
749 Clouds 26 1002 94 10000 1.5 120 20:19 15.01.2020
750 Clouds 25 1001 94 10000 1 220 19:54 15.01.2020
751 Clouds 25 1001 94 10000 1 220 19:36 15.01.2020
752 Clouds 25 1001 94 10000 1 220 19:18 15.01.2020
753 Rain 25 1001 94 10000 1.85 101 18:56 15.01.2020
754 Rain 25 1001 94 10000 1.85 101 18:37 15.01.2020
755 Rain 25 1001 94 10000 1.85 101 18:37 15.01.2020
756 Rain 25 1001 94 10000 1.85 101 18:19 15.01.2020
757 Rain 25 1001 100 10000 3.1 90 17:55 15.01.2020
758 Rain 25 1001 100 10000 3.1 90 17:36 15.01.2020
759 Rain 25 1001 100 10000 3.1 90 17:18 15.01.2020
760 Rain 26 1001 94 10000 3.6 110 16:40 15.01.2020
761 Rain 26 1001 94 10000 3.6 110 16:21 15.01.2020
762 Rain 26 1001 94 10000 3.6 110 16:21 15.01.2020
763 Rain 25 1001 100 10000 1 0 15:56 15.01.2020
764 Rain 25 1001 100 10000 1 0 15:38 15.01.2020
765 Rain 25 1001 100 10000 1 0 15:18 15.01.2020
766 Clouds 25 1002 100 10000 1.5 150 14:42 15.01.2020
767 Clouds 25 1002 100 10000 1.5 150 14:19 15.01.2020
768 Clouds 25 1003 100 10000 1 0 13:46 15.01.2020
769 Clouds 25 1003 100 10000 1 0 13:26 15.01.2020
770 Rain 25 1004 94 10000 2.6 140 12:59 15.01.2020
771 Rain 25 1004 94 10000 2.6 140 12:39 15.01.2020
772 Rain 25 1004 94 10000 2.6 140 12:19 15.01.2020
773 Rain 25 1004 94 10000 3.6 120 11:56 15.01.2020
774 Rain 25 1004 94 10000 3.6 120 11:37 15.01.2020
775 Rain 25 1004 94 10000 3.6 120 11:19 15.01.2020
776 Rain 25 1004 100 5000 7.7 90 10:42 15.01.2020
777 Rain 25 1004 100 5000 7.7 90 10:24 15.01.2020
778 Rain 25 1004 100 5000 6.7 80 09:42 15.01.2020
779 Rain 26 1003 94 10000 2.6 110 09:23 15.01.2020
780 Clouds 27 1003 94 10000 3.1 110 08:56 15.01.2020
781 Clouds 27 1003 94 10000 3.1 110 08:37 15.01.2020
782 Clouds 27 1003 94 10000 3.1 110 08:19 15.01.2020
783 Rain 26 1002 93 0 2.81 108 07:50 15.01.2020
784 Clouds 28 1002 83 10000 2.6 120 07:29 15.01.2020
785 Clouds 28 1002 83 10000 2.6 120 06:44 15.01.2020
786 Clouds 28 1002 83 10000 2.6 120 06:18 15.01.2020
787 Clouds 29 1003 66 10000 6.7 120 04:34 15.01.2020
788 Clouds 30 1003 70 10000 6.2 110 02:30 15.01.2020
789 Clouds 29 1004 74 10000 5.7 100 01:25 15.01.2020
790 Clouds 29 1004 74 10000 5.7 120 00:45 15.01.2020
791 Clouds 29 1004 74 10000 5.7 120 00:26 15.01.2020
792 Clouds 29 1005 74 10000 5.1 110 23:47 14.01.2020
793 Clouds 29 1005 74 10000 5.1 110 23:29 14.01.2020
794 Clouds 29 1005 79 10000 5.7 100 22:59 14.01.2020
795 Clouds 29 1005 79 10000 5.7 100 22:40 14.01.2020
796 Clouds 29 1005 79 10000 5.7 100 22:19 14.01.2020
797 Clouds 28 1005 78 10000 6.2 110 21:58 14.01.2020
798 Clouds 28 1005 78 10000 6.2 110 21:39 14.01.2020
799 Clouds 28 1005 78 10000 6.2 110 21:39 14.01.2020
800 Clouds 28 1005 78 10000 6.2 110 21:20 14.01.2020
801 Clouds 27 1005 83 10000 3.1 110 20:56 14.01.2020
802 Rain 26 1004 92 0 3.18 102 20:38 14.01.2020
803 Rain 24 1004 95 0 1.26 82 20:19 14.01.2020
804 Rain 24 1004 95 0 1.26 82 19:55 14.01.2020
805 Rain 24 1004 95 0 1.26 82 19:37 14.01.2020
806 Clouds 26 1004 88 10000 2.1 100 19:18 14.01.2020
807 Rain 24 1004 95 0 1.26 82 18:41 14.01.2020
808 Clouds 26 1004 88 10000 2.6 110 18:20 14.01.2020
809 Clouds 26 1004 88 10000 2.6 110 17:58 14.01.2020
810 Clouds 26 1004 88 10000 2.6 110 17:37 14.01.2020
811 Clouds 26 1004 88 10000 2.6 110 17:18 14.01.2020
812 Clouds 26 1004 88 10000 1.5 90 16:44 14.01.2020
813 Clouds 26 1004 88 10000 1.5 90 16:23 14.01.2020
814 Clouds 26 1005 88 10000 2.6 100 15:58 14.01.2020
815 Clouds 26 1005 88 10000 2.6 100 15:40 14.01.2020
816 Clouds 26 1005 88 10000 2.6 100 15:19 14.01.2020
817 Rain 26 1005 94 10000 0.9 96 14:45 14.01.2020
818 Rain 26 1005 94 10000 0.82 82 14:21 14.01.2020
819 Rain 24 1005 95 0 0.82 82 13:57 14.01.2020
820 Rain 24 1005 95 0 0.82 82 13:38 14.01.2020
821 Clouds 27 1007 83 10000 0.79 89 13:18 14.01.2020
822 Clouds 27 1007 83 10000 0.79 89 12:42 14.01.2020
823 Clouds 27 1007 83 10000 0.79 89 12:22 14.01.2020
824 Clouds 27 1007 88 10000 1.5 120 11:56 14.01.2020
825 Clouds 27 1007 88 10000 1.5 120 11:36 14.01.2020
826 Clouds 27 1007 88 10000 1.5 120 11:18 14.01.2020
827 Clouds 27 1007 83 10000 2.1 110 10:40 14.01.2020
828 Clouds 27 1007 83 10000 2.1 110 10:20 14.01.2020
829 Clouds 27 1006 83 10000 3.1 110 09:58 14.01.2020
830 Clouds 27 1006 83 10000 3.1 110 09:40 14.01.2020
831 Clouds 27 1006 83 10000 3.1 110 09:21 14.01.2020
832 Clouds 27 1006 83 10000 4.6 110 08:48 14.01.2020
833 Clouds 27 1006 83 10000 4.6 110 08:26 14.01.2020
834 Clouds 28 1005 83 10000 4.6 120 07:56 14.01.2020
835 Clouds 28 1005 83 10000 4.6 120 07:37 14.01.2020
836 Clouds 28 1005 78 10000 6.2 120 06:57 14.01.2020
837 Clouds 28 1005 78 10000 6.2 120 06:39 14.01.2020
838 Clouds 28 1005 78 10000 6.2 120 06:39 14.01.2020
839 Clouds 28 1005 83 10000 5.1 130 05:28 14.01.2020
840 Clouds 30 1005 74 10000 4.6 130 03:57 14.01.2020
841 Clouds 30 1005 74 10000 4.6 130 03:35 14.01.2020
842 Rain 27 1005 87 0 2.96 93 01:58 14.01.2020
843 Clouds 31 1006 66 10000 4.6 80 01:18 14.01.2020
844 Clouds 31 1006 66 10000 4.6 80 00:38 14.01.2020
845 Clouds 29 1006 79 10000 3.6 100 23:59 13.01.2020
846 Clouds 29 1006 79 10000 3.6 100 23:37 13.01.2020
847 Clouds 29 1006 79 10000 3.6 100 23:18 13.01.2020
848 Clouds 28 1007 78 10000 2.6 70 22:45 13.01.2020
849 Clouds 28 1007 78 10000 2.6 70 22:22 13.01.2020
850 Clouds 27 1007 88 10000 1 350 21:58 13.01.2020
851 Clouds 27 1007 88 10000 1 350 21:58 13.01.2020
852 Clouds 27 1007 88 10000 1 350 21:39 13.01.2020
853 Clouds 27 1007 88 10000 1 350 21:19 13.01.2020
854 Clouds 25 1007 94 10000 2.6 40 20:59 13.01.2020
855 Clouds 25 1007 94 10000 2.6 40 20:41 13.01.2020
856 Clouds 25 1007 94 10000 2.6 40 20:22 13.01.2020
857 Clouds 25 1006 94 10000 1 330 19:59 13.01.2020
858 Clouds 25 1006 94 10000 1 330 19:40 13.01.2020
859 Clouds 25 1006 94 10000 1 330 19:20 13.01.2020
860 Clouds 25 1006 94 10000 0.41 16 18:56 13.01.2020
861 Clouds 25 1006 94 10000 0.41 16 18:37 13.01.2020
862 Clouds 25 1006 94 10000 0.41 16 18:19 13.01.2020
863 Clouds 25 1006 100 10000 0.41 16 17:43 13.01.2020
864 Clouds 25 1006 100 10000 0.13 59 17:25 13.01.2020
865 Clouds 25 1006 100 10000 0.13 59 16:57 13.01.2020
866 Clouds 24 1005 95 0 0.13 59 16:38 13.01.2020
867 Clouds 24 1005 95 0 0.13 59 16:20 13.01.2020
868 Clouds 24 1005 95 0 0.13 59 15:44 13.01.2020
869 Clouds 24 1005 95 0 0.13 59 15:24 13.01.2020
870 Clouds 24 1005 95 0 0.13 59 14:59 13.01.2020
871 Clouds 24 1005 95 0 0.13 59 14:39 13.01.2020
872 Clouds 24 1005 95 0 0.13 59 14:39 13.01.2020
873 Clouds 24 1005 95 0 0.13 59 14:39 13.01.2020
874 Rain 24 1007 94 0 0.84 59 14:20 13.01.2020
875 Rain 24 1007 94 0 0.84 59 13:55 13.01.2020
876 Rain 24 1007 94 0 0.84 59 13:37 13.01.2020
877 Rain 24 1007 94 0 0.82 73 13:19 13.01.2020
878 Rain 24 1007 94 0 0.82 73 12:43 13.01.2020
879 Clouds 27 1008 83 10000 1.5 90 12:23 13.01.2020
880 Clouds 27 1008 83 10000 1.5 90 11:57 13.01.2020
881 Clouds 27 1008 83 10000 1.5 90 11:37 13.01.2020
882 Clouds 27 1008 83 10000 1.5 90 11:37 13.01.2020
883 Clouds 27 1008 83 10000 1.5 90 11:19 13.01.2020
884 Clouds 27 1008 83 10000 2.1 100 10:56 13.01.2020
885 Clouds 27 1008 83 10000 2.1 100 10:37 13.01.2020
886 Clouds 27 1008 83 10000 2.1 100 10:37 13.01.2020
887 Clouds 27 1008 83 10000 2.1 100 10:19 13.01.2020
888 Clouds 27 1008 83 10000 2.6 110 09:43 13.01.2020
889 Clouds 27 1008 83 10000 2.6 110 09:24 13.01.2020
890 Rain 24 1006 95 0 1.61 84 08:56 13.01.2020
891 Rain 24 1006 95 0 1.61 84 08:36 13.01.2020
892 Rain 25 1005 95 0 1.72 89 08:18 13.01.2020
893 Rain 25 1005 95 0 1.72 89 07:42 13.01.2020
894 Clouds 29 1006 79 10000 4.6 110 07:21 13.01.2020
895 Clouds 29 1006 79 10000 4.6 110 06:37 13.01.2020
896 Clouds 29 1006 74 10000 5.7 100 05:37 13.01.2020
897 Clouds 29 1006 74 10000 6.2 110 04:26 13.01.2020
898 Rain 26 1005 93 0 1.82 71 03:36 13.01.2020
899 Clouds 29 1007 79 10000 5.7 90 02:49 13.01.2020
900 Clouds 29 1007 79 10000 5.7 90 02:30 13.01.2020
901 Clouds 29 1007 79 10000 5.7 90 02:30 13.01.2020
902 Clouds 30 1007 70 10000 5.7 100 01:33 13.01.2020
903 Clouds 30 1007 74 10000 4.1 100 00:44 13.01.2020
904 Clouds 30 1007 74 10000 4.1 100 00:25 13.01.2020
905 Clouds 28 1008 83 10000 2.1 150 23:57 12.01.2020
906 Clouds 28 1008 83 10000 2.1 150 23:38 12.01.2020
907 Clouds 28 1008 83 10000 2.1 150 23:20 12.01.2020
908 Rain 27 1008 88 10000 1.5 170 22:43 12.01.2020
909 Rain 27 1008 88 10000 1.5 170 22:24 12.01.2020
910 Clouds 25 1008 94 10000 1 0 21:59 12.01.2020
911 Clouds 25 1008 94 10000 1 0 21:59 12.01.2020
912 Clouds 25 1008 94 10000 1 0 21:40 12.01.2020
913 Clouds 25 1008 94 10000 1 0 21:20 12.01.2020
914 Clouds 24 1007 94 10000 1 0 20:57 12.01.2020
915 Clouds 24 1007 94 10000 1 0 20:39 12.01.2020
916 Clouds 24 1007 94 10000 1 0 20:20 12.01.2020
917 Clouds 24 1007 94 10000 1.5 130 19:56 12.01.2020
918 Clouds 24 1007 94 10000 1.5 130 19:38 12.01.2020
919 Clouds 24 1007 94 10000 1.5 130 19:19 12.01.2020
920 Rain 24 1007 100 5000 1 0 18:58 12.01.2020
921 Rain 24 1007 100 5000 1 0 18:58 12.01.2020
922 Rain 24 1007 100 5000 1 0 18:39 12.01.2020
923 Rain 24 1007 100 5000 1 0 18:21 12.01.2020
924 Rain 25 1007 94 5000 4.1 70 17:57 12.01.2020
925 Drizzle 26 1006 94 10000 2.6 120 17:38 12.01.2020
926 Drizzle 26 1006 94 10000 2.6 120 17:19 12.01.2020
927 Clouds 26 1006 94 10000 0.89 55 16:55 12.01.2020
928 Clouds 26 1006 94 10000 0.89 55 16:55 12.01.2020
929 Clouds 26 1006 94 10000 0.89 55 16:37 12.01.2020
930 Clouds 26 1006 94 10000 0.89 55 16:18 12.01.2020
931 Clouds 26 1007 88 10000 0.89 55 15:42 12.01.2020
932 Clouds 26 1007 88 10000 0.89 55 15:24 12.01.2020
933 Clouds 26 1007 88 10000 0.89 55 15:24 12.01.2020
934 Clouds 26 1008 94 10000 0.89 55 14:56 12.01.2020
935 Clouds 26 1008 94 10000 0.89 55 14:37 12.01.2020
936 Clouds 26 1008 94 10000 0.54 26 14:18 12.01.2020
937 Clouds 26 1008 94 10000 1.5 130 13:42 12.01.2020
938 Clouds 26 1008 94 10000 1.5 130 13:23 12.01.2020
939 Clouds 27 1009 88 10000 1.5 80 12:58 12.01.2020
940 Clouds 27 1009 88 10000 1.5 80 12:38 12.01.2020
941 Clouds 27 1009 88 10000 1.5 80 12:20 12.01.2020
942 Rain 27 1009 88 10000 0.76 48 11:57 12.01.2020
943 Rain 27 1009 88 10000 0.76 48 11:38 12.01.2020
944 Rain 27 1009 88 10000 1.37 92 11:19 12.01.2020
945 Clouds 27 1009 88 10000 3.1 70 10:41 12.01.2020
946 Clouds 27 1009 88 10000 3.1 70 10:21 12.01.2020
947 Rain 28 1008 83 10000 2.6 130 09:56 12.01.2020
948 Rain 28 1008 83 10000 2.6 130 09:38 12.01.2020
949 Rain 28 1008 83 10000 2.6 130 09:18 12.01.2020
950 Rain 28 1008 83 10000 2.1 110 08:42 12.01.2020
951 Rain 28 1008 83 10000 2.1 110 08:19 12.01.2020
952 Clouds 28 1007 78 10000 1.5 120 07:40 12.01.2020
953 Clouds 28 1007 78 10000 1.5 120 07:21 12.01.2020
954 Clouds 28 1007 78 10000 3.1 130 06:43 12.01.2020
955 Clouds 28 1007 78 10000 3.1 130 06:24 12.01.2020
956 Clouds 29 1007 74 10000 2.6 110 05:23 12.01.2020
957 Clouds 29 1007 70 10000 5.1 90 03:55 12.01.2020
958 Clouds 29 1007 70 10000 5.1 90 03:22 12.01.2020
959 Rain 25 1005 95 0 1.84 94 02:33 12.01.2020
960 Rain 27 1007 90 0 2.94 96 01:42 12.01.2020
961 Rain 27 1007 90 0 2.93 95 01:22 12.01.2020
962 Rain 27 1007 90 0 2.93 95 00:40 12.01.2020
963 Rain 27 1007 90 0 2.93 95 00:40 12.01.2020
964 Rain 27 1007 90 0 2.93 95 00:20 12.01.2020
965 Rain 27 1007 90 0 2.93 95 23:42 11.01.2020
966 Rain 26 1008 90 0 2.24 98 23:19 11.01.2020
967 Rain 26 1008 90 0 2.24 98 22:57 11.01.2020
968 Rain 26 1008 90 0 2.24 98 22:39 11.01.2020
969 Rain 26 1008 90 0 2.24 98 22:20 11.01.2020
970 Rain 26 1008 90 0 2.24 98 21:55 11.01.2020
971 Rain 26 1008 90 0 2.24 98 21:37 11.01.2020
972 Rain 26 1008 90 0 2.24 98 21:18 11.01.2020
973 Rain 26 1008 90 0 2.24 98 20:40 11.01.2020
974 Rain 23 1008 96 0 0.94 103 20:22 11.01.2020
975 Rain 23 1008 95 0 1.19 108 19:58 11.01.2020
976 Rain 23 1008 95 0 1.19 108 19:38 11.01.2020
977 Rain 23 1008 95 0 1.19 108 19:38 11.01.2020
978 Rain 23 1008 95 0 1.19 108 19:20 11.01.2020
979 Rain 23 1008 95 0 1.19 108 18:57 11.01.2020
980 Rain 23 1008 95 0 1.19 108 18:37 11.01.2020
981 Rain 23 1008 95 0 1.19 108 18:19 11.01.2020
982 Rain 23 1008 95 0 1.19 108 17:57 11.01.2020
983 Rain 23 1008 95 0 1.19 108 17:39 11.01.2020
984 Rain 24 1006 94 0 1.39 104 17:19 11.01.2020
985 Rain 24 1006 94 0 1.39 104 16:44 11.01.2020
986 Rain 24 1006 94 0 1.39 104 16:25 11.01.2020
987 Rain 24 1006 94 0 1.39 104 15:57 11.01.2020
988 Rain 24 1006 94 0 1.39 104 15:39 11.01.2020
989 Rain 24 1006 94 0 1.39 104 15:20 11.01.2020
990 Rain 24 1006 94 0 1.39 104 14:47 11.01.2020
991 Rain 24 1006 94 0 1.39 104 14:26 11.01.2020
992 Rain 24 1009 90 0 2.04 104 13:59 11.01.2020
993 Rain 24 1009 90 0 2.04 104 13:38 11.01.2020
994 Rain 24 1009 90 0 2.04 104 13:20 11.01.2020
995 Rain 24 1009 92 0 2.23 108 12:56 11.01.2020
996 Rain 24 1009 92 0 2.23 108 12:37 11.01.2020
997 Rain 24 1009 92 0 2.23 108 12:19 11.01.2020
998 Rain 24 1009 92 0 2.23 108 11:45 11.01.2020
999 Rain 24 1009 92 0 2.23 108 11:24 11.01.2020
1000 Rain 25 1009 88 0 2.52 111 10:50 11.01.2020
1001 Rain 25 1009 88 0 2.52 111 10:30 11.01.2020
1002 Rain 25 1009 88 0 2.52 111 09:44 11.01.2020
1003 Rain 25 1009 88 0 2.52 111 09:21 11.01.2020
1004 Rain 25 1009 88 0 2.52 111 08:57 11.01.2020
1005 Rain 25 1009 88 0 2.52 111 08:38 11.01.2020
1006 Rain 26 1008 79 0 3.3 109 08:19 11.01.2020
1007 Rain 26 1008 79 0 3.3 109 07:42 11.01.2020
1008 Rain 26 1008 79 0 3.3 109 07:24 11.01.2020
1009 Rain 26 1008 79 0 3.3 109 06:43 11.01.2020
1010 Rain 26 1008 79 0 3.3 109 05:29 11.01.2020
1011 Rain 29 1007 67 0 4.32 102 04:40 11.01.2020
1012 Rain 29 1007 67 0 4.32 102 04:21 11.01.2020
1013 Clouds 30 1010 70 10000 6.2 120 02:46 11.01.2020
1014 Clouds 30 1010 66 10000 7.7 110 01:47 11.01.2020
1015 Clouds 30 1010 66 10000 7.7 110 01:27 11.01.2020
1016 Clouds 30 1011 70 10000 5.7 120 00:52 11.01.2020
1017 Clouds 30 1011 70 10000 5.7 120 00:25 11.01.2020
1018 Clouds 30 1011 70 10000 7.7 100 23:58 10.01.2020
1019 Clouds 30 1011 70 10000 7.7 100 23:38 10.01.2020
1020 Clouds 30 1011 70 10000 7.7 100 23:38 10.01.2020
1021 Clouds 30 1011 70 10000 7.7 100 23:20 10.01.2020
1022 Clouds 29 1011 70 10000 8.2 100 22:41 10.01.2020
1023 Clouds 29 1011 70 10000 8.2 100 22:22 10.01.2020
1024 Rain 28 1011 78 10000 4.6 120 21:58 10.01.2020
1025 Rain 28 1011 78 10000 4.6 120 21:40 10.01.2020
1026 Rain 28 1011 78 10000 4.6 120 21:20 10.01.2020
1027 Clouds 28 1011 78 10000 3.1 120 20:57 10.01.2020
1028 Clouds 28 1011 78 10000 3.1 120 20:38 10.01.2020
1029 Clouds 28 1011 78 10000 3.1 120 20:19 10.01.2020
1030 Clouds 27 1010 83 10000 2.1 120 19:40 10.01.2020
1031 Clouds 27 1010 83 10000 2.1 120 19:20 10.01.2020
1032 Clouds 27 1010 83 10000 3.1 110 18:55 10.01.2020
1033 Clouds 27 1010 83 10000 3.1 110 18:37 10.01.2020
1034 Clouds 27 1010 83 10000 3.1 110 18:18 10.01.2020
1035 Clouds 26 1009 83 10000 3.1 120 17:56 10.01.2020
1036 Clouds 26 1009 83 10000 3.1 120 17:37 10.01.2020
1037 Clouds 26 1009 83 10000 3.1 120 17:19 10.01.2020
1038 Clouds 27 1009 83 10000 4.1 100 16:41 10.01.2020
1039 Clouds 27 1009 83 10000 4.1 100 16:21 10.01.2020
1040 Clouds 27 1010 83 10000 2.6 120 15:56 10.01.2020
1041 Clouds 27 1010 83 10000 2.6 120 15:56 10.01.2020
1042 Clouds 27 1010 83 10000 2.6 120 15:37 10.01.2020
1043 Clouds 27 1010 83 10000 2.6 120 15:19 10.01.2020
1044 Clouds 27 1010 83 10000 2.6 120 15:19 10.01.2020
1045 Clouds 27 1010 83 10000 4.6 120 14:57 10.01.2020
1046 Clouds 27 1010 83 10000 4.6 120 14:38 10.01.2020
1047 Clouds 27 1010 83 10000 4.6 120 14:19 10.01.2020
1048 Clouds 27 1011 83 10000 4.6 120 13:46 10.01.2020
1049 Clouds 27 1011 83 10000 4.6 120 13:28 10.01.2020
1050 Clouds 27 1012 83 10000 4.6 120 12:59 10.01.2020
1051 Clouds 27 1012 83 10000 4.6 120 12:40 10.01.2020
1052 Clouds 27 1012 83 10000 4.6 120 12:21 10.01.2020
1053 Clouds 27 1012 83 10000 3.1 120 11:58 10.01.2020
1054 Clouds 27 1012 83 10000 3.1 120 11:40 10.01.2020
1055 Clouds 27 1012 83 10000 3.1 120 11:19 10.01.2020
1056 Clouds 27 1012 83 10000 3.6 120 10:59 10.01.2020
1057 Clouds 27 1012 83 10000 3.6 120 10:38 10.01.2020
1058 Clouds 27 1012 83 10000 3.6 120 10:18 10.01.2020
1059 Clouds 28 1011 78 10000 4.6 120 09:45 10.01.2020
1060 Clouds 28 1011 78 10000 4.6 120 09:26 10.01.2020
1061 Clouds 28 1011 78 10000 4.1 120 08:57 10.01.2020
1062 Clouds 28 1011 78 10000 4.1 120 08:37 10.01.2020
1063 Clouds 28 1011 78 10000 4.1 120 08:18 10.01.2020
1064 Clouds 28 1011 78 10000 4.6 120 07:41 10.01.2020
1065 Clouds 28 1011 78 10000 4.6 120 07:21 10.01.2020
1066 Clouds 30 1010 74 10000 5.7 100 06:41 10.01.2020
1067 Clouds 30 1010 74 10000 5.7 100 06:23 10.01.2020
1068 Clouds 30 1010 74 10000 5.1 90 05:19 10.01.2020
1069 Clouds 29 1010 74 10000 5.7 90 03:32 10.01.2020
1070 Clouds 30 1011 70 10000 4.6 110 02:52 10.01.2020
1071 Clouds 30 1011 70 10000 4.6 110 02:20 10.01.2020
1072 Clouds 30 1011 74 10000 6.2 100 01:32 10.01.2020
1073 Clouds 30 1012 70 10000 5.7 120 00:51 10.01.2020
1074 Clouds 30 1012 70 10000 5.7 120 00:33 10.01.2020
1075 Clouds 30 1012 70 10000 6.2 110 23:57 09.01.2020
1076 Clouds 30 1012 70 10000 6.2 110 23:57 09.01.2020
1077 Clouds 30 1012 70 10000 6.2 110 23:36 09.01.2020
1078 Clouds 30 1012 70 10000 6.2 110 23:18 09.01.2020
1079 Clouds 29 1012 83 10000 6.7 110 22:56 09.01.2020
1080 Clouds 29 1012 83 10000 6.7 110 22:37 09.01.2020
1081 Clouds 29 1012 83 10000 6.7 110 22:18 09.01.2020
1082 Clouds 28 1012 78 10000 5.1 110 21:54 09.01.2020
1083 Clouds 28 1012 78 10000 5.1 110 21:36 09.01.2020
1084 Clouds 28 1012 78 10000 5.1 110 21:18 09.01.2020
1085 Clouds 28 1012 78 10000 5.1 110 21:18 09.01.2020
1086 Clouds 28 1012 83 10000 4.6 110 20:54 09.01.2020
1087 Clouds 28 1012 83 10000 4.6 110 20:36 09.01.2020
1088 Rain 24 1011 94 0 2.11 95 20:18 09.01.2020
1089 Rain 24 1011 94 0 2.11 95 19:39 09.01.2020
1090 Clouds 27 1011 83 10000 2.6 120 19:20 09.01.2020
1091 Clouds 27 1011 83 10000 2.6 120 18:56 09.01.2020
1092 Clouds 27 1011 83 10000 2.6 120 18:38 09.01.2020
1093 Clouds 27 1011 83 10000 2.6 120 18:20 09.01.2020
1094 Clouds 27 1011 83 10000 2.6 120 17:41 09.01.2020
1095 Clouds 27 1011 88 10000 2.6 110 17:19 09.01.2020
1096 Clouds 27 1011 88 10000 2.6 110 16:56 09.01.2020
1097 Clouds 27 1011 88 10000 2.6 110 16:38 09.01.2020
1098 Clouds 27 1012 88 10000 3.1 110 16:20 09.01.2020
1099 Clouds 27 1012 88 10000 3.1 110 15:43 09.01.2020
1100 Clouds 27 1012 88 10000 2.6 110 15:22 09.01.2020
1101 Clouds 27 1012 88 10000 2.6 110 14:58 09.01.2020
1102 Clouds 27 1012 88 10000 2.6 110 14:39 09.01.2020
1103 Rain 24 1012 95 0 2.17 92 14:19 09.01.2020
1104 Rain 24 1012 95 0 2.17 92 13:55 09.01.2020
1105 Rain 24 1012 95 0 2.17 92 13:37 09.01.2020
1106 Clouds 27 1013 88 10000 3.1 110 13:18 09.01.2020
1107 Clouds 27 1013 88 10000 3.1 110 12:42 09.01.2020
1108 Clouds 27 1013 88 10000 4.1 110 12:24 09.01.2020
1109 Clouds 27 1013 88 10000 4.1 110 11:59 09.01.2020
1110 Clouds 27 1013 88 10000 4.1 110 11:41 09.01.2020
1111 Clouds 27 1013 88 10000 3.1 110 11:23 09.01.2020
1112 Clouds 27 1013 88 10000 3.1 110 10:57 09.01.2020
1113 Clouds 27 1013 88 10000 3.1 110 10:39 09.01.2020
1114 Clouds 27 1013 88 10000 3.1 110 10:20 09.01.2020
1115 Clouds 27 1012 88 10000 4.6 110 09:41 09.01.2020
1116 Clouds 27 1012 88 10000 4.6 110 09:41 09.01.2020
1117 Clouds 27 1012 88 10000 4.6 110 09:22 09.01.2020
1118 Clouds 27 1011 94 10000 4.1 110 08:56 09.01.2020
1119 Clouds 27 1011 94 10000 4.1 110 08:38 09.01.2020
1120 Clouds 27 1011 94 10000 4.1 110 08:19 09.01.2020
1121 Clouds 28 1011 88 10000 4.1 100 07:44 09.01.2020
1122 Clouds 28 1011 88 10000 4.1 100 07:25 09.01.2020
1123 Rain 27 1010 94 10000 5.1 90 06:39 09.01.2020
1124 Rain 27 1010 94 10000 5.1 90 06:21 09.01.2020
1125 Clouds 29 1010 79 10000 5.1 110 05:50 09.01.2020
1126 Clouds 30 1010 74 10000 5.1 120 04:45 09.01.2020
1127 Clouds 30 1011 79 10000 4.6 110 03:54 09.01.2020
1128 Clouds 30 1011 79 10000 4.6 110 03:26 09.01.2020
1129 Rain 27 1010 90 0 2.71 88 02:31 09.01.2020
1130 Rain 27 1012 87 0 3.42 87 01:40 09.01.2020
1131 Clouds 29 1012 79 10000 5.7 110 00:44 09.01.2020
1132 Clouds 29 1012 79 10000 6.2 120 00:22 09.01.2020
1133 Clouds 29 1012 79 10000 6.2 120 23:56 08.01.2020
1134 Clouds 29 1012 79 10000 6.2 120 23:37 08.01.2020
1135 Clouds 29 1012 79 10000 7.2 110 23:19 08.01.2020
1136 Clouds 29 1012 79 10000 7.2 110 22:39 08.01.2020
1137 Clouds 29 1012 79 10000 6.2 110 22:21 08.01.2020
1138 Clouds 29 1012 79 10000 6.2 110 22:21 08.01.2020
1139 Clouds 29 1012 79 10000 6.2 110 21:58 08.01.2020
1140 Clouds 29 1012 79 10000 6.2 110 21:39 08.01.2020
1141 Clouds 27 1012 88 10000 4.6 100 21:20 08.01.2020
1142 Clouds 27 1012 88 10000 4.6 100 21:20 08.01.2020
1143 Clouds 27 1012 88 10000 4.6 100 20:58 08.01.2020
1144 Clouds 27 1012 88 10000 4.6 100 20:39 08.01.2020
1145 Clouds 27 1012 88 10000 4.6 100 20:20 08.01.2020
1146 Clouds 27 1012 83 10000 3.1 100 19:56 08.01.2020
1147 Clouds 27 1012 83 10000 3.1 100 19:56 08.01.2020
1148 Clouds 27 1012 83 10000 3.1 100 19:37 08.01.2020
1149 Clouds 27 1012 83 10000 3.1 100 19:19 08.01.2020
1150 Clouds 27 1012 83 10000 3.1 100 19:19 08.01.2020
1151 Clouds 27 1011 83 10000 3.6 100 18:55 08.01.2020
1152 Clouds 27 1011 83 10000 3.6 100 18:37 08.01.2020
1153 Clouds 27 1011 83 10000 3.6 100 18:18 08.01.2020
1154 Clouds 27 1011 83 10000 2.1 110 17:48 08.01.2020
1155 Clouds 27 1011 83 10000 2.1 110 17:24 08.01.2020
1156 Clouds 27 1011 83 10000 2.1 110 16:58 08.01.2020
1157 Clouds 27 1011 83 10000 2.1 110 16:39 08.01.2020
1158 Clouds 27 1011 83 10000 2.1 110 16:19 08.01.2020
1159 Clouds 27 1011 83 10000 1.5 110 15:59 08.01.2020
1160 Clouds 27 1011 83 10000 1.5 110 15:40 08.01.2020
1161 Clouds 27 1011 83 10000 1.5 110 15:20 08.01.2020
1162 Clouds 27 1012 83 10000 3.1 110 14:56 08.01.2020
1163 Clouds 27 1012 83 10000 3.1 110 14:38 08.01.2020
1164 Clouds 27 1012 83 10000 3.1 110 14:19 08.01.2020
1165 Clouds 27 1013 83 10000 2.1 110 13:39 08.01.2020
1166 Clouds 27 1013 83 10000 2.1 110 13:19 08.01.2020
1167 Clouds 27 1013 83 10000 2.6 110 12:42 08.01.2020
1168 Clouds 27 1013 83 10000 2.6 110 12:19 08.01.2020
1169 Clouds 27 1013 83 10000 2.6 110 11:55 08.01.2020
1170 Clouds 27 1013 83 10000 2.6 110 11:37 08.01.2020
1171 Clouds 27 1013 83 10000 2.6 110 11:18 08.01.2020
1172 Clouds 27 1012 88 10000 3.1 120 10:54 08.01.2020
1173 Clouds 27 1012 88 10000 3.1 120 10:36 08.01.2020
1174 Clouds 27 1012 88 10000 4.1 110 10:18 08.01.2020
1175 Clouds 27 1012 88 10000 4.1 110 09:41 08.01.2020
1176 Clouds 28 1011 83 10000 4.1 120 09:19 08.01.2020
1177 Clouds 28 1011 83 10000 4.1 120 08:55 08.01.2020
1178 Clouds 28 1011 83 10000 4.1 120 08:36 08.01.2020
1179 Rain 26 1011 86 0 2.86 100 08:18 08.01.2020
1180 Rain 26 1011 86 0 2.86 100 07:43 08.01.2020
1181 Clouds 29 1010 79 10000 5.7 100 07:23 08.01.2020
1182 Clouds 29 1010 79 10000 5.7 100 06:44 08.01.2020
1183 Clouds 29 1010 79 10000 5.1 110 05:59 08.01.2020
1184 Clouds 30 1010 74 10000 6.2 100 05:28 08.01.2020
1185 Clouds 30 1010 74 10000 6.2 100 04:46 08.01.2020
1186 Clouds 31 1011 70 10000 4.6 90 03:32 08.01.2020
1187 Clouds 32 1011 62 10000 5.1 70 02:44 08.01.2020
1188 Clouds 32 1011 62 10000 5.1 70 02:19 08.01.2020
1189 Clouds 31 1012 66 10000 6.2 80 01:39 08.01.2020
1190 Clouds 30 1012 66 10000 4.6 80 00:53 08.01.2020
1191 Clouds 30 1012 66 10000 4.6 80 00:26 08.01.2020
1192 Clouds 29 1012 74 10000 4.1 80 23:46 07.01.2020
1193 Clouds 29 1012 74 10000 4.1 80 23:22 07.01.2020
1194 Clouds 29 1012 74 10000 5.1 80 22:58 07.01.2020
1195 Clouds 29 1012 74 10000 5.1 80 22:38 07.01.2020
1196 Clouds 29 1012 74 10000 5.1 80 22:19 07.01.2020
1197 Clouds 29 1012 74 10000 5.1 80 22:19 07.01.2020
1198 Clouds 29 1012 79 10000 5.1 90 21:42 07.01.2020
1199 Clouds 29 1012 79 10000 5.1 90 21:23 07.01.2020
1200 Clouds 26 1012 88 10000 2.6 100 20:59 07.01.2020
1201 Clouds 26 1012 88 10000 2.6 100 20:41 07.01.2020
1202 Clouds 26 1012 88 10000 2.6 100 20:41 07.01.2020
1203 Rain 26 1012 90 0 3.32 84 20:22 07.01.2020
1204 Rain 24 1011 96 0 1.82 81 19:58 07.01.2020
1205 Rain 24 1011 96 0 1.82 81 19:38 07.01.2020
1206 Clouds 25 1010 94 10000 3.1 90 19:19 07.01.2020
1207 Clouds 25 1010 94 10000 3.1 90 18:56 07.01.2020
1208 Clouds 25 1010 94 10000 3.1 90 18:38 07.01.2020
1209 Clouds 25 1010 94 10000 3.1 100 18:18 07.01.2020
1210 Clouds 25 1010 94 10000 3.1 100 17:56 07.01.2020
1211 -273 0 0 0 0 0 17:37 07.01.2020
1212 Clouds 25 1010 94 10000 3.1 80 17:18 07.01.2020
1213 Clouds 25 1010 94 10000 3.1 80 16:55 07.01.2020
1214 Clouds 25 1010 94 10000 3.1 80 16:37 07.01.2020
1215 Rain 25 1011 100 10000 1 0 16:18 07.01.2020
1216 Rain 25 1011 100 10000 1 0 15:43 07.01.2020
1217 Clouds 25 1011 100 10000 1 0 15:24 07.01.2020
1218 Clouds 25 1011 100 10000 1 0 15:24 07.01.2020
1219 Clouds 25 1011 100 10000 1 0 14:58 07.01.2020
1220 Clouds 25 1011 100 10000 1 0 14:40 07.01.2020
1221 Rain 24 1012 96 0 1.76 96 14:21 07.01.2020
1222 Rain 24 1012 96 0 1.76 96 13:46 07.01.2020
1223 Rain 25 1012 94 10000 3.1 110 13:21 07.01.2020
1224 Rain 25 1012 94 10000 3.1 110 12:56 07.01.2020
1225 Rain 25 1012 94 10000 3.1 110 12:37 07.01.2020
1226 Clouds 25 1013 100 10000 2.1 120 12:19 07.01.2020
1227 Clouds 25 1013 100 10000 2.1 120 11:41 07.01.2020
1228 Rain 25 1012 94 9000 3.6 100 11:23 07.01.2020
1229 Rain 25 1012 94 9000 3.6 100 10:57 07.01.2020
1230 Rain 25 1012 94 9000 3.6 100 10:57 07.01.2020
1231 Rain 25 1012 94 9000 3.6 100 10:39 07.01.2020
1232 Rain 25 1012 94 9000 3.6 100 10:21 07.01.2020
1233 Rain 26 1011 94 10000 2.6 110 09:39 07.01.2020
1234 Rain 26 1011 94 10000 2.6 110 09:21 07.01.2020
1235 Rain 26 1011 94 10000 2.6 110 09:21 07.01.2020
1236 Rain 26 1011 94 10000 2.6 110 09:21 07.01.2020
1237 Clouds 26 1011 88 10000 1.5 80 08:57 07.01.2020
1238 Clouds 26 1011 88 10000 1.5 80 08:38 07.01.2020
1239 Clouds 26 1011 88 10000 1.5 80 08:18 07.01.2020
1240 Rain 27 1010 88 9000 2.1 100 07:42 07.01.2020
1241 Rain 27 1010 88 9000 2.1 100 07:18 07.01.2020
1242 Rain 27 1010 88 8000 3.6 80 06:36 07.01.2020
1243 Clouds 29 1009 74 10000 3.6 120 05:59 07.01.2020
1244 Clouds 29 1009 74 10000 3.6 120 05:40 07.01.2020
1245 Clouds 28 1010 83 10000 3.1 130 03:46 07.01.2020
1246 Clouds 28 1010 83 10000 3.1 130 03:24 07.01.2020
1247 Clouds 28 1010 83 10000 3.6 60 02:18 07.01.2020
1248 Rain 27 1011 85 0 2.17 110 01:40 07.01.2020
1249 Clouds 29 1011 74 10000 4.1 120 00:57 07.01.2020
1250 Clouds 29 1012 74 10000 3.6 90 00:21 07.01.2020
1251 Clouds 29 1012 74 10000 3.6 90 23:57 06.01.2020
1252 Clouds 29 1012 74 10000 3.6 90 23:37 06.01.2020
1253 Clouds 28 1012 78 10000 4.1 100 23:19 06.01.2020
1254 Clouds 28 1012 78 10000 4.1 100 22:44 06.01.2020
1255 Clouds 28 1012 78 10000 4.1 100 22:44 06.01.2020
1256 Clouds 26 1012 94 10000 1.5 100 22:24 06.01.2020
1257 Clouds 26 1012 94 10000 1.5 100 21:58 06.01.2020
1258 Clouds 26 1012 94 10000 1.5 100 21:39 06.01.2020
1259 Clouds 25 1012 94 10000 1.76 102 21:20 06.01.2020
1260 Clouds 25 1012 94 10000 1.76 102 21:20 06.01.2020
1261 Clouds 25 1012 94 10000 1.76 102 20:57 06.01.2020
1262 Clouds 25 1012 94 10000 1.76 102 20:39 06.01.2020
1263 Rain 23 1011 96 0 0.97 95 20:20 06.01.2020
1264 Rain 23 1011 96 0 0.97 95 20:20 06.01.2020
1265 Rain 23 1011 96 0 0.97 95 19:57 06.01.2020
1266 Rain 23 1011 96 0 0.97 95 19:38 06.01.2020
1267 Clouds 25 1011 94 10000 0.97 95 19:20 06.01.2020
1268 Clouds 25 1011 94 10000 0.97 95 18:48 06.01.2020
1269 Clouds 25 1011 94 10000 0.97 95 18:23 06.01.2020
1270 Clouds 25 1011 94 10000 0.97 95 17:59 06.01.2020
1271 Clouds 25 1011 94 10000 0.97 95 17:38 06.01.2020
1272 Rain 25 1012 94 10000 1 170 17:18 06.01.2020
1273 Rain 25 1012 94 10000 1 170 16:46 06.01.2020
1274 Rain 25 1012 94 10000 1 170 16:46 06.01.2020
1275 Clouds 26 1012 88 10000 2.1 140 16:27 06.01.2020
1276 Clouds 26 1012 88 10000 2.1 140 15:59 06.01.2020
1277 Clouds 26 1012 88 10000 2.1 140 15:39 06.01.2020
1278 Clouds 26 1012 88 10000 1.5 150 15:19 06.01.2020
1279 Clouds 26 1012 88 10000 1.5 150 14:58 06.01.2020
1280 Clouds 26 1012 88 10000 1.5 150 14:39 06.01.2020
1281 Rain 23 1013 95 0 1.61 108 14:19 06.01.2020
1282 Rain 23 1013 95 0 1.61 108 13:54 06.01.2020
1283 Rain 23 1013 95 0 1.61 108 13:36 06.01.2020
1284 Clouds 27 1014 83 10000 1.5 150 13:18 06.01.2020
1285 Clouds 27 1014 83 10000 1.5 150 12:41 06.01.2020
1286 Clouds 26 1014 88 10000 1.5 160 12:20 06.01.2020
1287 Clouds 26 1014 88 10000 1.5 160 11:57 06.01.2020
1288 Clouds 26 1014 88 10000 1.5 160 11:38 06.01.2020
1289 Clouds 26 1014 88 10000 1.5 160 11:38 06.01.2020
1290 Clouds 26 1013 88 10000 2.1 100 11:20 06.01.2020
1291 Clouds 26 1013 88 10000 2.1 100 10:43 06.01.2020
1292 Clouds 26 1013 88 10000 2.1 100 10:43 06.01.2020
1293 Clouds 26 1013 88 10000 2.1 140 10:24 06.01.2020
1294 Clouds 26 1013 88 10000 2.1 140 09:42 06.01.2020
1295 Clouds 27 1012 78 10000 3.1 120 09:24 06.01.2020
1296 Clouds 27 1012 78 10000 3.1 120 08:58 06.01.2020
1297 Clouds 27 1012 78 10000 3.1 120 08:40 06.01.2020
1298 Rain 26 1012 85 0 3.1 121 08:21 06.01.2020
1299 Rain 26 1012 85 0 3.1 121 07:48 06.01.2020
1300 Clouds 29 1011 70 10000 5.1 120 07:21 06.01.2020
1301 Clouds 29 1011 70 10000 5.1 120 07:21 06.01.2020
1302 Clouds 29 1011 70 10000 5.1 120 06:41 06.01.2020
1303 Clouds 29 1011 74 10000 4.6 140 05:51 06.01.2020
1304 Clouds 30 1011 66 10000 4.1 130 05:29 06.01.2020
1305 Clouds 30 1012 66 10000 4.1 130 04:25 06.01.2020
1306 Clouds 30 1012 66 10000 4.1 130 03:52 06.01.2020
1307 Clouds 29 1013 70 10000 3.6 120 02:32 06.01.2020
1308 Clouds 29 1013 70 10000 3.6 120 01:55 06.01.2020
1309 Clouds 29 1013 70 10000 3.6 120 01:32 06.01.2020
1310 Clouds 30 1013 62 10000 3.1 90 00:48 06.01.2020
1311 Clouds 30 1013 62 10000 3.1 90 00:29 06.01.2020
1312 Clouds 29 1013 70 10000 4.1 110 23:58 05.01.2020
1313 Clouds 29 1013 70 10000 4.1 110 23:39 05.01.2020
1314 Clouds 29 1013 70 10000 4.1 110 23:21 05.01.2020
1315 Clouds 29 1014 70 10000 3.1 110 22:40 05.01.2020
1316 Clouds 29 1014 70 10000 3.1 110 22:21 05.01.2020
1317 Clouds 28 1014 74 10000 3.6 110 21:58 05.01.2020
1318 Clouds 28 1014 74 10000 3.6 110 21:40 05.01.2020
1319 Clouds 28 1014 74 10000 3.6 110 21:20 05.01.2020
1320 Clouds 24 1013 94 10000 1 0 20:58 05.01.2020
1321 Clouds 24 1013 94 10000 1 0 20:39 05.01.2020
1322 Clouds 24 1013 94 10000 1 0 20:39 05.01.2020
1323 Clouds 24 1013 94 10000 1 0 20:19 05.01.2020
1324 Clouds 23 1013 94 10000 1.5 310 19:58 05.01.2020
1325 Clouds 23 1013 94 10000 1.5 310 19:39 05.01.2020
1326 Clouds 23 1013 94 10000 1.5 310 19:20 05.01.2020
1327 Clouds 22 1013 94 10000 0.88 104 18:55 05.01.2020
1328 Clouds 22 1013 94 10000 0.88 104 18:37 05.01.2020
1329 Clouds 22 1013 94 10000 0.88 104 18:19 05.01.2020
1330 Clouds 22 1013 94 10000 0.88 104 18:19 05.01.2020
1331 Clouds 23 1012 94 10000 0.88 104 17:57 05.01.2020
1332 Clouds 23 1012 94 10000 0.88 104 17:38 05.01.2020
1333 Clouds 23 1012 94 10000 0.88 104 17:38 05.01.2020
1334 Clouds 23 1012 94 10000 0.88 104 17:38 05.01.2020
1335 Clouds 23 1012 94 10000 1.8 111 17:19 05.01.2020
1336 Clouds 23 1012 94 10000 1.8 111 16:56 05.01.2020
1337 Clouds 23 1012 94 10000 1.8 111 16:38 05.01.2020
1338 Clouds 23 1012 94 10000 1.8 111 16:19 05.01.2020
1339 Clouds 23 1012 94 10000 1.8 111 16:19 05.01.2020
1340 Clouds 24 1013 94 10000 1.8 111 15:38 05.01.2020
1341 Clouds 24 1013 94 10000 1.8 111 15:20 05.01.2020
1342 Clouds 24 1013 94 10000 1.8 111 14:55 05.01.2020
1343 Clouds 24 1013 94 10000 1.8 111 14:37 05.01.2020
1344 Clouds 24 1013 94 10000 1.88 113 14:19 05.01.2020
1345 Clouds 25 1014 88 10000 1.88 113 13:56 05.01.2020
1346 Clouds 25 1014 88 10000 1.88 113 13:37 05.01.2020
1347 Clouds 25 1014 88 10000 1.95 114 13:18 05.01.2020
1348 Clouds 25 1014 88 10000 1.88 113 13:18 05.01.2020
1349 Clouds 25 1015 88 10000 3.1 110 12:55 05.01.2020
1350 Clouds 25 1015 88 10000 3.1 110 12:37 05.01.2020
1351 Clouds 25 1015 88 10000 3.1 110 12:18 05.01.2020
1352 Clouds 25 1015 88 10000 1.5 120 11:43 05.01.2020
1353 Clouds 25 1015 88 10000 1.5 120 11:43 05.01.2020
1354 Clouds 25 1015 88 10000 1.5 120 11:43 05.01.2020
1355 Clouds 25 1015 88 10000 1.5 120 11:43 05.01.2020
1356 Clouds 25 1015 88 10000 1.5 120 11:43 05.01.2020
1357 Clouds 25 1015 88 10000 1.5 120 11:20 05.01.2020
1358 Clouds 26 1014 83 10000 2.1 120 10:58 05.01.2020
1359 Clouds 26 1014 83 10000 2.1 120 10:39 05.01.2020
1360 Clouds 26 1014 83 10000 2.1 120 10:39 05.01.2020
1361 Clouds 26 1014 83 10000 2.1 120 10:39 05.01.2020
1362 Clouds 26 1014 83 10000 2.1 120 10:39 05.01.2020
1363 Clouds 26 1014 83 10000 2.1 120 10:39 05.01.2020
1364 Clouds 26 1014 83 10000 2.1 120 10:19 05.01.2020
1365 Clouds 26 1014 83 10000 1.5 110 09:42 05.01.2020
1366 Clouds 26 1014 83 10000 1.5 110 09:22 05.01.2020
1367 Clouds 27 1014 78 10000 2.6 110 08:50 05.01.2020
1368 Clouds 27 1014 78 10000 2.6 110 08:30 05.01.2020
1369 Clouds 28 1013 69 10000 4.6 110 07:56 05.01.2020
1370 Clouds 28 1013 69 10000 4.6 110 07:37 05.01.2020
1371 Clouds 28 1013 69 10000 4.6 110 07:19 05.01.2020
1372 Clouds 30 1012 58 10000 4.6 120 05:59 05.01.2020
1373 Clouds 30 1012 58 10000 4.6 120 05:33 05.01.2020
1374 Clouds 30 1012 58 10000 4.6 110 04:43 05.01.2020
1375 Clouds 30 1012 58 10000 4.6 110 04:18 05.01.2020
1376 Clouds 30 1012 58 10000 4.6 110 04:18 05.01.2020
1377 Clouds 30 1013 58 10000 4.6 100 02:46 05.01.2020
1378 Clouds 30 1013 58 10000 4.6 100 02:24 05.01.2020
1379 Clouds 29 1013 62 10000 5.1 130 01:48 05.01.2020
1380 Clouds 29 1013 62 10000 5.1 130 01:18 05.01.2020
1381 Clouds 30 1013 62 10000 4.1 120 00:41 05.01.2020
1382 Clouds 30 1013 62 10000 4.1 120 00:23 05.01.2020
1383 Clouds 29 1013 70 10000 3.6 100 23:59 04.01.2020
1384 Clouds 29 1013 70 10000 3.6 100 23:59 04.01.2020
1385 Clouds 29 1013 70 10000 3.6 100 23:39 04.01.2020
1386 Clouds 29 1013 70 10000 3.6 100 23:19 04.01.2020
1387 Clouds 28 1013 74 10000 1.5 100 22:40 04.01.2020
1388 Clouds 28 1013 74 10000 1.5 100 22:40 04.01.2020
1389 Clouds 28 1013 74 10000 1.5 100 22:21 04.01.2020
1390 Clouds 26 1013 83 10000 1 0 21:57 04.01.2020
1391 Clouds 26 1013 83 10000 1 0 21:57 04.01.2020
1392 Clouds 26 1013 83 10000 1 0 21:57 04.01.2020
1393 Clouds 26 1013 83 10000 1 0 21:39 04.01.2020
1394 Clouds 26 1013 83 10000 1 0 21:20 04.01.2020
1395 Clouds 26 1013 83 10000 1 0 21:20 04.01.2020
1396 Clouds 23 1013 94 10000 1.5 310 20:58 04.01.2020
1397 Clouds 23 1013 94 10000 1.5 310 20:39 04.01.2020
1398 Clouds 23 1013 94 10000 1.5 310 20:39 04.01.2020
1399 Clouds 21 1012 92 0 0.51 12 20:21 04.01.2020
1400 Clouds 20 1012 93 0 0.51 1 19:56 04.01.2020
1401 Clouds 20 1012 93 0 0.51 1 19:37 04.01.2020
1402 Clouds 21 1012 100 10000 2.1 320 19:18 04.01.2020
1403 Clouds 21 1012 100 10000 2.1 320 18:54 04.01.2020
1404 Clouds 21 1012 100 10000 2.1 320 18:36 04.01.2020
1405 Clouds 22 1011 94 10000 2.1 320 18:18 04.01.2020
1406 Clouds 22 1011 94 10000 2.1 320 17:40 04.01.2020
1407 Clouds 22 1011 94 10000 1.5 310 17:22 04.01.2020
1408 Clouds 22 1011 94 10000 1.5 310 16:55 04.01.2020
1409 Clouds 22 1011 94 10000 1.5 310 16:36 04.01.2020
1410 Clouds 22 1012 94 10000 1.5 320 16:18 04.01.2020
1411 Clouds 22 1012 94 10000 1.5 320 15:42 04.01.2020
1412 Clouds 23 1012 94 10000 1.5 320 15:20 04.01.2020
1413 Clouds 23 1012 94 10000 1.5 320 15:20 04.01.2020
1414 Clouds 23 1012 94 10000 1.5 320 14:59 04.01.2020
1415 Clouds 23 1012 94 10000 1.5 320 14:59 04.01.2020
1416 Clouds 23 1012 94 10000 1.5 320 14:40 04.01.2020
1417 Clouds 23 1012 94 10000 1.5 320 14:40 04.01.2020
1418 Clouds 21 1012 89 0 0.49 115 14:20 04.01.2020
1419 Clouds 21 1012 89 0 0.49 115 13:58 04.01.2020
1420 Clouds 21 1012 89 0 0.49 115 13:37 04.01.2020
1421 Clouds 21 1012 89 0 0.49 115 13:37 04.01.2020
1422 Clouds 23 1014 94 10000 1 290 13:19 04.01.2020
1423 Clouds 23 1014 94 10000 1 290 12:42 04.01.2020
1424 Clouds 23 1013 94 10000 0.35 98 12:20 04.01.2020
1425 Clouds 23 1013 94 10000 0.35 98 11:59 04.01.2020
1426 Clouds 23 1013 94 10000 0.35 98 11:40 04.01.2020
1427 Clouds 23 1013 94 10000 0.35 98 11:40 04.01.2020
1428 Clouds 24 1013 88 10000 1 0 11:20 04.01.2020
1429 Clouds 24 1013 88 10000 1 0 10:58 04.01.2020
1430 Clouds 24 1013 88 10000 1 0 10:38 04.01.2020
1431 Clouds 24 1013 88 10000 1 0 10:19 04.01.2020
1432 Clouds 25 1012 78 10000 1 0 09:42 04.01.2020
1433 Clouds 25 1012 78 10000 1 0 09:24 04.01.2020
1434 Clouds 26 1011 74 10000 1.5 140 08:44 04.01.2020
1435 Clouds 26 1011 74 10000 1.5 140 08:25 04.01.2020
1436 Clouds 27 1011 65 10000 3.1 120 07:51 04.01.2020
1437 Clouds 27 1011 65 10000 3.1 120 07:32 04.01.2020
1438 Clouds 29 1010 62 10000 3.1 110 06:39 04.01.2020
1439 Clouds 28 1009 61 10000 3.6 120 05:46 04.01.2020
1440 Clouds 29 1009 58 10000 3.1 150 04:47 04.01.2020
1441 Clouds 29 1009 58 10000 3.1 150 04:27 04.01.2020
1442 Clouds 28 1010 61 10000 3.1 120 03:19 04.01.2020
1443 Clouds 28 1010 61 10000 3.6 110 02:36 04.01.2020
1444 Clear 28 1010 54 0 2.49 123 01:58 04.01.2020
1445 Clouds 29 1011 62 10000 3.1 140 01:32 04.01.2020
1446 Clouds 29 1011 62 10000 3.1 140 01:32 04.01.2020
1447 Clouds 29 1011 62 10000 3.1 140 00:56 04.01.2020
1448 Clouds 28 1011 65 10000 2.1 150 00:28 04.01.2020
1449 Clouds 28 1011 65 10000 2.1 150 23:52 03.01.2020
1450 Clouds 27 1011 69 10000 1.5 160 23:27 03.01.2020
1451 Clouds 27 1011 69 10000 1.5 160 22:55 03.01.2020
1452 Clouds 27 1011 69 10000 1.5 160 22:37 03.01.2020
1453 Clouds 25 1011 83 10000 1.5 270 22:18 03.01.2020
1454 Clouds 25 1011 83 10000 1.5 270 21:55 03.01.2020
1455 Clouds 25 1011 83 10000 1.5 270 21:37 03.01.2020
1456 Clouds 22 1011 94 10000 1.5 300 21:18 03.01.2020
1457 Clouds 22 1011 94 10000 1.5 300 20:43 03.01.2020
1458 Clouds 22 1011 94 10000 1.5 300 20:19 03.01.2020
1459 Clouds 20 1010 94 10000 2.1 320 19:59 03.01.2020
1460 Clouds 20 1010 94 10000 2.1 320 19:40 03.01.2020
1461 Clouds 20 1010 94 10000 2.1 320 19:22 03.01.2020
1462 Clouds 20 1009 94 10000 2.1 310 18:46 03.01.2020
1463 Clouds 20 1009 94 10000 2.1 310 18:26 03.01.2020
1464 Clouds 20 1009 94 10000 2.1 310 18:26 03.01.2020
1465 Clouds 20 1009 100 10000 0.26 308 17:57 03.01.2020
1466 Clouds 20 1009 100 10000 0.26 308 17:39 03.01.2020
1467 Clouds 20 1009 100 10000 0.29 72 17:19 03.01.2020
1468 Clouds 21 1009 94 10000 0.29 72 16:43 03.01.2020
1469 Clouds 21 1009 94 10000 0.29 72 16:24 03.01.2020
1470 Clouds 21 1010 100 10000 0.29 72 15:58 03.01.2020
1471 Clouds 21 1010 100 10000 0.29 72 15:40 03.01.2020
1472 Clouds 21 1010 100 10000 0.29 72 15:18 03.01.2020
1473 Clear 21 1010 94 10000 0.29 72 14:39 03.01.2020
1474 Rain 21 1010 94 10000 0.83 102 14:20 03.01.2020
1475 Clouds 22 1011 94 10000 0.83 102 13:56 03.01.2020
1476 Clouds 22 1011 94 10000 0.83 102 13:37 03.01.2020
1477 Clouds 22 1011 94 10000 0.84 99 13:19 03.01.2020
1478 Clouds 22 1011 94 10000 0.84 99 12:40 03.01.2020
1479 Clouds 22 1011 94 10000 0.84 99 12:21 03.01.2020
1480 Clouds 23 1011 88 10000 0.84 99 11:49 03.01.2020
1481 Clouds 23 1011 88 10000 0.84 99 11:30 03.01.2020
1482 Clouds 24 1010 88 10000 1 150 10:47 03.01.2020
1483 Clouds 25 1010 73 10000 1.5 140 10:28 03.01.2020
1484 Clouds 25 1010 73 10000 1.5 140 09:59 03.01.2020
1485 Clouds 25 1010 73 10000 1.5 140 09:41 03.01.2020
1486 Clouds 25 1009 73 10000 1.5 140 09:22 03.01.2020
1487 Clouds 25 1009 73 10000 1.5 140 08:57 03.01.2020
1488 Clouds 25 1009 73 10000 1.5 140 08:38 03.01.2020
1489 Clouds 24 1008 75 0 1.78 126 08:19 03.01.2020
1490 Clouds 24 1008 76 0 1.69 124 07:40 03.01.2020
1491 Clouds 28 1008 61 10000 3.1 160 07:19 03.01.2020
1492 Clouds 28 1008 61 10000 3.1 160 06:51 03.01.2020
1493 Clouds 28 1008 61 10000 3.1 160 06:33 03.01.2020
1494 Clouds 29 1007 58 10000 3.1 150 05:47 03.01.2020
1495 Clouds 28 1008 61 10000 3.6 150 04:27 03.01.2020
1496 Clouds 29 1009 62 10000 3.1 140 02:59 03.01.2020
1497 Clouds 29 1009 62 10000 3.1 140 02:41 03.01.2020
1498 Clouds 29 1009 62 10000 3.6 140 01:45 03.01.2020
1499 Clouds 28 1009 65 10000 3.1 140 00:53 03.01.2020
1500 Clouds 28 1009 65 10000 3.1 140 00:31 03.01.2020
1501 Clouds 29 1010 62 10000 2.6 140 23:57 02.01.2020
1502 Clouds 29 1010 62 10000 2.6 140 23:38 02.01.2020
1503 Clouds 29 1010 62 10000 2.6 140 23:19 02.01.2020
1504 Clouds 27 1010 69 10000 1.5 90 22:57 02.01.2020
1505 Clouds 27 1010 69 10000 1.5 90 22:38 02.01.2020
1506 Clouds 27 1010 69 10000 1.5 90 22:18 02.01.2020
1507 Clouds 24 1010 88 10000 1.5 340 21:41 02.01.2020
1508 Clouds 24 1010 88 10000 1.5 340 21:23 02.01.2020
1509 Clouds 22 1010 94 10000 2.6 310 20:59 02.01.2020
1510 Clouds 22 1010 94 10000 2.6 310 20:59 02.01.2020
1511 Clouds 22 1010 94 10000 2.6 310 20:59 02.01.2020
1512 Clouds 22 1010 94 10000 2.6 310 20:39 02.01.2020
1513 Rain 21 1009 94 0 0.21 45 20:21 02.01.2020
1514 Rain 21 1009 94 0 0.6 100 20:21 02.01.2020
1515 Rain 21 1009 94 0 0.6 100 19:56 02.01.2020
1516 Rain 21 1009 94 0 0.6 100 19:38 02.01.2020
1517 Clouds 20 1009 100 10000 1.5 310 19:19 02.01.2020
1518 Clouds 20 1009 100 10000 1.5 310 18:58 02.01.2020
1519 Clouds 20 1009 100 10000 1.5 310 18:58 02.01.2020
1520 Clouds 20 1009 100 10000 1.5 310 18:39 02.01.2020
1521 Clouds 21 1009 94 10000 1.5 330 18:21 02.01.2020
1522 Clouds 21 1009 94 10000 1.5 330 17:56 02.01.2020
1523 Rain 21 1009 94 0 0.6 100 17:37 02.01.2020
1524 Clouds 21 1009 94 10000 2.1 310 17:19 02.01.2020
1525 Clouds 21 1009 94 10000 2.1 310 16:57 02.01.2020
1526 Clouds 21 1009 94 10000 2.1 310 16:38 02.01.2020
1527 Clouds 21 1009 94 10000 0.86 108 16:20 02.01.2020
1528 Clouds 21 1009 94 10000 0.86 108 15:45 02.01.2020
1529 Clouds 21 1009 94 10000 0.86 108 15:24 02.01.2020
1530 Clouds 21 1010 100 10000 0.86 108 14:59 02.01.2020
1531 Clouds 21 1010 100 10000 0.86 108 14:39 02.01.2020
1532 Clouds 21 1010 100 10000 0.86 108 14:39 02.01.2020
1533 Clouds 21 1010 100 10000 0.45 92 14:21 02.01.2020
1534 Rain 21 1010 93 0 0.45 92 13:58 02.01.2020
1535 Rain 21 1010 93 0 0.45 92 13:40 02.01.2020
1536 Clouds 22 1011 94 10000 1 0 13:19 02.01.2020
1537 Clouds 22 1011 94 10000 1 0 12:43 02.01.2020
1538 Clouds 24 1011 78 10000 1.5 120 12:23 02.01.2020
1539 Clouds 24 1011 78 10000 1.5 120 11:42 02.01.2020
1540 Clouds 24 1010 78 10000 1.5 130 11:23 02.01.2020
1541 Clouds 24 1010 78 10000 1.5 130 10:56 02.01.2020
1542 Clouds 24 1010 78 10000 1.5 130 10:36 02.01.2020
1543 Clouds 24 1010 78 10000 1.5 130 10:18 02.01.2020
1544 Clouds 25 1010 78 10000 2.6 130 09:41 02.01.2020
1545 Clouds 25 1010 78 10000 2.6 130 09:21 02.01.2020
1546 Clouds 25 1009 78 10000 2.1 140 08:41 02.01.2020
1547 Clouds 25 1009 78 10000 2.1 140 08:22 02.01.2020
1548 Clouds 26 1009 74 10000 2.6 150 07:47 02.01.2020
1549 Clouds 26 1009 74 10000 2.6 150 07:27 02.01.2020
1550 Clouds 27 1008 69 10000 2.6 150 06:43 02.01.2020
1551 Clouds 28 1007 61 10000 3.1 140 05:42 02.01.2020
1552 Clouds 29 1008 66 10000 2.6 170 04:36 02.01.2020
1553 Clouds 28 1009 61 10000 3.6 160 03:54 02.01.2020
1554 Clouds 27 1009 57 0 3 164 02:21 02.01.2020
1555 Clouds 27 1009 57 0 3 164 01:57 02.01.2020
1556 Clouds 28 1010 58 10000 3.1 160 01:26 02.01.2020
1557 Clouds 28 1010 58 10000 3.1 160 00:49 02.01.2020
1558 Clouds 28 1010 54 10000 3.1 150 00:26 02.01.2020
1559 Clouds 28 1010 54 10000 3.1 150 00:26 02.01.2020
1560 Clouds 28 1010 54 10000 3.1 150 23:43 01.01.2020
1561 Clouds 28 1010 54 10000 3.1 150 23:43 01.01.2020
1562 Clouds 27 1010 57 10000 3.1 150 23:23 01.01.2020
1563 Clouds 27 1010 57 10000 3.1 150 22:39 01.01.2020
1564 Clouds 26 1010 61 10000 3.6 180 22:21 01.01.2020
1565 Clouds 26 1010 61 10000 3.6 180 21:58 01.01.2020
1566 Clouds 26 1010 61 10000 3.6 180 21:40 01.01.2020
1567 Clouds 25 1010 69 10000 3.22 171 21:20 01.01.2020
1568 Clouds 25 1010 69 10000 3.22 171 21:20 01.01.2020
1569 Clouds 25 1010 69 10000 3.22 171 20:58 01.01.2020
1570 Clouds 25 1010 69 10000 3.22 171 20:38 01.01.2020
1571 Clouds 23 1010 73 10000 2.1 160 20:20 01.01.2020
1572 Clouds 23 1010 73 10000 2.1 160 19:57 01.01.2020
1573 Clouds 23 1010 73 10000 2.1 160 19:38 01.01.2020
1574 Clouds 24 1010 69 10000 1.86 174 19:20 01.01.2020
1575 Clouds 24 1010 69 10000 1.86 174 18:57 01.01.2020
1576 Clouds 24 1010 69 10000 1.86 174 18:37 01.01.2020
1577 Clouds 24 1010 73 10000 1.86 174 18:19 01.01.2020
1578 Clouds 24 1010 73 10000 1.86 174 17:57 01.01.2020
1579 Clouds 24 1010 73 10000 1.86 174 17:39 01.01.2020
1580 Clouds 24 1009 78 10000 1.41 177 17:19 01.01.2020
1581 Clouds 24 1009 78 10000 1.41 177 16:56 01.01.2020
1582 Clouds 24 1009 78 10000 1.41 177 16:56 01.01.2020
1583 Clouds 24 1009 78 10000 1.41 177 16:37 01.01.2020
1584 Clouds 24 1010 83 10000 2.1 180 16:19 01.01.2020
1585 Clouds 24 1010 83 10000 2.1 180 15:54 01.01.2020
1586 Clouds 24 1010 83 10000 2.1 180 15:36 01.01.2020
1587 Clouds 24 1010 83 10000 2.1 170 15:18 01.01.2020
1588 Clouds 24 1010 83 10000 2.1 170 14:41 01.01.2020
1589 Clouds 24 1011 83 10000 2.1 170 14:22 01.01.2020
1590 Clouds 24 1011 83 10000 2.1 170 13:56 01.01.2020
1591 Clouds 24 1011 83 10000 2.1 170 13:37 01.01.2020
1592 Clouds 25 1011 78 10000 2.1 170 13:19 01.01.2020
1593 Clouds 25 1011 78 10000 2.1 170 12:57 01.01.2020
1594 Clouds 25 1011 78 10000 2.1 170 12:39 01.01.2020
1595 Clouds 25 1011 78 10000 2.1 170 12:19 01.01.2020
1596 Clouds 25 1011 78 10000 2.1 170 12:19 01.01.2020
1597 Clouds 25 1011 78 10000 2.1 170 11:56 01.01.2020
1598 Clouds 25 1011 78 10000 2.1 170 11:37 01.01.2020
1599 Clouds 25 1011 78 10000 3.1 170 11:18 01.01.2020
1600 Clouds 25 1011 78 10000 3.1 170 10:41 01.01.2020
1601 Clouds 26 1010 74 10000 4.1 170 10:21 01.01.2020
1602 Clouds 26 1010 74 10000 4.1 170 09:59 01.01.2020
1603 Clouds 26 1010 74 10000 4.1 170 09:38 01.01.2020
1604 Clouds 26 1010 78 10000 3.6 170 09:19 01.01.2020
1605 Clouds 26 1010 78 10000 3.6 170 08:56 01.01.2020
1606 Clouds 26 1010 78 10000 3.6 170 08:37 01.01.2020
1607 Clouds 26 1009 78 10000 3.1 160 08:19 01.01.2020
1608 Clouds 26 1009 78 10000 3.1 160 07:54 01.01.2020
1609 Clouds 26 1009 78 10000 3.1 160 07:36 01.01.2020
1610 Clouds 27 1009 74 10000 4.6 170 06:45 01.01.2020
1611 Clouds 28 1009 69 10000 5.1 170 06:21 01.01.2020
1612 Clouds 28 1009 74 10000 5.1 160 05:22 01.01.2020
1613 Clouds 28 1010 74 10000 2.1 180 03:46 01.01.2020
1614 Clouds 28 1010 78 10000 4.6 180 03:23 01.01.2020
1615 Clouds 28 1010 78 10000 4.6 180 03:23 01.01.2020
1616 Clouds 28 1010 78 10000 4.6 180 02:57 01.01.2020
1617 Clouds 28 1010 78 10000 4.6 180 02:36 01.01.2020
1618 Clouds 28 1010 69 10000 4.6 170 01:57 01.01.2020
1619 Clouds 28 1010 69 10000 4.6 170 01:38 01.01.2020
1620 Clouds 28 1010 69 10000 4.6 170 01:20 01.01.2020
1621 Clouds 28 1010 74 10000 4.1 170 00:44 01.01.2020
1622 Clouds 28 1010 74 10000 4.1 170 00:25 01.01.2020
1623 Clouds 28 1011 69 10000 2.6 170 23:41 31.12.2019
1624 Clouds 28 1011 69 10000 2.6 170 23:21 31.12.2019
1625 Clouds 28 1011 69 10000 4.1 180 22:57 31.12.2019
1626 Clouds 28 1011 69 10000 4.1 180 22:39 31.12.2019
1627 Clouds 28 1011 69 10000 4.1 180 22:20 31.12.2019
1628 Clouds 27 1011 78 10000 3.6 180 21:57 31.12.2019
1629 Clouds 27 1011 78 10000 3.6 180 21:39 31.12.2019
1630 Clouds 27 1011 78 10000 3.6 180 21:20 31.12.2019
1631 Clouds 26 1010 83 10000 3.1 180 20:55 31.12.2019
1632 Clouds 26 1010 83 10000 3.1 180 20:37 31.12.2019
1633 Clouds 26 1010 83 10000 3.1 180 20:18 31.12.2019
1634 Clouds 25 1010 88 10000 2.6 190 19:43 31.12.2019
1635 Clouds 25 1010 88 10000 2.6 190 19:24 31.12.2019
1636 Clouds 25 1008 88 10000 3.1 190 18:59 31.12.2019
1637 Clouds 25 1008 88 10000 3.1 190 18:40 31.12.2019
1638 Clouds 25 1008 88 10000 3.1 190 18:20 31.12.2019
1639 Clouds 25 1008 88 10000 2.1 200 17:57 31.12.2019
1640 Clouds 25 1008 88 10000 2.1 200 17:38 31.12.2019
1641 Clouds 25 1008 88 10000 2.1 200 17:19 31.12.2019
1642 Clouds 25 1008 88 10000 2.1 200 17:19 31.12.2019
1643 Clouds 25 1008 88 10000 3.1 180 16:57 31.12.2019
1644 Clouds 25 1008 88 10000 3.1 180 16:57 31.12.2019
1645 Clouds 25 1008 88 10000 3.1 180 16:38 31.12.2019
1646 Clouds 25 1008 88 10000 3.1 180 16:19 31.12.2019
1647 Clouds 25 1008 88 10000 1.5 220 15:57 31.12.2019
1648 Clouds 25 1008 88 10000 1.5 220 15:39 31.12.2019
1649 Clouds 25 1008 88 10000 1.5 220 15:21 31.12.2019
1650 Clouds 25 1009 88 10000 1.5 190 14:58 31.12.2019
1651 Clouds 25 1009 88 10000 1.5 190 14:39 31.12.2019
1652 Clouds 25 1009 88 10000 1.5 190 14:19 31.12.2019
1653 Clouds 25 1010 88 10000 2.6 200 13:58 31.12.2019
1654 Clouds 25 1010 88 10000 2.6 200 13:40 31.12.2019
1655 Clouds 25 1010 88 10000 2.6 200 13:21 31.12.2019
1656 Clouds 25 1010 88 10000 1.5 200 12:58 31.12.2019
1657 Clouds 25 1010 88 10000 1.5 200 12:40 31.12.2019
1658 Clouds 25 1010 88 10000 1.5 200 12:20 31.12.2019
1659 Clouds 25 1010 88 10000 2.1 190 11:56 31.12.2019
1660 Clouds 25 1010 88 10000 2.1 190 11:38 31.12.2019
1661 Clouds 25 1010 88 10000 2.1 190 11:20 31.12.2019
1662 Clouds 25 1010 94 10000 2.82 185 10:57 31.12.2019
1663 Clouds 25 1010 94 10000 2.82 185 10:38 31.12.2019
1664 Clouds 25 1010 94 10000 2.82 185 10:20 31.12.2019
1665 Clouds 25 1009 88 10000 2.82 185 09:58 31.12.2019
1666 Clouds 25 1009 88 10000 2.82 185 09:39 31.12.2019
1667 Clouds 25 1009 88 10000 2.82 185 09:20 31.12.2019
1668 Drizzle 25 1008 88 10000 3.1 200 08:57 31.12.2019
1669 Drizzle 25 1008 88 10000 3.1 200 08:37 31.12.2019
1670 Drizzle 25 1008 88 10000 3.1 200 08:19 31.12.2019
1671 Clouds 26 1008 83 10000 5.1 200 07:43 31.12.2019
1672 Clouds 26 1008 83 10000 5.1 200 07:20 31.12.2019
1673 Clouds 26 1007 83 10000 3.1 190 06:49 31.12.2019
1674 Rain 25 1006 88 10000 3.6 210 05:57 31.12.2019
1675 Clouds 27 1006 83 10000 4.1 210 04:28 31.12.2019
1676 Rain 26 1007 83 10000 7.2 210 03:27 31.12.2019
1677 Clouds 29 1007 74 10000 5.7 210 02:54 31.12.2019
1678 Clouds 29 1007 74 10000 5.7 210 02:54 31.12.2019
1679 Clouds 29 1007 74 10000 5.7 210 02:54 31.12.2019
1680 Clouds 28 1007 78 10000 6.2 210 01:58 31.12.2019
1681 Clouds 28 1007 78 10000 6.2 210 01:40 31.12.2019
1682 Clouds 28 1007 78 10000 6.2 210 01:22 31.12.2019
1683 Clouds 27 1007 78 10000 6.7 210 00:45 31.12.2019
1684 Clouds 27 1007 78 10000 6.7 210 00:22 31.12.2019
1685 Clouds 27 1007 78 10000 6.7 220 23:56 30.12.2019
1686 Clouds 27 1007 78 10000 6.7 220 23:38 30.12.2019
1687 Clouds 27 1007 78 10000 6.7 220 23:19 30.12.2019
1688 Rain 27 1008 83 10000 5.7 210 22:57 30.12.2019
1689 Rain 27 1008 83 10000 5.7 210 22:57 30.12.2019
1690 Rain 27 1008 83 10000 5.7 210 22:38 30.12.2019
1691 Rain 27 1008 83 10000 5.7 210 22:19 30.12.2019
1692 Clouds 26 1008 88 10000 4.6 230 21:56 30.12.2019
1693 Clouds 26 1008 88 10000 4.6 230 21:38 30.12.2019
1694 Clouds 26 1008 88 10000 4.6 230 21:18 30.12.2019
1695 Clouds 26 1007 83 10000 2.6 210 20:56 30.12.2019
1696 Clouds 26 1007 83 10000 2.6 210 20:56 30.12.2019
1697 Clouds 26 1007 83 10000 2.6 210 20:38 30.12.2019
1698 Clouds 26 1007 83 10000 3.6 220 20:19 30.12.2019
1699 Clouds 26 1007 83 10000 3.6 220 19:56 30.12.2019
1700 Clouds 26 1007 83 10000 3.6 220 19:37 30.12.2019
1701 Clouds 25 1006 88 10000 4.1 210 19:18 30.12.2019
1702 Clouds 25 1006 88 10000 4.1 210 18:56 30.12.2019
1703 Clouds 25 1006 88 10000 4.1 210 18:36 30.12.2019
1704 Clouds 25 1006 88 10000 4.1 210 18:36 30.12.2019
1705 Clouds 25 1005 88 10000 4.1 220 18:18 30.12.2019
1706 Clouds 25 1005 88 10000 4.1 220 17:54 30.12.2019
1707 Clouds 25 1005 88 10000 4.1 220 17:36 30.12.2019
1708 Clouds 25 1005 88 10000 4.1 220 17:36 30.12.2019
1709 Clouds 25 1005 94 10000 3.6 230 17:18 30.12.2019
1710 Clouds 25 1005 94 10000 3.6 230 16:41 30.12.2019
1711 Clouds 25 1005 94 10000 3.6 230 16:41 30.12.2019
1712 Clouds 25 1006 94 10000 3.6 220 16:20 30.12.2019
1713 Clouds 25 1006 94 10000 3.6 220 15:57 30.12.2019
1714 Clouds 25 1006 94 10000 3.6 220 15:39 30.12.2019
1715 Rain 25 1006 88 10000 4.1 230 15:19 30.12.2019
1716 Rain 25 1006 88 10000 4.1 230 15:19 30.12.2019
1717 Rain 25 1006 88 10000 4.1 230 14:55 30.12.2019
1718 Rain 25 1006 88 10000 4.1 230 14:37 30.12.2019
1719 Rain 25 1006 88 10000 4.1 230 14:37 30.12.2019
1720 Clouds 25 1006 94 10000 3.1 210 14:18 30.12.2019
1721 Clouds 25 1006 94 10000 3.1 210 13:42 30.12.2019
1722 Clouds 26 1007 83 10000 3.6 220 13:24 30.12.2019
1723 Clouds 26 1007 83 10000 3.6 220 12:59 30.12.2019
1724 Clouds 26 1007 83 10000 3.6 220 12:41 30.12.2019
1725 Clouds 26 1006 83 10000 4.1 220 12:19 30.12.2019
1726 Clouds 26 1006 83 10000 4.1 220 11:56 30.12.2019
1727 Clouds 26 1006 83 10000 4.1 220 11:38 30.12.2019
1728 Clouds 26 1006 83 10000 4.1 220 11:18 30.12.2019
1729 Clouds 26 1006 83 10000 4.1 220 10:43 30.12.2019
1730 Clouds 26 1006 83 10000 4.1 220 10:20 30.12.2019
1731 Clouds 26 1005 88 10000 4.1 220 09:55 30.12.2019
1732 Clouds 26 1005 88 10000 4.1 220 09:55 30.12.2019
1733 Clouds 26 1005 88 10000 4.1 220 09:37 30.12.2019
1734 Clouds 26 1005 88 10000 4.1 220 09:18 30.12.2019
1735 Rain 25 1005 94 10000 3.6 230 08:46 30.12.2019
1736 Rain 25 1005 94 10000 3.6 230 08:23 30.12.2019
1737 Clouds 27 1004 83 10000 6.2 230 07:53 30.12.2019
1738 Clouds 27 1004 83 10000 6.2 230 07:32 30.12.2019
1739 Clouds 28 1003 74 10000 5.7 220 06:39 30.12.2019
1740 Rain 28 1003 78 10000 7.2 230 04:45 30.12.2019
1741 Clouds 29 1003 74 10000 7.7 230 03:52 30.12.2019
1742 Clouds 29 1004 74 10000 6.2 220 02:47 30.12.2019
1743 Clouds 29 1004 74 10000 6.7 230 02:29 30.12.2019
1744 Clouds 29 1004 74 10000 6.7 230 01:43 30.12.2019
1745 Clouds 29 1004 74 10000 6.2 240 01:19 30.12.2019
1746 Clouds 29 1004 74 10000 6.2 240 00:42 30.12.2019
1747 Clouds 28 1004 83 10000 6.7 230 23:58 29.12.2019
1748 Rain 27 1004 78 0 5.75 219 23:38 29.12.2019
1749 Rain 27 1004 78 0 5.75 219 23:38 29.12.2019
1750 Rain 27 1004 83 10000 6.2 230 23:19 29.12.2019
1751 Rain 27 1004 83 10000 6.2 230 22:41 29.12.2019
1752 Rain 27 1004 83 10000 6.2 230 22:41 29.12.2019
1753 Clouds 27 1003 83 10000 5.7 240 22:22 29.12.2019
1754 Clouds 27 1003 83 10000 5.7 240 21:56 29.12.2019
1755 Clouds 27 1003 83 10000 5.7 240 21:38 29.12.2019
1756 Clouds 26 1002 88 10000 5.7 230 21:20 29.12.2019
1757 Clouds 26 1002 88 10000 5.7 230 20:57 29.12.2019
1758 Clouds 26 1002 88 10000 5.7 230 20:38 29.12.2019
1759 Clouds 26 1002 88 10000 5.7 230 20:20 29.12.2019
1760 Clouds 26 1002 88 10000 6.7 230 19:58 29.12.2019
1761 Clouds 26 1002 88 10000 6.7 230 19:39 29.12.2019
1762 Clouds 26 1002 88 10000 6.7 230 19:20 29.12.2019
1763 Clouds 25 1001 94 10000 5.7 240 18:55 29.12.2019
1764 Clouds 25 1001 94 10000 5.7 240 18:37 29.12.2019
1765 Clouds 25 1001 94 10000 5.7 240 18:19 29.12.2019
1766 Clouds 25 1001 94 10000 5.7 240 18:19 29.12.2019
1767 Clouds 25 1001 94 10000 5.1 250 17:56 29.12.2019
1768 Clouds 25 1001 94 10000 5.1 250 17:38 29.12.2019
1769 Clouds 25 1001 94 10000 5.1 250 17:19 29.12.2019
1770 Clouds 25 1001 94 10000 4.6 250 16:56 29.12.2019
1771 Clouds 25 1001 94 10000 4.6 250 16:36 29.12.2019
1772 Clouds 25 1001 94 10000 4.6 250 16:18 29.12.2019
1773 Rain 25 1001 94 10000 4.6 260 15:56 29.12.2019
1774 Rain 25 1001 94 10000 4.6 260 15:56 29.12.2019
1775 Rain 25 1001 94 10000 4.6 260 15:56 29.12.2019
1776 Rain 25 1001 94 10000 4.6 260 15:38 29.12.2019
1777 Rain 25 1001 94 10000 4.6 260 15:18 29.12.2019
1778 Rain 26 1001 83 10000 5.1 250 14:55 29.12.2019
1779 Rain 26 1001 83 10000 5.1 250 14:37 29.12.2019
1780 Rain 26 1001 83 10000 5.1 250 14:18 29.12.2019
1781 Rain 26 1002 83 10000 4.1 260 13:55 29.12.2019
1782 Rain 26 1002 83 10000 4.1 260 13:37 29.12.2019
1783 Rain 26 1002 83 10000 4.1 260 13:18 29.12.2019
1784 Rain 26 1002 88 9000 5.1 240 12:41 29.12.2019
1785 Rain 26 1002 88 9000 5.1 240 12:23 29.12.2019
1786 Rain 26 1002 88 9000 5.1 240 11:54 29.12.2019
1787 Rain 26 1002 88 9000 5.1 240 11:36 29.12.2019
1788 Rain 26 1002 88 9000 5.1 240 11:18 29.12.2019
1789 Rain 26 1002 88 10000 4.6 260 10:41 29.12.2019
1790 Rain 26 1001 88 10000 4.6 260 10:20 29.12.2019
1791 Rain 26 1001 88 10000 4.6 260 09:54 29.12.2019
1792 Rain 26 1001 88 10000 4.6 260 09:36 29.12.2019
1793 Rain 26 1000 94 10000 6.2 250 09:18 29.12.2019
1794 Rain 26 1000 94 10000 6.2 250 08:44 29.12.2019
1795 Rain 27 999 83 10000 7.2 260 08:24 29.12.2019
1796 Rain 27 999 83 10000 7.2 260 07:54 29.12.2019
1797 Rain 27 999 83 10000 7.2 260 07:54 29.12.2019
1798 Rain 27 999 83 10000 6.7 260 07:27 29.12.2019
1799 Rain 27 999 83 10000 6.7 260 06:53 29.12.2019
1800 Clouds 28 998 78 10000 8.2 260 06:23 29.12.2019
1801 Clouds 28 998 78 10000 8.2 260 05:48 29.12.2019
1802 Clouds 30 998 70 10000 6.7 260 04:34 29.12.2019
1803 Clouds 30 998 70 10000 7.2 260 03:40 29.12.2019
1804 Clouds 30 998 70 10000 6.7 250 02:49 29.12.2019
1805 Clouds 30 998 70 10000 6.7 250 02:19 29.12.2019
1806 Clouds 30 998 79 10000 6.7 280 01:31 29.12.2019
1807 Clouds 30 998 79 10000 6.7 280 01:31 29.12.2019
1808 Clouds 30 998 74 10000 5.1 290 00:51 29.12.2019
1809 Clouds 30 998 74 10000 5.1 290 00:25 29.12.2019
1810 Clouds 30 998 74 10000 5.1 280 23:56 28.12.2019
1811 Clouds 30 998 74 10000 5.1 280 23:37 28.12.2019
1812 Clouds 30 998 74 10000 5.1 280 23:18 28.12.2019
1813 Clouds 30 998 74 10000 5.1 320 22:38 28.12.2019
1814 Clouds 30 998 74 10000 5.1 320 22:38 28.12.2019
1815 Clouds 30 998 74 10000 5.1 320 22:19 28.12.2019
1816 Clouds 28 997 83 10000 5.1 340 21:57 28.12.2019
1817 Clouds 28 997 83 10000 5.1 340 21:38 28.12.2019
1818 Clouds 28 997 83 10000 5.1 340 21:38 28.12.2019
1819 Clouds 28 997 83 10000 5.1 340 21:20 28.12.2019
1820 Clouds 27 997 83 10000 2.1 310 20:55 28.12.2019
1821 Clouds 27 997 83 10000 2.1 310 20:55 28.12.2019
1822 Clouds 27 997 83 10000 2.1 310 20:36 28.12.2019
1823 Clouds 27 997 83 10000 2.6 320 20:18 28.12.2019
1824 Clouds 27 997 83 10000 2.6 320 19:54 28.12.2019
1825 Clouds 27 997 83 10000 2.6 320 19:36 28.12.2019
1826 Clouds 26 996 88 10000 2.1 340 19:18 28.12.2019
1827 Clouds 26 996 88 10000 2.1 340 18:42 28.12.2019
1828 Clouds 26 995 88 10000 3.1 340 18:20 28.12.2019
1829 Clouds 26 995 88 10000 3.1 340 17:59 28.12.2019
1830 Clouds 26 995 88 10000 3.1 340 17:40 28.12.2019
1831 Clouds 26 996 88 10000 1 0 17:21 28.12.2019
1832 Clouds 26 996 88 10000 1 0 16:49 28.12.2019
1833 Clouds 27 997 83 10000 3.1 300 16:27 28.12.2019
1834 Clouds 27 997 83 10000 3.1 300 15:57 28.12.2019
1835 Clouds 27 997 83 10000 3.1 300 15:57 28.12.2019
1836 Clouds 27 997 83 10000 3.1 300 15:39 28.12.2019
1837 Clouds 27 996 83 10000 6.2 360 15:21 28.12.2019
1838 Clouds 27 996 83 10000 6.2 360 15:21 28.12.2019
1839 Clouds 27 996 83 10000 6.2 360 14:46 28.12.2019
1840 Clouds 27 997 83 10000 4.1 10 14:24 28.12.2019
1841 Clouds 27 997 83 10000 4.1 10 13:58 28.12.2019
1842 Clouds 27 997 83 10000 4.1 10 13:39 28.12.2019
1843 Clouds 27 998 83 10000 2.1 20 13:19 28.12.2019
1844 Clouds 27 998 83 10000 2.1 20 12:55 28.12.2019
1845 Clouds 27 998 83 10000 2.1 20 12:36 28.12.2019
1846 Clouds 27 998 83 10000 4.6 360 12:18 28.12.2019
1847 Clouds 27 998 83 10000 4.6 360 11:39 28.12.2019
1848 Clouds 27 998 78 10000 4.6 360 11:20 28.12.2019
1849 Clouds 27 998 78 10000 4.6 360 10:46 28.12.2019
1850 Clouds 27 998 78 10000 4.6 360 10:23 28.12.2019
1851 Clouds 28 998 74 10000 6.2 350 09:58 28.12.2019
1852 Clouds 28 998 74 10000 6.2 350 09:40 28.12.2019
1853 Clouds 28 998 74 10000 6.2 350 09:21 28.12.2019
1854 Clouds 28 998 78 10000 5.1 350 08:45 28.12.2019
1855 Clouds 28 998 78 10000 5.1 350 08:27 28.12.2019
1856 Clouds 28 997 78 10000 7.2 340 07:57 28.12.2019
1857 Clouds 28 997 78 10000 7.2 340 07:39 28.12.2019
1858 Clouds 30 997 66 10000 8.7 340 06:42 28.12.2019
1859 Clouds 29 996 74 10000 9.3 340 05:19 28.12.2019
1860 Clouds 29 997 74 10000 9.3 350 03:47 28.12.2019
1861 Clouds 29 998 74 10000 9.3 360 02:49 28.12.2019
1862 Clouds 29 997 74 10000 8.2 10 02:19 28.12.2019
1863 Clouds 29 997 74 10000 8.2 10 01:42 28.12.2019
1864 Clouds 29 999 79 10000 7.2 350 01:18 28.12.2019
1865 Clouds 29 999 79 10000 7.2 350 00:40 28.12.2019
1866 Clouds 28 998 83 10000 6.7 10 00:21 28.12.2019
1867 Clouds 28 998 83 10000 6.7 10 23:45 27.12.2019
1868 Clouds 28 999 83 10000 6.2 20 23:20 27.12.2019
1869 Clouds 28 999 83 10000 6.2 20 22:58 27.12.2019
1870 Clouds 28 999 83 10000 6.2 20 22:39 27.12.2019
1871 Clouds 27 999 88 10000 6.7 20 22:20 27.12.2019
1872 Clouds 27 999 88 10000 6.7 20 21:58 27.12.2019
1873 Clouds 27 999 88 10000 6.7 20 21:38 27.12.2019
1874 Clouds 28 998 83 10000 6.7 10 21:19 27.12.2019
1875 Clouds 28 998 83 10000 6.7 10 20:42 27.12.2019
1876 Clouds 28 998 83 10000 6.7 10 20:23 27.12.2019
1877 Clouds 27 999 88 10000 6.2 20 19:54 27.12.2019
1878 Clouds 27 999 88 10000 6.2 20 19:36 27.12.2019
1879 Clouds 27 999 88 10000 6.2 20 19:18 27.12.2019
1880 Rain 26 998 100 5000 5.7 30 18:40 27.12.2019
1881 Rain 26 998 100 5000 5.7 30 18:22 27.12.2019
1882 Rain 26 997 100 3000 10.3 40 17:58 27.12.2019
1883 Rain 26 997 100 3000 10.3 40 17:40 27.12.2019
1884 Rain 26 997 100 3000 10.3 40 17:19 27.12.2019
1885 Rain 26 998 94 5000 10.3 30 16:59 27.12.2019
1886 Rain 26 998 94 5000 10.3 30 16:39 27.12.2019
1887 Rain 26 998 94 5000 10.3 30 16:39 27.12.2019
1888 Rain 26 998 94 5000 10.3 30 16:20 27.12.2019
1889 Rain 26 998 94 10000 13.4 40 15:45 27.12.2019
1890 Rain 26 998 94 10000 13.4 40 15:23 27.12.2019
1891 Clouds 27 999 88 10000 11.8 40 14:58 27.12.2019
1892 Clouds 27 999 88 10000 11.8 40 14:40 27.12.2019
1893 Clouds 27 999 88 10000 11.8 40 14:21 27.12.2019
1894 Rain 27 1000 88 10000 11.3 40 13:57 27.12.2019
1895 Rain 27 1000 88 10000 11.3 40 13:38 27.12.2019
1896 Rain 27 1000 88 10000 11.3 40 13:38 27.12.2019
1897 Rain 27 1000 88 10000 11.3 40 13:20 27.12.2019
1898 Rain 26 1001 94 5000 9.3 40 12:42 27.12.2019
1899 Rain 26 1001 94 5000 9.3 40 12:23 27.12.2019
1900 Rain 27 1000 94 8000 13.4 40 11:46 27.12.2019
1901 Rain 27 1000 94 8000 13.4 40 11:27 27.12.2019
1902 Rain 27 999 94 5000 16.5 60 10:59 27.12.2019
1903 Rain 27 999 94 5000 16.5 60 10:40 27.12.2019
1904 Rain 27 999 94 5000 16.5 60 10:22 27.12.2019
1905 Rain 27 999 88 10000 15.9 70 09:46 27.12.2019
1906 Rain 27 999 88 10000 15.9 70 09:22 27.12.2019
1907 Clouds 27 999 88 10000 14.4 70 08:59 27.12.2019
1908 Clouds 27 999 88 10000 14.4 70 08:37 27.12.2019
1909 Rain 27 1000 88 10000 11.8 60 07:53 27.12.2019
1910 Rain 27 1000 88 10000 11.8 60 07:34 27.12.2019
1911 Rain 27 1000 88 10000 12.3 70 06:39 27.12.2019
1912 Rain 27 1001 88 10000 10.8 70 05:52 27.12.2019
1913 Rain 27 1001 94 10000 9.3 70 03:47 27.12.2019
1914 Clouds 27 1004 88 10000 8.7 60 02:25 27.12.2019
1915 Clouds 27 1004 88 10000 8.7 60 01:42 27.12.2019
1916 Clouds 27 1004 88 10000 8.7 60 01:20 27.12.2019
1917 Clouds 27 1004 88 10000 10.8 60 00:46 27.12.2019
1918 Clouds 27 1004 88 10000 10.8 60 00:24 27.12.2019
1919 Rain 26 1004 94 8000 7.7 80 23:42 26.12.2019
1920 Rain 26 1004 94 8000 7.7 80 23:24 26.12.2019
1921 Rain 25 1005 94 5000 9.3 80 22:58 26.12.2019
1922 Rain 25 1005 94 5000 9.3 80 22:37 26.12.2019
1923 Rain 25 1005 94 5000 9.3 80 22:18 26.12.2019
1924 Rain 26 1006 94 5000 13.4 60 21:39 26.12.2019
1925 Rain 26 1005 94 8000 10.8 80 21:21 26.12.2019
1926 Rain 26 1005 94 10000 11.3 90 20:47 26.12.2019
1927 Rain 26 1005 94 10000 11.3 90 20:24 26.12.2019
1928 Rain 25 1005 100 8000 8.2 80 19:59 26.12.2019
1929 Rain 25 1005 100 8000 8.2 80 19:40 26.12.2019
1930 Rain 25 1005 100 3000 10.8 70 19:22 26.12.2019
1931 Rain 26 1006 88 10000 7.2 80 18:59 26.12.2019
1932 Rain 26 1006 88 10000 7.2 80 18:40 26.12.2019
1933 Rain 26 1006 88 10000 7.2 80 18:20 26.12.2019
1934 Rain 26 1005 88 10000 5.7 80 17:57 26.12.2019
1935 Rain 26 1005 88 10000 5.7 80 17:39 26.12.2019
1936 Rain 26 1005 88 10000 5.7 80 17:19 26.12.2019
1937 Rain 26 1006 94 10000 5.1 60 16:45 26.12.2019
1938 Rain 26 1006 94 10000 5.1 60 16:24 26.12.2019
1939 Rain 26 1005 94 10000 5.1 50 15:56 26.12.2019
1940 Rain 26 1005 94 10000 5.1 50 15:56 26.12.2019
1941 Rain 26 1005 94 10000 5.1 50 15:38 26.12.2019
1942 Rain 26 1005 94 10000 5.1 50 15:18 26.12.2019
1943 Rain 26 1006 94 10000 6.2 60 14:41 26.12.2019
1944 Rain 26 1006 94 10000 6.2 60 14:22 26.12.2019
1945 Rain 26 1006 94 10000 4.6 60 13:44 26.12.2019
1946 Rain 26 1006 94 10000 4.6 60 13:23 26.12.2019
1947 Rain 27 1007 88 10000 5.1 50 12:58 26.12.2019
1948 Rain 27 1007 88 10000 5.1 50 12:58 26.12.2019
1949 Rain 27 1007 88 10000 5.1 50 12:39 26.12.2019
1950 Rain 27 1007 88 10000 5.1 50 12:21 26.12.2019
1951 Rain 27 1008 88 10000 6.2 70 11:57 26.12.2019
1952 Rain 27 1008 88 10000 6.2 70 11:39 26.12.2019
1953 Rain 27 1008 88 10000 6.2 70 11:20 26.12.2019
1954 Rain 27 1007 94 10000 4.6 70 10:49 26.12.2019
1955 Rain 27 1007 94 10000 4.6 80 10:19 26.12.2019
1956 Rain 27 1007 94 10000 4.6 80 09:53 26.12.2019
1957 Rain 27 1007 88 10000 3.6 60 09:32 26.12.2019
1958 Rain 27 1007 88 10000 3.6 60 08:55 26.12.2019
1959 Rain 27 1007 88 10000 3.6 60 08:37 26.12.2019
1960 Clouds 28 1006 83 10000 3.6 70 08:18 26.12.2019
1961 Clouds 29 1005 79 10000 5.7 80 07:30 26.12.2019
1962 Clouds 29 1005 79 10000 5.7 80 06:54 26.12.2019
1963 Clouds 29 1005 79 10000 5.7 80 06:54 26.12.2019
1964 Clouds 29 1005 83 10000 6.7 70 06:32 26.12.2019
1965 Clouds 29 1005 83 10000 6.7 70 05:46 26.12.2019
1966 Clouds 30 1006 74 10000 7.2 80 04:59 26.12.2019
1967 Clouds 31 1006 74 10000 8.2 70 04:30 26.12.2019
1968 Clouds 31 1006 62 10000 7.7 80 03:18 26.12.2019
1969 Clouds 31 1006 62 10000 7.7 80 02:38 26.12.2019
1970 Clouds 31 1006 62 10000 7.7 80 02:19 26.12.2019
1971 Clouds 30 1007 79 10000 7.2 80 01:41 26.12.2019
1972 Clouds 30 1007 79 10000 7.2 80 01:22 26.12.2019
1973 Clouds 29 1007 79 10000 7.2 90 00:41 26.12.2019
1974 Clouds 29 1007 79 10000 7.2 90 00:22 26.12.2019
1975 Clouds 28 1008 83 10000 4.1 90 23:42 25.12.2019
1976 Clouds 28 1008 83 10000 4.1 90 23:21 25.12.2019
1977 Rain 27 1008 94 8000 6.2 50 22:59 25.12.2019
1978 Rain 27 1008 94 8000 6.2 50 22:40 25.12.2019
1979 Rain 27 1007 94 9000 3.6 80 22:22 25.12.2019
1980 Clouds 28 1008 83 10000 3.43 97 21:59 25.12.2019
1981 Clouds 28 1008 83 10000 3.43 97 21:40 25.12.2019
1982 Clouds 28 1008 83 10000 3.43 97 21:21 25.12.2019
1983 Clouds 28 1008 83 10000 3.43 97 21:21 25.12.2019
1984 Clouds 25 1007 100 10000 3.43 97 20:57 25.12.2019
1985 Clouds 25 1007 100 10000 3.43 97 20:39 25.12.2019
1986 Clouds 25 1007 100 10000 1.89 105 20:18 25.12.2019
1987 Clouds 25 1007 100 10000 1.89 105 20:18 25.12.2019
1988 Clouds 25 1007 100 10000 1.89 105 20:18 25.12.2019
1989 Clouds 24 1007 94 10000 1.89 105 19:43 25.12.2019
1990 Clouds 24 1007 94 10000 1.89 105 19:43 25.12.2019
1991 Clouds 24 1007 94 10000 1.89 105 19:25 25.12.2019
1992 Clouds 23 1006 100 10000 1.89 105 18:59 25.12.2019
1993 Clouds 23 1006 100 10000 1.89 105 18:38 25.12.2019
1994 Clouds 23 1006 100 10000 1.89 105 18:19 25.12.2019
1995 Clouds 25 1006 100 10000 1.89 105 17:42 25.12.2019
1996 Clouds 25 1006 100 10000 1.3 90 17:20 25.12.2019
1997 Clouds 25 1006 94 10000 1.3 90 16:58 25.12.2019
1998 Clouds 25 1006 94 10000 1.3 90 16:38 25.12.2019
1999 Clouds 25 1007 94 10000 1.3 90 16:19 25.12.2019
2000 Clouds 25 1007 94 10000 1.3 90 15:57 25.12.2019
2001 Clouds 25 1007 94 10000 1.3 90 15:39 25.12.2019
2002 Clouds 25 1007 94 10000 1.3 90 15:39 25.12.2019
2003 Clouds 25 1007 94 10000 1.3 90 15:20 25.12.2019
2004 Clouds 26 1007 94 10000 1.3 90 14:57 25.12.2019
2005 Clouds 26 1007 94 10000 1.3 90 14:39 25.12.2019
2006 Clouds 26 1007 94 10000 1.18 93 14:20 25.12.2019
2007 Clouds 26 1008 94 10000 1.18 93 13:45 25.12.2019
2008 Clouds 26 1008 94 10000 1.18 93 13:21 25.12.2019
2009 Clouds 26 1009 94 10000 1.21 93 12:57 25.12.2019
2010 Clouds 26 1009 94 10000 1.21 93 12:38 25.12.2019
2011 Clouds 26 1009 94 10000 1.21 93 12:38 25.12.2019
2012 Clouds 26 1009 94 10000 1.21 93 12:19 25.12.2019
2013 Clouds 27 1009 83 10000 1.21 93 11:43 25.12.2019
2014 Clouds 27 1009 83 10000 1.21 93 11:22 25.12.2019
2015 Rain 24 1008 95 0 1.66 113 10:59 25.12.2019
2016 Rain 24 1008 95 0 1.66 113 10:59 25.12.2019
2017 Rain 24 1008 95 0 1.66 113 10:36 25.12.2019
2018 Clouds 27 1008 83 10000 1 0 10:18 25.12.2019
2019 Clouds 27 1008 83 10000 1 0 09:44 25.12.2019
2020 Clouds 27 1008 83 10000 1 0 09:26 25.12.2019
2021 Clouds 27 1008 78 10000 2.6 150 08:46 25.12.2019
2022 Clouds 27 1008 78 10000 2.6 150 08:25 25.12.2019
2023 Clouds 27 1007 78 10000 2.6 150 07:45 25.12.2019
2024 Clouds 27 1007 78 10000 2.6 150 07:23 25.12.2019
2025 Clouds 27 1006 78 10000 2.6 150 06:47 25.12.2019
2026 Clouds 27 1006 78 10000 2.6 150 06:22 25.12.2019
2027 Clouds 29 1007 70 10000 4.1 140 04:49 25.12.2019
2028 Clouds 29 1007 70 10000 4.1 140 04:25 25.12.2019
2029 Clouds 29 1007 70 10000 4.1 140 03:52 25.12.2019
2030 Clouds 29 1007 70 10000 4.1 140 03:32 25.12.2019
2031 Clouds 29 1008 70 10000 4.6 130 02:32 25.12.2019
2032 Clouds 29 1008 66 10000 4.6 120 01:54 25.12.2019
2033 Clouds 29 1008 66 10000 4.6 120 01:24 25.12.2019
2034 Clouds 29 1008 66 10000 4.6 120 00:45 25.12.2019
2035 Clouds 29 1008 66 10000 4.6 120 00:26 25.12.2019
2036 Clouds 29 1008 58 10000 5.1 120 23:40 24.12.2019
2037 Clouds 29 1008 58 10000 5.1 120 23:21 24.12.2019
2038 Clouds 28 1009 65 10000 5.1 120 22:58 24.12.2019
2039 Clouds 28 1009 65 10000 5.1 120 22:37 24.12.2019
2040 Clouds 28 1009 65 10000 5.1 120 22:19 24.12.2019
2041 Clouds 27 1008 78 10000 2.6 120 21:41 24.12.2019
2042 Clouds 27 1008 78 10000 2.6 120 21:41 24.12.2019
2043 Clouds 27 1008 78 10000 2.6 120 21:22 24.12.2019
2044 Clouds 27 1008 78 10000 2.6 120 20:43 24.12.2019
2045 Clouds 27 1008 78 10000 2.6 120 20:23 24.12.2019
2046 Clouds 26 1007 78 10000 2.1 110 19:56 24.12.2019
2047 Clouds 26 1007 78 10000 2.1 110 19:37 24.12.2019
2048 Clouds 26 1007 78 10000 2.1 110 19:18 24.12.2019
2049 Clouds 25 1007 88 10000 2.1 110 18:42 24.12.2019
2050 Clouds 25 1007 88 10000 2.1 110 18:19 24.12.2019
2051 Clouds 26 1006 78 10000 2.6 110 17:44 24.12.2019
2052 Clouds 26 1006 78 10000 2.6 110 17:23 24.12.2019
2053 Clouds 26 1007 78 10000 3.1 110 16:58 24.12.2019
2054 Clouds 26 1007 78 10000 3.1 110 16:58 24.12.2019
2055 Clouds 26 1007 78 10000 3.1 110 16:40 24.12.2019
2056 Clouds 26 1007 78 10000 3.1 110 16:21 24.12.2019
2057 Clouds 26 1007 83 10000 2.6 110 15:58 24.12.2019
2058 Clouds 26 1007 83 10000 2.6 110 15:58 24.12.2019
2059 Clouds 26 1007 83 10000 2.6 110 15:37 24.12.2019
2060 Clouds 26 1007 83 10000 2.6 110 15:19 24.12.2019
2061 Clouds 26 1007 83 10000 3.1 110 14:58 24.12.2019
2062 Clouds 26 1007 83 10000 3.1 110 14:58 24.12.2019
2063 Clouds 26 1007 83 10000 3.1 110 14:40 24.12.2019
2064 Clouds 26 1007 83 10000 3.1 110 14:40 24.12.2019
2065 Clouds 26 1007 83 10000 3.1 110 14:22 24.12.2019
2066 Clouds 26 1008 83 10000 2.1 110 13:56 24.12.2019
2067 Clouds 26 1008 83 10000 2.1 110 13:38 24.12.2019
2068 Clouds 26 1008 83 10000 2.1 110 13:20 24.12.2019
2069 Clouds 26 1009 83 10000 3.1 100 12:56 24.12.2019
2070 Clouds 26 1009 83 10000 3.1 100 12:56 24.12.2019
2071 Clouds 26 1009 83 10000 3.1 100 12:38 24.12.2019
2072 Clouds 26 1009 83 10000 3.1 100 12:19 24.12.2019
2073 Clouds 26 1009 83 10000 3.1 100 12:19 24.12.2019
2074 Clouds 26 1009 83 10000 2.6 100 11:56 24.12.2019
2075 Clouds 26 1009 83 10000 2.6 100 11:37 24.12.2019
2076 Clouds 26 1009 83 10000 2.6 100 11:19 24.12.2019
2077 Rain 26 1008 94 10000 1 140 10:56 24.12.2019
2078 Rain 26 1008 94 10000 1 140 10:56 24.12.2019
2079 Rain 26 1008 94 10000 1 140 10:56 24.12.2019
2080 Rain 26 1008 94 10000 1 140 10:38 24.12.2019
2081 Clouds 26 1008 88 10000 1.5 150 10:19 24.12.2019
2082 Clouds 26 1008 88 10000 1.5 150 09:55 24.12.2019
2083 Clouds 26 1008 88 10000 1.5 150 09:37 24.12.2019
2084 Clouds 27 1007 83 10000 3.1 130 09:19 24.12.2019
2085 Clouds 27 1007 83 10000 3.1 130 08:45 24.12.2019
2086 Rain 27 1006 78 10000 3.6 130 08:24 24.12.2019
2087 Rain 27 1006 78 10000 3.6 130 07:46 24.12.2019
2088 Clouds 28 1006 78 10000 4.1 140 07:27 24.12.2019
2089 Clouds 28 1006 78 10000 4.1 140 06:59 24.12.2019
2090 Clouds 28 1006 78 10000 4.1 140 06:39 24.12.2019
2091 Clouds 28 1006 74 10000 3.6 130 06:19 24.12.2019
2092 Clouds 28 1006 74 10000 3.6 130 05:46 24.12.2019
2093 Clouds 29 1006 74 10000 5.1 130 05:18 24.12.2019
2094 Clouds 28 1006 74 10000 5.1 110 03:55 24.12.2019
2095 Rain 28 1007 74 10000 7.7 100 03:25 24.12.2019
2096 Rain 28 1007 74 10000 7.7 100 02:25 24.12.2019
2097 Clouds 28 1007 74 10000 5.7 130 01:52 24.12.2019
2098 Clouds 28 1007 74 10000 5.7 130 01:23 24.12.2019
2099 Clouds 28 1007 74 10000 5.1 130 00:47 24.12.2019
2100 Clouds 28 1007 74 10000 5.1 130 00:26 24.12.2019
2101 Clouds 27 1007 78 10000 5.7 120 23:59 23.12.2019
2102 Clouds 27 1007 78 10000 5.7 120 23:41 23.12.2019
2103 Clouds 27 1007 78 10000 5.7 120 23:23 23.12.2019
2104 Clouds 27 1007 78 10000 5.7 120 23:23 23.12.2019
2105 Clouds 27 1008 78 10000 4.6 130 22:56 23.12.2019
2106 Clouds 27 1008 78 10000 4.6 130 22:56 23.12.2019
2107 Clouds 27 1008 78 10000 4.6 130 22:37 23.12.2019
2108 Clouds 27 1008 78 10000 4.6 130 22:19 23.12.2019
2109 Clouds 26 1008 83 10000 3.6 130 21:55 23.12.2019
2110 Clouds 26 1008 83 10000 3.6 130 21:55 23.12.2019
2111 Clouds 26 1008 83 10000 3.6 130 21:36 23.12.2019
2112 Clouds 26 1008 83 10000 3.6 130 21:18 23.12.2019
2113 Clouds 25 1008 88 10000 2.1 150 20:57 23.12.2019
2114 Clouds 25 1008 88 10000 2.1 150 20:39 23.12.2019
2115 Clouds 25 1008 88 10000 2.1 150 20:39 23.12.2019
2116 Clouds 25 1007 88 10000 2.1 90 20:18 23.12.2019
2117 Clouds 25 1007 88 10000 2.1 90 19:56 23.12.2019
2118 Clouds 25 1007 88 10000 2.1 90 19:38 23.12.2019
2119 Clouds 25 1007 88 10000 2.1 120 19:19 23.12.2019
2120 Clouds 25 1007 88 10000 2.1 120 18:58 23.12.2019
2121 Clouds 25 1007 88 10000 2.1 120 18:58 23.12.2019
2122 Clouds 25 1007 88 10000 2.1 120 18:38 23.12.2019
2123 Clouds 26 1006 78 10000 2.1 140 18:20 23.12.2019
2124 Clouds 26 1006 78 10000 2.1 140 17:56 23.12.2019
2125 Clouds 26 1006 78 10000 2.1 140 17:37 23.12.2019
2126 Clouds 26 1006 78 10000 2.6 130 17:19 23.12.2019
2127 Clouds 26 1006 78 10000 2.6 130 16:54 23.12.2019
2128 Clouds 26 1006 78 10000 2.6 130 16:36 23.12.2019
2129 Clouds 26 1006 78 10000 2.6 130 16:18 23.12.2019
2130 Clouds 26 1007 78 10000 2.6 130 15:55 23.12.2019
2131 Clouds 26 1007 78 10000 2.6 130 15:36 23.12.2019
2132 Clouds 25 1007 83 10000 2.6 140 15:18 23.12.2019
2133 Clouds 25 1007 83 10000 2.6 140 14:42 23.12.2019
2134 Clouds 26 1008 78 10000 2.6 140 14:24 23.12.2019
2135 Clouds 26 1008 78 10000 2.6 140 13:59 23.12.2019
2136 Clouds 26 1008 78 10000 2.6 140 13:40 23.12.2019
2137 Clouds 26 1009 83 10000 2.6 130 13:22 23.12.2019
2138 Clouds 26 1009 83 10000 2.6 130 12:58 23.12.2019
2139 Clouds 26 1009 83 10000 2.6 130 12:39 23.12.2019
2140 Clouds 26 1009 78 10000 2.1 140 12:20 23.12.2019
2141 Clouds 26 1009 78 10000 2.1 140 11:45 23.12.2019
2142 Clouds 26 1008 83 10000 2.6 160 11:26 23.12.2019
2143 Clouds 26 1008 83 10000 2.6 160 10:59 23.12.2019
2144 Clouds 26 1008 83 10000 2.6 160 10:41 23.12.2019
2145 Clouds 26 1008 83 10000 2.6 160 10:21 23.12.2019
2146 Rain 26 1008 94 10000 3.1 150 09:59 23.12.2019
2147 Rain 26 1008 94 10000 3.1 150 09:40 23.12.2019
2148 Rain 26 1008 94 10000 3.1 150 09:21 23.12.2019
2149 Clouds 27 1007 69 10000 3.1 170 08:58 23.12.2019
2150 Clouds 27 1007 69 10000 3.1 170 08:40 23.12.2019
2151 Clouds 27 1007 69 10000 3.1 170 08:22 23.12.2019
2152 Clouds 27 1006 83 10000 4.6 160 07:47 23.12.2019
2153 Clouds 27 1006 83 10000 4.6 160 07:20 23.12.2019
2154 Clouds 27 1006 83 10000 3.6 160 06:53 23.12.2019
2155 Clouds 27 1006 83 10000 3.6 160 06:53 23.12.2019
2156 Clouds 27 1006 83 10000 3.6 160 06:26 23.12.2019
2157 Clouds 27 1005 74 10000 4.1 170 05:53 23.12.2019
2158 Clouds 27 1005 74 10000 4.1 170 05:28 23.12.2019
2159 Clouds 27 1005 78 10000 4.1 160 04:31 23.12.2019
2160 Clouds 27 1006 83 10000 4.6 160 03:24 23.12.2019
2161 Clouds 28 1006 74 10000 4.1 160 02:41 23.12.2019
2162 Clouds 28 1007 74 10000 4.1 170 02:19 23.12.2019
2163 Clouds 28 1007 74 10000 4.1 170 01:42 23.12.2019
2164 Clouds 28 1007 74 10000 4.1 180 01:20 23.12.2019
2165 Clouds 28 1007 74 10000 4.1 180 00:43 23.12.2019
2166 Clouds 27 1007 78 10000 4.1 180 00:22 23.12.2019
2167 Clouds 27 1007 78 10000 4.1 180 23:39 22.12.2019
2168 Clouds 28 1007 74 10000 4.1 170 23:21 22.12.2019
2169 Clouds 28 1007 74 10000 4.1 170 22:58 22.12.2019
2170 Clouds 28 1007 74 10000 4.1 170 22:39 22.12.2019
2171 Clouds 27 1007 78 10000 4.1 170 22:19 22.12.2019
2172 Clouds 27 1007 78 10000 4.1 170 21:57 22.12.2019
2173 Clouds 27 1007 78 10000 4.1 170 21:39 22.12.2019
2174 Clouds 26 1007 88 10000 3.29 161 21:20 22.12.2019
2175 Clouds 26 1007 88 10000 3.29 161 20:56 22.12.2019
2176 Clouds 26 1007 88 10000 3.29 161 20:38 22.12.2019
2177 Clouds 24 1007 94 10000 1.61 196 20:18 22.12.2019
2178 Clouds 24 1007 94 10000 1.61 196 19:54 22.12.2019
2179 Clouds 24 1007 94 10000 1.61 196 19:36 22.12.2019
2180 Clouds 23 1006 100 10000 1.61 196 19:18 22.12.2019
2181 Clouds 23 1006 100 10000 1.61 196 18:39 22.12.2019
2182 Clouds 23 1006 100 10000 1.61 196 18:39 22.12.2019
2183 Clouds 23 1006 100 10000 1.61 196 18:39 22.12.2019
2184 Clouds 23 1006 94 10000 1.61 196 18:21 22.12.2019
2185 Clouds 23 1006 94 10000 1.61 196 17:55 22.12.2019
2186 Clouds 23 1006 94 10000 1.61 196 17:37 22.12.2019
2187 Clouds 23 1006 100 10000 1.26 245 17:18 22.12.2019
2188 Clouds 23 1006 100 10000 1.26 245 17:18 22.12.2019
2189 Clouds 23 1006 100 10000 1.26 245 16:56 22.12.2019
2190 Clouds 23 1006 100 10000 1.26 245 16:37 22.12.2019
2191 Clouds 24 1006 94 10000 1.26 245 16:19 22.12.2019
2192 Clouds 24 1006 94 10000 1.26 245 15:55 22.12.2019
2193 Clouds 24 1006 94 10000 1.26 245 15:36 22.12.2019
2194 Clouds 24 1007 94 10000 2.1 290 15:18 22.12.2019
2195 Clouds 24 1007 94 10000 2.1 290 14:39 22.12.2019
2196 Clouds 25 1008 94 10000 0.87 299 14:20 22.12.2019
2197 Clouds 25 1008 94 10000 0.87 299 13:57 22.12.2019
2198 Clouds 25 1008 94 10000 0.87 299 13:38 22.12.2019
2199 Clouds 26 1008 83 10000 0.95 302 13:20 22.12.2019
2200 Clouds 26 1008 83 10000 0.95 302 12:57 22.12.2019
2201 Clouds 26 1008 83 10000 0.95 302 12:39 22.12.2019
2202 Clouds 25 1008 88 10000 0.95 302 12:20 22.12.2019
2203 Clouds 25 1008 88 10000 0.95 302 11:59 22.12.2019
2204 Clouds 25 1008 88 10000 0.95 302 11:39 22.12.2019
2205 Clouds 25 1007 94 10000 1.5 160 11:20 22.12.2019
2206 Clouds 25 1007 94 10000 1.5 160 10:58 22.12.2019
2207 Clouds 25 1007 94 10000 1.5 160 10:40 22.12.2019
2208 Clouds 25 1007 94 10000 1.5 160 10:40 22.12.2019
2209 Clouds 26 1007 83 10000 1.5 190 10:20 22.12.2019
2210 Clouds 26 1007 83 10000 1.5 190 09:58 22.12.2019
2211 Clouds 26 1007 83 10000 1.5 190 09:39 22.12.2019
2212 Clouds 27 1006 78 10000 1.5 170 09:21 22.12.2019
2213 Clouds 27 1006 78 10000 1.5 170 08:45 22.12.2019
2214 Clouds 27 1006 78 10000 1.5 170 08:45 22.12.2019
2215 Clouds 28 1005 69 10000 2.6 160 08:23 22.12.2019
2216 Clouds 28 1005 69 10000 2.6 160 07:50 22.12.2019
2217 Clouds 28 1005 74 10000 3.1 180 07:22 22.12.2019
2218 Clouds 28 1005 74 10000 3.1 180 06:57 22.12.2019
2219 Clouds 30 1005 62 10000 3.1 140 06:27 22.12.2019
2220 Clouds 30 1005 62 10000 3.1 140 05:43 22.12.2019
2221 Clouds 29 1005 66 10000 4.1 160 05:21 22.12.2019
2222 Clouds 30 1005 66 10000 3.6 180 04:26 22.12.2019
2223 Clouds 30 1006 70 10000 3.6 170 02:56 22.12.2019
2224 Clouds 30 1006 70 10000 3.6 170 02:34 22.12.2019
2225 Clouds 30 1006 66 10000 3.1 180 01:32 22.12.2019
2226 Clouds 30 1007 66 10000 2.6 180 00:57 22.12.2019
2227 Clouds 30 1007 66 10000 2.6 180 00:38 22.12.2019
2228 Clouds 29 1007 70 10000 1.5 180 00:20 22.12.2019
2229 Clouds 29 1007 70 10000 1.5 180 23:41 21.12.2019
2230 Clouds 28 1007 78 10000 1.26 152 23:22 21.12.2019
2231 Clouds 28 1007 78 10000 1.26 152 22:57 21.12.2019
2232 Clouds 28 1007 78 10000 1.26 152 22:39 21.12.2019
2233 Clouds 27 1007 83 10000 1.26 152 22:18 21.12.2019
2234 Clouds 27 1007 83 10000 1.26 152 22:18 21.12.2019
2235 Clouds 27 1007 83 10000 1.26 152 21:55 21.12.2019
2236 Clouds 27 1007 83 10000 1.26 152 21:36 21.12.2019
2237 Clouds 24 1007 88 10000 1.5 330 21:18 21.12.2019
2238 Clouds 24 1007 88 10000 1.5 330 20:57 21.12.2019
2239 Clouds 24 1007 88 10000 1.5 330 20:37 21.12.2019
2240 Clouds 24 1007 88 10000 1.5 330 20:19 21.12.2019
2241 Clouds 23 1007 100 10000 1.5 330 19:55 21.12.2019
2242 Clouds 23 1007 100 10000 1.5 330 19:36 21.12.2019
2243 Clouds 23 1007 100 10000 1.5 330 19:18 21.12.2019
2244 Clouds 23 1006 100 10000 1.5 310 18:41 21.12.2019
2245 Clouds 23 1006 100 10000 1.5 310 18:23 21.12.2019
2246 Clouds 23 1006 100 10000 1.5 310 18:23 21.12.2019
2247 Clouds 23 1006 100 10000 1.02 289 17:56 21.12.2019
2248 Clouds 23 1006 100 10000 1.02 289 17:38 21.12.2019
2249 Clouds 23 1006 100 10000 0.49 307 17:19 21.12.2019
2250 Clouds 24 1006 94 10000 0.49 307 16:56 21.12.2019
2251 Clouds 24 1006 94 10000 0.49 307 16:38 21.12.2019
2252 Clouds 24 1006 94 10000 0.49 307 16:18 21.12.2019
2253 Clouds 24 1006 100 10000 0.49 307 15:55 21.12.2019
2254 Clouds 24 1006 100 10000 0.49 307 15:37 21.12.2019
2255 Clouds 24 1006 100 10000 0.49 307 15:18 21.12.2019
2256 Clouds 25 1007 94 10000 0.49 307 14:41 21.12.2019
2257 Clouds 25 1007 94 10000 0.49 307 14:22 21.12.2019
2258 Rain 25 1008 94 10000 0.33 217 13:58 21.12.2019
2259 Rain 25 1008 94 10000 0.33 217 13:58 21.12.2019
2260 Rain 25 1008 94 10000 0.33 217 13:39 21.12.2019
2261 Rain 25 1008 94 10000 0.13 240 13:19 21.12.2019
2262 Clouds 24 1008 94 10000 0.13 240 12:56 21.12.2019
2263 Clouds 24 1008 94 10000 0.13 240 12:38 21.12.2019
2264 Clouds 24 1008 94 10000 0.13 240 12:19 21.12.2019
2265 Clouds 25 1008 94 10000 0.13 240 11:46 21.12.2019
2266 Clouds 26 1008 83 10000 0.13 240 11:27 21.12.2019
2267 Clouds 26 1008 83 10000 0.64 107 10:58 21.12.2019
2268 Clouds 26 1008 83 10000 0.64 107 10:39 21.12.2019
2269 Clouds 26 1008 83 10000 0.64 107 10:21 21.12.2019
2270 Clouds 26 1008 83 10000 0.64 107 09:57 21.12.2019
2271 Clouds 26 1008 83 10000 0.64 107 09:39 21.12.2019
2272 Clouds 26 1008 83 10000 0.64 107 09:39 21.12.2019
2273 Clouds 27 1007 78 10000 0.64 107 09:19 21.12.2019
2274 Clouds 27 1007 78 10000 0.64 107 08:46 21.12.2019
2275 Clouds 28 1007 74 10000 2.6 120 08:26 21.12.2019
2276 Clouds 28 1007 74 10000 2.6 120 07:47 21.12.2019
2277 Clouds 30 1006 66 10000 3.1 150 07:23 21.12.2019
2278 Clouds 30 1006 66 10000 3.1 150 06:47 21.12.2019
2279 Clouds 29 1006 66 10000 3.1 160 06:28 21.12.2019
2280 Clouds 29 1006 66 10000 3.1 160 05:58 21.12.2019
2281 Clouds 30 1006 66 10000 3.6 120 04:59 21.12.2019
2282 Clouds 30 1007 66 10000 4.1 120 04:19 21.12.2019
2283 Clouds 30 1007 66 10000 4.1 120 03:56 21.12.2019
2284 Clouds 29 1008 66 10000 3.6 130 02:19 21.12.2019
2285 Clouds 29 1008 66 10000 3.6 130 01:41 21.12.2019
2286 Clouds 30 1008 66 10000 3.6 130 01:23 21.12.2019
2287 Clouds 30 1008 66 10000 3.6 130 00:39 21.12.2019
2288 Clouds 30 1008 66 10000 5.1 110 00:19 21.12.2019
2289 Clouds 30 1008 66 10000 5.1 110 23:38 20.12.2019
2290 Clouds 29 1009 74 10000 3.6 130 23:20 20.12.2019
2291 Clouds 29 1009 74 10000 3.6 130 22:57 20.12.2019
2292 Clouds 29 1009 74 10000 3.6 130 22:36 20.12.2019
2293 Clouds 29 1009 74 10000 4.1 120 22:18 20.12.2019
2294 Clouds 29 1009 74 10000 4.1 120 21:41 20.12.2019
2295 Clouds 27 1009 83 10000 1.84 114 21:21 20.12.2019
2296 Clouds 27 1009 83 10000 1.84 114 20:57 20.12.2019
2297 Clouds 27 1009 83 10000 1.84 114 20:38 20.12.2019
2298 Clouds 25 1008 94 10000 0.79 109 20:18 20.12.2019
2299 Clouds 25 1008 94 10000 0.68 108 19:42 20.12.2019
2300 Clouds 25 1008 94 10000 0.68 108 19:21 20.12.2019
2301 Clouds 25 1008 94 10000 0.68 108 18:58 20.12.2019
2302 Clouds 25 1008 94 10000 0.68 108 18:39 20.12.2019
2303 Clouds 25 1007 94 10000 0.68 108 18:21 20.12.2019
2304 Clouds 25 1007 94 10000 0.68 108 17:56 20.12.2019
2305 Clouds 25 1007 94 10000 0.68 108 17:37 20.12.2019
2306 Clouds 25 1007 94 10000 1.1 83 17:18 20.12.2019
2307 Clouds 25 1007 94 10000 1.1 83 16:41 20.12.2019
2308 Clouds 25 1007 94 10000 1.1 83 16:21 20.12.2019
2309 Clouds 24 1007 94 10000 1.1 83 15:57 20.12.2019
2310 Clouds 24 1007 94 10000 1.1 83 15:39 20.12.2019
2311 Clouds 24 1007 94 10000 1.1 83 15:21 20.12.2019
2312 Clouds 24 1008 94 10000 1.1 83 14:59 20.12.2019
2313 Clouds 24 1008 94 10000 1.1 83 14:41 20.12.2019
2314 Clouds 24 1008 94 10000 1.1 83 14:23 20.12.2019
2315 Clouds 25 1009 94 10000 1.77 91 13:56 20.12.2019
2316 Clouds 25 1009 94 10000 1.77 91 13:37 20.12.2019
2317 Clouds 25 1009 94 10000 1.95 106 13:18 20.12.2019
2318 Clouds 25 1009 94 10000 1.95 106 13:18 20.12.2019
2319 Clouds 26 1010 83 10000 1.95 106 12:55 20.12.2019
2320 Clouds 26 1010 83 10000 1.95 106 12:36 20.12.2019
2321 Clouds 26 1010 83 10000 1.95 106 12:18 20.12.2019
2322 Clouds 25 1010 94 10000 1.95 106 11:56 20.12.2019
2323 Clouds 25 1010 94 10000 1.95 106 11:37 20.12.2019
2324 Clouds 25 1010 94 10000 1.7 106 11:18 20.12.2019
2325 Clouds 26 1009 78 10000 2.6 40 10:54 20.12.2019
2326 Clouds 26 1009 78 10000 2.6 40 10:36 20.12.2019
2327 Clouds 26 1009 78 10000 2.6 40 10:18 20.12.2019
2328 Clouds 27 1009 74 10000 3.1 130 09:41 20.12.2019
2329 Clouds 27 1009 74 10000 3.1 130 09:21 20.12.2019
2330 Clouds 27 1008 69 10000 2.6 140 08:44 20.12.2019
2331 Clouds 27 1008 69 10000 2.6 140 08:26 20.12.2019
2332 Clouds 28 1008 65 10000 3.1 130 07:59 20.12.2019
2333 Clouds 28 1008 65 10000 3.1 130 07:41 20.12.2019
2334 Clouds 28 1008 65 10000 3.1 130 07:20 20.12.2019
2335 Clouds 29 1007 66 10000 3.1 140 06:52 20.12.2019
2336 Clouds 29 1007 66 10000 3.1 140 06:33 20.12.2019
2337 Clouds 30 1007 58 10000 4.6 120 05:56 20.12.2019
2338 Clouds 30 1007 58 10000 4.6 120 05:37 20.12.2019
2339 Clouds 30 1007 58 10000 4.6 120 05:37 20.12.2019
2340 Clouds 29 1008 66 10000 4.1 120 04:33 20.12.2019
2341 Clouds 29 1008 66 10000 4.1 120 03:30 20.12.2019
2342 Clouds 29 1008 66 10000 4.1 130 02:44 20.12.2019
2343 Clouds 29 1009 70 10000 4.6 100 01:54 20.12.2019
2344 Clouds 29 1009 70 10000 4.6 100 01:33 20.12.2019
2345 Clouds 30 1009 66 10000 3.6 140 00:48 20.12.2019
2346 Clouds 30 1009 66 10000 3.6 140 00:29 20.12.2019
2347 Clouds 29 1010 70 10000 3.6 130 23:54 19.12.2019
2348 Clouds 29 1010 70 10000 3.6 130 23:36 19.12.2019
2349 Clouds 29 1010 70 10000 3.6 130 23:18 19.12.2019
2350 Clouds 29 1010 70 10000 4.6 120 22:37 19.12.2019
2351 Clouds 29 1010 70 10000 4.6 120 22:19 19.12.2019
2352 Clouds 29 1011 70 10000 3.1 130 21:56 19.12.2019
2353 Clouds 29 1011 70 10000 3.1 130 21:37 19.12.2019
2354 Clouds 29 1011 70 10000 3.1 130 21:18 19.12.2019
2355 Clouds 25 1010 94 10000 2.97 113 20:56 19.12.2019
2356 Clouds 25 1010 94 10000 2.97 113 20:36 19.12.2019
2357 Clouds 25 1010 94 10000 1.83 104 20:18 19.12.2019
2358 Clouds 22 1010 100 10000 1.83 104 19:57 19.12.2019
2359 Clouds 22 1010 100 10000 1.83 104 19:57 19.12.2019
2360 Clouds 22 1010 100 10000 1.83 104 19:39 19.12.2019
2361 Clouds 22 1010 100 10000 1.83 104 19:39 19.12.2019
2362 Clouds 22 1010 100 10000 1.83 104 19:19 19.12.2019
2363 Clouds 22 1009 100 10000 1.83 104 18:41 19.12.2019
2364 Clouds 22 1009 100 10000 1.83 104 18:22 19.12.2019
2365 Clouds 23 1009 94 10000 1.83 104 17:58 19.12.2019
2366 Clouds 23 1009 94 10000 1.83 104 17:39 19.12.2019
2367 Clouds 23 1009 94 10000 2.06 115 17:19 19.12.2019
2368 Clouds 23 1009 94 10000 2.06 115 16:58 19.12.2019
2369 Clouds 23 1009 94 10000 2.06 115 16:40 19.12.2019
2370 Clouds 23 1009 94 10000 2.06 115 16:22 19.12.2019
2371 Clouds 24 1009 94 10000 2.06 115 15:59 19.12.2019
2372 Clouds 24 1009 94 10000 2.06 115 15:59 19.12.2019
2373 Clouds 24 1009 94 10000 2.06 115 15:39 19.12.2019
2374 Clouds 24 1009 94 10000 2.06 115 15:20 19.12.2019
2375 Clouds 25 1010 83 10000 1.5 130 14:59 19.12.2019
2376 Clouds 25 1010 83 10000 1.5 130 14:41 19.12.2019
2377 Clouds 25 1010 83 10000 1.5 130 14:19 19.12.2019
2378 Clouds 26 1011 83 10000 2.6 110 13:57 19.12.2019
2379 Clouds 26 1011 83 10000 2.6 110 13:37 19.12.2019
2380 Clouds 26 1011 83 10000 2.6 110 13:18 19.12.2019
2381 Clouds 26 1011 83 10000 2.1 110 12:55 19.12.2019
2382 Clouds 26 1011 83 10000 2.1 110 12:36 19.12.2019
2383 Clouds 26 1011 83 10000 2.1 110 12:18 19.12.2019
2384 Clouds 26 1011 83 10000 2.1 110 12:18 19.12.2019
2385 Clouds 26 1011 83 10000 2.1 110 12:18 19.12.2019
2386 Clouds 26 1011 83 10000 2.6 110 11:56 19.12.2019
2387 Clouds 26 1011 83 10000 2.6 110 11:38 19.12.2019
2388 Clouds 26 1011 83 10000 2.6 110 11:18 19.12.2019
2389 Clouds 26 1011 88 10000 2.1 120 10:39 19.12.2019
2390 Clouds 26 1011 88 10000 2.1 120 10:20 19.12.2019
2391 Rain 26 1011 88 10000 2.6 100 09:59 19.12.2019
2392 Rain 26 1011 88 10000 2.6 100 09:38 19.12.2019
2393 Rain 26 1011 88 10000 2.6 100 09:20 19.12.2019
2394 Rain 26 1011 88 10000 2.6 100 09:20 19.12.2019
2395 Clouds 25 1010 94 10000 2.58 108 08:57 19.12.2019
2396 Clouds 25 1010 94 10000 2.58 108 08:39 19.12.2019
2397 Clouds 25 1010 94 10000 2.47 127 08:18 19.12.2019
2398 Rain 28 1009 83 10000 4.1 130 07:55 19.12.2019
2399 Rain 28 1009 83 10000 4.1 130 07:55 19.12.2019
2400 Rain 28 1009 83 10000 4.1 130 07:37 19.12.2019
2401 Rain 28 1009 83 10000 4.1 130 07:19 19.12.2019
2402 Clouds 30 1008 70 10000 4.6 100 06:45 19.12.2019
2403 Clouds 30 1008 70 10000 4.6 100 06:26 19.12.2019
2404 Rain 27 1008 78 10000 4.6 150 05:49 19.12.2019
2405 Rain 27 1008 78 10000 4.6 150 05:28 19.12.2019
2406 Clouds 30 1008 70 10000 5.7 120 04:41 19.12.2019
2407 Clouds 31 1009 62 10000 4.1 130 02:30 19.12.2019
2408 Clouds 30 1009 70 10000 3.6 130 01:46 19.12.2019
2409 Clouds 30 1009 70 10000 3.6 130 01:21 19.12.2019
2410 Rain 29 1010 74 10000 4.6 110 00:39 19.12.2019
2411 Rain 29 1010 74 10000 4.6 110 00:19 19.12.2019
2412 Clouds 28 1010 83 10000 3.48 109 23:45 18.12.2019
2413 Clouds 28 1010 83 10000 1.78 87 23:19 18.12.2019
2414 Clouds 28 1010 83 10000 1.78 87 22:58 18.12.2019
2415 Clouds 28 1010 83 10000 1.78 87 22:40 18.12.2019
2416 Clouds 28 1010 83 10000 1.78 87 22:22 18.12.2019
2417 Rain 27 1010 84 0 1.78 87 21:59 18.12.2019
2418 Rain 27 1010 84 0 1.78 87 21:41 18.12.2019
2419 Clouds 25 1010 88 10000 1 0 21:21 18.12.2019
2420 Clouds 25 1010 88 10000 1 0 21:21 18.12.2019
2421 Clouds 25 1010 88 10000 1 0 21:21 18.12.2019
2422 Clouds 25 1010 88 10000 1 0 20:57 18.12.2019
2423 Clouds 25 1010 88 10000 1 0 20:39 18.12.2019
2424 Clouds 25 1010 88 10000 1 0 20:20 18.12.2019
2425 Clouds 23 1010 100 10000 1.5 320 19:57 18.12.2019
2426 Clouds 23 1010 100 10000 1.5 320 19:39 18.12.2019
2427 Clouds 23 1010 100 10000 1.5 320 19:19 18.12.2019
2428 Clouds 24 1009 94 10000 1.5 310 18:56 18.12.2019
2429 Clouds 24 1009 94 10000 1.5 310 18:56 18.12.2019
2430 Clouds 24 1009 94 10000 1.5 310 18:38 18.12.2019
2431 Clouds 24 1009 94 10000 1.5 310 18:20 18.12.2019
2432 Clouds 24 1009 94 10000 1.5 310 17:55 18.12.2019
2433 Clouds 24 1009 94 10000 1.5 310 17:55 18.12.2019
2434 Clouds 24 1009 94 10000 1.5 310 17:37 18.12.2019
2435 Clouds 24 1009 94 10000 1.5 310 17:19 18.12.2019
2436 Clouds 24 1009 94 10000 1 320 16:42 18.12.2019
2437 Clouds 24 1009 94 10000 1 320 16:24 18.12.2019
2438 Clouds 24 1009 94 10000 1 0 15:59 18.12.2019
2439 Clouds 24 1009 94 10000 1 0 15:39 18.12.2019
2440 Clouds 24 1009 94 10000 1 0 15:21 18.12.2019
2441 Clouds 24 1009 100 10000 1.28 71 14:57 18.12.2019
2442 Clouds 24 1009 100 10000 1.28 71 14:39 18.12.2019
2443 Clouds 24 1009 100 10000 0.99 59 14:19 18.12.2019
2444 Clouds 25 1010 94 10000 0.99 59 13:55 18.12.2019
2445 Clouds 25 1010 94 10000 0.99 59 13:37 18.12.2019
2446 Clouds 25 1010 94 10000 1.77 78 13:18 18.12.2019
2447 Clouds 25 1011 100 10000 1 0 12:40 18.12.2019
2448 Clouds 25 1011 100 10000 1 0 12:22 18.12.2019
2449 Clouds 26 1010 94 10000 1.77 78 11:57 18.12.2019
2450 Clouds 26 1010 94 10000 1.77 78 11:39 18.12.2019
2451 Clouds 26 1010 94 10000 1.37 75 11:20 18.12.2019
2452 Clouds 26 1010 94 10000 1.37 75 10:58 18.12.2019
2453 Clouds 26 1010 94 10000 1.37 75 10:58 18.12.2019
2454 Clouds 26 1010 94 10000 1.37 75 10:39 18.12.2019
2455 Clouds 26 1010 94 10000 1.37 75 10:21 18.12.2019
2456 Clouds 27 1010 88 10000 1.37 75 09:59 18.12.2019
2457 Clouds 27 1010 88 10000 1.37 75 09:59 18.12.2019
2458 Clouds 27 1010 88 10000 1.37 75 09:21 18.12.2019
2459 Clouds 28 1009 78 10000 2.1 70 08:55 18.12.2019
2460 Clouds 28 1009 78 10000 2.1 70 08:37 18.12.2019
2461 Clouds 28 1009 78 10000 2.1 70 08:19 18.12.2019
2462 Clouds 29 1008 74 10000 4.6 80 07:42 18.12.2019
2463 Clouds 29 1008 74 10000 4.6 80 07:21 18.12.2019
2464 Clouds 29 1007 70 10000 4.1 80 06:52 18.12.2019
2465 Clouds 29 1007 70 10000 4.1 80 06:26 18.12.2019
2466 Clouds 30 1007 70 10000 4.6 70 05:37 18.12.2019
2467 Clouds 31 1007 62 10000 5.7 70 04:33 18.12.2019
2468 Clouds 21 1007 100 10000 4.6 90 02:48 18.12.2019
2469 Clouds 31 1008 62 10000 4.1 90 02:29 18.12.2019
2470 Clouds 31 1008 62 10000 4.1 90 01:46 18.12.2019
2471 Clouds 29 1008 74 10000 4.1 90 01:27 18.12.2019
2472 Clouds 29 1008 74 10000 4.1 90 00:55 18.12.2019
2473 Clouds 29 1008 74 10000 4.1 90 00:37 18.12.2019
2474 Clouds 29 1008 74 10000 4.1 50 00:19 18.12.2019
2475 Clouds 29 1008 74 10000 4.1 50 23:43 17.12.2019
2476 Clouds 29 1008 74 10000 4.1 50 23:43 17.12.2019
2477 Clouds 29 1009 70 10000 5.1 50 23:24 17.12.2019
2478 Clouds 29 1009 70 10000 5.1 50 22:57 17.12.2019
2479 Clouds 29 1009 70 10000 5.1 50 22:39 17.12.2019
2480 Clouds 27 1009 88 10000 3.1 40 22:20 17.12.2019
2481 Clouds 27 1009 88 10000 3.1 40 21:57 17.12.2019
2482 Clouds 27 1009 88 10000 3.1 40 21:39 17.12.2019
2483 Clouds 27 1009 88 10000 3.57 70 21:20 17.12.2019
2484 Clouds 27 1009 88 10000 3.57 70 20:59 17.12.2019
2485 Clouds 27 1009 88 10000 3.57 70 20:40 17.12.2019
2486 Clouds 25 1008 94 10000 1.28 77 20:19 17.12.2019
2487 Clouds 25 1008 94 10000 1.28 77 19:57 17.12.2019
2488 Clouds 25 1008 94 10000 1.28 77 19:39 17.12.2019
2489 Clouds 24 1007 100 10000 1.28 77 19:20 17.12.2019
2490 Clouds 24 1007 100 10000 1.28 77 18:57 17.12.2019
2491 Clouds 24 1007 100 10000 1.28 77 18:38 17.12.2019
2492 Clouds 24 1007 100 10000 1.28 77 18:20 17.12.2019
2493 Clouds 24 1007 100 10000 1.28 77 17:55 17.12.2019
2494 Rain 25 1007 96 0 1.28 77 17:37 17.12.2019
2495 Clouds 24 1007 100 10000 1.39 78 17:18 17.12.2019
2496 Clouds 24 1007 100 10000 1.39 78 16:55 17.12.2019
2497 Clouds 24 1007 100 10000 1.39 78 16:36 17.12.2019
2498 Clouds 24 1007 100 10000 1.5 300 16:18 17.12.2019
2499 Clouds 24 1007 100 10000 1.5 300 15:38 17.12.2019
2500 Clouds 25 1008 94 10000 1.39 78 15:20 17.12.2019
2501 Clouds 25 1008 94 10000 1.39 78 14:56 17.12.2019
2502 Clouds 25 1008 94 10000 1.39 78 14:38 17.12.2019
2503 Clouds 26 1008 94 10000 1.5 80 14:19 17.12.2019
2504 Clouds 26 1008 94 10000 1.5 80 13:58 17.12.2019
2505 Clouds 26 1008 94 10000 1.5 80 13:39 17.12.2019
2506 Clouds 26 1009 94 10000 2.1 100 13:19 17.12.2019
2507 Clouds 26 1009 94 10000 2.1 100 13:19 17.12.2019
2508 Clouds 26 1009 94 10000 2.1 100 12:58 17.12.2019
2509 Clouds 26 1009 94 10000 2.1 100 12:38 17.12.2019
2510 Clouds 26 1009 94 10000 2.1 100 12:38 17.12.2019
2511 Rain 25 1009 100 10000 4.6 100 12:18 17.12.2019
2512 Rain 25 1009 100 10000 4.6 100 11:56 17.12.2019
2513 Rain 25 1009 100 10000 4.6 100 11:36 17.12.2019
2514 Rain 25 1009 100 10000 4.6 100 11:36 17.12.2019
2515 Rain 25 1009 100 10000 4.6 100 11:18 17.12.2019
2516 Rain 25 1009 100 10000 4.6 120 10:56 17.12.2019
2517 Rain 25 1009 100 10000 4.6 120 10:37 17.12.2019
2518 Clouds 27 1008 83 10000 4.6 120 10:19 17.12.2019
2519 Clouds 27 1008 83 10000 4.6 120 09:42 17.12.2019
2520 Clouds 26 1007 88 10000 4.6 110 09:22 17.12.2019
2521 Clouds 26 1007 88 10000 4.6 110 08:59 17.12.2019
2522 Clouds 26 1007 88 10000 4.6 110 08:40 17.12.2019
2523 Clouds 26 1007 94 10000 3.6 90 08:22 17.12.2019
2524 Clouds 26 1007 94 10000 3.6 90 08:22 17.12.2019
2525 Clouds 26 1007 94 10000 3.6 90 07:58 17.12.2019
2526 Clouds 26 1007 94 10000 3.6 90 07:39 17.12.2019
2527 Clouds 27 1006 88 10000 3.6 120 07:21 17.12.2019
2528 Clouds 27 1006 88 10000 3.6 120 06:42 17.12.2019
2529 Clouds 27 1006 88 10000 3.6 120 06:24 17.12.2019
2530 Clouds 27 1006 88 10000 3.6 120 06:24 17.12.2019
2531 Rain 26 1006 88 10000 5.7 120 05:41 17.12.2019
2532 Rain 26 1006 94 10000 3.6 130 04:51 17.12.2019
2533 Rain 25 1006 100 4000 4.1 140 03:40 17.12.2019
2534 Rain 27 1007 88 5000 5.1 130 02:25 17.12.2019
2535 Drizzle 28 1007 88 10000 4.1 120 01:21 17.12.2019
2536 Clouds 29 1008 79 10000 4.1 100 00:45 17.12.2019
2537 Clouds 29 1008 79 10000 4.1 100 00:21 17.12.2019
2538 Clouds 29 1008 79 10000 4.1 100 00:21 17.12.2019
2539 Clouds 29 1008 79 10000 4.1 90 23:44 16.12.2019
2540 Clouds 29 1008 79 10000 4.1 90 23:20 16.12.2019
2541 Clouds 28 1008 88 10000 2.6 90 22:59 16.12.2019
2542 Clouds 28 1008 88 10000 2.6 90 22:39 16.12.2019
2543 Clouds 28 1008 88 10000 2.6 90 22:21 16.12.2019
2544 Clouds 26 1008 94 10000 2.25 51 21:57 16.12.2019
2545 Clouds 26 1008 94 10000 2.25 51 21:57 16.12.2019
2546 Clouds 26 1008 94 10000 2.25 51 21:39 16.12.2019
2547 Clouds 26 1008 94 10000 2.25 51 21:20 16.12.2019
2548 Clouds 24 1008 100 10000 2.25 51 20:58 16.12.2019
2549 Clouds 24 1008 100 10000 2.25 51 20:39 16.12.2019
2550 Clouds 24 1008 100 10000 2.08 14 20:20 16.12.2019
2551 Clouds 24 1008 100 10000 1 320 19:57 16.12.2019
2552 Clouds 24 1008 100 10000 1 320 19:37 16.12.2019
2553 Clouds 24 1008 100 10000 1 320 19:19 16.12.2019
2554 Clouds 24 1007 100 10000 1.5 320 18:59 16.12.2019
2555 Clouds 24 1007 100 10000 1.5 320 18:41 16.12.2019
2556 Clouds 24 1007 100 10000 1.5 320 18:20 16.12.2019
2557 Clouds 24 1007 94 10000 1.5 300 17:59 16.12.2019
2558 Clouds 24 1007 94 10000 1.5 300 17:40 16.12.2019
2559 Clouds 24 1007 94 10000 1.5 300 17:21 16.12.2019
2560 Clouds 24 1007 94 10000 2.72 25 16:57 16.12.2019
2561 Clouds 24 1007 94 10000 2.72 25 16:39 16.12.2019
2562 Clouds 24 1007 94 10000 2.72 25 16:20 16.12.2019
2563 Clouds 23 1008 100 10000 1.5 330 15:59 16.12.2019
2564 Clouds 23 1008 100 10000 1.5 330 15:59 16.12.2019
2565 Clouds 23 1008 100 10000 1.5 330 15:39 16.12.2019
2566 Clouds 23 1008 100 10000 1.5 330 15:20 16.12.2019
2567 Rain 22 1006 94 0 2.72 25 14:57 16.12.2019
2568 Rain 22 1006 94 0 2.72 25 14:37 16.12.2019
2569 Rain 22 1006 94 0 2.72 25 14:37 16.12.2019
2570 Rain 24 1008 100 10000 1 290 14:19 16.12.2019
2571 Rain 24 1008 100 10000 1 290 14:19 16.12.2019
2572 Rain 24 1008 100 10000 1 290 13:56 16.12.2019
2573 Rain 24 1008 100 10000 1 290 13:37 16.12.2019
2574 Rain 24 1008 100 10000 1 290 13:19 16.12.2019
2575 Clouds 24 1009 94 10000 1 0 12:57 16.12.2019
2576 Clouds 24 1009 94 10000 1 0 12:39 16.12.2019
2577 Clouds 24 1009 94 10000 1 0 12:19 16.12.2019
2578 Clouds 24 1009 100 10000 2.16 34 11:58 16.12.2019
2579 Clouds 24 1009 100 10000 2.16 34 11:40 16.12.2019
2580 Clouds 24 1009 100 10000 2.79 70 11:20 16.12.2019
2581 Clouds 24 1009 94 10000 1.82 51 10:56 16.12.2019
2582 Clouds 24 1009 94 10000 1.82 51 10:37 16.12.2019
2583 Clouds 23 1009 100 10000 1.82 51 10:19 16.12.2019
2584 Clouds 23 1009 100 10000 2.79 70 09:45 16.12.2019
2585 Clouds 23 1008 100 10000 2.79 70 09:26 16.12.2019
2586 Clouds 23 1008 100 10000 2.79 70 08:41 16.12.2019
2587 Clouds 23 1008 100 10000 3.2 67 08:21 16.12.2019
2588 Clouds 23 1008 100 10000 3.2 67 08:21 16.12.2019
2589 Clouds 23 1008 100 10000 2.63 70 07:59 16.12.2019
2590 Clouds 23 1008 100 10000 2.63 70 07:41 16.12.2019
2591 Rain 23 1008 100 10000 5.7 130 07:20 16.12.2019
2592 Rain 23 1008 100 10000 5.7 130 06:41 16.12.2019
2593 Rain 23 1007 100 8000 5.7 130 06:22 16.12.2019
2594 Rain 23 1007 100 8000 5.7 130 06:22 16.12.2019
2595 Rain 24 1007 100 1000 4.1 100 05:44 16.12.2019
2596 Rain 24 1007 100 5000 5.1 80 05:26 16.12.2019
2597 Rain 27 1008 83 10000 2.1 90 03:33 16.12.2019
2598 Rain 27 1008 78 10000 4.1 70 01:52 16.12.2019
2599 Rain 24 1008 95 0 2.61 92 01:33 16.12.2019
2600 Clouds 28 1009 78 10000 4.1 60 00:41 16.12.2019
2601 Clouds 26 1009 88 10000 2.1 360 00:21 16.12.2019
2602 Clouds 26 1009 88 10000 2.1 360 23:57 15.12.2019
2603 Clouds 26 1009 88 10000 2.1 360 23:37 15.12.2019
2604 Clouds 26 1009 88 10000 2.1 360 23:37 15.12.2019
2605 Clouds 26 1009 88 10000 2.1 360 23:19 15.12.2019
2606 Rain 24 1010 94 10000 3.1 340 22:54 15.12.2019
2607 Rain 24 1010 94 10000 3.1 340 22:36 15.12.2019
2608 Rain 23 1010 100 10000 3.6 330 22:18 15.12.2019
2609 Rain 23 1010 100 10000 3.6 330 22:18 15.12.2019
2610 Rain 23 1010 100 10000 3.6 330 21:54 15.12.2019
2611 Rain 23 1010 100 10000 3.6 330 21:36 15.12.2019
2612 Rain 23 1010 100 10000 3.1 330 21:18 15.12.2019
2613 Rain 23 1010 100 10000 3.1 330 20:54 15.12.2019
2614 Rain 23 1010 100 9000 2.6 320 20:36 15.12.2019
2615 Rain 23 1010 100 9000 2.6 320 20:18 15.12.2019
2616 Rain 23 1010 100 9000 2.6 320 19:54 15.12.2019
2617 Rain 23 1010 100 9000 2.6 320 19:54 15.12.2019
2618 Rain 23 1010 100 9000 2.6 320 19:36 15.12.2019
2619 Rain 23 1009 94 9000 0.16 53 19:18 15.12.2019
2620 Rain 23 1009 94 9000 0.16 53 18:54 15.12.2019
2621 Rain 23 1009 94 9000 0.92 63 18:36 15.12.2019
2622 Rain 23 1009 94 9000 0.92 63 18:18 15.12.2019
2623 Rain 23 1009 94 9000 3.1 110 17:54 15.12.2019
2624 Rain 23 1009 94 9000 3.1 110 17:36 15.12.2019
2625 Rain 23 1009 94 9000 3.1 110 17:18 15.12.2019
2626 Rain 24 1009 94 10000 4.6 130 16:42 15.12.2019
2627 Rain 24 1009 94 10000 2.1 160 16:22 15.12.2019
2628 Rain 24 1009 94 10000 2.1 160 15:57 15.12.2019
2629 Rain 24 1009 94 10000 2.1 160 15:38 15.12.2019
2630 Rain 25 1009 94 10000 5.1 110 15:19 15.12.2019
2631 Rain 25 1009 94 10000 5.1 110 15:19 15.12.2019
2632 Rain 25 1009 94 10000 5.1 110 14:56 15.12.2019
2633 Rain 23 1007 96 0 0.55 6 14:37 15.12.2019
2634 Clouds 26 1009 94 10000 3.6 130 14:18 15.12.2019
2635 Clouds 26 1009 94 10000 3.6 130 13:58 15.12.2019
2636 Clouds 26 1009 94 10000 3.6 130 13:38 15.12.2019
2637 Rain 26 1010 94 10000 1 180 13:19 15.12.2019
2638 Rain 26 1010 94 10000 1 180 12:57 15.12.2019
2639 Rain 26 1010 94 10000 1 180 12:39 15.12.2019
2640 Rain 26 1010 94 10000 1 180 12:39 15.12.2019
2641 Rain 24 1009 94 0 1.29 82 12:20 15.12.2019
2642 Rain 24 1009 94 0 1.29 82 11:56 15.12.2019
2643 Rain 24 1009 94 0 1.29 82 11:36 15.12.2019
2644 Clouds 27 1009 88 10000 2.6 100 11:18 15.12.2019
2645 Clouds 27 1009 88 10000 2.6 100 10:55 15.12.2019
2646 Clouds 27 1009 88 10000 2.6 100 10:36 15.12.2019
2647 Clouds 27 1009 88 10000 2.6 100 10:18 15.12.2019
2648 Clouds 27 1009 88 10000 2.6 100 10:18 15.12.2019
2649 Clouds 27 1008 88 10000 2.1 110 09:39 15.12.2019
2650 Clouds 27 1008 88 10000 2.1 110 09:20 15.12.2019
2651 Clouds 27 1008 83 10000 3.6 120 08:57 15.12.2019
2652 Clouds 27 1008 83 10000 3.6 120 08:39 15.12.2019
2653 Clouds 27 1008 83 10000 3.6 120 08:20 15.12.2019
2654 Clouds 28 1007 83 10000 3.6 110 07:55 15.12.2019
2655 Clouds 28 1007 83 10000 3.6 110 07:34 15.12.2019
2656 Clouds 28 1007 83 10000 4.1 110 06:39 15.12.2019
2657 Clouds 28 1007 83 10000 4.1 110 06:19 15.12.2019
2658 Clouds 28 1007 83 10000 2.6 90 05:25 15.12.2019
2659 Clouds 28 1007 83 10000 2.6 90 05:25 15.12.2019
2660 Clouds 28 1007 83 10000 3.1 100 04:24 15.12.2019
2661 Clouds 32 1008 59 10000 4.6 80 03:22 15.12.2019
2662 Rain 28 1007 77 0 3.02 98 02:33 15.12.2019
2663 Clouds 31 1009 66 10000 5.1 80 01:44 15.12.2019
2664 Clouds 31 1009 66 10000 5.1 80 01:25 15.12.2019
2665 Clouds 31 1009 66 10000 5.1 80 00:54 15.12.2019
2666 Rain 28 1008 84 0 2.87 87 00:35 15.12.2019
2667 Clouds 30 1009 66 10000 6.2 90 23:58 14.12.2019
2668 Clouds 30 1009 66 10000 6.2 90 23:58 14.12.2019
2669 Clouds 30 1009 66 10000 6.2 90 23:39 14.12.2019
2670 Clouds 30 1009 66 10000 6.2 90 23:19 14.12.2019
2671 Clouds 29 1009 74 10000 4.1 90 22:57 14.12.2019
2672 Clouds 29 1009 74 10000 4.1 90 22:39 14.12.2019
2673 Clouds 29 1009 74 10000 4.1 90 22:39 14.12.2019
2674 Clouds 28 1010 83 10000 2.45 85 22:20 14.12.2019
2675 Clouds 28 1010 83 10000 2.45 85 21:55 14.12.2019
2676 Clouds 28 1010 83 10000 2.45 85 21:37 14.12.2019
2677 Clouds 26 1009 94 10000 2.1 320 21:18 14.12.2019
2678 Clouds 26 1009 94 10000 2.1 320 20:43 14.12.2019
2679 Clouds 26 1009 94 10000 2.1 320 20:21 14.12.2019
2680 Clouds 24 1009 100 10000 1.5 340 19:59 14.12.2019
2681 Clouds 24 1009 100 10000 1.5 340 19:39 14.12.2019
2682 Clouds 24 1009 100 10000 1.5 340 19:21 14.12.2019
2683 Clouds 24 1008 100 10000 0.52 5 18:57 14.12.2019
2684 Clouds 24 1008 100 10000 0.52 5 18:39 14.12.2019
2685 Clouds 24 1008 100 10000 0.52 5 18:21 14.12.2019
2686 Clouds 24 1008 100 10000 0.52 5 17:57 14.12.2019
2687 Clouds 24 1008 100 10000 0.52 5 17:38 14.12.2019
2688 Clouds 24 1008 100 10000 0.29 72 17:20 14.12.2019
2689 Clouds 24 1008 100 10000 0.29 72 16:41 14.12.2019
2690 Clouds 24 1008 100 10000 0.29 72 16:19 14.12.2019
2691 Clouds 24 1009 100 10000 1.5 300 15:55 14.12.2019
2692 Clouds 24 1009 100 10000 1.5 300 15:36 14.12.2019
2693 Clouds 24 1009 100 10000 1.5 300 15:18 14.12.2019
2694 Clouds 26 1009 88 10000 0.29 72 14:40 14.12.2019
2695 Clouds 26 1009 88 10000 1 72 14:21 14.12.2019
2696 Clouds 26 1010 88 10000 1.5 100 13:59 14.12.2019
2697 Clouds 26 1010 88 10000 1.5 100 13:41 14.12.2019
2698 Clouds 26 1010 88 10000 1.5 100 13:41 14.12.2019
2699 Clouds 26 1010 88 10000 1.5 100 13:19 14.12.2019
2700 Clouds 26 1011 88 10000 0.84 59 12:56 14.12.2019
2701 Clouds 26 1011 88 10000 0.84 59 12:37 14.12.2019
2702 Clouds 26 1011 88 10000 0.84 59 12:19 14.12.2019
2703 Clouds 26 1011 88 10000 1.5 100 11:56 14.12.2019
2704 Clouds 26 1011 88 10000 1.5 100 11:37 14.12.2019
2705 Clouds 26 1011 88 10000 1.5 100 11:18 14.12.2019
2706 Clouds 25 1010 94 10000 1.5 100 10:56 14.12.2019
2707 Rain 23 1010 95 0 1.52 87 10:38 14.12.2019
2708 Clouds 28 1010 74 10000 3.6 110 10:19 14.12.2019
2709 Clouds 28 1010 74 10000 3.6 110 09:42 14.12.2019
2710 Clouds 28 1009 78 10000 4.1 120 09:21 14.12.2019
2711 Clouds 28 1009 78 10000 4.1 120 08:56 14.12.2019
2712 Clouds 28 1009 78 10000 4.1 120 08:56 14.12.2019
2713 Rain 23 1010 95 0 1.41 82 08:37 14.12.2019
2714 Clouds 28 1009 78 10000 4.1 110 08:18 14.12.2019
2715 Clouds 28 1009 78 10000 4.1 110 07:40 14.12.2019
2716 Clouds 28 1009 78 10000 4.1 110 07:40 14.12.2019
2717 Clouds 28 1009 78 10000 5.1 110 07:20 14.12.2019
2718 Clouds 28 1009 78 10000 5.1 110 06:42 14.12.2019
2719 Rain 25 1008 93 0 1.91 101 06:22 14.12.2019
2720 Clouds 30 1008 70 10000 8.2 100 05:35 14.12.2019
2721 Clouds 30 1009 70 10000 7.2 100 03:34 14.12.2019
2722 Rain 29 1010 70 10000 3.6 40 02:23 14.12.2019
2723 Clouds 29 1010 70 10000 7.2 100 01:44 14.12.2019
2724 Clouds 29 1010 74 10000 5.1 110 00:58 14.12.2019
2725 Clouds 29 1010 74 10000 5.1 110 00:40 14.12.2019
2726 Clouds 29 1010 74 10000 5.1 110 00:19 14.12.2019
2727 Rain 29 1011 74 10000 5.1 110 23:41 13.12.2019
2728 Rain 29 1011 74 10000 5.1 110 23:19 13.12.2019
2729 Clouds 25 1011 94 10000 1 60 22:56 13.12.2019
2730 Clouds 25 1011 94 10000 1 60 22:37 13.12.2019
2731 Rain 25 1011 94 8000 2.38 96 22:18 13.12.2019
2732 Rain 26 1011 88 8000 3.6 120 21:42 13.12.2019
2733 Clouds 26 1011 88 10000 1 150 21:21 13.12.2019
2734 Rain 25 1011 94 10000 4.1 30 20:58 13.12.2019
2735 Rain 25 1011 94 10000 4.1 30 20:39 13.12.2019
2736 Clouds 23 1010 95 0 0.42 115 20:19 13.12.2019
2737 Clouds 23 1010 95 0 0.42 115 19:56 13.12.2019
2738 Clouds 23 1010 95 0 0.42 115 19:38 13.12.2019
2739 Clouds 24 1010 100 10000 2.1 330 19:18 13.12.2019
2740 Clouds 24 1010 100 10000 2.1 330 18:42 13.12.2019
2741 Clouds 24 1010 100 10000 2.1 330 18:42 13.12.2019
2742 Clouds 24 1010 100 10000 2.1 330 18:20 13.12.2019
2743 Rain 25 1009 94 10000 0.42 115 17:59 13.12.2019
2744 Rain 25 1009 94 10000 0.42 115 17:39 13.12.2019
2745 Rain 25 1009 94 10000 0.43 89 17:18 13.12.2019
2746 Rain 25 1009 94 10000 0.43 89 17:18 13.12.2019
2747 Clouds 23 1009 100 10000 0.43 89 16:56 13.12.2019
2748 Clouds 23 1009 100 10000 0.43 89 16:38 13.12.2019
2749 Clouds 23 1009 100 10000 0.43 89 16:19 13.12.2019
2750 Clouds 23 1010 100 10000 0.43 89 15:42 13.12.2019
2751 Clouds 23 1010 100 10000 0.43 89 15:21 13.12.2019
2752 Clouds 23 1010 100 10000 0.43 89 14:57 13.12.2019
2753 Clouds 23 1010 100 10000 0.43 89 14:37 13.12.2019
2754 Clouds 23 1010 100 10000 0.64 90 14:19 13.12.2019
2755 Clouds 24 1011 94 10000 0.64 90 13:43 13.12.2019
2756 Clouds 24 1011 94 10000 0.64 90 13:24 13.12.2019
2757 Clouds 24 1011 94 10000 0.72 104 13:24 13.12.2019
2758 Clouds 25 1011 94 10000 0.72 104 12:57 13.12.2019
2759 Clouds 25 1011 94 10000 0.72 104 12:39 13.12.2019
2760 Clouds 25 1011 94 10000 0.72 104 12:18 13.12.2019
2761 Clouds 26 1012 88 10000 1.5 120 11:43 13.12.2019
2762 Clouds 26 1012 88 10000 1.5 120 11:25 13.12.2019
2763 Clouds 27 1011 83 10000 2.1 120 10:56 13.12.2019
2764 Clouds 27 1011 83 10000 2.1 120 10:38 13.12.2019
2765 Clouds 27 1011 83 10000 2.1 120 10:20 13.12.2019
2766 Clouds 27 1011 83 10000 1.5 130 09:42 13.12.2019
2767 Clouds 27 1011 83 10000 1.5 130 09:21 13.12.2019
2768 Clouds 27 1010 78 10000 2.1 130 08:45 13.12.2019
2769 Clouds 27 1010 78 10000 2.1 130 08:45 13.12.2019
2770 Clouds 27 1010 78 10000 2.1 130 08:26 13.12.2019
2771 Clouds 28 1010 74 10000 4.1 110 07:50 13.12.2019
2772 Clouds 28 1010 74 10000 4.1 110 07:26 13.12.2019
2773 Clouds 29 1009 70 10000 4.6 100 06:57 13.12.2019
2774 Clouds 29 1009 70 10000 4.6 100 06:31 13.12.2019
2775 Clouds 30 1009 66 10000 4.1 130 05:51 13.12.2019
2776 Clouds 30 1009 66 10000 4.1 130 05:31 13.12.2019
2777 Clouds 30 1009 66 10000 4.6 100 04:53 13.12.2019
2778 Clouds 29 1010 70 10000 3.6 150 03:52 13.12.2019
2779 Clouds 30 1010 66 10000 3.6 70 02:35 13.12.2019
2780 Clouds 29 1011 62 10000 4.1 60 01:51 13.12.2019
2781 Clouds 29 1011 62 10000 4.1 60 01:25 13.12.2019
2782 Clouds 30 1011 66 10000 3.6 70 00:46 13.12.2019
2783 Clouds 30 1011 66 10000 3.6 70 00:24 13.12.2019
2784 Clouds 28 1011 65 10000 3.6 90 23:42 12.12.2019
2785 Clouds 28 1011 65 10000 3.6 90 23:24 12.12.2019
2786 Clouds 28 1012 69 10000 1.5 140 22:56 12.12.2019
2787 Clouds 28 1012 69 10000 1.5 140 22:38 12.12.2019
2788 Clouds 28 1012 69 10000 1.5 140 22:19 12.12.2019
2789 Clouds 25 1012 83 10000 2.1 280 21:55 12.12.2019
2790 Clouds 25 1012 83 10000 2.1 280 21:37 12.12.2019
2791 Clouds 25 1012 83 10000 2.1 280 21:19 12.12.2019
2792 Clouds 23 1012 94 10000 2.6 320 20:57 12.12.2019
2793 Clouds 23 1012 94 10000 2.6 320 20:38 12.12.2019
2794 Clouds 23 1012 94 10000 2.6 320 20:20 12.12.2019
2795 Clouds 22 1011 94 10000 2.1 310 19:55 12.12.2019
2796 Clouds 22 1011 94 10000 2.1 310 19:37 12.12.2019
2797 Clouds 22 1011 94 10000 2.1 310 19:18 12.12.2019
2798 Clouds 21 1010 100 10000 0.77 117 18:55 12.12.2019
2799 Clouds 21 1010 100 10000 0.77 117 18:36 12.12.2019
2800 Clouds 21 1010 100 10000 0.77 117 18:18 12.12.2019
2801 Clouds 22 1010 94 10000 0.77 117 17:55 12.12.2019
2802 Clouds 22 1010 94 10000 0.77 117 17:37 12.12.2019
2803 Clouds 22 1010 94 10000 0.86 129 17:18 12.12.2019
2804 Clouds 22 1011 94 10000 0.86 129 16:42 12.12.2019
2805 Clouds 22 1011 94 10000 0.86 129 16:21 12.12.2019
2806 Clouds 23 1011 94 10000 0.86 129 15:59 12.12.2019
2807 Rain 22 1009 93 0 0.86 129 15:41 12.12.2019
2808 Clouds 24 1011 88 10000 0.86 129 15:19 12.12.2019
2809 Clouds 24 1011 88 10000 0.86 129 15:19 12.12.2019
2810 Rain 22 1009 93 0 0.86 129 14:57 12.12.2019
2811 Rain 22 1009 93 0 0.86 129 14:36 12.12.2019
2812 Clouds 24 1012 88 10000 0.58 141 14:18 12.12.2019
2813 Clouds 24 1012 88 10000 0.58 141 13:54 12.12.2019
2814 Clouds 24 1012 88 10000 0.6 152 13:36 12.12.2019
2815 Clouds 24 1012 88 10000 0.6 152 13:18 12.12.2019
2816 Clouds 24 1012 88 10000 0.6 152 12:41 12.12.2019
2817 Clouds 24 1012 88 10000 0.6 152 12:22 12.12.2019
2818 Clouds 25 1012 78 10000 0.6 152 11:59 12.12.2019
2819 Clouds 25 1012 78 10000 0.6 152 11:40 12.12.2019
2820 Clouds 25 1012 78 10000 0.7 202 11:21 12.12.2019
2821 Clouds 25 1012 78 10000 0.7 202 10:58 12.12.2019
2822 Clouds 25 1012 78 10000 0.7 202 10:40 12.12.2019
2823 Clouds 25 1012 78 10000 0.7 202 10:21 12.12.2019
2824 Clouds 25 1012 78 10000 0.7 202 10:21 12.12.2019
2825 Clouds 26 1011 74 10000 1 170 09:56 12.12.2019
2826 Clouds 26 1011 74 10000 1 170 09:38 12.12.2019
2827 Clouds 26 1011 74 10000 1 170 09:19 12.12.2019
2828 Clouds 26 1011 74 10000 1 170 09:19 12.12.2019
2829 Clouds 26 1010 74 10000 1 170 08:46 12.12.2019
2830 Clouds 26 1010 74 10000 1 170 08:28 12.12.2019
2831 Clouds 27 1010 65 10000 2.1 160 07:50 12.12.2019
2832 Clouds 27 1010 65 10000 2.1 160 07:28 12.12.2019
2833 Clouds 27 1009 65 10000 2.6 160 06:57 12.12.2019
2834 Clouds 27 1009 65 10000 2.6 160 06:36 12.12.2019
2835 Clouds 28 1009 61 10000 3.6 150 05:49 12.12.2019
2836 Clouds 28 1009 61 10000 3.6 150 05:25 12.12.2019
2837 Clouds 28 1009 61 10000 3.6 170 04:28 12.12.2019
2838 Clouds 28 1010 65 10000 3.1 180 02:41 12.12.2019
2839 Clouds 28 1010 65 10000 3.1 180 02:22 12.12.2019
2840 Clouds 28 1011 65 10000 3.1 160 01:54 12.12.2019
2841 Clouds 28 1011 65 10000 3.1 160 01:35 12.12.2019
2842 Clouds 27 1011 69 10000 3.1 170 00:48 12.12.2019
2843 Clouds 27 1011 69 10000 3.1 170 00:21 12.12.2019
2844 Clouds 27 1011 69 10000 3.6 180 23:54 11.12.2019
2845 Clouds 27 1011 69 10000 3.6 180 23:36 11.12.2019
2846 Clouds 27 1011 69 10000 3.6 180 23:18 11.12.2019
2847 Clouds 27 1011 69 10000 2.6 190 22:55 11.12.2019
2848 Clouds 27 1011 69 10000 2.6 190 22:36 11.12.2019
2849 Clouds 27 1011 69 10000 2.6 190 22:18 11.12.2019
2850 Clouds 27 1010 74 10000 2.1 200 21:39 11.12.2019
2851 Clouds 27 1010 74 10000 2.1 200 21:20 11.12.2019
2852 Clouds 23 1010 94 10000 1.5 280 20:58 11.12.2019
2853 Clouds 23 1010 94 10000 1.5 280 20:39 11.12.2019
2854 Clouds 23 1010 94 10000 1.5 280 20:19 11.12.2019
2855 Clouds 23 1010 94 10000 1.5 280 20:19 11.12.2019
2856 Clouds 21 1010 100 10000 1.5 330 19:59 11.12.2019
2857 Clouds 21 1010 100 10000 1.5 330 19:40 11.12.2019
2858 Clouds 21 1010 100 10000 1.5 330 19:21 11.12.2019
2859 Clouds 21 1009 100 10000 1.5 300 18:57 11.12.2019
2860 Clouds 21 1009 100 10000 1.5 300 18:38 11.12.2019
2861 Clouds 21 1009 100 10000 1.5 300 18:18 11.12.2019
2862 Clouds 21 1009 100 10000 1.5 310 17:55 11.12.2019
2863 Clouds 21 1009 100 10000 1.5 310 17:36 11.12.2019
2864 Clouds 21 1009 100 10000 1.5 310 17:18 11.12.2019
2865 Clouds 21 1009 100 10000 1.5 320 16:55 11.12.2019
2866 Clouds 21 1009 100 10000 1.5 320 16:36 11.12.2019
2867 Clouds 21 1009 100 10000 1.5 320 16:18 11.12.2019
2868 Clouds 22 1009 94 10000 1.5 320 15:41 11.12.2019
2869 Clouds 22 1009 94 10000 1.5 320 15:23 11.12.2019
2870 Clouds 22 1009 94 10000 1.5 320 15:23 11.12.2019
2871 Clouds 22 1011 94 10000 2.1 200 14:57 11.12.2019
2872 Clouds 22 1011 94 10000 2.1 200 14:57 11.12.2019
2873 Clouds 22 1011 94 10000 2.1 200 14:39 11.12.2019
2874 Clouds 22 1011 94 10000 2.1 200 14:20 11.12.2019
2875 Clouds 22 1011 94 10000 2.1 330 13:56 11.12.2019
2876 Clouds 22 1011 94 10000 2.1 330 13:38 11.12.2019
2877 Clouds 22 1011 94 10000 2.1 330 13:19 11.12.2019
2878 Clouds 24 1011 88 10000 1.5 320 12:56 11.12.2019
2879 Clouds 24 1011 88 10000 1.5 320 12:38 11.12.2019
2880 Clouds 24 1011 88 10000 1.5 320 12:19 11.12.2019
2881 Clouds 24 1011 94 10000 1.5 320 11:57 11.12.2019
2882 Clouds 24 1011 94 10000 1.5 320 11:38 11.12.2019
2883 Clouds 25 1010 83 10000 1.06 222 11:18 11.12.2019
2884 Clouds 25 1010 83 10000 1.06 222 10:45 11.12.2019
2885 Clouds 25 1010 83 10000 1.06 222 10:27 11.12.2019
2886 Clouds 26 1010 78 10000 1.06 222 09:59 11.12.2019
2887 Clouds 26 1010 78 10000 1.06 222 09:39 11.12.2019
2888 Clouds 26 1010 78 10000 1.06 222 09:39 11.12.2019
2889 Clouds 26 1010 78 10000 1.06 222 09:39 11.12.2019
2890 Clouds 26 1010 78 10000 1.06 222 09:20 11.12.2019
2891 Clouds 26 1009 78 10000 1.06 222 08:57 11.12.2019
2892 Clouds 26 1009 78 10000 1.06 222 08:38 11.12.2019
2893 Clouds 26 1009 78 10000 1.37 166 08:19 11.12.2019
2894 Clouds 27 1009 69 10000 2.1 190 07:46 11.12.2019
2895 Clouds 27 1009 69 10000 2.1 190 07:26 11.12.2019
2896 Clouds 28 1008 65 10000 2.6 180 06:57 11.12.2019
2897 Clouds 28 1008 65 10000 2.6 180 06:37 11.12.2019
2898 Clouds 28 1008 65 10000 2.6 180 06:18 11.12.2019
2899 Clouds 28 1007 65 10000 3.1 180 05:41 11.12.2019
2900 Clouds 28 1007 65 10000 3.1 180 05:18 11.12.2019
2901 Clouds 29 1008 58 10000 2.6 160 03:50 11.12.2019
2902 Clouds 28 1008 65 10000 3.1 160 02:49 11.12.2019
2903 Clouds 29 1009 62 10000 3.1 190 01:23 11.12.2019
2904 Clouds 29 1009 66 10000 3.1 180 00:46 11.12.2019
2905 Clouds 29 1009 66 10000 3.1 180 00:21 11.12.2019
2906 Clouds 29 1010 58 10000 3.6 180 23:47 10.12.2019
2907 Clouds 29 1010 58 10000 3.6 180 23:28 10.12.2019
2908 Clouds 27 1010 69 10000 3.1 200 22:57 10.12.2019
2909 Clouds 27 1010 69 10000 3.1 200 22:39 10.12.2019
2910 Clouds 27 1010 69 10000 3.1 200 22:21 10.12.2019
2911 Clouds 26 1010 83 10000 1 0 21:55 10.12.2019
2912 Clouds 26 1010 83 10000 1 0 21:55 10.12.2019
2913 Clouds 26 1010 83 10000 1 0 21:37 10.12.2019
2914 Clouds 26 1010 83 10000 1 0 21:19 10.12.2019
2915 Clouds 25 1009 88 10000 1.5 300 20:56 10.12.2019
2916 Clouds 25 1009 88 10000 1.5 300 20:37 10.12.2019
2917 Clouds 25 1009 88 10000 1.5 300 20:18 10.12.2019
2918 Clouds 23 1009 100 10000 1 320 19:54 10.12.2019
2919 Clouds 23 1009 100 10000 1 320 19:36 10.12.2019
2920 Clouds 23 1009 100 10000 1 320 19:36 10.12.2019
2921 Clouds 23 1009 100 10000 1 320 19:18 10.12.2019
2922 Clouds 24 1008 94 10000 1 300 18:39 10.12.2019
2923 Clouds 24 1008 94 10000 1 300 18:39 10.12.2019
2924 Clouds 24 1008 94 10000 1 300 18:20 10.12.2019
2925 Clouds 24 1008 94 10000 1.37 235 17:57 10.12.2019
2926 Clouds 24 1008 94 10000 1.37 235 17:39 10.12.2019
2927 Clouds 24 1008 94 10000 1.75 212 17:19 10.12.2019
2928 Clouds 25 1008 88 10000 1.75 212 16:43 10.12.2019
2929 Clouds 25 1008 88 10000 1.75 212 16:20 10.12.2019
2930 Clouds 25 1008 88 10000 1.75 212 16:20 10.12.2019
2931 Rain 25 1008 88 10000 1.5 200 15:55 10.12.2019
2932 Rain 25 1008 88 10000 1.5 200 15:37 10.12.2019
2933 Rain 25 1008 88 10000 1.5 200 15:18 10.12.2019
2934 Rain 25 1008 88 10000 1.5 200 15:18 10.12.2019
2935 Rain 25 1008 88 10000 1.5 200 15:18 10.12.2019
2936 Clouds 25 1009 88 10000 1.75 212 14:55 10.12.2019
2937 Clouds 25 1009 88 10000 1.75 212 14:36 10.12.2019
2938 Clouds 25 1009 88 10000 1.54 197 14:18 10.12.2019
2939 Clouds 26 1009 83 10000 1.5 230 13:56 10.12.2019
2940 Clouds 26 1009 83 10000 1.5 230 13:56 10.12.2019
2941 Clouds 26 1009 83 10000 1.5 230 13:37 10.12.2019
2942 Clouds 26 1009 83 10000 1.5 230 13:18 10.12.2019
2943 Clouds 26 1010 83 10000 1.37 211 12:40 10.12.2019
2944 Clouds 26 1010 83 10000 1.37 211 12:40 10.12.2019
2945 Clouds 26 1010 83 10000 1.37 211 12:21 10.12.2019
2946 Clouds 26 1010 83 10000 1 150 11:42 10.12.2019
2947 Clouds 26 1010 83 10000 1 150 11:23 10.12.2019
2948 Clouds 26 1009 83 10000 1.5 240 10:56 10.12.2019
2949 Clouds 26 1009 83 10000 1.5 240 10:37 10.12.2019
2950 Clouds 26 1009 83 10000 1.5 240 10:19 10.12.2019
2951 Clouds 26 1008 74 10000 1.5 190 09:55 10.12.2019
2952 Clouds 26 1008 74 10000 1.5 190 09:37 10.12.2019
2953 Clouds 26 1008 74 10000 1.5 190 09:18 10.12.2019
2954 Clouds 26 1008 74 10000 1 0 08:42 10.12.2019
2955 Clouds 26 1008 74 10000 1 0 08:23 10.12.2019
2956 Clouds 28 1007 65 10000 3.1 200 07:57 10.12.2019
2957 Clouds 28 1007 65 10000 3.1 200 07:39 10.12.2019
2958 Clouds 28 1007 65 10000 3.1 200 07:21 10.12.2019
2959 Clouds 28 1007 69 10000 4.1 180 06:46 10.12.2019
2960 Clouds 28 1007 69 10000 4.1 180 06:19 10.12.2019
2961 Clouds 28 1007 69 10000 3.1 200 05:52 10.12.2019
2962 Clouds 29 1008 66 10000 3.6 200 04:51 10.12.2019
2963 Clouds 30 1008 66 10000 4.1 190 03:32 10.12.2019
2964 Clouds 30 1009 66 10000 3.1 180 02:40 10.12.2019
2965 Clouds 29 1009 66 10000 3.6 210 01:44 10.12.2019
2966 Clouds 29 1009 66 10000 3.6 210 01:20 10.12.2019
2967 Clouds 29 1010 70 10000 2.6 210 00:40 10.12.2019
2968 Clouds 29 1010 70 10000 2.6 210 00:19 10.12.2019
2969 Clouds 28 1010 74 10000 3.1 200 23:41 09.12.2019
2970 Clouds 28 1010 74 10000 3.1 200 23:41 09.12.2019
2971 Clouds 28 1010 74 10000 3.1 200 23:22 09.12.2019
2972 Clouds 27 1011 78 10000 1.5 270 22:57 09.12.2019
2973 Clouds 27 1011 78 10000 1.5 270 22:39 09.12.2019
2974 Clouds 27 1011 78 10000 1.5 270 22:19 09.12.2019
2975 Clouds 25 1011 88 10000 1.5 300 21:56 09.12.2019
2976 Clouds 25 1011 88 10000 1.5 300 21:38 09.12.2019
2977 Clouds 25 1011 88 10000 1.5 300 21:18 09.12.2019
2978 Clouds 24 1010 94 10000 2.1 300 20:56 09.12.2019
2979 Clouds 24 1010 94 10000 2.1 300 20:38 09.12.2019
2980 Clouds 24 1010 94 10000 2.1 300 20:19 09.12.2019
2981 Clouds 23 1010 94 10000 1.47 263 19:55 09.12.2019
2982 Clouds 23 1010 94 10000 1.47 263 19:37 09.12.2019
2983 Clouds 23 1010 94 10000 1.47 263 19:19 09.12.2019
2984 Clouds 23 1009 100 10000 1.47 263 18:55 09.12.2019
2985 Clouds 23 1009 100 10000 1.47 263 18:36 09.12.2019
2986 Clouds 23 1009 100 10000 1.47 263 18:18 09.12.2019
2987 Clouds 23 1009 100 10000 1.47 263 17:56 09.12.2019
2988 Clouds 23 1009 100 10000 1.47 263 17:37 09.12.2019
2989 Clouds 23 1009 100 10000 0.99 290 17:19 09.12.2019
2990 Clouds 23 1009 100 10000 1.5 310 16:55 09.12.2019
2991 Clouds 23 1009 100 10000 1.5 310 16:36 09.12.2019
2992 Clouds 23 1009 100 10000 1.5 310 16:18 09.12.2019
2993 Clouds 24 1010 94 10000 0.99 290 15:55 09.12.2019
2994 Clouds 24 1010 94 10000 0.99 290 15:36 09.12.2019
2995 Clouds 24 1010 94 10000 0.99 290 15:36 09.12.2019
2996 Clouds 24 1010 94 10000 0.99 290 15:18 09.12.2019
2997 Clouds 24 1010 94 10000 0.99 290 14:42 09.12.2019
2998 Clouds 24 1010 94 10000 0.72 273 14:19 09.12.2019
2999 Clouds 24 1011 100 10000 0.72 273 13:57 09.12.2019
3000 Clouds 24 1011 100 10000 0.72 273 13:38 09.12.2019
3001 Clouds 24 1011 100 10000 0.99 299 13:19 09.12.2019
3002 Clouds 25 1012 94 10000 0.99 299 12:56 09.12.2019
3003 Clouds 25 1012 94 10000 0.99 299 12:37 09.12.2019
3004 Clouds 25 1012 94 10000 0.99 299 12:19 09.12.2019
3005 Clouds 25 1012 94 10000 0.99 299 11:55 09.12.2019
3006 Clouds 25 1012 94 10000 0.99 299 11:36 09.12.2019
3007 Clouds 25 1012 94 10000 1.17 318 11:18 09.12.2019
3008 Clouds 26 1012 94 10000 1.17 318 10:40 09.12.2019
3009 Clouds 26 1012 94 10000 1.17 318 10:20 09.12.2019
3010 Clouds 27 1012 88 10000 1.17 318 09:56 09.12.2019
3011 Clouds 27 1012 88 10000 1.17 318 09:38 09.12.2019
3012 Clouds 27 1012 88 10000 1.17 318 09:20 09.12.2019
3013 Clouds 28 1012 78 10000 1.5 170 08:42 09.12.2019
3014 Clouds 28 1012 78 10000 1.5 170 08:24 09.12.2019
3015 Rain 26 1011 80 0 1.71 108 07:53 09.12.2019
3016 Rain 26 1011 80 0 1.71 108 07:34 09.12.2019
3017 Clouds 30 1011 70 10000 3.6 80 06:59 09.12.2019
3018 Clouds 30 1011 70 10000 3.6 80 06:37 09.12.2019
3019 Clouds 30 1011 70 10000 3.6 80 06:19 09.12.2019
3020 Clouds 30 1011 70 10000 3.1 100 05:25 09.12.2019
3021 Clouds 28 1011 78 10000 4.6 110 04:29 09.12.2019
3022 Clouds 32 1012 62 10000 4.6 100 03:18 09.12.2019
3023 Clouds 31 1013 62 10000 3.6 60 01:48 09.12.2019
3024 Clouds 31 1013 62 10000 3.6 60 01:28 09.12.2019
3025 Clouds 31 1014 62 10000 3.1 80 00:39 09.12.2019
3026 Clouds 31 1014 62 10000 3.1 80 00:19 09.12.2019
3027 Clouds 30 1014 66 10000 2.6 40 23:39 08.12.2019
3028 Clouds 30 1014 66 10000 2.6 40 23:20 08.12.2019
3029 Clouds 29 1014 70 10000 3.1 80 22:56 08.12.2019
3030 Clouds 29 1014 70 10000 3.1 80 22:38 08.12.2019
3031 Clouds 29 1014 70 10000 3.1 80 22:18 08.12.2019
3032 Clouds 29 1014 70 10000 3.6 70 21:57 08.12.2019
3033 Clouds 29 1014 70 10000 3.6 70 21:38 08.12.2019
3034 Clouds 29 1014 70 10000 3.6 70 21:19 08.12.2019
3035 Clouds 26 1014 94 10000 1.94 71 20:56 08.12.2019
3036 Clouds 26 1014 94 10000 1.94 71 20:37 08.12.2019
3037 Clouds 26 1014 94 10000 0.99 6 20:19 08.12.2019
3038 Clouds 23 1014 100 10000 1.5 330 19:55 08.12.2019
3039 Clouds 23 1014 100 10000 1.5 330 19:37 08.12.2019
3040 Clouds 23 1014 100 10000 1.5 330 19:19 08.12.2019
3041 Clouds 23 1013 100 10000 0.99 6 18:55 08.12.2019
3042 Clouds 23 1013 100 10000 0.99 6 18:36 08.12.2019
3043 Clouds 23 1013 100 10000 0.99 6 18:36 08.12.2019
3044 Clouds 23 1013 100 10000 0.99 6 18:36 08.12.2019
3045 Clouds 23 1013 100 10000 0.99 6 18:18 08.12.2019
3046 Clouds 24 1013 94 10000 0.99 6 17:55 08.12.2019
3047 Clouds 24 1013 94 10000 0.99 6 17:36 08.12.2019
3048 Clouds 24 1013 94 10000 0.86 136 17:18 08.12.2019
3049 Clouds 24 1014 100 10000 0.86 136 16:55 08.12.2019
3050 Clouds 24 1014 100 10000 0.86 136 16:37 08.12.2019
3051 Clouds 24 1014 100 10000 0.86 136 16:18 08.12.2019
3052 Rain 24 1014 100 10000 1.5 330 15:38 08.12.2019
3053 Rain 24 1014 100 10000 1.5 330 15:19 08.12.2019
3054 Clouds 24 1015 100 10000 0.86 136 14:57 08.12.2019
3055 Clouds 24 1015 100 10000 0.86 136 14:38 08.12.2019
3056 Clouds 24 1015 100 10000 1.08 149 14:20 08.12.2019
3057 Clouds 25 1016 94 10000 1.08 149 13:42 08.12.2019
3058 Clouds 25 1016 94 10000 1.01 131 13:23 08.12.2019
3059 Clouds 25 1016 94 10000 1.01 131 12:59 08.12.2019
3060 Clouds 25 1016 94 10000 1.01 131 12:59 08.12.2019
3061 Clouds 25 1016 94 10000 1.01 131 12:41 08.12.2019
3062 Clouds 25 1016 94 10000 1.01 131 12:41 08.12.2019
3063 Clouds 25 1016 94 10000 1.01 131 12:22 08.12.2019
3064 Clouds 24 1015 95 0 1.01 131 11:59 08.12.2019
3065 -273 0 0 0 0 0 11:38 08.12.2019
3066 Clouds 26 1016 94 10000 0.67 105 11:19 08.12.2019
3067 Clouds 26 1016 94 10000 0.67 105 10:57 08.12.2019
3068 Clouds 26 1016 94 10000 0.67 105 10:38 08.12.2019
3069 Clouds 26 1016 94 10000 0.67 105 10:19 08.12.2019
3070 Clouds 26 1015 83 10000 0.67 105 09:55 08.12.2019
3071 Clouds 26 1015 83 10000 0.67 105 09:37 08.12.2019
3072 Clouds 26 1015 83 10000 0.67 105 09:18 08.12.2019
3073 Clouds 28 1015 78 10000 2.1 120 08:43 08.12.2019
3074 Clouds 28 1015 78 10000 2.1 120 08:23 08.12.2019
3075 Clouds 28 1014 78 10000 2.6 120 07:57 08.12.2019
3076 Clouds 28 1014 78 10000 2.6 120 07:39 08.12.2019
3077 Clouds 28 1014 78 10000 2.6 120 07:18 08.12.2019
3078 Clouds 28 1014 78 10000 3.1 130 06:41 08.12.2019
3079 Clouds 28 1014 78 10000 3.1 130 06:21 08.12.2019
3080 Clouds 30 1013 70 10000 3.1 130 05:26 08.12.2019
3081 Clouds 31 1013 62 10000 3.6 110 04:54 08.12.2019
3082 Clouds 31 1014 58 10000 4.1 80 03:40 08.12.2019
3083 Clouds 31 1015 62 10000 3.1 90 02:46 08.12.2019
3084 Clouds 31 1015 62 10000 3.1 90 02:27 08.12.2019
3085 Clouds 31 1015 58 10000 4.1 90 01:41 08.12.2019
3086 Clouds 30 1016 62 10000 4.6 90 00:56 08.12.2019
3087 Clouds 30 1016 62 10000 4.6 90 00:56 08.12.2019
3088 Clouds 30 1016 62 10000 4.6 90 00:36 08.12.2019
3089 Clouds 30 1016 62 10000 4.6 90 00:18 08.12.2019
3090 Clouds 30 1016 66 10000 3.6 90 23:39 07.12.2019
3091 Clouds 30 1016 66 10000 3.6 90 23:20 07.12.2019
3092 Clouds 29 1017 70 10000 3.1 90 22:56 07.12.2019
3093 Clouds 29 1017 70 10000 3.1 90 22:37 07.12.2019
3094 Clouds 29 1017 70 10000 3.1 90 22:19 07.12.2019
3095 Clouds 28 1016 78 10000 2.6 90 21:55 07.12.2019
3096 Clouds 28 1016 78 10000 2.6 90 21:37 07.12.2019
3097 Clouds 28 1016 78 10000 2.6 90 21:19 07.12.2019
3098 Clouds 27 1016 83 10000 2.64 64 20:38 07.12.2019
3099 Clouds 27 1016 83 10000 1.46 56 20:20 07.12.2019
3100 Clouds 24 1015 100 10000 1.46 56 19:58 07.12.2019
3101 Clouds 24 1015 100 10000 1.46 56 19:39 07.12.2019
3102 Clouds 24 1015 100 10000 1.46 56 19:21 07.12.2019
3103 Clouds 24 1015 100 10000 1.46 56 18:59 07.12.2019
3104 Clouds 24 1015 100 10000 1.46 56 18:40 07.12.2019
3105 Clouds 24 1015 100 10000 1.46 56 18:18 07.12.2019
3106 Clouds 25 1014 94 10000 1.46 56 17:56 07.12.2019
3107 Clouds 25 1014 94 10000 1.46 56 17:37 07.12.2019
3108 Clouds 25 1014 94 10000 1.78 74 17:19 07.12.2019
3109 Clouds 26 1014 88 10000 1.78 74 16:56 07.12.2019
3110 Clouds 26 1014 88 10000 1.78 74 16:36 07.12.2019
3111 Clouds 26 1014 88 10000 1.78 74 16:18 07.12.2019
3112 Clouds 26 1014 88 10000 1.78 74 15:41 07.12.2019
3113 Clouds 26 1014 88 10000 1.78 74 15:23 07.12.2019
3114 Clouds 26 1015 88 10000 1.78 74 14:56 07.12.2019
3115 Clouds 26 1015 88 10000 1.78 74 14:38 07.12.2019
3116 Clouds 26 1015 88 10000 1.26 73 14:18 07.12.2019
3117 Clouds 25 1016 94 10000 1.26 73 13:40 07.12.2019
3118 Clouds 25 1016 94 10000 1.46 73 13:20 07.12.2019
3119 Clouds 25 1017 94 10000 1.46 73 12:55 07.12.2019
3120 Clouds 25 1017 94 10000 1.46 73 12:37 07.12.2019
3121 Clouds 25 1017 94 10000 1.46 73 12:19 07.12.2019
3122 Rain 26 1017 94 10000 3.1 360 11:42 07.12.2019
3123 Rain 26 1017 94 10000 3.1 360 11:24 07.12.2019
3124 Clouds 25 1016 94 10000 1.88 90 10:59 07.12.2019
3125 Clouds 25 1016 94 10000 1.88 90 10:37 07.12.2019
3126 Clouds 25 1016 94 10000 1.88 90 10:19 07.12.2019
3127 Clouds 26 1016 88 10000 1.88 90 09:40 07.12.2019
3128 Clouds 26 1016 88 10000 1.88 90 09:21 07.12.2019
3129 Clouds 26 1015 88 10000 2.1 50 08:47 07.12.2019
3130 Clouds 26 1015 88 10000 2.1 50 08:25 07.12.2019
3131 Clouds 28 1014 78 10000 3.1 30 07:54 07.12.2019
3132 Clouds 28 1014 78 10000 3.1 30 07:30 07.12.2019
3133 Clouds 28 1014 83 10000 3.1 50 06:55 07.12.2019
3134 Clouds 28 1014 83 10000 3.1 50 06:28 07.12.2019
3135 Clouds 28 1014 83 10000 4.1 30 05:50 07.12.2019
3136 Clouds 30 1013 74 10000 5.1 50 04:49 07.12.2019
3137 Clouds 31 1014 66 10000 6.2 80 03:53 07.12.2019
3138 Clouds 31 1014 66 10000 5.7 70 02:50 07.12.2019
3139 Clouds 31 1014 66 10000 5.7 70 02:19 07.12.2019
3140 Clouds 31 1014 66 10000 6.2 70 01:30 07.12.2019
3141 Clouds 31 1015 62 10000 6.2 60 00:43 07.12.2019
3142 Clouds 31 1015 62 10000 6.2 60 00:19 07.12.2019
3143 Clouds 30 1015 66 10000 6.7 70 23:45 06.12.2019
3144 Clouds 30 1015 66 10000 6.7 70 23:23 06.12.2019
3145 Clouds 29 1015 70 10000 4.1 60 22:58 06.12.2019
3146 Clouds 29 1015 70 10000 4.1 60 22:58 06.12.2019
3147 Clouds 29 1015 70 10000 4.1 60 22:37 06.12.2019
3148 Clouds 29 1015 70 10000 4.1 60 22:18 06.12.2019
3149 Clouds 27 1015 88 10000 2.98 61 21:41 06.12.2019
3150 Clouds 27 1015 88 10000 2.98 61 21:21 06.12.2019
3151 Clouds 24 1015 94 10000 2.1 310 20:59 06.12.2019
3152 Clouds 24 1015 94 10000 2.1 310 20:41 06.12.2019
3153 Clouds 24 1015 94 10000 2.1 310 20:21 06.12.2019
3154 Clouds 23 1014 100 10000 1.16 34 19:54 06.12.2019
3155 Clouds 23 1014 100 10000 1.16 34 19:36 06.12.2019
3156 Clouds 23 1014 100 10000 1.16 34 19:18 06.12.2019
3157 Clouds 24 1013 94 10000 1.16 34 18:44 06.12.2019
3158 Clouds 24 1013 94 10000 1.16 34 18:22 06.12.2019
3159 Clouds 24 1013 94 10000 1 0 17:58 06.12.2019
3160 Clouds 24 1013 94 10000 1 0 17:40 06.12.2019
3161 Clouds 24 1013 94 10000 1 0 17:40 06.12.2019
3162 Clouds 24 1013 94 10000 1 0 17:22 06.12.2019
3163 Clouds 24 1013 94 10000 1.49 33 16:58 06.12.2019
3164 Clouds 24 1013 94 10000 1.49 33 16:39 06.12.2019
3165 Clouds 24 1013 94 10000 1.49 33 16:20 06.12.2019
3166 Rain 24 1013 100 10000 1 0 15:41 06.12.2019
3167 -273 0 0 0 0 0 15:23 06.12.2019
3168 Clouds 24 1013 94 10000 1.5 310 14:58 06.12.2019
3169 Clouds 24 1013 94 10000 1.5 310 14:40 06.12.2019
3170 Clouds 24 1013 94 10000 1.5 310 14:20 06.12.2019
3171 Clouds 25 1014 94 10000 1.5 330 13:55 06.12.2019
3172 Clouds 25 1014 94 10000 1.5 330 13:37 06.12.2019
3173 Clouds 25 1014 94 10000 1.5 330 13:19 06.12.2019
3174 Clouds 25 1015 94 10000 1.56 52 12:39 06.12.2019
3175 Clouds 25 1015 94 10000 1.56 52 12:21 06.12.2019
3176 Clouds 25 1015 94 10000 1.56 52 11:43 06.12.2019
3177 Clouds 25 1015 94 10000 1.56 52 11:23 06.12.2019
3178 Clouds 25 1014 88 10000 1.29 71 10:57 06.12.2019
3179 Clouds 25 1014 88 10000 1.29 71 10:38 06.12.2019
3180 Clouds 25 1014 88 10000 1.29 71 10:20 06.12.2019
3181 Clouds 26 1013 83 10000 1.29 71 09:56 06.12.2019
3182 Clouds 26 1013 83 10000 1.29 71 09:37 06.12.2019
3183 Clouds 26 1013 83 10000 1.29 71 09:19 06.12.2019
3184 Clouds 26 1013 83 10000 1.29 71 09:19 06.12.2019
3185 Clouds 27 1013 78 10000 1.29 71 08:43 06.12.2019
3186 Clouds 27 1013 78 10000 1.29 71 08:25 06.12.2019
3187 Clouds 29 1011 66 10000 2.6 90 07:42 06.12.2019
3188 Clouds 29 1011 66 10000 2.6 90 07:22 06.12.2019
3189 Clouds 30 1011 51 10000 2.6 110 06:48 06.12.2019
3190 Clouds 30 1011 51 10000 2.6 110 06:25 06.12.2019
3191 Clouds 30 1010 55 10000 3.1 120 05:49 06.12.2019
3192 Clouds 31 1011 58 10000 2.6 100 03:50 06.12.2019
3193 Clouds 29 1012 64 0 2.75 80 01:46 06.12.2019
3194 Clouds 29 1012 62 10000 2.75 80 00:56 06.12.2019
3195 Clouds 29 1012 62 10000 2.75 80 00:24 06.12.2019
3196 Clouds 29 1013 66 10000 1.5 70 23:52 05.12.2019
3197 Clouds 29 1013 66 10000 1.5 70 23:21 05.12.2019
3198 Clouds 29 1013 66 10000 1.85 76 22:59 05.12.2019
3199 Clouds 29 1013 66 10000 1.85 76 22:39 05.12.2019
3200 Clouds 29 1013 66 10000 1.85 76 22:20 05.12.2019
3201 Clouds 28 1013 78 10000 2.6 120 21:58 05.12.2019
3202 Clouds 28 1013 78 10000 2.6 120 21:40 05.12.2019
3203 Clouds 28 1013 78 10000 2.6 120 21:21 05.12.2019
3204 Clouds 26 1013 88 10000 1.85 76 20:57 05.12.2019
3205 Clouds 26 1013 88 10000 1.85 76 20:38 05.12.2019
3206 Clouds 24 1012 94 10000 0.93 55 20:19 05.12.2019
3207 Clouds 24 1012 94 10000 0.93 55 19:43 05.12.2019
3208 Clouds 24 1012 94 10000 0.93 55 19:25 05.12.2019
3209 Clouds 24 1012 94 10000 0.93 55 18:59 05.12.2019
3210 Clouds 24 1012 94 10000 0.93 55 18:39 05.12.2019
3211 Clouds 24 1011 94 10000 0.93 55 18:20 05.12.2019
3212 Clouds 24 1011 94 10000 0.93 55 17:55 05.12.2019
3213 Clouds 24 1011 94 10000 0.93 55 17:37 05.12.2019
3214 Clouds 24 1011 94 10000 0.82 66 17:18 05.12.2019
3215 Clouds 24 1011 94 10000 0.82 66 16:40 05.12.2019
3216 Clouds 24 1011 94 10000 0.82 66 16:40 05.12.2019
3217 Clouds 26 1011 83 10000 0.82 66 16:22 05.12.2019
3218 Clouds 26 1011 83 10000 0.82 66 15:59 05.12.2019
3219 Clouds 26 1011 83 10000 0.82 66 15:40 05.12.2019
3220 Clouds 26 1012 83 10000 0.82 66 15:21 05.12.2019
3221 Clouds 26 1012 83 10000 0.82 66 14:56 05.12.2019
3222 Clouds 26 1012 83 10000 0.82 66 14:38 05.12.2019
3223 Clouds 26 1013 88 10000 1.06 93 14:20 05.12.2019
3224 Clouds 26 1013 88 10000 1.06 93 13:58 05.12.2019
3225 Clouds 26 1013 88 10000 1.06 93 13:40 05.12.2019
3226 Clouds 26 1013 88 10000 1.21 83 13:21 05.12.2019
3227 Clouds 26 1013 88 10000 1.21 83 12:58 05.12.2019
3228 Clouds 26 1013 88 10000 1.21 83 12:39 05.12.2019
3229 Clouds 27 1013 83 10000 1.21 83 12:21 05.12.2019
3230 Clouds 27 1013 83 10000 1.21 83 11:41 05.12.2019
3231 Clouds 26 1013 88 10000 1.16 89 11:22 05.12.2019
3232 Clouds 26 1013 88 10000 1.16 89 10:59 05.12.2019
3233 Clouds 26 1013 88 10000 1.16 89 10:41 05.12.2019
3234 Clouds 26 1013 88 10000 1.16 89 10:19 05.12.2019
3235 Clouds 26 1013 88 10000 1.16 89 10:19 05.12.2019
3236 Clouds 27 1013 83 10000 1.16 89 09:57 05.12.2019
3237 Clouds 27 1013 83 10000 1.16 89 09:38 05.12.2019
3238 Clouds 27 1013 83 10000 1.16 89 09:20 05.12.2019
3239 Clouds 27 1013 83 10000 1.16 89 09:20 05.12.2019
3240 Clouds 27 1012 94 10000 1.16 89 08:56 05.12.2019
3241 Clouds 27 1012 94 10000 1.16 89 08:37 05.12.2019
3242 Clouds 27 1012 94 10000 1.85 77 08:18 05.12.2019
3243 Clouds 27 1012 94 10000 1.82 79 08:18 05.12.2019
3244 Clouds 28 1011 78 10000 2.6 120 07:41 05.12.2019
3245 Clouds 28 1011 78 10000 2.6 120 07:21 05.12.2019
3246 Clouds 27 1011 78 10000 2.6 100 06:47 05.12.2019
3247 Clouds 27 1011 78 10000 2.6 100 06:23 05.12.2019
3248 Clouds 29 1011 74 10000 5.1 100 05:54 05.12.2019
3249 Clouds 29 1011 74 10000 5.1 100 05:24 05.12.2019
3250 Clouds 30 1010 70 10000 3.6 110 04:40 05.12.2019
3251 Rain 30 1011 74 10000 5.1 100 03:35 05.12.2019
3252 Clouds 30 1011 74 10000 4.1 100 02:42 05.12.2019
3253 Clouds 30 1012 70 10000 4.1 40 02:22 05.12.2019
3254 Clouds 30 1012 70 10000 4.1 40 01:50 05.12.2019
3255 Clouds 26 1012 94 10000 2.8 90 01:23 05.12.2019
3256 Clouds 26 1012 94 10000 2.8 90 00:44 05.12.2019
3257 Rain 26 1013 94 10000 2.1 320 00:20 05.12.2019
3258 Rain 26 1013 94 10000 2.1 320 23:46 04.12.2019
3259 Rain 26 1013 94 10000 2.74 78 23:22 04.12.2019
3260 Rain 26 1013 94 10000 2.74 78 22:59 04.12.2019
3261 Rain 26 1013 94 10000 2.74 78 22:38 04.12.2019
3262 Clouds 28 1013 83 10000 2.74 78 22:19 04.12.2019
3263 Clouds 28 1013 83 10000 2.74 78 21:56 04.12.2019
3264 Clouds 28 1013 83 10000 2.74 78 21:56 04.12.2019
3265 Clouds 28 1013 83 10000 2.74 78 21:56 04.12.2019
3266 Clouds 28 1013 83 10000 2.74 78 21:37 04.12.2019
3267 Clouds 25 1013 94 10000 2.74 78 21:19 04.12.2019
3268 Clouds 25 1013 94 10000 2.74 78 20:56 04.12.2019
3269 Clouds 25 1013 94 10000 2.74 78 20:56 04.12.2019
3270 Clouds 25 1013 94 10000 2.74 78 20:38 04.12.2019
3271 Clouds 25 1013 94 10000 0.76 26 20:20 04.12.2019
3272 Clouds 25 1013 94 10000 0.76 26 19:42 04.12.2019
3273 Clouds 25 1013 94 10000 0.76 26 19:24 04.12.2019
3274 Clouds 24 1012 100 10000 0.76 26 18:59 04.12.2019
3275 Clouds 24 1012 100 10000 0.76 26 18:41 04.12.2019
3276 Clouds 24 1012 100 10000 0.76 26 18:22 04.12.2019
3277 Clouds 24 1012 100 10000 0.76 26 18:22 04.12.2019
3278 Clouds 25 1011 94 10000 0.76 26 17:58 04.12.2019
3279 Clouds 25 1011 94 10000 0.76 26 17:58 04.12.2019
3280 Clouds 25 1011 94 10000 0.76 26 17:39 04.12.2019
3281 Clouds 25 1011 94 10000 0.62 5 17:19 04.12.2019
3282 Clouds 25 1011 94 10000 0.62 5 17:19 04.12.2019
3283 Clouds 24 1011 100 10000 0.62 5 16:54 04.12.2019
3284 Clouds 24 1011 100 10000 0.62 5 16:36 04.12.2019
3285 Clouds 24 1011 100 10000 0.62 5 16:18 04.12.2019
3286 Clouds 25 1011 94 10000 0.62 5 15:42 04.12.2019
3287 Clouds 25 1011 94 10000 0.62 5 15:21 04.12.2019
3288 Clouds 25 1012 94 10000 0.62 5 15:00 04.12.2019
3289 Clouds 25 1012 94 10000 0.62 5 14:41 04.12.2019
3290 Clouds 25 1012 94 10000 0.67 51 14:21 04.12.2019
3291 Clouds 25 1013 94 10000 0.67 51 13:56 04.12.2019
3292 Clouds 25 1013 94 10000 0.67 51 13:36 04.12.2019
3293 Clouds 25 1013 94 10000 0.5 55 13:18 04.12.2019
3294 Clouds 25 1013 94 10000 0.5 55 12:42 04.12.2019
3295 Clouds 25 1013 94 10000 0.5 55 12:23 04.12.2019
3296 Rain 25 1013 94 10000 1.5 0 11:44 04.12.2019
3297 Rain 25 1013 94 10000 1.5 0 11:44 04.12.2019
3298 Rain 25 1013 94 10000 1.5 0 11:26 04.12.2019
3299 Rain 26 1012 94 10000 0.38 132 10:58 04.12.2019
3300 Rain 26 1012 94 10000 0.38 132 10:40 04.12.2019
3301 Rain 27 1012 88 10000 2.6 60 10:22 04.12.2019
3302 Rain 27 1012 88 10000 2.6 60 09:44 04.12.2019
3303 Clouds 28 1011 83 10000 3.6 110 09:24 04.12.2019
3304 Clouds 28 1011 83 10000 3.6 110 08:54 04.12.2019
3305 Clouds 28 1011 83 10000 3.6 110 08:36 04.12.2019
3306 Clouds 28 1011 78 10000 4.1 110 08:18 04.12.2019
3307 Clouds 28 1011 78 10000 4.1 110 07:41 04.12.2019
3308 Clouds 29 1011 74 10000 6.2 70 07:22 04.12.2019
3309 Clouds 29 1010 74 10000 4.1 120 06:33 04.12.2019
3310 Clouds 29 1010 74 10000 4.1 120 05:47 04.12.2019
3311 Clouds 31 1010 70 10000 6.7 120 04:39 04.12.2019
3312 Clouds 31 1010 66 10000 6.7 130 03:53 04.12.2019
3313 Clouds 31 1011 62 10000 3.6 100 02:19 04.12.2019
3314 Clouds 30 1012 70 10000 2.6 80 00:49 04.12.2019
3315 Clouds 30 1012 70 10000 2.6 80 00:22 04.12.2019
3316 Clouds 30 1012 70 10000 2.1 60 23:56 03.12.2019
3317 Clouds 30 1012 70 10000 2.1 60 23:37 03.12.2019
3318 Clouds 30 1012 70 10000 2.1 60 23:18 03.12.2019
3319 Clouds 29 1013 74 10000 2.32 88 22:39 03.12.2019
3320 Clouds 29 1013 74 10000 2.32 88 22:39 03.12.2019
3321 Clouds 29 1013 74 10000 2.32 88 22:18 03.12.2019
3322 Clouds 28 1013 83 10000 2.32 88 21:57 03.12.2019
3323 Clouds 28 1013 83 10000 2.32 88 21:37 03.12.2019
3324 Clouds 28 1013 83 10000 2.32 88 21:18 03.12.2019
3325 Clouds 25 1013 88 10000 2.32 88 20:54 03.12.2019
3326 Clouds 25 1013 88 10000 2.32 88 20:36 03.12.2019
3327 Clouds 23 1012 100 10000 0.22 40 20:18 03.12.2019
3328 Clouds 23 1012 100 10000 0.22 40 19:54 03.12.2019
3329 Clouds 23 1012 100 10000 0.22 40 19:36 03.12.2019
3330 Clouds 23 1012 100 10000 0.22 40 19:18 03.12.2019
3331 Clouds 23 1012 100 10000 0.22 40 18:55 03.12.2019
3332 Clouds 23 1012 100 10000 0.22 40 18:36 03.12.2019
3333 Clouds 23 1011 100 10000 0.22 40 18:18 03.12.2019
3334 Clouds 23 1011 100 10000 0.22 40 17:40 03.12.2019
3335 Clouds 24 1011 94 10000 0.58 22 17:19 03.12.2019
3336 Clouds 24 1011 94 10000 0.58 22 16:59 03.12.2019
3337 Clouds 24 1011 94 10000 0.58 22 16:39 03.12.2019
3338 Clouds 23 1011 100 10000 0.58 22 16:21 03.12.2019
3339 Clouds 23 1011 100 10000 0.58 22 15:58 03.12.2019
3340 Clouds 23 1011 100 10000 0.58 22 15:38 03.12.2019
3341 Clouds 24 1012 94 10000 0.58 22 15:19 03.12.2019
3342 Clouds 24 1012 94 10000 0.58 22 14:44 03.12.2019
3343 Clouds 24 1012 100 10000 0.94 61 14:21 03.12.2019
3344 Clouds 24 1012 100 10000 0.94 61 13:59 03.12.2019
3345 Clouds 24 1012 100 10000 0.94 61 13:38 03.12.2019
3346 Clouds 26 1013 88 10000 1.5 100 13:19 03.12.2019
3347 Clouds 26 1013 88 10000 1.5 100 12:56 03.12.2019
3348 Clouds 26 1013 88 10000 1.5 100 12:36 03.12.2019
3349 Clouds 26 1013 88 10000 2.1 100 12:18 03.12.2019
3350 Clouds 26 1013 88 10000 2.1 100 11:54 03.12.2019
3351 Clouds 26 1013 88 10000 2.1 100 11:36 03.12.2019
3352 Clouds 27 1013 88 10000 1.5 100 11:18 03.12.2019
3353 Clouds 27 1013 88 10000 1.5 100 10:42 03.12.2019
3354 Clouds 27 1013 88 10000 1.5 100 10:21 03.12.2019
3355 Clouds 27 1013 88 10000 1.5 100 09:57 03.12.2019
3356 Clouds 27 1013 88 10000 1.5 100 09:39 03.12.2019
3357 Clouds 27 1012 83 10000 1.5 100 09:20 03.12.2019
3358 Clouds 27 1012 83 10000 1.5 100 08:41 03.12.2019
3359 Clouds 27 1012 83 10000 1.5 100 08:41 03.12.2019
3360 Clouds 28 1011 78 10000 2.6 100 08:22 03.12.2019
3361 Clouds 28 1011 78 10000 2.6 100 07:57 03.12.2019
3362 Clouds 28 1011 78 10000 2.6 100 07:39 03.12.2019
3363 Clouds 29 1011 74 10000 1.5 100 07:20 03.12.2019
3364 Clouds 30 1010 74 10000 2.1 80 06:23 03.12.2019
3365 Clouds 30 1010 74 10000 2.1 80 05:58 03.12.2019
3366 Clouds 30 1010 70 10000 2.1 70 04:49 03.12.2019
3367 Clouds 29 1011 74 10000 3.1 70 03:38 03.12.2019
3368 Clouds 29 1011 74 10000 3.6 150 03:18 03.12.2019
3369 Clouds 29 1011 74 10000 3.6 150 02:45 03.12.2019
3370 Clouds 29 1012 74 10000 4.1 150 02:25 03.12.2019
3371 Clouds 29 1012 74 10000 4.1 150 01:42 03.12.2019
3372 Clouds 29 1012 74 10000 3.1 140 01:23 03.12.2019
3373 Clouds 29 1012 74 10000 3.1 140 00:45 03.12.2019
3374 Clouds 29 1012 74 10000 3.1 150 00:26 03.12.2019
3375 Clouds 29 1012 74 10000 3.1 150 23:59 02.12.2019
3376 Clouds 29 1012 74 10000 3.1 150 23:41 02.12.2019
3377 -273 0 0 0 0 0 23:19 02.12.2019
3378 Clouds 28 1012 83 10000 2.6 120 22:40 02.12.2019
3379 Clouds 27 1013 88 10000 2.63 97 22:22 02.12.2019
3380 Clouds 27 1013 88 10000 2.63 97 21:57 02.12.2019
3381 Clouds 27 1013 88 10000 2.63 97 21:37 02.12.2019
3382 Rain 25 1012 94 10000 3.1 110 21:18 02.12.2019
3383 Rain 25 1012 94 10000 3.1 110 20:56 02.12.2019
3384 Rain 25 1012 94 10000 3.1 110 20:38 02.12.2019
3385 Rain 25 1012 94 10000 3.1 100 20:19 02.12.2019
3386 Rain 25 1012 94 10000 3.1 100 20:19 02.12.2019
3387 Rain 25 1012 94 10000 3.1 100 19:42 02.12.2019
3388 Clouds 24 1011 94 10000 0.88 111 19:21 02.12.2019
3389 Clouds 24 1011 94 10000 0.88 111 19:21 02.12.2019
3390 Clouds 24 1011 94 10000 0.88 111 18:57 02.12.2019
3391 Clouds 24 1011 94 10000 0.88 111 18:38 02.12.2019
3392 Clouds 25 1010 94 10000 0.88 111 18:19 02.12.2019
3393 Clouds 25 1010 94 10000 0.88 111 17:57 02.12.2019
3394 Clouds 25 1010 94 10000 0.88 111 17:57 02.12.2019
3395 Clouds 25 1010 94 10000 0.88 111 17:38 02.12.2019
3396 Rain 25 1010 94 10000 1.1 86 17:18 02.12.2019
3397 Rain 25 1010 94 10000 1.1 86 16:39 02.12.2019
3398 Clouds 25 1010 94 10000 1.1 86 16:19 02.12.2019
3399 Clouds 25 1010 94 10000 1.1 86 15:57 02.12.2019
3400 Clouds 25 1010 94 10000 1.1 86 15:39 02.12.2019
3401 Clouds 26 1011 88 10000 1.1 86 15:21 02.12.2019
3402 -273 0 0 0 0 0 14:56 02.12.2019
3403 Clouds 26 1011 88 10000 1.1 86 14:37 02.12.2019
3404 Clouds 26 1011 83 10000 1.08 116 14:19 02.12.2019
3405 Clouds 26 1011 83 10000 1.08 116 13:55 02.12.2019
3406 Clouds 26 1011 83 10000 1.08 116 13:55 02.12.2019
3407 Clouds 26 1011 83 10000 1.08 116 13:37 02.12.2019
3408 Clouds 26 1012 88 10000 1.13 113 13:18 02.12.2019
3409 Clouds 26 1012 88 10000 1.13 113 12:42 02.12.2019
3410 Clouds 26 1012 88 10000 1.13 113 12:42 02.12.2019
3411 Clouds 26 1012 83 10000 1.13 113 12:21 02.12.2019
3412 Clouds 26 1012 83 10000 1.13 113 11:57 02.12.2019
3413 Clouds 26 1012 83 10000 1.13 113 11:38 02.12.2019
3414 Clouds 26 1011 83 10000 2.6 120 11:19 02.12.2019
3415 Clouds 26 1011 83 10000 2.6 120 10:57 02.12.2019
3416 Clouds 26 1011 83 10000 2.6 120 10:38 02.12.2019
3417 Clouds 26 1011 88 10000 2.6 110 10:20 02.12.2019
3418 Clouds 26 1011 88 10000 2.6 110 09:42 02.12.2019
3419 Clouds 27 1010 83 10000 3.1 120 09:19 02.12.2019
3420 Clouds 27 1010 83 10000 3.1 120 09:19 02.12.2019
3421 Clouds 27 1010 83 10000 3.1 120 08:59 02.12.2019
3422 Clouds 27 1010 83 10000 3.1 120 08:41 02.12.2019
3423 Clouds 27 1010 78 10000 3.6 110 08:22 02.12.2019
3424 Clouds 27 1010 78 10000 3.6 110 07:45 02.12.2019
3425 Clouds 28 1009 74 10000 3.6 130 07:25 02.12.2019
3426 Clouds 28 1009 74 10000 3.6 130 06:59 02.12.2019
3427 Clouds 28 1009 74 10000 3.6 130 06:39 02.12.2019
3428 Clouds 29 1009 70 10000 4.1 130 05:36 02.12.2019
3429 Clouds 28 1009 74 10000 3.6 130 04:55 02.12.2019
3430 Clouds 29 1009 70 10000 5.1 120 02:58 02.12.2019
3431 Clouds 29 1009 70 10000 5.1 120 02:38 02.12.2019
3432 Clouds 28 1010 69 10000 5.1 110 01:30 02.12.2019
3433 Clouds 29 1010 66 10000 5.1 110 00:59 02.12.2019
3434 Clouds 29 1010 66 10000 5.1 110 00:30 02.12.2019
3435 Clouds 29 1011 70 10000 5.7 100 23:57 01.12.2019
3436 Clouds 29 1011 70 10000 5.7 100 23:57 01.12.2019
3437 Clouds 29 1011 70 10000 5.7 100 23:38 01.12.2019
3438 Clouds 29 1011 70 10000 5.7 100 23:19 01.12.2019
3439 Clouds 28 1011 69 10000 4.6 120 22:56 01.12.2019
3440 Clouds 28 1011 69 10000 4.6 120 22:37 01.12.2019
3441 Clouds 28 1011 69 10000 4.6 120 22:18 01.12.2019
3442 Clouds 28 1011 69 10000 3.6 100 21:56 01.12.2019
3443 Clouds 28 1011 69 10000 3.6 100 21:56 01.12.2019
3444 Clouds 28 1011 69 10000 3.6 100 21:38 01.12.2019
3445 Clouds 28 1011 69 10000 3.6 100 21:38 01.12.2019
3446 Clouds 28 1011 69 10000 3.6 100 21:18 01.12.2019
3447 Clouds 26 1010 78 10000 4.1 110 20:56 01.12.2019
3448 Clouds 26 1010 78 10000 4.1 110 20:37 01.12.2019
3449 Clouds 26 1010 78 10000 4.1 110 20:19 01.12.2019
3450 Clouds 24 1010 88 10000 2.1 120 19:55 01.12.2019
3451 Clouds 24 1010 88 10000 2.1 120 19:36 01.12.2019
3452 Clouds 24 1010 88 10000 2.1 120 19:36 01.12.2019
3453 Clouds 24 1010 88 10000 2.1 120 19:18 01.12.2019
3454 Clouds 24 1010 88 10000 2.1 120 19:18 01.12.2019
3455 Clouds 25 1010 83 10000 1.5 100 18:55 01.12.2019
3456 Clouds 25 1010 83 10000 1.5 100 18:55 01.12.2019
3457 Clouds 25 1010 83 10000 1.5 100 18:36 01.12.2019
3458 Clouds 25 1010 83 10000 1.5 100 18:18 01.12.2019
3459 Clouds 25 1009 83 10000 2.6 120 17:55 01.12.2019
3460 Clouds 25 1009 83 10000 2.6 120 17:37 01.12.2019
3461 Clouds 25 1009 83 10000 2.6 120 17:37 01.12.2019
3462 Clouds 25 1009 83 10000 2.6 120 17:19 01.12.2019
3463 Clouds 25 1009 78 10000 2.1 110 16:42 01.12.2019
3464 Clouds 25 1009 78 10000 2.1 110 16:23 01.12.2019
3465 Clouds 25 1009 78 10000 2.6 120 15:51 01.12.2019
3466 Clouds 25 1009 78 10000 2.6 120 15:33 01.12.2019
3467 Clouds 25 1009 78 10000 2.6 120 15:33 01.12.2019
3468 Clouds 25 1009 78 10000 2.6 120 15:33 01.12.2019
3469 Clouds 25 1010 78 10000 2.6 120 14:58 01.12.2019
3470 Clouds 25 1010 78 10000 2.6 120 14:58 01.12.2019
3471 Clouds 25 1010 78 10000 2.6 120 14:58 01.12.2019
3472 Clouds 25 1010 78 10000 2.6 120 14:37 01.12.2019
3473 Clouds 25 1010 78 10000 2.6 120 14:18 01.12.2019
3474 Clouds 25 1010 78 10000 2.6 110 13:40 01.12.2019
3475 Clouds 25 1010 78 10000 2.6 110 13:20 01.12.2019
3476 Clouds 25 1010 78 10000 2.6 110 12:46 01.12.2019
3477 Clouds 25 1010 78 10000 2.6 110 12:18 01.12.2019
3478 Clouds 25 1010 78 10000 2.6 110 12:18 01.12.2019
3479 Clouds 25 1010 78 10000 2.6 110 12:18 01.12.2019
3480 Clouds 25 1010 78 10000 2.6 110 12:18 01.12.2019
3481 Clouds 25 1010 78 10000 2.6 110 12:18 01.12.2019
3482 Clouds 26 1011 74 10000 3.1 100 11:43 01.12.2019
3483 Clouds 26 1011 74 10000 3.1 100 11:43 01.12.2019
3484 Clouds 26 1011 74 10000 3.1 100 11:43 01.12.2019
3485 Clouds 26 1011 74 10000 3.1 100 11:43 01.12.2019
3486 Clouds 26 1011 74 10000 3.1 100 11:24 01.12.2019
3487 Clouds 26 1010 74 10000 3.6 110 10:44 01.12.2019
3488 Clouds 26 1010 74 10000 3.6 110 10:22 01.12.2019
3489 Clouds 26 1010 74 10000 2.6 110 09:59 01.12.2019
3490 Clouds 26 1010 74 10000 2.6 110 09:40 01.12.2019
3491 Clouds 26 1010 74 10000 2.6 110 09:20 01.12.2019
3492 Clouds 26 1009 74 10000 4.1 110 08:48 01.12.2019
3493 Clouds 26 1009 74 10000 4.1 110 08:20 01.12.2019
3494 Clouds 26 1009 74 10000 5.1 100 07:52 01.12.2019
3495 Clouds 26 1009 74 10000 5.1 100 07:31 01.12.2019
3496 Clouds 27 1009 69 10000 4.6 120 06:57 01.12.2019
3497 Clouds 27 1009 69 10000 4.6 120 06:35 01.12.2019
3498 Clouds 28 1008 61 10000 4.6 130 05:49 01.12.2019
3499 Clouds 29 1008 62 10000 5.1 120 04:51 01.12.2019
3500 Clouds 29 1009 62 10000 4.1 120 03:23 01.12.2019
3501 Clouds 30 1009 58 10000 4.1 110 02:36 01.12.2019
3502 Clouds 30 1009 58 10000 4.1 110 02:18 01.12.2019
3503 Clouds 29 1010 58 10000 4.1 120 01:51 01.12.2019
3504 Clouds 29 1010 58 10000 4.1 120 01:24 01.12.2019
3505 Clouds 28 1010 58 10000 3.1 120 00:41 01.12.2019
3506 Clouds 28 1010 58 10000 3.1 120 00:23 01.12.2019
3507 Clouds 27 1011 65 10000 2.75 101 23:42 30.11.2019
3508 Clouds 27 1011 65 10000 2.15 109 23:23 30.11.2019
3509 Clouds 28 1011 69 10000 3.6 110 22:50 30.11.2019
3510 Clouds 28 1011 69 10000 3.6 110 22:30 30.11.2019
3511 Clouds 23 1010 83 10000 1.5 290 21:59 30.11.2019
3512 Clouds 23 1010 83 10000 1.5 290 21:41 30.11.2019
3513 Clouds 23 1010 83 10000 1.5 290 21:41 30.11.2019
3514 Clouds 23 1010 83 10000 1.5 290 21:23 30.11.2019
3515 Clouds 23 1010 83 10000 1.5 310 20:55 30.11.2019
3516 Clouds 23 1010 83 10000 1.5 310 20:37 30.11.2019
3517 Clouds 23 1010 83 10000 1.5 310 20:19 30.11.2019
3518 Clouds 20 1010 100 10000 1.5 320 19:55 30.11.2019
3519 Clouds 20 1010 100 10000 1.5 320 19:37 30.11.2019
3520 Clouds 20 1010 100 10000 1.5 320 19:18 30.11.2019
3521 Clouds 20 1010 100 10000 1.5 320 19:18 30.11.2019
3522 Clouds 20 1009 100 10000 2.1 320 18:56 30.11.2019
3523 Clouds 20 1009 100 10000 2.1 320 18:37 30.11.2019
3524 Clouds 20 1009 100 10000 2.1 320 18:18 30.11.2019
3525 Clouds 20 1009 94 10000 1.5 320 17:56 30.11.2019
3526 Clouds 20 1009 94 10000 1.5 320 17:56 30.11.2019
3527 Clouds 20 1009 94 10000 1.5 320 17:37 30.11.2019
3528 Clouds 20 1009 94 10000 1.5 320 17:19 30.11.2019
3529 Clouds 21 1009 94 10000 2.1 320 16:42 30.11.2019
3530 Clouds 21 1009 94 10000 2.1 320 16:23 30.11.2019
3531 Clouds 21 1009 94 10000 1 0 15:58 30.11.2019
3532 Clouds 21 1009 94 10000 1 0 15:40 30.11.2019
3533 Clouds 21 1009 94 10000 1 0 15:19 30.11.2019
3534 Clouds 21 1009 94 10000 1 0 15:19 30.11.2019
3535 Clouds 21 1009 94 10000 1 0 14:56 30.11.2019
3536 Clouds 21 1009 94 10000 1 0 14:37 30.11.2019
3537 Clouds 21 1009 94 10000 1 0 14:37 30.11.2019
3538 Clouds 21 1009 94 10000 1 0 14:18 30.11.2019
3539 Clouds 22 1010 94 10000 1 0 13:56 30.11.2019
3540 Clouds 22 1010 94 10000 1 0 13:36 30.11.2019
3541 Clouds 22 1010 94 10000 1 0 13:18 30.11.2019
3542 Clouds 22 1011 88 10000 1.5 330 12:42 30.11.2019
3543 Clouds 22 1011 88 10000 1.5 330 12:24 30.11.2019
3544 Clouds 23 1011 78 10000 0.31 30 11:43 30.11.2019
3545 Clouds 23 1011 78 10000 0.74 106 11:20 30.11.2019
3546 Clouds 24 1010 78 10000 0.74 106 10:56 30.11.2019
3547 Clouds 24 1010 78 10000 0.74 106 10:38 30.11.2019
3548 Clouds 25 1010 69 10000 1.5 100 10:19 30.11.2019
3549 Clouds 25 1010 69 10000 1.5 100 09:46 30.11.2019
3550 Clouds 25 1009 69 10000 2.1 110 09:27 30.11.2019
3551 Clouds 25 1009 69 10000 2.1 110 08:44 30.11.2019
3552 Clouds 26 1009 69 10000 3.6 110 08:22 30.11.2019
3553 Clouds 26 1009 69 10000 3.6 110 07:58 30.11.2019
3554 Clouds 26 1009 69 10000 3.6 110 07:39 30.11.2019
3555 Clouds 27 1009 61 10000 6.2 100 06:59 30.11.2019
3556 Clouds 27 1008 61 10000 4.1 110 06:29 30.11.2019
3557 Clouds 27 1008 61 10000 4.1 110 05:52 30.11.2019
3558 Clouds 28 1008 61 10000 4.6 120 03:53 30.11.2019
3559 Clouds 27 1009 61 10000 4.6 120 02:47 30.11.2019
3560 Clouds 28 1009 58 10000 4.1 130 02:22 30.11.2019
3561 Clouds 28 1009 58 10000 4.1 130 01:25 30.11.2019
3562 Clouds 27 1009 65 10000 4.1 140 00:51 30.11.2019
3563 Clouds 28 1010 65 10000 3.6 170 00:32 30.11.2019
3564 Clouds 28 1010 65 10000 3.6 170 00:00 30.11.2019
3565 Clouds 28 1010 65 10000 3.6 170 23:41 29.11.2019
3566 Clouds 27 1010 65 10000 4.1 130 23:23 29.11.2019
3567 Clouds 27 1010 65 10000 4.1 130 22:46 29.11.2019
3568 Clouds 27 1010 65 10000 4.1 130 22:46 29.11.2019
3569 Clouds 28 1010 58 10000 4.1 120 22:26 29.11.2019
3570 Clouds 28 1010 58 10000 4.1 120 21:45 29.11.2019
3571 Clouds 26 1010 65 10000 1.5 0 21:25 29.11.2019
3572 Clouds 26 1010 65 10000 1.5 0 20:59 29.11.2019
3573 Clouds 26 1010 65 10000 1.5 0 20:39 29.11.2019
3574 Clouds 26 1010 65 10000 1.5 0 20:20 29.11.2019
3575 Clouds 24 1010 73 10000 0.49 258 19:58 29.11.2019
3576 Clouds 24 1010 73 10000 0.49 258 19:39 29.11.2019
3577 Clouds 24 1010 73 10000 0.49 258 19:20 29.11.2019
3578 Clouds 24 1010 73 10000 0.49 258 19:20 29.11.2019
3579 Clouds 24 1009 69 10000 0.49 258 18:58 29.11.2019
3580 Clouds 24 1009 69 10000 0.49 258 18:39 29.11.2019
3581 Clouds 24 1009 69 10000 0.49 258 18:20 29.11.2019
3582 Clouds 22 1009 94 10000 0.49 258 17:44 29.11.2019
3583 Clouds 22 1009 94 10000 0.49 258 17:25 29.11.2019
3584 Rain 24 1009 64 10000 0.53 82 16:57 29.11.2019
3585 Rain 24 1009 64 10000 0.53 82 16:57 29.11.2019
3586 Rain 24 1009 64 10000 0.53 82 16:38 29.11.2019
3587 Rain 24 1009 64 10000 0.53 82 16:18 29.11.2019
3588 Clouds 24 1009 73 10000 0.53 82 15:41 29.11.2019
3589 Clouds 24 1009 73 10000 0.53 82 15:23 29.11.2019
3590 Clouds 23 1010 78 10000 0.53 82 14:56 29.11.2019
3591 Clouds 23 1010 78 10000 0.53 82 14:38 29.11.2019
3592 Clouds 23 1011 78 10000 1.32 102 14:19 29.11.2019
3593 Clouds 23 1011 78 10000 1.32 102 14:19 29.11.2019
3594 Clouds 23 1011 78 10000 1.32 102 13:41 29.11.2019
3595 Clouds 23 1011 78 10000 1.35 111 13:21 29.11.2019
3596 Clouds 24 1012 69 10000 1.5 120 12:57 29.11.2019
3597 Clouds 24 1012 69 10000 1.5 120 12:39 29.11.2019
3598 Clouds 24 1012 69 10000 1.5 120 12:39 29.11.2019
3599 Clouds 24 1012 69 10000 1.5 120 12:20 29.11.2019
3600 Clouds 25 1012 61 10000 2.1 120 11:54 29.11.2019
3601 Clouds 25 1012 61 10000 2.1 120 11:36 29.11.2019
3602 Clouds 25 1012 61 10000 2.1 120 11:18 29.11.2019
3603 Clouds 25 1012 61 10000 2.1 130 10:55 29.11.2019
3604 Clouds 25 1012 61 10000 2.1 130 10:37 29.11.2019
3605 Clouds 25 1011 65 10000 2.6 140 10:18 29.11.2019
3606 Clouds 25 1011 65 10000 2.6 140 10:18 29.11.2019
3607 Clouds 25 1011 65 10000 2.6 140 09:54 29.11.2019
3608 Clouds 25 1011 69 10000 2.6 130 09:36 29.11.2019
3609 Clouds 25 1011 69 10000 2.6 130 09:18 29.11.2019
3610 Clouds 25 1011 69 10000 2.6 130 08:38 29.11.2019
3611 Clouds 26 1010 61 10000 4.1 140 08:20 29.11.2019
3612 Clouds 26 1010 61 10000 4.1 140 07:55 29.11.2019
3613 Clouds 26 1010 61 10000 4.1 140 07:37 29.11.2019
3614 Clouds 27 1010 61 10000 3.6 130 07:18 29.11.2019
3615 Clouds 27 1010 61 10000 3.6 130 06:41 29.11.2019
3616 Clouds 27 1010 61 10000 5.1 130 05:47 29.11.2019
3617 Clouds 27 1010 57 10000 4.1 120 05:23 29.11.2019
3618 Clouds 27 1011 57 10000 6.2 110 04:20 29.11.2019
3619 Clouds 28 1011 54 10000 4.1 120 03:21 29.11.2019
3620 Clouds 28 1011 54 10000 4.1 120 02:28 29.11.2019
3621 Clouds 28 1011 54 10000 4.6 110 01:51 29.11.2019
3622 Clouds 28 1011 54 10000 4.6 110 01:25 29.11.2019
3623 Clouds 27 1012 57 10000 5.7 100 00:42 29.11.2019
3624 Clouds 27 1012 57 10000 5.7 100 00:20 29.11.2019
3625 Clouds 27 1012 61 10000 3.6 120 23:45 28.11.2019
3626 Clouds 27 1012 61 10000 3.6 120 23:22 28.11.2019
3627 Clouds 27 1012 61 10000 5.7 100 22:58 28.11.2019
3628 Clouds 27 1012 61 10000 5.7 100 22:38 28.11.2019
3629 Clouds 27 1012 61 10000 5.7 100 22:38 28.11.2019
3630 Clouds 27 1012 61 10000 5.7 100 22:20 28.11.2019
3631 Clouds 27 1012 61 10000 3.6 130 21:56 28.11.2019
3632 Clouds 27 1012 61 10000 3.6 130 21:38 28.11.2019
3633 Clouds 27 1012 61 10000 3.6 130 21:19 28.11.2019
3634 Clouds 25 1012 78 10000 3.15 111 20:54 28.11.2019
3635 Clouds 25 1012 78 10000 3.15 111 20:36 28.11.2019
3636 Clouds 21 1012 100 10000 1.66 106 20:18 28.11.2019
3637 Clouds 21 1012 100 10000 1.66 106 19:41 28.11.2019
3638 Clouds 21 1012 100 10000 1.66 106 19:22 28.11.2019
3639 Clouds 21 1012 100 10000 1.66 106 18:59 28.11.2019
3640 Clouds 21 1012 100 10000 1.66 106 18:39 28.11.2019
3641 Clouds 21 1011 94 10000 1.66 106 18:18 28.11.2019
3642 Clouds 21 1011 94 10000 1.66 106 17:59 28.11.2019
3643 Clouds 21 1011 94 10000 1.66 106 17:59 28.11.2019
3644 Clouds 21 1011 94 10000 1.66 106 17:41 28.11.2019
3645 Clouds 21 1011 94 10000 1.66 106 17:40 28.11.2019
3646 Clouds 22 1011 88 10000 0.88 110 17:20 28.11.2019
3647 Clouds 22 1011 88 10000 0.88 110 16:41 28.11.2019
3648 Clouds 24 1011 78 10000 1.5 140 16:20 28.11.2019
3649 Clouds 24 1011 78 10000 1.5 140 15:59 28.11.2019
3650 Clouds 24 1011 78 10000 1.5 140 15:40 28.11.2019
3651 Clouds 24 1012 78 10000 0.88 110 15:20 28.11.2019
3652 Clouds 24 1012 78 10000 0.88 110 14:58 28.11.2019
3653 Clouds 24 1012 78 10000 0.88 110 14:39 28.11.2019
3654 Clouds 25 1012 73 10000 2.6 120 14:20 28.11.2019
3655 Clouds 25 1012 73 10000 2.6 120 13:44 28.11.2019
3656 Clouds 25 1013 73 10000 3.1 120 13:24 28.11.2019
3657 Clouds 25 1013 73 10000 3.1 120 13:24 28.11.2019
3658 Clouds 25 1013 73 10000 3.1 120 12:59 28.11.2019
3659 Clouds 25 1013 73 10000 3.1 120 12:40 28.11.2019
3660 Clouds 25 1013 73 10000 2.6 120 12:22 28.11.2019
3661 Clouds 25 1013 73 10000 2.6 120 11:56 28.11.2019
3662 Clouds 21 1012 87 0 1.09 99 11:38 28.11.2019
3663 Rain 25 1012 78 10000 2.6 120 11:19 28.11.2019
3664 Rain 25 1012 78 10000 2.6 120 10:42 28.11.2019
3665 Rain 25 1012 78 10000 2.6 120 10:22 28.11.2019
3666 Clouds 26 1012 69 10000 1.5 100 09:58 28.11.2019
3667 Clouds 26 1012 69 10000 1.5 100 09:40 28.11.2019
3668 Clouds 26 1012 69 10000 1.5 100 09:20 28.11.2019
3669 Clouds 26 1012 69 10000 1.88 103 08:44 28.11.2019
3670 Clouds 26 1012 69 10000 2.18 110 08:22 28.11.2019
3671 Clouds 26 1011 69 10000 3.6 110 07:58 28.11.2019
3672 Clouds 26 1011 69 10000 3.6 110 07:39 28.11.2019
3673 Clouds 26 1011 69 10000 3.6 110 07:21 28.11.2019
3674 Clouds 27 1011 65 10000 2.1 120 06:41 28.11.2019
3675 Clouds 27 1011 65 10000 4.1 110 05:56 28.11.2019
3676 Clouds 27 1011 65 10000 4.1 110 05:56 28.11.2019
3677 Clouds 27 1011 65 10000 4.1 110 05:38 28.11.2019
3678 Clouds 27 1011 65 10000 4.6 120 04:51 28.11.2019
3679 Clouds 28 1012 65 10000 4.1 120 02:32 28.11.2019
3680 Clouds 28 1012 61 10000 4.1 120 01:25 28.11.2019
3681 Clouds 28 1012 61 10000 4.1 120 00:42 28.11.2019
3682 Clouds 28 1012 58 10000 3.6 120 00:19 28.11.2019
3683 Clouds 28 1012 58 10000 3.6 120 23:39 27.11.2019
3684 Clouds 27 1013 69 10000 2.6 90 23:21 27.11.2019
3685 Clouds 27 1013 69 10000 2.6 90 22:56 27.11.2019
3686 Clouds 27 1013 69 10000 2.6 90 22:38 27.11.2019
3687 Clouds 25 1013 83 10000 1.5 30 22:18 27.11.2019
3688 Clouds 25 1013 83 10000 1.5 30 21:55 27.11.2019
3689 Clouds 25 1013 83 10000 1.5 30 21:37 27.11.2019
3690 Clouds 23 1013 94 10000 2.69 102 21:18 27.11.2019
3691 Clouds 23 1013 94 10000 2.69 102 20:56 27.11.2019
3692 Clouds 23 1013 94 10000 2.69 102 20:37 27.11.2019
3693 Drizzle 22 1012 100 10000 0.17 60 20:19 27.11.2019
3694 Drizzle 22 1012 100 10000 0.17 60 19:55 27.11.2019
3695 Drizzle 22 1012 100 10000 0.17 60 19:37 27.11.2019
3696 Clouds 22 1012 100 10000 0.17 60 19:18 27.11.2019
3697 Clouds 22 1012 100 10000 0.17 60 18:54 27.11.2019
3698 Clouds 22 1012 100 10000 0.17 60 18:36 27.11.2019
3699 Clouds 23 1011 94 10000 0.17 60 18:18 27.11.2019
3700 Clouds 23 1011 94 10000 0.17 60 18:18 27.11.2019
3701 Clouds 23 1011 94 10000 0.17 60 17:41 27.11.2019
3702 Clouds 23 1011 94 10000 0.91 101 17:23 27.11.2019
3703 Clouds 23 1011 94 10000 0.91 101 17:23 27.11.2019
3704 Clouds 23 1011 94 10000 0.91 101 16:58 27.11.2019
3705 Clouds 23 1011 94 10000 0.91 101 16:58 27.11.2019
3706 Clouds 23 1011 94 10000 0.91 101 16:40 27.11.2019
3707 Clouds 23 1011 94 10000 0.91 101 16:40 27.11.2019
3708 Clouds 22 1011 94 10000 0.91 101 16:21 27.11.2019
3709 Clouds 22 1011 94 10000 0.91 101 16:21 27.11.2019
3710 Clouds 22 1011 94 10000 0.91 101 15:58 27.11.2019
3711 Clouds 22 1011 94 10000 0.91 101 15:58 27.11.2019
3712 Clouds 22 1011 94 10000 0.91 101 15:40 27.11.2019
3713 Clouds 22 1012 94 10000 0.91 101 15:21 27.11.2019
3714 Clouds 22 1012 94 10000 0.91 101 14:59 27.11.2019
3715 Clouds 22 1012 94 10000 0.91 101 14:41 27.11.2019
3716 Clouds 23 1012 88 10000 0.51 109 14:23 27.11.2019
3717 Clouds 23 1012 88 10000 0.51 109 13:58 27.11.2019
3718 Clouds 23 1012 88 10000 0.51 109 13:39 27.11.2019
3719 Clouds 24 1013 83 10000 0.65 93 13:19 27.11.2019
3720 Clouds 24 1013 83 10000 0.65 93 12:57 27.11.2019
3721 Clouds 24 1013 83 10000 0.65 93 12:39 27.11.2019
3722 Clouds 24 1013 83 10000 0.65 93 12:19 27.11.2019
3723 Clouds 24 1013 73 10000 0.65 93 11:38 27.11.2019
3724 Clouds 24 1013 73 10000 0.65 93 11:38 27.11.2019
3725 Clouds 24 1013 73 10000 0.73 87 11:19 27.11.2019
3726 Clouds 25 1013 73 10000 1.5 120 10:59 27.11.2019
3727 Clouds 25 1013 73 10000 1.5 120 10:41 27.11.2019
3728 Clouds 25 1012 73 10000 0.73 87 10:22 27.11.2019
3729 Clouds 25 1012 73 10000 0.73 87 09:45 27.11.2019
3730 Clouds 25 1012 69 10000 2.1 120 09:26 27.11.2019
3731 Clouds 25 1012 69 10000 2.1 120 08:57 27.11.2019
3732 Clouds 25 1012 69 10000 2.1 120 08:57 27.11.2019
3733 -273 0 0 0 0 0 08:38 27.11.2019
3734 Clouds 26 1011 69 10000 2.6 130 08:19 27.11.2019
3735 Clouds 26 1011 69 10000 2.6 130 07:45 27.11.2019
3736 Clouds 26 1011 69 10000 2.6 130 07:27 27.11.2019
3737 Clouds 26 1010 69 10000 3.1 120 06:47 27.11.2019
3738 Clouds 26 1010 69 10000 3.1 120 06:29 27.11.2019
3739 Clouds 27 1010 65 10000 2.6 120 05:27 27.11.2019
3740 Clouds 27 1011 61 10000 3.1 120 04:59 27.11.2019
3741 Clouds 27 1011 61 10000 3.1 120 04:40 27.11.2019
3742 Clouds 27 1011 61 10000 2.6 120 03:53 27.11.2019
3743 Clouds 27 1012 65 10000 3.6 120 03:22 27.11.2019
3744 Clouds 27 1012 65 10000 3.6 120 02:54 27.11.2019
3745 Clouds 26 1012 74 10000 3.6 100 01:35 27.11.2019
3746 Clouds 26 1012 74 10000 3.6 100 00:44 27.11.2019
3747 Clouds 26 1012 74 10000 3.6 100 00:25 27.11.2019
3748 Clouds 26 1013 69 10000 3.6 120 23:48 26.11.2019
3749 Clouds 26 1013 69 10000 3.6 120 23:26 26.11.2019
3750 Clouds 26 1013 69 10000 2.6 130 22:57 26.11.2019
3751 Clouds 26 1013 69 10000 2.6 130 22:38 26.11.2019
3752 Clouds 24 1012 78 10000 2.1 120 22:19 26.11.2019
3753 Clouds 24 1012 78 10000 2.1 120 21:57 26.11.2019
3754 Clouds 24 1012 78 10000 2.1 120 21:37 26.11.2019
3755 Clouds 24 1012 78 10000 2.1 110 21:19 26.11.2019
3756 Clouds 24 1012 78 10000 2.1 110 21:19 26.11.2019
3757 Clouds 24 1012 78 10000 2.1 110 20:54 26.11.2019
3758 Clouds 24 1012 78 10000 2.1 110 20:36 26.11.2019
3759 Clouds 24 1012 78 10000 0.86 99 20:18 26.11.2019
3760 Clouds 24 1012 78 10000 1 0 19:54 26.11.2019
3761 Clouds 24 1012 78 10000 1 0 19:54 26.11.2019
3762 Clouds 24 1012 78 10000 1 0 19:36 26.11.2019
3763 Clouds 24 1012 78 10000 1 0 19:18 26.11.2019
3764 Clouds 24 1011 78 10000 1.5 140 18:54 26.11.2019
3765 Clouds 24 1011 78 10000 1.5 140 18:36 26.11.2019
3766 Clouds 24 1011 78 10000 1 0 18:18 26.11.2019
3767 Clouds 24 1011 78 10000 1 0 17:41 26.11.2019
3768 Clouds 24 1011 78 10000 1 0 17:23 26.11.2019
3769 Clouds 24 1011 78 10000 1 0 17:23 26.11.2019
3770 Clouds 24 1010 78 10000 1.5 150 16:57 26.11.2019
3771 Clouds 24 1010 78 10000 1.5 150 16:38 26.11.2019
3772 Clouds 24 1010 78 10000 1.5 150 16:20 26.11.2019
3773 Clouds 24 1011 78 10000 1.5 140 16:00 26.11.2019
3774 Clouds 24 1011 78 10000 1.5 140 16:00 26.11.2019
3775 Clouds 24 1011 78 10000 1.5 140 15:59 26.11.2019
3776 Clouds 24 1011 78 10000 1.5 140 15:39 26.11.2019
3777 Clouds 24 1011 78 10000 1.5 140 15:20 26.11.2019
3778 Clouds 24 1011 78 10000 0.68 81 14:59 26.11.2019
3779 Clouds 24 1011 78 10000 0.68 81 14:41 26.11.2019
3780 Clouds 24 1011 78 10000 1.06 129 14:22 26.11.2019
3781 Clouds 25 1012 78 10000 1.06 129 13:43 26.11.2019
3782 Clouds 25 1012 78 10000 1 113 13:23 26.11.2019
3783 Clouds 25 1013 78 10000 1 0 12:54 26.11.2019
3784 Clouds 25 1013 78 10000 1 0 12:36 26.11.2019
3785 Clouds 25 1013 78 10000 1 0 12:18 26.11.2019
3786 Clouds 25 1013 73 10000 1.5 150 11:40 26.11.2019
3787 Clouds 25 1013 73 10000 1.5 150 11:20 26.11.2019
3788 Clouds 25 1013 73 10000 1.38 133 10:59 26.11.2019
3789 Clouds 25 1013 73 10000 1.38 133 10:41 26.11.2019
3790 Clouds 25 1012 73 10000 2.1 160 10:21 26.11.2019
3791 Clouds 25 1012 73 10000 2.1 160 09:58 26.11.2019
3792 Clouds 25 1012 73 10000 2.1 160 09:39 26.11.2019
3793 Clouds 25 1012 73 10000 2.1 160 09:21 26.11.2019
3794 Clouds 25 1012 73 10000 2.1 160 08:46 26.11.2019
3795 Clouds 26 1011 65 10000 3.1 140 08:26 26.11.2019
3796 Clouds 26 1011 65 10000 3.1 140 07:48 26.11.2019
3797 Clouds 26 1010 69 10000 2.6 150 07:29 26.11.2019
3798 Clouds 26 1010 69 10000 2.6 150 06:59 26.11.2019
3799 Clouds 26 1010 69 10000 2.6 150 06:40 26.11.2019
3800 Clouds 26 1010 65 10000 3.1 150 05:54 26.11.2019
3801 Clouds 28 1010 58 10000 3.1 150 04:47 26.11.2019
3802 Clouds 28 1011 61 10000 4.1 150 02:53 26.11.2019
3803 Clouds 28 1011 61 10000 3.6 140 01:34 26.11.2019
3804 Clouds 28 1011 61 10000 3.1 150 00:53 26.11.2019
3805 Clouds 28 1011 61 10000 3.1 150 00:31 26.11.2019
3806 Clouds 27 1012 65 10000 3.1 160 23:56 25.11.2019
3807 Clouds 27 1012 65 10000 3.1 160 23:37 25.11.2019
3808 Clouds 27 1012 65 10000 3.1 160 23:18 25.11.2019
3809 Clouds 27 1012 65 10000 2.6 160 22:39 25.11.2019
3810 Clouds 27 1012 65 10000 2.6 160 22:19 25.11.2019
3811 Clouds 27 1012 65 10000 1 0 21:59 25.11.2019
3812 Clouds 27 1012 65 10000 1 0 21:40 25.11.2019
3813 Clouds 27 1012 65 10000 1 0 21:21 25.11.2019
3814 Clouds 23 1011 88 10000 1.5 300 20:57 25.11.2019
3815 Clouds 23 1011 88 10000 1.5 300 20:57 25.11.2019
3816 Clouds 23 1011 88 10000 1.5 300 20:39 25.11.2019
3817 Clouds 21 1010 100 10000 1 320 20:20 25.11.2019
3818 Clouds 21 1010 100 10000 1 320 19:56 25.11.2019
3819 Clouds 21 1010 100 10000 1 320 19:38 25.11.2019
3820 Clouds 21 1010 94 10000 1.5 320 19:19 25.11.2019
3821 Clouds 21 1010 94 10000 1.5 320 18:57 25.11.2019
3822 Clouds 21 1010 94 10000 1.5 320 18:39 25.11.2019
3823 Clouds 21 1010 94 10000 1.5 320 18:21 25.11.2019
3824 Clouds 21 1009 94 10000 1.5 330 17:57 25.11.2019
3825 Clouds 21 1009 94 10000 1.5 330 17:38 25.11.2019
3826 Clouds 21 1009 94 10000 1.5 330 17:20 25.11.2019
3827 Clouds 21 1009 94 10000 1.04 191 16:57 25.11.2019
3828 Clouds 21 1009 94 10000 1.04 191 16:39 25.11.2019
3829 Clouds 22 1009 88 10000 1.04 191 16:20 25.11.2019
3830 Clouds 22 1009 88 10000 1.04 191 15:54 25.11.2019
3831 Clouds 23 1009 83 10000 1.04 191 15:36 25.11.2019
3832 Clouds 23 1009 83 10000 1.04 191 15:18 25.11.2019
3833 Clouds 23 1009 83 10000 1.04 191 14:41 25.11.2019
3834 Clouds 23 1010 83 10000 1.5 150 14:22 25.11.2019
3835 Clouds 23 1010 83 10000 1.5 150 13:55 25.11.2019
3836 Clouds 23 1010 83 10000 1.5 150 13:36 25.11.2019
3837 Clouds 23 1010 83 10000 0.8 189 13:18 25.11.2019
3838 Clouds 23 1010 83 10000 0.8 189 12:41 25.11.2019
3839 Clouds 23 1010 83 10000 0.8 189 12:22 25.11.2019
3840 Clouds 23 1011 88 10000 0.8 189 11:59 25.11.2019
3841 Clouds 23 1011 88 10000 0.8 189 11:39 25.11.2019
3842 Clouds 23 1011 88 10000 0.74 157 11:20 25.11.2019
3843 Clouds 24 1010 78 10000 1.5 170 10:46 25.11.2019
3844 Clouds 24 1010 78 10000 1.5 170 10:28 25.11.2019
3845 Clouds 25 1010 73 10000 2.1 180 09:59 25.11.2019
3846 Clouds 25 1010 73 10000 2.1 180 09:40 25.11.2019
3847 Clouds 25 1010 73 10000 2.1 180 09:22 25.11.2019
3848 Clouds 25 1010 73 10000 1.5 160 08:41 25.11.2019
3849 Clouds 25 1010 73 10000 1.5 160 08:22 25.11.2019
3850 Clouds 26 1009 69 10000 2.6 180 07:45 25.11.2019
3851 Clouds 26 1009 69 10000 2.6 180 07:25 25.11.2019
3852 Clouds 26 1008 65 10000 3.1 150 06:51 25.11.2019
3853 Clouds 26 1008 65 10000 3.1 150 06:22 25.11.2019
3854 Clouds 27 1008 65 10000 3.6 170 05:49 25.11.2019
3855 Clouds 27 1008 65 10000 3.6 170 05:28 25.11.2019
3856 Clouds 27 1008 65 10000 4.1 170 03:26 25.11.2019
3857 Clouds 28 1009 54 10000 4.1 180 02:31 25.11.2019
3858 Clouds 28 1009 54 10000 4.1 180 01:42 25.11.2019
3859 Clouds 28 1010 61 10000 3.1 200 01:23 25.11.2019
3860 Clouds 28 1010 61 10000 3.1 200 00:37 25.11.2019
3861 Clouds 28 1010 61 10000 3.1 200 00:18 25.11.2019
3862 Clouds 27 1010 57 10000 3.6 170 23:43 24.11.2019
3863 Clouds 27 1010 57 10000 3.6 170 23:20 24.11.2019
3864 Clouds 27 1010 61 10000 3.1 170 22:56 24.11.2019
3865 Clouds 27 1010 61 10000 3.1 170 22:56 24.11.2019
3866 Clouds 27 1010 61 10000 3.1 170 22:37 24.11.2019
3867 Clouds 25 1010 78 10000 1.5 330 22:18 24.11.2019
3868 Clouds 25 1010 78 10000 1.5 330 21:54 24.11.2019
3869 Clouds 25 1010 78 10000 1.5 330 21:36 24.11.2019
3870 Clouds 21 1009 88 10000 1 290 21:18 24.11.2019
3871 Clouds 21 1009 88 10000 1 290 20:54 24.11.2019
3872 Clouds 21 1009 88 10000 1 290 20:36 24.11.2019
3873 Clouds 21 1009 88 10000 1 290 20:18 24.11.2019
3874 Clouds 20 1008 94 10000 1.5 310 19:54 24.11.2019
3875 Clouds 20 1008 94 10000 1.5 310 19:36 24.11.2019
3876 Clouds 20 1008 94 10000 1.5 310 19:18 24.11.2019
3877 Clouds 20 1008 94 10000 2.1 310 18:54 24.11.2019
3878 Clouds 20 1008 94 10000 2.1 310 18:36 24.11.2019
3879 Clouds 20 1008 94 10000 2.1 310 18:18 24.11.2019
3880 Clouds 20 1007 94 10000 1.39 258 17:41 24.11.2019
3881 Clouds 20 1007 94 10000 1.54 251 17:23 24.11.2019
3882 Clouds 21 1007 94 10000 1.54 251 16:59 24.11.2019
3883 Clouds 21 1007 94 10000 1.54 251 16:41 24.11.2019
3884 Clouds 21 1007 94 10000 1.54 251 16:23 24.11.2019
3885 Clouds 21 1008 88 10000 1.54 251 15:56 24.11.2019
3886 Clouds 21 1008 88 10000 1.54 251 15:38 24.11.2019
3887 Clouds 21 1009 88 10000 1 320 15:20 24.11.2019
3888 Clouds 21 1009 88 10000 1 320 14:40 24.11.2019
3889 Clouds 21 1009 88 10000 1 320 14:20 24.11.2019
3890 Clouds 21 1009 88 10000 1.5 330 13:59 24.11.2019
3891 Clouds 21 1009 88 10000 1.5 330 13:38 24.11.2019
3892 Clouds 21 1009 88 10000 1.5 330 13:19 24.11.2019
3893 Clouds 22 1010 83 10000 1.61 232 12:56 24.11.2019
3894 Clouds 22 1010 83 10000 1.61 232 12:37 24.11.2019
3895 Clouds 22 1010 83 10000 1.61 232 12:18 24.11.2019
3896 Clouds 22 1010 88 10000 1.61 232 11:38 24.11.2019
3897 Clouds 22 1010 88 10000 1.24 211 11:19 24.11.2019
3898 Clouds 23 1009 78 10000 1.24 211 10:55 24.11.2019
3899 Clouds 23 1009 78 10000 1.24 211 10:37 24.11.2019
3900 Clouds 23 1009 78 10000 1.24 211 10:19 24.11.2019
3901 Clouds 24 1009 69 10000 1.24 211 09:38 24.11.2019
3902 Clouds 24 1009 69 10000 1.24 211 09:20 24.11.2019
3903 Clouds 24 1008 69 10000 1.24 211 08:57 24.11.2019
3904 Clouds 24 1008 69 10000 1.24 211 08:38 24.11.2019
3905 Clouds 24 1008 69 10000 2.18 185 08:19 24.11.2019
3906 Clouds 25 1007 61 10000 2.1 170 07:47 24.11.2019
3907 Clouds 25 1007 61 10000 2.1 170 07:21 24.11.2019
3908 Clouds 25 1007 61 10000 4.6 140 06:40 24.11.2019
3909 Clouds 25 1006 61 10000 3.1 170 05:24 24.11.2019
3910 Clouds 26 1006 57 10000 3.6 150 04:40 24.11.2019
3911 Clouds 27 1007 57 10000 3.6 180 02:36 24.11.2019
3912 Clouds 28 1008 51 10000 2.6 210 01:55 24.11.2019
3913 Clouds 28 1008 51 10000 2.6 210 01:32 24.11.2019
3914 Clouds 27 1008 47 10000 3.1 180 00:50 24.11.2019
3915 Clouds 27 1008 47 10000 3.1 180 00:24 24.11.2019
3916 Clouds 26 1009 57 10000 3.1 170 23:56 23.11.2019
3917 Clouds 26 1009 57 10000 3.1 170 23:56 23.11.2019
3918 Clouds 26 1009 57 10000 3.1 170 23:38 23.11.2019
3919 Clouds 26 1009 57 10000 3.1 170 23:19 23.11.2019
3920 Clouds 26 1009 57 10000 3.1 170 22:55 23.11.2019
3921 Clouds 26 1009 57 10000 3.1 170 22:37 23.11.2019
3922 Clouds 26 1009 57 10000 3.1 170 22:18 23.11.2019
3923 Clouds 24 1009 73 10000 1.76 181 21:43 23.11.2019
3924 Clouds 24 1009 73 10000 1.76 181 21:23 23.11.2019
3925 Clouds 21 1008 94 10000 1.5 330 20:59 23.11.2019
3926 Clouds 21 1008 94 10000 1.5 330 20:38 23.11.2019
3927 Clouds 20 1008 94 10000 1.5 360 20:19 23.11.2019
3928 Clouds 20 1008 94 10000 1.5 360 19:56 23.11.2019
3929 Clouds 20 1008 94 10000 1.5 360 19:38 23.11.2019
3930 Clouds 20 1008 94 10000 1.5 360 19:18 23.11.2019
3931 Clouds 19 1008 93 10000 1.5 330 18:41 23.11.2019
3932 Clouds 19 1008 93 10000 1.5 330 18:21 23.11.2019
3933 Clouds 19 1008 93 10000 1.02 253 17:59 23.11.2019
3934 Clouds 19 1008 93 10000 1.02 253 17:40 23.11.2019
3935 Clouds 19 1008 93 10000 1.24 236 17:21 23.11.2019
3936 Clouds 20 1008 88 10000 1.24 236 16:56 23.11.2019
3937 Clouds 20 1008 88 10000 1.24 236 16:38 23.11.2019
3938 Clouds 20 1008 88 10000 1.24 236 16:20 23.11.2019
3939 Clouds 20 1008 88 10000 1.24 236 15:57 23.11.2019
3940 Clouds 20 1008 88 10000 1.24 236 15:38 23.11.2019
3941 Clouds 19 1009 88 10000 1.24 236 15:18 23.11.2019
3942 Clouds 19 1009 88 10000 1.24 236 15:18 23.11.2019
3943 Clouds 19 1009 88 10000 1.24 236 14:46 23.11.2019
3944 Clouds 20 1010 82 10000 0.97 220 14:23 23.11.2019
3945 Clouds 20 1010 82 10000 0.97 220 14:23 23.11.2019
3946 Clouds 20 1010 82 10000 0.97 220 13:59 23.11.2019
3947 Clouds 20 1010 82 10000 0.97 220 13:41 23.11.2019
3948 Clouds 22 1011 68 10000 1.5 150 13:19 23.11.2019
3949 Clouds 22 1011 68 10000 1.5 150 12:55 23.11.2019
3950 Clouds 22 1011 68 10000 1.5 150 12:37 23.11.2019
3951 Clouds 22 1011 68 10000 1.5 150 12:18 23.11.2019
3952 Clouds 23 1011 64 10000 2.1 190 11:41 23.11.2019
3953 Clouds 23 1011 64 10000 2.1 190 11:19 23.11.2019
3954 Clouds 23 1010 69 10000 1.36 186 10:43 23.11.2019
3955 Clouds 23 1010 69 10000 1.36 186 10:21 23.11.2019
3956 Clouds 24 1010 60 10000 1.36 186 09:41 23.11.2019
3957 Clouds 24 1010 60 10000 1.36 186 09:20 23.11.2019
3958 Clouds 24 1010 60 10000 1.36 186 09:20 23.11.2019
3959 Clouds 24 1009 64 10000 1.36 186 08:42 23.11.2019
3960 Clouds 24 1009 64 10000 1.99 176 08:19 23.11.2019
3961 Clouds 24 1009 64 10000 2.6 150 07:52 23.11.2019
3962 Clouds 24 1009 64 10000 2.6 150 07:34 23.11.2019
3963 Clouds 25 1008 57 10000 3.1 160 06:45 23.11.2019
3964 Clouds 25 1008 57 10000 3.1 160 06:19 23.11.2019
3965 Clouds 26 1008 54 10000 3.1 160 05:48 23.11.2019
3966 Clouds 26 1008 54 10000 3.1 160 05:28 23.11.2019
3967 Clouds 27 1007 57 10000 3.6 170 04:47 23.11.2019
3968 Clouds 27 1007 57 10000 3.6 170 04:26 23.11.2019
3969 Clouds 27 1008 51 10000 3.6 170 02:40 23.11.2019
3970 Clouds 27 1009 54 10000 3.6 180 01:42 23.11.2019
3971 Clouds 27 1009 54 10000 3.6 170 01:21 23.11.2019
3972 Clouds 27 1009 54 10000 3.6 170 00:39 23.11.2019
3973 Clouds 27 1009 54 10000 3.6 170 00:18 23.11.2019
3974 Clouds 27 1009 54 10000 3.6 170 00:18 23.11.2019
3975 Clouds 26 1010 54 10000 4.1 180 23:39 22.11.2019
3976 Clouds 26 1010 54 10000 4.1 180 23:20 22.11.2019
3977 Clouds 26 1010 57 10000 3.6 180 22:57 22.11.2019
3978 Clouds 26 1010 57 10000 3.6 180 22:38 22.11.2019
3979 Clouds 26 1010 57 10000 3.6 180 22:20 22.11.2019
3980 Clouds 25 1010 65 10000 4.1 170 21:58 22.11.2019
3981 Clouds 25 1010 65 10000 4.1 170 21:39 22.11.2019
3982 Clouds 25 1010 65 10000 4.1 170 21:19 22.11.2019
3983 Clouds 23 1009 73 10000 2.96 153 20:43 22.11.2019
3984 Clouds 23 1009 73 10000 2.94 159 20:22 22.11.2019
3985 Clouds 23 1009 73 10000 2.94 159 19:55 22.11.2019
3986 Clouds 23 1009 73 10000 2.94 159 19:37 22.11.2019
3987 Clouds 23 1009 73 10000 2.94 159 19:18 22.11.2019
3988 Clouds 23 1009 73 10000 2.1 170 18:39 22.11.2019
3989 Clouds 23 1009 73 10000 2.1 170 18:21 22.11.2019
3990 Clouds 24 1009 73 10000 2.1 170 17:56 22.11.2019
3991 Clouds 24 1009 73 10000 2.1 170 17:56 22.11.2019
3992 -273 0 0 0 0 0 17:38 22.11.2019
3993 Clouds 24 1009 73 10000 2.1 170 17:20 22.11.2019
3994 Clouds 24 1009 78 10000 2.1 160 16:41 22.11.2019
3995 Clouds 24 1009 78 10000 2.1 160 16:23 22.11.2019
3996 Clouds 24 1009 78 10000 2.6 140 15:44 22.11.2019
3997 Clouds 24 1009 78 10000 2.6 140 15:24 22.11.2019
3998 Clouds 23 1010 88 10000 2.57 168 14:56 22.11.2019
3999 Clouds 23 1010 88 10000 2.57 168 14:37 22.11.2019
4000 Clouds 23 1010 88 10000 2.87 156 14:19 22.11.2019
4001 Clouds 24 1010 78 10000 2.87 156 13:56 22.11.2019
4002 Clouds 24 1010 78 10000 2.87 156 13:36 22.11.2019
4003 Clouds 24 1010 78 10000 2.77 157 13:18 22.11.2019
4004 Clouds 24 1011 73 10000 2.1 150 12:40 22.11.2019
4005 Clouds 24 1011 73 10000 2.1 150 12:20 22.11.2019
4006 Clouds 25 1011 69 10000 3.6 170 11:59 22.11.2019
4007 Clouds 25 1011 69 10000 3.6 170 11:39 22.11.2019
4008 Clouds 25 1011 69 10000 3.6 170 11:20 22.11.2019
4009 Clouds 25 1010 69 10000 2.6 150 10:58 22.11.2019
4010 Clouds 25 1010 69 10000 2.6 150 10:39 22.11.2019
4011 Clouds 25 1010 69 10000 2.6 150 10:21 22.11.2019
4012 Clouds 25 1010 73 10000 2.6 170 09:55 22.11.2019
4013 Clouds 25 1010 73 10000 2.6 170 09:37 22.11.2019
4014 Clouds 25 1010 73 10000 2.6 170 09:18 22.11.2019
4015 Clouds 25 1009 78 10000 3.1 170 08:44 22.11.2019
4016 Clouds 25 1009 78 10000 3.1 170 08:25 22.11.2019
4017 Clouds 25 1009 69 10000 3.6 170 07:45 22.11.2019
4018 Clouds 25 1009 69 10000 3.6 170 07:45 22.11.2019
4019 Clouds 25 1009 69 10000 3.6 170 07:23 22.11.2019
4020 Clouds 26 1008 74 10000 3.6 170 06:49 22.11.2019
4021 Clouds 26 1008 74 10000 3.6 170 06:30 22.11.2019
4022 Clouds 26 1008 74 10000 4.6 170 05:45 22.11.2019
4023 Clouds 28 1008 69 10000 5.1 180 04:22 22.11.2019
4024 Clouds 27 1009 69 10000 4.6 180 02:53 22.11.2019
4025 Clouds 27 1009 69 10000 4.6 180 02:30 22.11.2019
4026 Clouds 27 1010 74 10000 5.7 190 01:45 22.11.2019
4027 Clouds 27 1010 74 10000 5.7 190 01:19 22.11.2019
4028 Clouds 26 1010 78 10000 4.6 190 00:50 22.11.2019
4029 Clouds 26 1010 78 10000 4.6 190 00:23 22.11.2019
4030 Clouds 27 1010 69 10000 2.6 220 23:46 21.11.2019
4031 Clouds 27 1010 69 10000 2.6 220 23:28 21.11.2019
4032 Clouds 25 1010 88 10000 2.6 230 22:58 21.11.2019
4033 Clouds 25 1010 88 10000 2.6 230 22:39 21.11.2019
4034 Clouds 25 1010 88 10000 2.6 230 22:39 21.11.2019
4035 Clouds 25 1010 88 10000 2.6 230 22:21 21.11.2019
4036 Rain 24 1010 88 10000 3.6 250 21:56 21.11.2019
4037 Rain 24 1010 88 10000 3.6 250 21:37 21.11.2019
4038 Rain 24 1010 88 10000 3.6 250 21:19 21.11.2019
4039 Clouds 24 1010 88 10000 1.5 270 20:58 21.11.2019
4040 Clouds 24 1010 88 10000 1.5 270 20:38 21.11.2019
4041 Clouds 24 1010 88 10000 1.5 270 20:19 21.11.2019
4042 Clouds 23 1009 94 10000 1 260 19:59 21.11.2019
4043 Clouds 23 1009 94 10000 1 260 19:39 21.11.2019
4044 Clouds 23 1009 94 10000 1 260 19:21 21.11.2019
4045 Clouds 23 1008 94 10000 1.5 240 18:56 21.11.2019
4046 Clouds 23 1008 94 10000 1.5 240 18:37 21.11.2019
4047 Clouds 23 1008 94 10000 1.5 240 18:18 21.11.2019
4048 Clouds 23 1008 94 10000 1.5 230 17:41 21.11.2019
4049 Clouds 23 1008 94 10000 1.5 230 17:22 21.11.2019
4050 Rain 23 1008 94 10000 1.5 250 16:59 21.11.2019
4051 Rain 23 1008 94 10000 1.5 250 16:59 21.11.2019
4052 Rain 23 1008 94 10000 1.5 250 16:41 21.11.2019
4053 Rain 23 1008 94 10000 1.5 250 16:21 21.11.2019
4054 Rain 22 1007 94 0 1.22 199 15:56 21.11.2019
4055 Clouds 24 1010 88 10000 1.22 199 15:37 21.11.2019
4056 Clouds 24 1010 88 10000 1.22 199 15:19 21.11.2019
4057 Clouds 24 1010 88 10000 1.22 199 14:39 21.11.2019
4058 Clouds 24 1010 88 10000 1.11 190 14:21 21.11.2019
4059 Clouds 24 1010 88 10000 1 0 13:59 21.11.2019
4060 Clouds 24 1010 88 10000 1 0 13:38 21.11.2019
4061 Clouds 24 1010 88 10000 1 0 13:19 21.11.2019
4062 Clouds 24 1010 94 10000 1.5 210 12:54 21.11.2019
4063 Clouds 24 1010 94 10000 1.5 210 12:36 21.11.2019
4064 Clouds 24 1010 94 10000 1.5 210 12:18 21.11.2019
4065 Clouds 25 1010 83 10000 0.93 193 11:40 21.11.2019
4066 Clouds 25 1010 83 10000 1.17 183 11:21 21.11.2019
4067 Clouds 25 1010 83 10000 1.17 183 10:57 21.11.2019
4068 Clouds 25 1010 83 10000 1.17 183 10:57 21.11.2019
4069 Clouds 25 1010 83 10000 1.17 183 10:39 21.11.2019
4070 Clouds 25 1010 83 10000 1.17 183 10:20 21.11.2019
4071 Clouds 25 1010 88 10000 1.17 183 09:43 21.11.2019
4072 Clouds 25 1010 88 10000 1.17 183 09:23 21.11.2019
4073 Clouds 25 1009 83 10000 2.1 200 08:58 21.11.2019
4074 Clouds 25 1009 83 10000 2.1 200 08:39 21.11.2019
4075 Clouds 25 1009 83 10000 2.1 200 08:18 21.11.2019
4076 Clouds 25 1009 88 10000 1.5 180 07:40 21.11.2019
4077 Clouds 25 1009 88 10000 1.5 180 07:18 21.11.2019
4078 Clouds 26 1009 78 10000 2.6 160 06:47 21.11.2019
4079 Clouds 26 1009 78 10000 2.6 160 06:28 21.11.2019
4080 Clouds 26 1008 78 10000 3.1 170 05:31 21.11.2019
4081 Clouds 26 1008 74 10000 3.6 170 03:32 21.11.2019
4082 Clouds 26 1009 83 10000 3.6 170 02:40 21.11.2019
4083 Clouds 27 1009 88 10000 4.1 170 01:53 21.11.2019
4084 Clouds 27 1009 88 10000 4.1 170 01:53 21.11.2019
4085 Clouds 27 1009 88 10000 4.1 170 01:23 21.11.2019
4086 Clouds 27 1009 74 10000 2.6 190 00:52 21.11.2019
4087 Clouds 27 1009 74 10000 2.6 190 00:20 21.11.2019
4088 Clouds 29 1010 66 10000 3.6 100 23:52 20.11.2019
4089 Clouds 29 1010 66 10000 3.6 100 23:24 20.11.2019
4090 Clouds 28 1010 74 10000 1.5 110 22:59 20.11.2019
4091 Clouds 28 1010 74 10000 1.5 110 22:41 20.11.2019
4092 Clouds 28 1010 74 10000 1.5 110 22:21 20.11.2019
4093 Clouds 26 1010 83 10000 1.5 300 21:59 20.11.2019
4094 Clouds 26 1010 83 10000 1.5 300 21:41 20.11.2019
4095 Clouds 26 1010 83 10000 1.5 300 21:22 20.11.2019
4096 Clouds 24 1009 94 10000 2.1 320 20:59 20.11.2019
4097 Clouds 24 1009 94 10000 2.1 320 20:41 20.11.2019
4098 Clouds 24 1009 94 10000 2.1 320 20:23 20.11.2019
4099 Clouds 22 1009 94 10000 1.5 320 19:59 20.11.2019
4100 Clouds 22 1009 94 10000 1.5 320 19:37 20.11.2019
4101 Clouds 22 1009 94 10000 1.5 320 19:37 20.11.2019
4102 Clouds 22 1009 94 10000 1.5 320 19:19 20.11.2019
4103 Clouds 22 1009 94 10000 1.5 320 19:19 20.11.2019
4104 Clouds 22 1008 100 10000 1.5 310 18:59 20.11.2019
4105 Clouds 22 1008 100 10000 1.5 310 18:40 20.11.2019
4106 Clouds 22 1008 100 10000 1.5 310 18:22 20.11.2019
4107 Clouds 22 1008 100 10000 1.5 330 17:59 20.11.2019
4108 Clouds 22 1008 100 10000 1.5 330 17:39 20.11.2019
4109 Clouds 22 1008 100 10000 1.5 330 17:21 20.11.2019
4110 Clouds 22 1008 94 10000 1.5 330 16:57 20.11.2019
4111 Clouds 22 1008 94 10000 1.5 330 16:57 20.11.2019
4112 Clouds 22 1008 94 10000 1.5 330 16:39 20.11.2019
4113 Clouds 22 1008 94 10000 1.5 330 16:19 20.11.2019
4114 Clouds 22 1008 94 10000 1.5 330 16:19 20.11.2019
4115 Clouds 22 1008 94 10000 1.5 310 15:57 20.11.2019
4116 Clouds 22 1008 94 10000 1.5 310 15:38 20.11.2019
4117 Clouds 22 1008 94 10000 1.5 310 15:38 20.11.2019
4118 Clouds 22 1008 94 10000 1.5 310 15:19 20.11.2019
4119 Clouds 22 1008 100 10000 1.5 320 14:41 20.11.2019
4120 Clouds 22 1008 100 10000 1.5 320 14:22 20.11.2019
4121 Clouds 22 1008 100 10000 1.5 320 14:22 20.11.2019
4122 Clouds 22 1008 100 10000 1.5 320 14:22 20.11.2019
4123 Clouds 23 1009 94 10000 1.5 330 13:59 20.11.2019
4124 Clouds 23 1009 94 10000 1.5 330 13:39 20.11.2019
4125 Clouds 23 1009 94 10000 1.5 330 13:20 20.11.2019
4126 Clouds 23 1010 94 10000 0.61 356 12:58 20.11.2019
4127 Clouds 23 1010 94 10000 0.61 356 12:37 20.11.2019
4128 Clouds 23 1010 94 10000 0.61 356 12:19 20.11.2019
4129 Clouds 24 1010 88 10000 1.5 320 11:45 20.11.2019
4130 Clouds 24 1010 88 10000 1.5 320 11:22 20.11.2019
4131 Clouds 24 1010 88 10000 1.5 260 10:57 20.11.2019
4132 Clouds 24 1010 88 10000 1.5 260 10:39 20.11.2019
4133 Clouds 24 1010 88 10000 1.5 260 10:20 20.11.2019
4134 Clouds 25 1010 83 10000 1 0 09:56 20.11.2019
4135 Clouds 25 1010 83 10000 1 0 09:37 20.11.2019
4136 Clouds 25 1010 83 10000 1 0 09:19 20.11.2019
4137 Clouds 26 1009 83 10000 1 0 08:41 20.11.2019
4138 Clouds 26 1009 83 10000 1 0 08:23 20.11.2019
4139 Clouds 26 1008 78 10000 1 0 07:48 20.11.2019
4140 Clouds 26 1008 78 10000 1 0 07:30 20.11.2019
4141 Clouds 26 1008 78 10000 1.5 140 06:51 20.11.2019
4142 Clouds 26 1008 78 10000 1.5 140 06:22 20.11.2019
4143 Clouds 27 1007 74 10000 2.1 150 05:52 20.11.2019
4144 Clouds 27 1007 69 10000 2.6 170 03:55 20.11.2019
4145 Rain 26 1009 83 10000 3.6 70 02:22 20.11.2019
4146 Rain 26 1009 83 10000 3.6 70 01:34 20.11.2019
4147 Clouds 28 1009 69 10000 3.1 160 00:43 20.11.2019
4148 Clouds 28 1009 69 10000 2.6 150 23:59 19.11.2019
4149 Clouds 28 1009 69 10000 2.6 150 23:39 19.11.2019
4150 Clouds 28 1009 69 10000 2.1 160 23:20 19.11.2019
4151 Clouds 28 1009 69 10000 2.1 160 22:42 19.11.2019
4152 Clouds 26 1009 83 10000 1.29 105 22:19 19.11.2019
4153 Clouds 26 1009 83 10000 1.29 105 21:58 19.11.2019
4154 Clouds 26 1009 83 10000 1.29 105 21:38 19.11.2019
4155 Clouds 22 1009 100 10000 2.1 320 21:20 19.11.2019
4156 Clouds 22 1009 100 10000 2.1 320 20:57 19.11.2019
4157 Clouds 22 1009 100 10000 2.1 320 20:39 19.11.2019
4158 Clouds 21 1008 100 10000 0.98 283 20:21 19.11.2019
4159 Clouds 21 1008 100 10000 0.98 283 19:59 19.11.2019
4160 Clouds 21 1008 100 10000 0.98 283 19:41 19.11.2019
4161 Clouds 22 1008 94 10000 0.98 283 19:19 19.11.2019
4162 Clouds 22 1008 94 10000 0.98 283 19:19 19.11.2019
4163 Clouds 22 1008 94 10000 0.98 283 18:56 19.11.2019
4164 -273 0 0 0 0 0 18:38 19.11.2019
4165 Clouds 22 1008 94 10000 0.98 283 18:18 19.11.2019
4166 Clouds 22 1008 94 10000 0.98 283 17:56 19.11.2019
4167 Clouds 22 1008 94 10000 0.98 283 17:37 19.11.2019
4168 Clouds 22 1008 94 10000 1.2 301 17:18 19.11.2019
4169 Clouds 22 1008 94 10000 1.2 301 16:45 19.11.2019
4170 Clouds 23 1008 94 10000 1.2 301 16:24 19.11.2019
4171 Clouds 23 1008 94 10000 1.2 301 15:59 19.11.2019
4172 Clouds 23 1008 94 10000 1.2 301 15:39 19.11.2019
4173 Clouds 23 1008 94 10000 1.2 301 15:39 19.11.2019
4174 Clouds 23 1008 94 10000 1.5 300 15:21 19.11.2019
4175 Clouds 23 1008 94 10000 1.5 300 14:56 19.11.2019
4176 Clouds 23 1008 94 10000 1.5 300 14:56 19.11.2019
4177 Clouds 23 1008 94 10000 1.5 300 14:37 19.11.2019
4178 Clouds 23 1009 94 10000 1.5 320 14:19 19.11.2019
4179 Clouds 23 1009 94 10000 1.5 320 13:41 19.11.2019
4180 Clouds 23 1010 100 10000 0.89 299 13:19 19.11.2019
4181 Clouds 23 1010 100 10000 0.89 299 12:41 19.11.2019
4182 Clouds 24 1010 94 10000 0.89 299 12:23 19.11.2019
4183 Clouds 24 1010 94 10000 0.89 299 12:23 19.11.2019
4184 Clouds 24 1010 94 10000 0.89 299 11:58 19.11.2019
4185 Clouds 24 1010 94 10000 0.89 299 11:38 19.11.2019
4186 Clouds 25 1010 88 10000 1.08 296 11:20 19.11.2019
4187 Clouds 25 1010 88 10000 1.08 296 10:48 19.11.2019
4188 Clouds 25 1009 83 10000 1.08 296 10:23 19.11.2019
4189 Clouds 25 1009 83 10000 1.08 296 09:58 19.11.2019
4190 Clouds 25 1009 83 10000 1.08 296 09:58 19.11.2019
4191 Clouds 25 1009 83 10000 1.08 296 09:40 19.11.2019
4192 Clouds 26 1009 83 10000 1.08 296 09:19 19.11.2019
4193 Clouds 26 1009 83 10000 1.08 296 09:19 19.11.2019
4194 Clouds 26 1009 83 10000 1.08 296 08:41 19.11.2019
4195 Clouds 26 1009 83 10000 1.08 296 08:41 19.11.2019
4196 Clouds 26 1008 78 10000 1.5 110 08:23 19.11.2019
4197 Clouds 26 1008 78 10000 1.5 110 07:58 19.11.2019
4198 Clouds 26 1008 78 10000 1.5 110 07:39 19.11.2019
4199 Clouds 26 1007 74 10000 2.1 160 07:20 19.11.2019
4200 Clouds 26 1007 74 10000 2.1 160 06:50 19.11.2019
4201 Clouds 26 1007 74 10000 2.1 160 06:50 19.11.2019
4202 Clouds 27 1007 74 10000 2.1 160 06:30 19.11.2019
4203 Clouds 27 1007 74 10000 2.1 160 05:39 19.11.2019
4204 Clouds 28 1008 69 10000 0.73 343 04:22 19.11.2019
4205 Clouds 27 1009 69 10000 1 0 03:32 19.11.2019
4206 Clouds 27 1009 69 10000 1 0 02:56 19.11.2019
4207 Clouds 27 1009 69 10000 1 0 02:22 19.11.2019
4208 Clouds 27 1009 65 10000 1 0 01:27 19.11.2019
4209 Clouds 27 1010 74 10000 1 0 00:21 19.11.2019
4210 Rain 25 1010 88 10000 2.1 300 23:57 18.11.2019
4211 Rain 25 1010 88 10000 2.1 300 23:37 18.11.2019
4212 Rain 25 1010 88 10000 2.1 300 23:18 18.11.2019
4213 Clouds 25 1010 83 10000 1.5 320 22:42 18.11.2019
4214 Clouds 25 1010 83 10000 1.5 320 22:23 18.11.2019
4215 Clouds 24 1010 83 10000 1.5 330 21:55 18.11.2019
4216 Clouds 24 1010 83 10000 1.5 330 21:37 18.11.2019
4217 Clouds 24 1010 83 10000 1.5 330 21:19 18.11.2019
4218 Clouds 23 1010 94 10000 2.1 300 20:42 18.11.2019
4219 Clouds 23 1010 94 10000 2.1 300 20:20 18.11.2019
4220 Clouds 22 1009 100 10000 1.5 330 19:58 18.11.2019
4221 Clouds 22 1009 100 10000 1.5 330 19:39 18.11.2019
4222 Clouds 22 1009 100 10000 1.5 330 19:21 18.11.2019
4223 Clouds 22 1009 100 10000 1.12 303 18:57 18.11.2019
4224 Clouds 22 1009 100 10000 1.12 303 18:38 18.11.2019
4225 Clouds 22 1009 100 10000 1.12 303 18:20 18.11.2019
4226 Clouds 22 1009 100 10000 1.12 303 18:20 18.11.2019
4227 Clouds 22 1008 100 10000 1.5 330 17:59 18.11.2019
4228 Clouds 22 1008 100 10000 1.5 330 17:38 18.11.2019
4229 Clouds 22 1008 100 10000 1.5 330 17:19 18.11.2019
4230 Clouds 22 1008 100 10000 1.5 330 17:19 18.11.2019
4231 Clouds 23 1008 94 10000 0.79 304 16:43 18.11.2019
4232 Clouds 23 1008 94 10000 0.79 304 16:25 18.11.2019
4233 Clouds 23 1008 94 10000 0.79 304 16:25 18.11.2019
4234 Clouds 23 1010 94 10000 0.79 304 15:59 18.11.2019
4235 Clouds 23 1010 94 10000 0.79 304 15:59 18.11.2019
4236 -273 0 0 0 0 0 15:41 18.11.2019
4237 Clouds 23 1010 94 10000 0.79 304 15:22 18.11.2019
4238 Clouds 23 1010 94 10000 1.5 60 14:58 18.11.2019
4239 Clouds 23 1010 94 10000 1.5 60 14:58 18.11.2019
4240 Clouds 23 1010 94 10000 1.5 60 14:40 18.11.2019
4241 Clouds 23 1010 94 10000 1.5 60 14:22 18.11.2019
4242 Clouds 23 1011 94 10000 1.5 330 13:44 18.11.2019
4243 Clouds 23 1011 94 10000 1.5 330 13:26 18.11.2019
4244 Clouds 23 1012 94 10000 0.58 349 12:57 18.11.2019
4245 Clouds 23 1012 94 10000 0.58 349 12:37 18.11.2019
4246 Clouds 23 1012 94 10000 0.58 349 12:18 18.11.2019
4247 Clouds 24 1012 88 10000 0.58 349 11:42 18.11.2019
4248 Clouds 24 1012 88 10000 0.23 115 11:24 18.11.2019
4249 Clouds 23 1012 94 10000 0.23 115 10:44 18.11.2019
4250 Clouds 23 1012 94 10000 0.23 115 10:26 18.11.2019
4251 Clouds 24 1012 83 10000 0.23 115 09:59 18.11.2019
4252 Clouds 24 1012 83 10000 0.23 115 09:38 18.11.2019
4253 Clouds 24 1012 83 10000 0.23 115 09:20 18.11.2019
4254 Clouds 25 1012 73 10000 1.5 130 08:57 18.11.2019
4255 Clouds 25 1012 73 10000 1.5 130 08:39 18.11.2019
4256 Clouds 25 1012 73 10000 1.5 130 08:19 18.11.2019
4257 Clouds 25 1012 73 10000 1.5 130 08:19 18.11.2019
4258 Clouds 26 1011 65 10000 2.6 110 07:45 18.11.2019
4259 Clouds 26 1011 65 10000 2.6 110 07:25 18.11.2019
4260 Clouds 27 1010 61 10000 3.1 100 06:49 18.11.2019
4261 Clouds 27 1010 61 10000 3.1 100 06:28 18.11.2019
4262 Clouds 28 1010 61 10000 3.1 120 05:44 18.11.2019
4263 Clouds 29 1011 54 10000 3.6 120 03:59 18.11.2019
4264 Clouds 28 1013 58 10000 3.6 120 01:40 18.11.2019
4265 Clouds 27 1013 61 10000 4.1 120 00:54 18.11.2019
4266 Clouds 27 1014 61 10000 3.1 100 00:20 18.11.2019
4267 Clouds 27 1014 61 10000 3.1 100 23:41 17.11.2019
4268 Clouds 26 1015 69 10000 2.1 60 23:22 17.11.2019
4269 Clouds 26 1015 69 10000 2.1 60 22:57 17.11.2019
4270 Clouds 26 1015 69 10000 2.1 60 22:57 17.11.2019
4271 Clouds 26 1015 69 10000 2.1 60 22:39 17.11.2019
4272 Clouds 24 1014 88 10000 2.1 60 22:21 17.11.2019
4273 Clouds 24 1014 88 10000 2.1 60 21:57 17.11.2019
4274 Clouds 24 1014 88 10000 2.1 60 21:38 17.11.2019
4275 Clouds 22 1015 94 10000 2.44 106 21:18 17.11.2019
4276 Clouds 22 1015 94 10000 2.44 106 20:55 17.11.2019
4277 Clouds 22 1015 94 10000 2.44 106 20:36 17.11.2019
4278 Clouds 21 1014 94 10000 0.87 115 20:18 17.11.2019
4279 Clouds 21 1014 94 10000 0.87 115 19:55 17.11.2019
4280 Clouds 21 1014 94 10000 0.87 115 19:36 17.11.2019
4281 Drizzle 20 1013 100 10000 2.1 320 19:18 17.11.2019
4282 Drizzle 20 1013 100 10000 2.1 320 18:54 17.11.2019
4283 Drizzle 20 1013 100 10000 2.1 320 18:36 17.11.2019
4284 Clouds 20 1013 94 10000 2.1 330 18:18 17.11.2019
4285 Clouds 20 1013 94 10000 2.1 330 17:56 17.11.2019
4286 Clouds 20 1013 94 10000 2.1 330 17:38 17.11.2019
4287 Clouds 20 1013 94 10000 2.1 320 17:18 17.11.2019
4288 Clouds 20 1013 94 10000 2.1 320 16:42 17.11.2019
4289 Clouds 20 1013 94 10000 2.1 300 16:22 17.11.2019
4290 Clouds 20 1013 94 10000 2.1 300 15:59 17.11.2019
4291 Clouds 20 1013 94 10000 2.1 300 15:41 17.11.2019
4292 Clouds 20 1014 94 10000 2.1 320 15:19 17.11.2019
4293 Clouds 20 1014 94 10000 2.1 320 14:57 17.11.2019
4294 Clouds 20 1014 94 10000 2.1 320 14:39 17.11.2019
4295 Clouds 20 1014 94 10000 2.1 320 14:20 17.11.2019
4296 Clouds 20 1014 94 10000 2.1 320 13:58 17.11.2019
4297 Clouds 20 1014 94 10000 2.1 320 13:40 17.11.2019
4298 Clouds 20 1015 94 10000 2.1 320 13:19 17.11.2019
4299 Clouds 20 1015 94 10000 2.1 320 12:45 17.11.2019
4300 Clouds 21 1015 83 10000 1.03 101 12:23 17.11.2019
4301 Clouds 21 1015 83 10000 1.03 101 12:23 17.11.2019
4302 Clouds 21 1015 83 10000 1.03 101 11:58 17.11.2019
4303 Clouds 21 1015 83 10000 1.03 101 11:40 17.11.2019
4304 Clouds 21 1015 83 10000 1.03 101 11:40 17.11.2019
4305 Clouds 21 1015 88 10000 1.07 98 11:20 17.11.2019
4306 Clouds 21 1015 88 10000 1.07 98 10:45 17.11.2019
4307 Clouds 22 1015 83 10000 1.07 98 10:24 17.11.2019
4308 Clouds 22 1015 83 10000 1.07 98 09:58 17.11.2019
4309 Clouds 22 1015 83 10000 1.07 98 09:40 17.11.2019
4310 Clouds 23 1014 78 10000 1.5 120 09:22 17.11.2019
4311 Clouds 23 1014 78 10000 1.5 120 08:42 17.11.2019
4312 Clouds 25 1014 65 10000 2.6 120 08:23 17.11.2019
4313 Clouds 25 1014 65 10000 2.6 120 07:56 17.11.2019
4314 Clouds 25 1014 65 10000 2.6 120 07:38 17.11.2019
4315 Clouds 25 1013 65 10000 3.1 120 07:19 17.11.2019
4316 Clouds 25 1013 65 10000 3.1 120 06:46 17.11.2019
4317 Clouds 26 1014 61 10000 3.6 130 06:27 17.11.2019
4318 Clouds 26 1014 57 10000 3.1 140 04:48 17.11.2019
4319 Clouds 25 1014 69 10000 3.1 130 03:53 17.11.2019
4320 Rain 24 1015 78 10000 3.6 130 03:33 17.11.2019
4321 Rain 24 1015 78 10000 3.6 130 02:36 17.11.2019
4322 Clouds 26 1015 65 10000 4.1 130 01:43 17.11.2019
4323 Clouds 27 1016 61 10000 5.1 110 00:56 17.11.2019
4324 Clouds 27 1016 61 10000 5.1 110 00:23 17.11.2019
4325 Clouds 25 1017 65 10000 3.6 120 23:52 16.11.2019
4326 Clouds 25 1017 65 10000 3.6 120 23:20 16.11.2019
4327 Clouds 25 1017 65 10000 4.1 120 22:59 16.11.2019
4328 Clouds 25 1017 65 10000 4.1 120 22:41 16.11.2019
4329 Clouds 25 1017 65 10000 4.1 120 22:19 16.11.2019
4330 Clouds 26 1017 61 10000 3.6 120 21:56 16.11.2019
4331 Clouds 26 1017 61 10000 3.6 120 21:38 16.11.2019
4332 Clouds 26 1017 61 10000 3.6 120 21:19 16.11.2019
4333 Clouds 25 1016 69 10000 4.1 120 20:43 16.11.2019
4334 Clouds 25 1016 69 10000 4.1 120 20:21 16.11.2019
4335 Clouds 24 1015 69 10000 3.6 120 19:59 16.11.2019
4336 Clouds 24 1015 69 10000 3.6 120 19:40 16.11.2019
4337 Clouds 24 1015 69 10000 3.6 120 19:21 16.11.2019
4338 Clouds 25 1015 73 10000 4.1 120 18:47 16.11.2019
4339 Clouds 25 1015 73 10000 4.1 120 18:29 16.11.2019
4340 Clouds 25 1015 69 10000 2.6 110 17:57 16.11.2019
4341 Clouds 25 1015 69 10000 2.6 110 17:39 16.11.2019
4342 Clouds 25 1015 69 10000 2.6 110 17:19 16.11.2019
4343 Clouds 24 1015 78 10000 2.1 110 16:48 16.11.2019
4344 Clouds 24 1015 78 10000 2.1 110 16:30 16.11.2019
4345 Clouds 24 1015 78 10000 2.6 100 15:59 16.11.2019
4346 Clouds 24 1015 78 10000 2.6 100 15:41 16.11.2019
4347 Clouds 24 1015 78 10000 2.6 100 15:21 16.11.2019
4348 Clouds 25 1016 73 10000 3.6 110 14:57 16.11.2019
4349 Clouds 25 1016 73 10000 3.6 110 14:39 16.11.2019
4350 Clouds 25 1016 73 10000 3.6 110 14:21 16.11.2019
4351 Clouds 25 1017 73 10000 4.1 110 13:55 16.11.2019
4352 Clouds 25 1017 73 10000 4.1 110 13:37 16.11.2019
4353 Clouds 25 1017 73 10000 4.1 110 13:18 16.11.2019
4354 Clouds 25 1017 73 10000 3.6 110 12:43 16.11.2019
4355 Clouds 25 1017 73 10000 3.6 110 12:23 16.11.2019
4356 Clouds 25 1017 83 10000 5.1 110 11:57 16.11.2019
4357 Clouds 25 1017 83 10000 5.1 110 11:38 16.11.2019
4358 Clouds 25 1017 83 10000 5.1 110 11:38 16.11.2019
4359 Clouds 25 1017 83 10000 5.1 110 11:20 16.11.2019
4360 Clouds 25 1017 78 10000 2.1 120 10:44 16.11.2019
4361 Clouds 25 1017 78 10000 2.1 120 10:25 16.11.2019
4362 Clouds 25 1016 73 10000 3.6 120 09:59 16.11.2019
4363 Clouds 25 1016 73 10000 3.6 120 09:59 16.11.2019
4364 Clouds 25 1016 73 10000 3.6 120 09:40 16.11.2019
4365 Clouds 25 1016 73 10000 3.6 120 09:20 16.11.2019
4366 Clouds 25 1016 78 10000 2.6 120 08:41 16.11.2019
4367 Clouds 25 1016 78 10000 2.6 120 08:41 16.11.2019
4368 Clouds 25 1016 78 10000 2.6 120 08:21 16.11.2019
4369 Clouds 26 1015 69 10000 5.1 120 07:46 16.11.2019
4370 Clouds 26 1015 69 10000 5.1 120 07:22 16.11.2019
4371 Clouds 27 1014 69 10000 5.7 110 06:59 16.11.2019
4372 Clouds 27 1014 69 10000 5.7 110 06:59 16.11.2019
4373 Clouds 27 1014 69 10000 5.7 110 06:41 16.11.2019
4374 Clouds 27 1014 69 10000 5.7 110 06:20 16.11.2019
4375 Clouds 27 1014 69 10000 6.7 110 04:34 16.11.2019
4376 Clouds 28 1015 61 10000 5.1 130 03:26 16.11.2019
4377 Clouds 28 1015 61 10000 5.1 130 03:26 16.11.2019
4378 Clouds 28 1015 61 10000 5.1 130 03:26 16.11.2019
4379 Clouds 27 1015 69 10000 4.1 120 02:36 16.11.2019
4380 Clouds 27 1016 69 10000 5.7 120 01:38 16.11.2019
4381 Rain 27 1016 69 10000 5.7 110 00:49 16.11.2019
4382 Rain 27 1016 69 10000 5.7 110 00:29 16.11.2019
4383 Clouds 28 1017 65 10000 5.7 110 23:45 15.11.2019
4384 Clouds 28 1017 65 10000 5.7 110 23:25 15.11.2019
4385 Rain 27 1017 74 10000 6.2 100 22:59 15.11.2019
4386 Rain 27 1017 74 10000 6.2 100 22:40 15.11.2019
4387 Rain 27 1017 74 10000 6.2 100 22:19 15.11.2019
4388 Clouds 26 1017 74 10000 5.7 110 21:56 15.11.2019
4389 Clouds 26 1017 74 10000 5.7 110 21:38 15.11.2019
4390 Clouds 26 1017 74 10000 5.7 110 21:19 15.11.2019
4391 Clouds 25 1017 78 10000 2.6 100 20:56 15.11.2019
4392 Clouds 25 1017 78 10000 2.6 100 20:56 15.11.2019
4393 Clouds 25 1017 78 10000 2.6 100 20:38 15.11.2019
4394 Clouds 25 1017 78 10000 2.6 100 20:19 15.11.2019
4395 Clouds 23 1016 88 10000 1.06 125 19:56 15.11.2019
4396 Clouds 23 1016 88 10000 1.06 125 19:37 15.11.2019
4397 Clouds 23 1016 88 10000 1.06 125 19:19 15.11.2019
4398 Clouds 22 1015 94 10000 1.06 125 18:42 15.11.2019
4399 Clouds 22 1015 94 10000 1.06 125 18:24 15.11.2019
4400 Clouds 22 1015 94 10000 1 0 17:58 15.11.2019
4401 Clouds 22 1015 94 10000 1 0 17:39 15.11.2019
4402 Clouds 22 1015 94 10000 1 0 17:20 15.11.2019
4403 Clouds 23 1014 88 0 0.75 108 16:54 15.11.2019
4404 Clouds 23 1014 88 0 0.75 108 16:36 15.11.2019
4405 Clouds 23 1014 88 0 0.75 108 16:18 15.11.2019
4406 Clouds 23 1014 88 0 0.75 108 16:18 15.11.2019
4407 Clouds 24 1015 83 0 0.75 108 15:37 15.11.2019
4408 Clouds 24 1015 83 0 0.75 108 15:19 15.11.2019
4409 Clouds 24 1015 83 10000 1 0 14:56 15.11.2019
4410 Clouds 24 1015 83 10000 1 0 14:37 15.11.2019
4411 Clouds 24 1015 83 10000 1 0 14:19 15.11.2019
4412 Rain 25 1016 73 10000 2.6 110 13:56 15.11.2019
4413 Rain 25 1016 73 10000 2.6 110 13:38 15.11.2019
4414 Rain 25 1016 73 10000 2.6 110 13:19 15.11.2019
4415 Clouds 25 1016 73 10000 2.6 100 12:56 15.11.2019
4416 Clouds 25 1016 73 10000 2.6 100 12:37 15.11.2019
4417 Clouds 25 1016 73 10000 2.6 100 12:18 15.11.2019
4418 Clouds 25 1015 73 10000 4.1 110 11:40 15.11.2019
4419 Clouds 25 1015 73 10000 4.1 110 11:21 15.11.2019
4420 Clouds 25 1015 73 10000 4.1 110 11:21 15.11.2019
4421 Clouds 25 1015 73 10000 4.1 110 10:59 15.11.2019
4422 Clouds 25 1015 73 10000 4.1 110 10:39 15.11.2019
4423 Clouds 25 1015 73 10000 4.1 110 10:20 15.11.2019
4424 Clouds 25 1015 73 10000 3.1 110 09:42 15.11.2019
4425 Clouds 25 1015 73 10000 3.1 110 09:21 15.11.2019
4426 Clouds 25 1014 73 10000 3.6 110 08:58 15.11.2019
4427 Clouds 25 1014 73 10000 3.6 110 08:58 15.11.2019
4428 Clouds 25 1014 73 10000 3.6 110 08:39 15.11.2019
4429 Clouds 25 1014 73 10000 3.6 110 08:21 15.11.2019
4430 Clouds 26 1013 69 10000 3.6 120 07:42 15.11.2019
4431 Clouds 26 1013 69 10000 3.6 120 07:23 15.11.2019
4432 Clouds 27 1012 65 10000 6.2 100 06:36 15.11.2019
4433 Clouds 27 1012 65 10000 5.7 110 05:54 15.11.2019
4434 Clouds 27 1012 65 10000 5.7 110 05:35 15.11.2019
4435 Clouds 28 1012 61 10000 5.1 110 04:53 15.11.2019
4436 Clouds 26 1013 69 10000 5.7 100 03:39 15.11.2019
4437 Rain 24 1014 83 10000 4.1 320 02:34 15.11.2019
4438 Rain 24 1014 83 10000 4.1 320 01:55 15.11.2019
4439 Clouds 24 1014 88 10000 3.1 330 01:32 15.11.2019
4440 Clouds 24 1014 88 10000 3.1 330 00:40 15.11.2019
4441 Clouds 24 1014 88 10000 3.1 330 00:21 15.11.2019
4442 Rain 25 1014 78 10000 4.1 110 23:46 14.11.2019
4443 Rain 25 1014 78 10000 4.1 110 23:26 14.11.2019
4444 Rain 24 1014 88 10000 2.1 210 22:42 14.11.2019
4445 Clouds 26 1014 78 10000 2.1 150 22:23 14.11.2019
4446 Clouds 26 1014 78 10000 2.1 150 21:58 14.11.2019
4447 Clouds 26 1014 78 10000 2.1 150 21:40 14.11.2019
4448 Clouds 26 1014 78 10000 2.1 150 21:40 14.11.2019
4449 Clouds 22 1014 94 10000 3.16 99 21:22 14.11.2019
4450 Clouds 22 1014 94 10000 3.16 99 20:55 14.11.2019
4451 Clouds 22 1014 94 10000 3.16 99 20:37 14.11.2019
4452 Clouds 22 1014 94 10000 1.76 115 20:18 14.11.2019
4453 Clouds 22 1014 94 10000 1.76 115 20:18 14.11.2019
4454 Clouds 20 1013 100 10000 1.5 300 19:54 14.11.2019
4455 Clouds 20 1013 100 10000 1.5 300 19:36 14.11.2019
4456 Clouds 20 1013 100 10000 1.5 300 19:18 14.11.2019
4457 Clouds 20 1013 100 10000 1.5 300 19:18 14.11.2019
4458 Rain 21 1013 95 0 1.76 115 18:42 14.11.2019
4459 Clouds 21 1012 94 10000 1.76 115 18:22 14.11.2019
4460 Clouds 21 1012 94 10000 1.76 115 17:57 14.11.2019
4461 Clouds 21 1012 94 10000 1.76 115 17:37 14.11.2019
4462 Clouds 21 1012 94 10000 1.09 113 17:19 14.11.2019
4463 Clouds 22 1012 94 10000 1.09 113 16:57 14.11.2019
4464 Clouds 22 1012 94 10000 1.09 113 16:37 14.11.2019
4465 Clouds 22 1012 94 10000 1.09 113 16:19 14.11.2019
4466 Clouds 22 1013 94 10000 1.09 113 15:57 14.11.2019
4467 Clouds 22 1013 94 10000 1.09 113 15:38 14.11.2019
4468 Clouds 22 1013 94 10000 1.09 113 15:19 14.11.2019
4469 Clouds 23 1013 88 10000 1.09 113 14:45 14.11.2019
4470 Clouds 23 1013 88 10000 1.29 112 14:22 14.11.2019
4471 Clouds 22 1014 88 10000 1.29 112 13:57 14.11.2019
4472 Clouds 22 1014 88 10000 1.29 112 13:38 14.11.2019
4473 Clouds 22 1014 88 10000 1.46 108 13:19 14.11.2019
4474 Rain 23 1015 88 10000 3.1 340 12:56 14.11.2019
4475 Rain 23 1015 88 10000 3.1 340 12:37 14.11.2019
4476 Rain 23 1015 88 10000 3.1 340 12:18 14.11.2019
4477 Clouds 24 1015 78 10000 1.46 108 11:39 14.11.2019
4478 -273 0 0 0 0 0 11:20 14.11.2019
4479 Clouds 24 1015 78 10000 1.77 114 11:20 14.11.2019
4480 Clouds 24 1015 78 10000 1.77 114 11:20 14.11.2019
4481 Clouds 24 1015 78 10000 1.77 114 11:20 14.11.2019
4482 Clouds 25 1014 69 10000 1.77 114 10:58 14.11.2019
4483 Clouds 25 1014 69 10000 1.77 114 10:40 14.11.2019
4484 Clouds 25 1014 69 10000 2.1 130 10:20 14.11.2019
4485 Clouds 25 1014 69 10000 2.1 130 09:56 14.11.2019
4486 Rain 22 1014 93 0 1.77 114 09:38 14.11.2019
4487 Clouds 25 1013 69 10000 3.1 120 09:19 14.11.2019
4488 Clouds 25 1013 69 10000 3.1 120 08:47 14.11.2019
4489 Clouds 26 1012 65 10000 3.6 130 08:25 14.11.2019
4490 Clouds 26 1012 65 10000 3.6 130 07:56 14.11.2019
4491 Clouds 26 1012 65 10000 3.6 130 07:37 14.11.2019
4492 Clouds 26 1011 69 10000 5.7 110 07:19 14.11.2019
4493 Clouds 26 1011 69 10000 5.7 110 06:41 14.11.2019
4494 Clouds 27 1011 65 10000 5.7 120 06:18 14.11.2019
4495 Clouds 27 1011 69 10000 4.1 130 04:41 14.11.2019
4496 Rain 25 1011 77 0 3.55 112 04:19 14.11.2019
4497 Clouds 27 1012 65 10000 4.6 110 02:45 14.11.2019
4498 Clouds 27 1013 61 10000 3.6 110 01:44 14.11.2019
4499 Clouds 27 1013 61 10000 3.6 110 01:26 14.11.2019
4500 Clouds 27 1013 65 10000 5.1 100 00:49 14.11.2019
4501 Clouds 27 1013 65 10000 5.1 100 00:29 14.11.2019
4502 Clouds 27 1014 65 10000 2.6 110 23:41 13.11.2019
4503 Clouds 27 1014 65 10000 2.6 110 23:22 13.11.2019
4504 Clouds 26 1014 69 10000 3.6 130 22:56 13.11.2019
4505 Clouds 26 1014 69 10000 3.6 130 22:38 13.11.2019
4506 Clouds 26 1014 69 10000 3.6 130 22:38 13.11.2019
4507 Clouds 26 1014 69 10000 3.6 130 22:20 13.11.2019
4508 Clouds 27 1013 69 10000 3.1 130 21:56 13.11.2019
4509 Clouds 27 1013 69 10000 3.1 130 21:56 13.11.2019
4510 Clouds 27 1013 69 10000 3.1 130 21:37 13.11.2019
4511 Clouds 27 1013 69 10000 3.1 130 21:19 13.11.2019
4512 Clouds 25 1013 69 10000 2.1 140 20:56 13.11.2019
4513 Clouds 25 1013 69 10000 2.1 140 20:37 13.11.2019
4514 Clouds 25 1013 69 10000 2.1 140 20:37 13.11.2019
4515 Clouds 25 1013 69 10000 2.1 140 20:37 13.11.2019
4516 Clouds 25 1013 69 10000 2.1 140 20:18 13.11.2019
4517 Clouds 24 1012 78 10000 2.6 130 19:44 13.11.2019
4518 Clouds 24 1012 78 10000 2.6 130 19:20 13.11.2019
4519 Clouds 24 1012 73 10000 1 0 18:58 13.11.2019
4520 Clouds 24 1012 73 10000 1 0 18:39 13.11.2019
4521 Clouds 24 1012 73 10000 1 0 18:21 13.11.2019
4522 Clouds 24 1012 78 10000 1 0 17:58 13.11.2019
4523 Clouds 24 1012 78 10000 1 0 17:40 13.11.2019
4524 Clouds 24 1012 78 10000 1 0 17:21 13.11.2019
4525 Clouds 24 1012 73 10000 2.1 130 16:58 13.11.2019
4526 Clouds 24 1012 73 10000 2.1 130 16:58 13.11.2019
4527 Clouds 24 1012 73 10000 2.1 130 16:40 13.11.2019
4528 Clouds 24 1012 73 10000 2.1 130 16:40 13.11.2019
4529 Clouds 24 1012 73 10000 2.1 130 16:21 13.11.2019
4530 Clouds 24 1012 73 10000 2.6 120 15:58 13.11.2019
4531 Clouds 24 1012 73 10000 2.6 120 15:39 13.11.2019
4532 Clouds 24 1012 73 10000 2.6 120 15:20 13.11.2019
4533 Clouds 24 1013 78 10000 2.6 150 14:43 13.11.2019
4534 Clouds 24 1013 78 10000 2.6 150 14:22 13.11.2019
4535 Clouds 24 1014 83 10000 2.1 140 13:58 13.11.2019
4536 Clouds 24 1014 83 10000 2.1 140 13:36 13.11.2019
4537 Clouds 24 1014 83 10000 2.1 140 13:18 13.11.2019
4538 Clouds 24 1014 83 10000 2.6 140 12:54 13.11.2019
4539 Clouds 24 1014 83 10000 2.6 140 12:36 13.11.2019
4540 Clouds 24 1014 83 10000 2.6 140 12:36 13.11.2019
4541 Clouds 24 1014 83 10000 2.6 140 12:18 13.11.2019
4542 Clouds 24 1014 83 10000 1.5 140 11:40 13.11.2019
4543 Clouds 24 1014 83 10000 1.5 140 11:20 13.11.2019
4544 Clouds 24 1014 83 10000 0.87 112 10:58 13.11.2019
4545 Clouds 24 1014 83 10000 0.87 112 10:40 13.11.2019
4546 Clouds 24 1014 83 10000 0.87 112 10:19 13.11.2019
4547 Clouds 24 1013 83 10000 1.5 140 09:45 13.11.2019
4548 Clouds 24 1013 83 10000 1.5 140 09:24 13.11.2019
4549 Clouds 25 1013 78 10000 2.1 130 08:59 13.11.2019
4550 Clouds 25 1013 78 10000 2.1 130 08:37 13.11.2019
4551 Clouds 25 1013 78 10000 2.1 130 08:19 13.11.2019
4552 Clouds 26 1012 69 10000 3.1 150 07:42 13.11.2019
4553 Clouds 26 1012 69 10000 3.1 150 07:42 13.11.2019
4554 Clouds 26 1012 69 10000 3.1 150 07:20 13.11.2019
4555 Clouds 26 1012 74 10000 3.1 150 06:46 13.11.2019
4556 Clouds 26 1012 74 10000 3.1 150 06:19 13.11.2019
4557 Clouds 26 1012 74 10000 3.1 150 06:19 13.11.2019
4558 Clouds 27 1012 65 10000 4.1 150 05:53 13.11.2019
4559 Clouds 27 1012 65 10000 4.1 150 05:31 13.11.2019
4560 Clouds 27 1012 65 10000 3.6 160 04:27 13.11.2019
4561 Rain 25 1013 79 0 3.96 151 02:19 13.11.2019
4562 Rain 25 1013 79 0 3.96 151 01:41 13.11.2019
4563 Rain 24 1013 84 0 3.63 146 00:44 13.11.2019
4564 Clouds 27 1014 69 10000 3.6 160 00:21 13.11.2019
4565 Clouds 27 1014 69 10000 3.6 160 23:42 12.11.2019
4566 Clouds 27 1014 69 10000 4.1 160 23:21 12.11.2019
4567 Clouds 27 1014 69 10000 4.1 160 22:54 12.11.2019
4568 Clouds 27 1014 69 10000 4.1 160 22:36 12.11.2019
4569 Clouds 26 1014 78 10000 3.6 170 22:18 12.11.2019
4570 Clouds 26 1014 78 10000 3.6 170 21:43 12.11.2019
4571 Clouds 25 1014 83 10000 2.6 180 21:24 12.11.2019
4572 Clouds 25 1014 83 10000 2.6 180 20:57 12.11.2019
4573 Clouds 25 1014 83 10000 2.6 180 20:37 12.11.2019
4574 Clouds 25 1014 83 10000 2.6 180 20:19 12.11.2019
4575 Clouds 24 1013 83 10000 2.1 170 19:57 12.11.2019
4576 Clouds 24 1013 83 10000 2.1 170 19:39 12.11.2019
4577 Clouds 24 1013 83 10000 2.1 170 19:19 12.11.2019
4578 Clouds 24 1012 83 10000 1.5 170 18:58 12.11.2019
4579 Clouds 24 1012 83 10000 1.5 170 18:58 12.11.2019
4580 Clouds 24 1012 83 10000 1.5 170 18:39 12.11.2019
4581 Clouds 24 1012 83 10000 1.5 170 18:21 12.11.2019
4582 Clouds 23 1012 88 10000 2.5 154 17:57 12.11.2019
4583 Clouds 23 1012 88 10000 2.5 154 17:39 12.11.2019
4584 Clouds 23 1012 88 10000 2.14 150 17:20 12.11.2019
4585 Clouds 23 1012 94 10000 2.14 150 16:44 12.11.2019
4586 Clouds 23 1012 94 10000 2.14 150 16:26 12.11.2019
4587 Clouds 23 1012 94 10000 2.14 150 15:58 12.11.2019
4588 Clouds 23 1012 94 10000 2.14 150 15:40 12.11.2019
4589 Clouds 23 1012 94 10000 2.14 150 15:21 12.11.2019
4590 Clouds 24 1013 94 10000 2.14 150 14:56 12.11.2019
4591 Clouds 24 1013 94 10000 2.14 150 14:36 12.11.2019
4592 Clouds 24 1013 94 10000 2.14 150 14:36 12.11.2019
4593 Clouds 24 1013 94 10000 1.71 177 14:18 12.11.2019
4594 Clouds 24 1014 94 10000 1.5 200 13:55 12.11.2019
4595 Clouds 24 1014 94 10000 1.5 200 13:36 12.11.2019
4596 Clouds 24 1014 94 10000 1.5 200 13:18 12.11.2019
4597 Clouds 24 1014 88 10000 1.5 190 12:40 12.11.2019
4598 Clouds 24 1014 88 10000 1.47 188 12:19 12.11.2019
4599 Clouds 24 1014 88 10000 1.33 173 12:19 12.11.2019
4600 Clouds 24 1014 88 10000 1.33 173 11:56 12.11.2019
4601 Rain 22 1013 96 0 1.47 188 11:38 12.11.2019
4602 Rain 22 1013 96 0 1.47 188 11:38 12.11.2019
4603 Rain 24 1014 94 10000 1.5 180 11:20 12.11.2019
4604 Rain 24 1014 94 10000 1.5 180 10:55 12.11.2019
4605 Rain 22 1013 97 0 0.39 57 10:36 12.11.2019
4606 Rain 22 1013 97 0 0.39 57 10:18 12.11.2019
4607 Rain 22 1013 96 0 0.56 134 09:40 12.11.2019
4608 Clouds 24 1013 94 10000 1.5 200 09:20 12.11.2019
4609 Clouds 24 1013 94 10000 1.5 200 08:50 12.11.2019
4610 Rain 22 1013 97 0 0.39 57 08:29 12.11.2019
4611 Rain 23 1011 95 0 1.15 129 07:43 12.11.2019
4612 Drizzle 24 1012 94 10000 2.6 190 07:25 12.11.2019
4613 Drizzle 24 1012 94 10000 2.6 190 06:54 12.11.2019
4614 Clouds 24 1012 94 10000 2.1 190 06:28 12.11.2019
4615 Clouds 24 1012 94 10000 2.1 190 05:57 12.11.2019
4616 Drizzle 24 1012 94 10000 3.1 150 04:59 12.11.2019
4617 Drizzle 24 1012 94 10000 3.1 150 04:37 12.11.2019
4618 Drizzle 25 1013 94 10000 2.1 170 02:48 12.11.2019
4619 Rain 25 1012 84 0 2.72 165 01:38 12.11.2019
4620 Clouds 26 1014 83 10000 4.1 190 01:18 12.11.2019
4621 Clouds 26 1014 83 10000 4.1 190 00:40 12.11.2019
4622 Clouds 26 1014 83 10000 4.1 190 00:18 12.11.2019
4623 Clouds 25 1014 94 10000 1.5 200 23:41 11.11.2019
4624 Clouds 25 1014 94 10000 1.5 200 23:20 11.11.2019
4625 Clouds 25 1014 88 10000 1.5 190 22:39 11.11.2019
4626 Clouds 25 1014 88 10000 1.5 190 22:20 11.11.2019
4627 Rain 23 1014 100 10000 2.1 220 21:59 11.11.2019
4628 Rain 23 1014 100 10000 2.1 220 21:39 11.11.2019
4629 Rain 23 1014 100 8000 2.1 220 21:21 11.11.2019
4630 Rain 24 1014 94 10000 3.89 193 20:59 11.11.2019
4631 Rain 24 1014 94 10000 3.89 193 20:40 11.11.2019
4632 Rain 24 1014 94 10000 1.42 231 20:19 11.11.2019
4633 Drizzle 23 1013 100 10000 2.1 200 19:55 11.11.2019
4634 Drizzle 23 1013 100 10000 2.1 200 19:37 11.11.2019
4635 Drizzle 23 1013 100 10000 2.1 200 19:18 11.11.2019
4636 Drizzle 23 1013 100 10000 1.42 231 18:41 11.11.2019
4637 Drizzle 23 1013 100 10000 1.42 231 18:21 11.11.2019
4638 Clouds 23 1012 100 10000 1.42 231 17:46 11.11.2019
4639 Clouds 23 1012 100 10000 1.42 231 17:46 11.11.2019
4640 Clouds 23 1012 100 10000 1.42 231 17:28 11.11.2019
4641 Thunderstorm 27 1011 88 8000 1.5 300 16:59 11.11.2019
4642 Thunderstorm 27 1011 88 8000 1.5 300 16:39 11.11.2019
4643 Thunderstorm 27 1011 88 8000 1.5 300 16:20 11.11.2019
4644 Thunderstorm 27 1011 88 8000 1.5 300 15:42 11.11.2019
4645 Thunderstorm 27 1011 88 8000 1.5 300 15:20 11.11.2019
4646 Clouds 22 1011 96 0 1.28 271 14:57 11.11.2019
4647 Clouds 22 1011 96 0 1.28 271 14:39 11.11.2019
4648 Rain 23 1012 97 0 1.12 268 14:21 11.11.2019
4649 Rain 23 1012 97 0 1.12 268 13:57 11.11.2019
4650 Rain 23 1012 97 0 1.12 268 13:37 11.11.2019
4651 Clouds 23 1012 96 0 0.63 292 13:19 11.11.2019
4652 -273 0 0 0 0 0 12:55 11.11.2019
4653 Clouds 23 1012 96 0 0.63 292 12:37 11.11.2019
4654 Clouds 23 1012 96 0 0.63 292 12:19 11.11.2019
4655 Clouds 23 1012 96 0 0.63 292 11:41 11.11.2019
4656 Clouds 24 1013 95 0 0.84 201 11:21 11.11.2019
4657 Clouds 24 1013 95 0 0.84 201 10:44 11.11.2019
4658 Clouds 24 1013 95 0 0.84 201 10:20 11.11.2019
4659 Clouds 24 1013 95 0 0.84 201 09:59 11.11.2019
4660 Clouds 24 1013 95 0 0.84 201 09:41 11.11.2019
4661 Clouds 24 1013 95 0 0.84 201 09:20 11.11.2019
4662 Clouds 24 1013 95 0 0.84 201 08:43 11.11.2019
4663 Rain 24 1011 95 0 2.2 205 08:23 11.11.2019
4664 Rain 24 1011 95 0 2.2 205 07:57 11.11.2019
4665 Rain 24 1011 95 0 2.2 205 07:38 11.11.2019
4666 Rain 24 1011 95 0 2.2 205 07:19 11.11.2019
4667 Rain 24 1011 95 0 2.2 205 06:55 11.11.2019
4668 Rain 24 1011 95 0 2.2 205 06:37 11.11.2019
4669 Rain 24 1011 95 0 2.2 205 06:18 11.11.2019
4670 Rain 24 1011 95 0 2.2 205 05:42 11.11.2019
4671 Rain 27 1010 93 0 0.74 38 03:25 11.11.2019
4672 Rain 27 1010 93 0 0.74 38 02:30 11.11.2019
4673 Rain 28 1011 85 0 1.51 32 01:57 11.11.2019
4674 Rain 28 1011 85 0 1.51 32 01:36 11.11.2019
4675 Rain 29 1012 74 10000 5.7 50 00:53 11.11.2019
4676 Rain 29 1012 74 10000 5.7 50 00:29 11.11.2019
4677 Clouds 30 1012 70 10000 4.1 40 23:56 10.11.2019
4678 Clouds 30 1012 70 10000 4.1 40 23:36 10.11.2019
4679 Clouds 30 1012 70 10000 4.1 40 23:18 10.11.2019
4680 Clouds 29 1012 74 10000 4.1 30 22:55 10.11.2019
4681 Clouds 29 1012 74 10000 4.1 30 22:36 10.11.2019
4682 Clouds 29 1012 74 10000 4.1 30 22:18 10.11.2019
4683 Clouds 28 1012 78 10000 2.6 40 21:40 10.11.2019
4684 Clouds 28 1012 78 10000 2.6 40 21:22 10.11.2019
4685 Clouds 26 1012 94 10000 2.1 340 20:59 10.11.2019
4686 Clouds 26 1012 94 10000 2.1 340 20:39 10.11.2019
4687 Clouds 22 1011 94 0 1.1 290 20:21 10.11.2019
4688 Clouds 22 1011 94 0 1.1 290 19:55 10.11.2019
4689 Clouds 22 1011 94 0 1.1 290 19:37 10.11.2019
4690 Clouds 23 1011 100 10000 1.1 290 19:18 10.11.2019
4691 Clouds 23 1011 100 10000 1.1 290 19:18 10.11.2019
4692 Clouds 23 1011 100 10000 1.1 290 18:55 10.11.2019
4693 Clouds 23 1011 100 10000 1.1 290 18:37 10.11.2019
4694 Clouds 23 1011 100 10000 1.1 290 18:19 10.11.2019
4695 Clouds 23 1011 100 10000 1.1 290 18:19 10.11.2019
4696 Clouds 23 1011 100 10000 1.1 290 17:55 10.11.2019
4697 Clouds 23 1011 100 10000 1.1 290 17:37 10.11.2019
4698 Clouds 24 1010 94 10000 2.1 60 17:19 10.11.2019
4699 Clouds 24 1010 94 10000 2.1 60 17:19 10.11.2019
4700 Clouds 24 1010 94 10000 2.1 60 16:44 10.11.2019
4701 Clouds 24 1010 94 10000 2.1 100 16:25 10.11.2019
4702 Clouds 24 1010 94 10000 2.1 100 15:57 10.11.2019
4703 Clouds 24 1010 94 10000 2.1 100 15:57 10.11.2019
4704 Clouds 24 1010 94 10000 2.1 100 15:38 10.11.2019
4705 Rain 24 1011 94 10000 2.1 310 15:19 10.11.2019
4706 Rain 24 1011 94 10000 2.1 310 15:19 10.11.2019
4707 Rain 24 1011 94 10000 2.1 310 15:19 10.11.2019
4708 Rain 24 1011 94 10000 2.1 310 15:19 10.11.2019
4709 Rain 24 1011 94 10000 2.1 310 14:58 10.11.2019
4710 Rain 24 1011 94 10000 2.1 310 14:38 10.11.2019
4711 Clouds 24 1012 94 10000 3.1 350 14:20 10.11.2019
4712 Clouds 24 1012 94 10000 3.1 350 13:55 10.11.2019
4713 Clouds 24 1012 94 10000 3.1 350 13:37 10.11.2019
4714 Clouds 24 1013 94 10000 3.6 10 13:19 10.11.2019
4715 Clouds 24 1013 94 10000 3.6 10 12:41 10.11.2019
4716 Clouds 26 1013 94 10000 1 50 12:19 10.11.2019
4717 Clouds 26 1013 94 10000 1 50 11:56 10.11.2019
4718 Clouds 26 1013 94 10000 1 50 11:38 10.11.2019
4719 Clouds 26 1013 94 10000 1 50 11:19 10.11.2019
4720 Clouds 26 1012 94 10000 0.38 256 10:42 10.11.2019
4721 Clouds 26 1012 94 10000 0.38 256 10:21 10.11.2019
4722 Clouds 26 1012 94 10000 1 0 09:57 10.11.2019
4723 Clouds 26 1012 94 10000 1 0 09:39 10.11.2019
4724 Clouds 26 1012 94 10000 1 0 09:19 10.11.2019
4725 Clouds 27 1011 83 10000 2.1 10 08:39 10.11.2019
4726 Clouds 27 1011 83 10000 2.1 10 08:20 10.11.2019
4727 Clouds 27 1010 83 10000 3.1 30 07:46 10.11.2019
4728 Clouds 27 1010 83 10000 3.1 30 07:26 10.11.2019
4729 Clouds 27 1009 83 10000 2.6 30 06:57 10.11.2019
4730 Clouds 27 1009 83 10000 2.6 40 05:55 10.11.2019
4731 Rain 25 1010 94 10000 2.1 20 03:33 10.11.2019
4732 Rain 27 1009 86 0 2.54 48 02:27 10.11.2019
4733 Rain 30 1011 63 0 3.66 43 01:36 10.11.2019
4734 Clouds 30 1011 70 10000 4.6 40 01:18 10.11.2019
4735 Clouds 29 1011 74 10000 5.1 20 00:23 10.11.2019
4736 Clouds 29 1011 74 10000 5.1 20 23:40 09.11.2019
4737 Clouds 28 1011 83 10000 4.6 30 23:19 09.11.2019
4738 Clouds 28 1011 83 10000 4.6 30 22:42 09.11.2019
4739 Clouds 27 1012 100 10000 2.1 50 22:22 09.11.2019
4740 Clouds 27 1012 100 10000 2.1 50 21:58 09.11.2019
4741 Clouds 27 1012 100 10000 2.1 50 21:39 09.11.2019
4742 Clouds 25 1011 94 10000 2.1 350 21:20 09.11.2019
4743 Clouds 25 1011 94 10000 2.1 350 20:44 09.11.2019
4744 Clouds 25 1011 94 10000 2.1 350 20:24 09.11.2019
4745 Clouds 24 1010 94 10000 1.5 330 19:59 09.11.2019
4746 Clouds 24 1010 94 10000 1.5 330 19:40 09.11.2019
4747 Clouds 24 1010 94 10000 1.5 330 19:22 09.11.2019
4748 Clouds 24 1009 94 10000 1.5 20 18:57 09.11.2019
4749 Clouds 24 1009 94 10000 1.5 20 18:38 09.11.2019
4750 Clouds 24 1009 94 10000 1.5 20 18:18 09.11.2019
4751 Rain 24 1010 94 10000 1.5 330 17:42 09.11.2019
4752 Rain 24 1010 94 10000 1.5 330 17:23 09.11.2019
4753 Clouds 24 1009 94 10000 1 330 16:57 09.11.2019
4754 Clouds 24 1009 94 10000 1 330 16:38 09.11.2019
4755 Clouds 22 1009 97 0 1.58 6 16:18 09.11.2019
4756 Clouds 22 1009 97 0 1.58 6 15:42 09.11.2019
4757 Clouds 22 1009 97 0 1.58 6 15:42 09.11.2019
4758 Clouds 25 1011 94 10000 1.58 6 15:23 09.11.2019
4759 Clouds 25 1011 94 10000 1.58 6 14:47 09.11.2019
4760 Clouds 25 1011 94 10000 1.58 6 14:23 09.11.2019
4761 Clouds 25 1011 94 10000 1.5 80 13:58 09.11.2019
4762 Clouds 25 1011 94 10000 1.5 80 13:40 09.11.2019
4763 Clouds 25 1011 94 10000 1.5 80 13:21 09.11.2019
4764 Clouds 25 1011 94 10000 1.25 338 12:58 09.11.2019
4765 Clouds 25 1011 94 10000 1.25 338 12:40 09.11.2019
4766 Clouds 25 1011 94 10000 1.25 338 12:22 09.11.2019
4767 Clouds 26 1011 94 10000 1.5 30 11:48 09.11.2019
4768 Clouds 26 1012 94 10000 2.1 50 11:23 09.11.2019
4769 Clouds 26 1012 94 10000 2.1 50 10:59 09.11.2019
4770 Clouds 26 1012 94 10000 2.1 50 10:39 09.11.2019
4771 Clouds 26 1011 88 10000 2.1 70 10:19 09.11.2019
4772 Clouds 26 1011 88 10000 2.1 70 09:45 09.11.2019
4773 Clouds 26 1010 94 10000 3.1 40 09:27 09.11.2019
4774 Clouds 26 1010 94 10000 3.1 40 08:57 09.11.2019
4775 Clouds 26 1010 94 10000 3.1 40 08:39 09.11.2019
4776 Rain 25 1010 88 0 2.75 34 08:19 09.11.2019
4777 Rain 25 1010 88 0 2.75 34 07:44 09.11.2019
4778 Rain 26 1009 94 10000 3.1 80 07:22 09.11.2019
4779 Rain 26 1009 94 10000 3.1 80 06:49 09.11.2019
4780 Rain 25 1009 100 10000 1.5 110 06:30 09.11.2019
4781 Rain 25 1009 100 10000 1.5 110 05:42 09.11.2019
4782 Rain 25 1010 94 5000 4.1 20 04:56 09.11.2019
4783 Rain 28 1010 83 9000 4.6 50 03:35 09.11.2019
4784 Clouds 30 1010 70 10000 6.7 50 02:41 09.11.2019
4785 Clouds 30 1011 70 10000 6.2 60 01:55 09.11.2019
4786 Clouds 30 1011 70 10000 5.7 50 00:49 09.11.2019
4787 Clouds 30 1011 70 10000 5.7 50 00:31 09.11.2019
4788 Clouds 30 1012 66 10000 5.7 30 23:57 08.11.2019
4789 Clouds 30 1012 66 10000 5.7 30 23:38 08.11.2019
4790 Clouds 30 1012 66 10000 5.7 30 23:19 08.11.2019
4791 Clouds 29 1012 70 10000 4.1 30 22:42 08.11.2019
4792 Clouds 29 1012 70 10000 4.1 30 22:21 08.11.2019
4793 Clouds 27 1012 83 10000 4.1 30 21:56 08.11.2019
4794 Clouds 27 1012 83 10000 4.1 30 21:37 08.11.2019
4795 Clouds 25 1011 94 10000 2.1 350 21:18 08.11.2019
4796 Clouds 25 1011 94 10000 2.1 350 20:41 08.11.2019
4797 Clouds 23 1012 94 0 1.07 9 20:21 08.11.2019
4798 Clouds 23 1012 94 0 1.07 9 19:58 08.11.2019
4799 Clouds 23 1012 94 0 1.07 9 19:38 08.11.2019
4800 Clouds 24 1010 94 10000 1.07 9 19:18 08.11.2019
4801 Clouds 24 1010 94 10000 1.07 9 18:55 08.11.2019
4802 Clouds 24 1010 94 10000 1.07 9 18:37 08.11.2019
4803 Clouds 24 1010 94 10000 1.07 9 18:19 08.11.2019
4804 Clouds 24 1010 94 10000 1.07 9 17:55 08.11.2019
4805 Clouds 24 1010 94 10000 1.07 9 17:36 08.11.2019
4806 Clouds 24 1010 94 10000 1.29 351 17:18 08.11.2019
4807 Clouds 24 1010 94 10000 1.29 351 16:57 08.11.2019
4808 Clouds 24 1010 94 10000 1.29 351 16:39 08.11.2019
4809 Rain 24 1010 100 10000 1.29 351 16:19 08.11.2019
4810 Rain 24 1010 100 10000 1.29 351 15:56 08.11.2019
4811 Rain 24 1010 100 10000 1.29 351 15:38 08.11.2019
4812 Rain 24 1011 100 10000 1.29 351 15:19 08.11.2019
4813 Rain 24 1011 100 10000 1.29 351 14:55 08.11.2019
4814 Rain 24 1011 100 10000 1.29 351 14:36 08.11.2019
4815 Rain 23 1011 95 0 1.74 23 14:18 08.11.2019
4816 Rain 23 1011 95 0 1.74 23 13:42 08.11.2019
4817 Rain 25 1012 94 10000 3.1 30 13:22 08.11.2019
4818 Rain 25 1012 94 10000 3.1 30 13:22 08.11.2019
4819 Rain 25 1012 94 10000 3.1 30 12:57 08.11.2019
4820 Rain 25 1012 94 10000 3.1 30 12:39 08.11.2019
4821 Clouds 25 1012 94 10000 2.6 60 12:21 08.11.2019
4822 Clouds 25 1012 94 10000 2.6 60 11:55 08.11.2019
4823 Clouds 25 1012 94 10000 2.6 60 11:37 08.11.2019
4824 Clouds 25 1012 94 10000 2.6 60 11:37 08.11.2019
4825 Clouds 25 1012 94 10000 2.6 60 11:18 08.11.2019
4826 Clouds 25 1012 94 10000 3.1 60 10:42 08.11.2019
4827 Clouds 25 1012 94 10000 3.1 60 10:22 08.11.2019
4828 Rain 25 1011 94 9000 5.1 50 09:58 08.11.2019
4829 Rain 25 1011 94 9000 5.1 50 09:39 08.11.2019
4830 Rain 25 1011 94 9000 5.1 50 09:19 08.11.2019
4831 Rain 26 1010 94 9000 3.1 60 08:46 08.11.2019
4832 Rain 26 1010 94 9000 3.1 60 08:23 08.11.2019
4833 Rain 27 1010 83 10000 3.6 60 07:56 08.11.2019
4834 Rain 27 1010 83 10000 3.6 60 07:37 08.11.2019
4835 Rain 27 1010 83 10000 3.6 60 07:19 08.11.2019
4836 Rain 28 1009 78 10000 6.2 60 06:38 08.11.2019
4837 Rain 28 1009 78 10000 6.2 60 06:19 08.11.2019
4838 Clouds 29 1009 70 10000 5.7 40 05:36 08.11.2019
4839 Clouds 30 1009 66 10000 6.2 50 04:29 08.11.2019
4840 Clouds 30 1010 66 10000 6.2 50 03:43 08.11.2019
4841 Clouds 29 1010 74 10000 6.2 80 03:19 08.11.2019
4842 Clouds 29 1011 74 10000 6.2 50 01:57 08.11.2019
4843 Clouds 29 1011 74 10000 6.2 50 01:37 08.11.2019
4844 Clouds 29 1012 74 10000 6.2 40 00:49 08.11.2019
4845 Clouds 28 1012 78 10000 5.1 40 00:23 08.11.2019
4846 Clouds 28 1012 78 10000 5.1 40 23:52 07.11.2019
4847 Clouds 27 1012 83 10000 3.1 40 23:33 07.11.2019
4848 Clouds 27 1012 83 10000 3.1 40 22:58 07.11.2019
4849 Clouds 27 1012 83 10000 3.1 40 22:40 07.11.2019
4850 Clouds 26 1012 83 10000 2.1 340 22:20 07.11.2019
4851 Clouds 26 1012 83 10000 2.1 340 21:40 07.11.2019
4852 Clouds 23 1012 94 10000 2.1 280 21:21 07.11.2019
4853 Clouds 23 1012 94 10000 2.1 280 20:59 07.11.2019
4854 Clouds 23 1012 94 10000 2.1 280 20:41 07.11.2019
4855 Clouds 23 1011 94 10000 1.49 345 20:23 07.11.2019
4856 Clouds 23 1011 94 10000 1.71 350 19:59 07.11.2019
4857 Clouds 23 1011 94 10000 1.71 350 19:40 07.11.2019
4858 Clouds 22 1011 100 10000 1.71 350 19:21 07.11.2019
4859 Clouds 22 1011 100 10000 1.71 350 18:58 07.11.2019
4860 Clouds 22 1011 100 10000 1.71 350 18:58 07.11.2019
4861 Clouds 22 1011 100 10000 1.71 350 18:39 07.11.2019
4862 Clouds 23 1010 94 10000 1.71 350 18:19 07.11.2019
4863 Clouds 23 1010 94 10000 1.71 350 17:57 07.11.2019
4864 Clouds 23 1010 94 10000 1.71 350 17:38 07.11.2019
4865 Clouds 23 1010 94 10000 1.44 22 17:20 07.11.2019
4866 -273 0 0 0 0 0 16:55 07.11.2019
4867 Clouds 23 1010 100 10000 1.44 22 16:37 07.11.2019
4868 Clouds 23 1010 100 10000 1.44 22 16:19 07.11.2019
4869 Clouds 23 1011 100 10000 1.44 22 15:42 07.11.2019
4870 Clouds 23 1011 100 10000 1.44 22 15:21 07.11.2019
4871 Clouds 23 1011 94 10000 1.44 22 14:58 07.11.2019
4872 Clouds 23 1011 94 10000 1.44 22 14:38 07.11.2019
4873 Clouds 23 1011 94 10000 2.56 47 14:20 07.11.2019
4874 Clouds 23 1012 94 10000 2.56 47 13:55 07.11.2019
4875 Clouds 23 1012 94 10000 2.56 47 13:37 07.11.2019
4876 Clouds 23 1012 94 10000 2.56 47 13:37 07.11.2019
4877 Clouds 23 1012 94 10000 2.44 41 13:19 07.11.2019
4878 Rain 24 1013 94 10000 3.1 70 12:56 07.11.2019
4879 Rain 24 1013 94 10000 3.1 70 12:38 07.11.2019
4880 Rain 24 1013 94 10000 3.1 70 12:18 07.11.2019
4881 Clouds 24 1013 94 10000 2.1 50 11:41 07.11.2019
4882 Clouds 24 1013 94 10000 2.1 50 11:22 07.11.2019
4883 Rain 25 1013 94 10000 1.5 30 10:42 07.11.2019
4884 Rain 25 1013 94 10000 1.5 30 10:19 07.11.2019
4885 Rain 25 1013 94 10000 1.5 30 10:19 07.11.2019
4886 Rain 25 1013 94 10000 1.5 30 10:19 07.11.2019
4887 Clouds 25 1013 94 10000 2.1 80 09:55 07.11.2019
4888 Clouds 25 1013 94 10000 2.1 80 09:37 07.11.2019
4889 Clouds 25 1013 94 10000 2.1 80 09:19 07.11.2019
4890 -273 0 0 0 0 0 08:45 07.11.2019
4891 -273 0 0 0 0 0 08:44 07.11.2019
4892 Clouds 26 1011 88 10000 3.1 30 08:23 07.11.2019
4893 Clouds 26 1011 88 10000 3.1 30 08:23 07.11.2019
4894 Clouds 26 1011 88 10000 3.1 30 07:57 07.11.2019
4895 Clouds 26 1011 88 10000 3.1 30 07:39 07.11.2019
4896 Clouds 26 1011 88 10000 3.1 30 07:20 07.11.2019
4897 Clouds 26 1010 88 10000 3.6 40 06:46 07.11.2019
4898 -273 0 0 0 0 0 06:25 07.11.2019
4899 Clouds 26 1010 69 10000 3.6 50 05:51 07.11.2019
4900 Clouds 26 1010 69 10000 3.6 50 05:32 07.11.2019
4901 Clouds 26 1011 88 10000 2.6 90 04:52 07.11.2019
4902 Clouds 26 1011 88 10000 2.6 90 04:52 07.11.2019
4903 Clouds 26 1011 88 10000 2.6 90 04:52 07.11.2019
4904 Clouds 26 1011 88 10000 2.6 90 04:29 07.11.2019
4905 Clouds 27 1011 78 10000 5.1 60 01:29 07.11.2019
4906 Clouds 27 1011 78 10000 5.1 60 01:29 07.11.2019
4907 Clouds 27 1012 78 10000 4.6 50 00:32 07.11.2019
4908 Clouds 28 1012 65 10000 6.7 50 23:59 06.11.2019
4909 Clouds 28 1012 65 10000 6.7 50 23:40 06.11.2019
4910 Clouds 28 1012 65 10000 6.7 50 23:20 06.11.2019
4911 Clouds 27 1012 74 10000 5.7 50 22:40 06.11.2019
4912 Clouds 27 1012 74 10000 5.7 50 22:21 06.11.2019
4913 Clouds 25 1012 88 10000 3.1 340 21:57 06.11.2019
4914 Clouds 25 1012 88 10000 3.1 340 21:39 06.11.2019
4915 Clouds 25 1012 88 10000 3.1 340 21:39 06.11.2019
4916 Clouds 25 1012 88 10000 3.1 340 21:20 06.11.2019
4917 Clouds 23 1012 88 10000 1.5 280 20:57 06.11.2019
4918 Clouds 23 1012 88 10000 1.5 280 20:39 06.11.2019
4919 Clouds 23 1012 88 10000 1.5 280 20:39 06.11.2019
4920 Clouds 23 1012 88 10000 1.5 280 20:20 06.11.2019
4921 Clouds 22 1012 94 10000 1.3 40 19:56 06.11.2019
4922 Clouds 22 1012 94 10000 1.3 40 19:36 06.11.2019
4923 Clouds 22 1012 94 10000 1.3 40 19:18 06.11.2019
4924 Clouds 22 1012 94 10000 1.3 40 18:55 06.11.2019
4925 Clouds 21 1012 100 10000 2.6 300 18:36 06.11.2019
4926 Clouds 21 1012 100 10000 2.6 300 18:18 06.11.2019
4927 Clouds 22 1011 94 10000 1.5 350 17:42 06.11.2019
4928 Clouds 22 1011 94 10000 1.5 350 17:23 06.11.2019
4929 Clouds 22 1011 94 10000 1 0 16:57 06.11.2019
4930 Clouds 22 1011 94 10000 1 0 16:39 06.11.2019
4931 Clouds 22 1011 94 10000 1 0 16:20 06.11.2019
4932 Clouds 22 1011 94 10000 1 0 15:57 06.11.2019
4933 Clouds 22 1011 94 10000 1 0 15:37 06.11.2019
4934 Clouds 22 1011 94 10000 1 0 15:19 06.11.2019
4935 Clouds 22 1012 94 10000 1 0 14:57 06.11.2019
4936 Clouds 22 1012 94 10000 1 0 14:39 06.11.2019
4937 Clouds 22 1012 94 10000 1 0 14:20 06.11.2019
4938 Clouds 22 1012 94 10000 1 0 13:57 06.11.2019
4939 Clouds 22 1012 94 10000 1 0 13:37 06.11.2019
4940 Clouds 22 1012 94 10000 1 0 13:18 06.11.2019
4941 Clouds 22 1013 94 10000 1.5 300 12:54 06.11.2019
4942 Clouds 22 1013 94 10000 1.5 300 12:36 06.11.2019
4943 Clouds 22 1013 94 10000 1.5 300 12:18 06.11.2019
4944 Clouds 23 1013 88 10000 1.46 51 11:54 06.11.2019
4945 Clouds 23 1013 88 10000 1.46 51 11:36 06.11.2019
4946 Clouds 24 1013 83 10000 1.45 51 11:18 06.11.2019
4947 Clouds 24 1013 83 10000 1.45 51 10:42 06.11.2019
4948 Clouds 25 1012 78 10000 1.45 51 10:24 06.11.2019
4949 Clouds 25 1012 78 10000 1.45 51 10:24 06.11.2019
4950 Clouds 25 1012 78 10000 1.45 51 09:58 06.11.2019
4951 Clouds 25 1012 78 10000 1.45 51 09:38 06.11.2019
4952 Clouds 25 1012 73 10000 2.6 110 09:20 06.11.2019
4953 Clouds 25 1012 73 10000 2.6 110 08:55 06.11.2019
4954 Clouds 25 1012 73 10000 2.6 110 08:37 06.11.2019
4955 Rain 23 1011 87 0 2.01 77 08:18 06.11.2019
4956 Rain 23 1011 87 0 2.01 77 07:41 06.11.2019
4957 Clouds 27 1010 65 10000 4.6 110 07:22 06.11.2019
4958 Clouds 27 1010 65 10000 4.6 110 06:48 06.11.2019
4959 Clouds 28 1010 61 10000 5.7 80 06:28 06.11.2019
4960 Clouds 28 1010 58 10000 5.1 80 04:53 06.11.2019
4961 Clouds 28 1011 54 10000 5.7 80 02:54 06.11.2019
4962 Clouds 29 1011 51 10000 6.2 60 01:41 06.11.2019
4963 Clouds 28 1012 58 10000 5.7 60 00:46 06.11.2019
4964 Clouds 28 1012 58 10000 4.1 60 23:59 05.11.2019
4965 Clouds 28 1012 58 10000 4.1 60 23:39 05.11.2019
4966 Clouds 28 1012 58 10000 4.1 60 23:21 05.11.2019
4967 Clouds 27 1013 69 10000 3.6 100 22:55 05.11.2019
4968 Clouds 27 1013 69 10000 3.6 100 22:36 05.11.2019
4969 Clouds 27 1013 69 10000 3.6 100 22:18 05.11.2019
4970 Clouds 25 1013 78 10000 1 330 21:42 05.11.2019
4971 Clouds 25 1013 78 10000 1 330 21:21 05.11.2019
4972 Clouds 25 1013 78 10000 1 330 21:21 05.11.2019
4973 Rain 24 1012 87 0 2.91 80 20:59 05.11.2019
4974 Rain 24 1012 87 0 2.91 80 20:39 05.11.2019
4975 Rain 20 1011 95 0 1.27 73 20:20 05.11.2019
4976 Rain 20 1011 95 0 1.27 73 19:57 05.11.2019
4977 Rain 20 1011 95 0 1.27 73 19:38 05.11.2019
4978 Rain 20 1011 95 0 1.27 73 19:20 05.11.2019
4979 Rain 20 1011 95 0 1.27 73 18:57 05.11.2019
4980 Rain 20 1011 95 0 1.27 73 18:39 05.11.2019
4981 Rain 20 1011 95 0 1.27 73 18:20 05.11.2019
4982 Rain 20 1011 95 0 1.27 73 18:20 05.11.2019
4983 Rain 20 1011 95 0 1.27 73 17:57 05.11.2019
4984 Rain 20 1011 95 0 1.27 73 17:38 05.11.2019
4985 Rain 20 1009 95 0 1.23 77 17:18 05.11.2019
4986 Rain 20 1009 95 0 1.23 77 16:42 05.11.2019
4987 Clouds 21 1010 100 10000 1.23 77 16:22 05.11.2019
4988 Clouds 21 1010 100 10000 1.23 77 15:59 05.11.2019
4989 Clouds 21 1010 100 10000 1.23 77 15:37 05.11.2019
4990 Clouds 21 1010 100 10000 1.23 77 15:37 05.11.2019
4991 Rain 20 1009 95 0 1.23 77 15:19 05.11.2019
4992 Rain 20 1009 95 0 1.23 77 14:57 05.11.2019
4993 Rain 20 1009 95 0 1.23 77 14:38 05.11.2019
4994 Rain 20 1011 94 0 1.02 68 14:19 05.11.2019
4995 Rain 20 1011 94 0 1.02 68 14:19 05.11.2019
4996 Rain 20 1011 94 0 1.02 68 13:43 05.11.2019
4997 Rain 20 1011 94 0 1.37 74 13:24 05.11.2019
4998 Rain 20 1011 94 0 1.37 74 12:59 05.11.2019
4999 Rain 20 1011 94 0 1.37 74 12:39 05.11.2019
5000 Clouds 23 1012 88 10000 1 120 12:18 05.11.2019
5001 Clouds 23 1012 88 10000 1 120 11:41 05.11.2019
5002 Clouds 23 1012 88 10000 1 120 11:21 05.11.2019
5003 Clouds 23 1012 83 10000 1 0 10:59 05.11.2019
5004 Clouds 23 1012 83 10000 1 0 10:59 05.11.2019
5005 Clouds 23 1012 83 10000 1 0 10:41 05.11.2019
5006 Clouds 23 1012 83 10000 1 0 10:22 05.11.2019
5007 Clouds 24 1011 83 10000 2.1 120 09:56 05.11.2019
5008 Clouds 24 1011 83 10000 2.1 120 09:37 05.11.2019
5009 Clouds 24 1011 83 10000 2.1 120 09:18 05.11.2019
5010 Clouds 24 1011 83 10000 2.1 130 08:40 05.11.2019
5011 Clouds 24 1011 83 10000 2.1 130 08:20 05.11.2019
5012 Clouds 25 1010 73 10000 3.6 120 07:58 05.11.2019
5013 Clouds 25 1010 73 10000 3.6 120 07:58 05.11.2019
5014 Clouds 25 1010 73 10000 3.6 120 07:40 05.11.2019
5015 Clouds 25 1010 73 10000 3.6 120 07:40 05.11.2019
5016 Clouds 25 1010 73 10000 3.6 120 07:22 05.11.2019
5017 Clouds 25 1010 73 10000 4.6 110 06:50 05.11.2019
5018 Clouds 26 1010 61 10000 4.6 120 05:51 05.11.2019
5019 Clouds 26 1010 61 10000 4.6 120 05:23 05.11.2019
5020 Clouds 26 1010 65 10000 4.1 120 04:31 05.11.2019
5021 Rain 24 1009 76 0 2.84 91 03:56 05.11.2019
5022 Rain 24 1009 76 0 2.84 91 02:48 05.11.2019
5023 Rain 25 1010 70 0 2.5 91 02:22 05.11.2019
5024 Clouds 26 1012 74 10000 4.1 130 01:25 05.11.2019
5025 Clouds 26 1012 74 10000 4.1 130 00:37 05.11.2019
5026 Rain 21 1017 37 0 0.89 265 23:56 04.11.2019
5027 Rain 24 1011 74 0 1.94 94 23:37 04.11.2019
5028 Rain 21 1017 33 0 1.34 292 23:18 04.11.2019
5029 Rain 24 1012 78 0 2.57 86 22:42 04.11.2019
5030 Clouds 23 1012 94 10000 3.1 310 22:23 04.11.2019
5031 Clouds 23 1012 94 10000 3.1 310 21:56 04.11.2019
5032 Clouds 23 1012 94 10000 3.1 310 21:56 04.11.2019
5033 Clouds 23 1012 94 10000 3.1 310 21:38 04.11.2019
5034 Clouds 23 1012 94 10000 3.1 310 21:19 04.11.2019
5035 Clouds 22 1012 94 10000 2.1 290 20:59 04.11.2019
5036 Clouds 22 1012 94 10000 2.1 290 20:39 04.11.2019
5037 Clouds 22 1012 94 10000 2.1 290 20:21 04.11.2019
5038 Clouds 22 1011 94 10000 1.64 109 19:59 04.11.2019
5039 Clouds 22 1011 94 10000 1.64 109 19:40 04.11.2019
5040 Clouds 22 1011 94 10000 1.64 109 19:21 04.11.2019
5041 Clouds 22 1011 94 10000 1.64 109 18:57 04.11.2019
5042 Clouds 22 1011 94 10000 1.64 109 18:38 04.11.2019
5043 Clouds 22 1011 94 10000 1.64 109 18:19 04.11.2019
5044 Clouds 21 1010 100 10000 2.6 340 17:40 04.11.2019
5045 Clouds 21 1010 100 10000 2.6 340 17:21 04.11.2019
5046 Clouds 22 1011 94 10000 0.87 102 16:57 04.11.2019
5047 Clouds 22 1011 94 10000 0.87 102 16:39 04.11.2019
5048 Clouds 22 1011 94 10000 0.87 102 16:21 04.11.2019
5049 Clouds 21 1011 100 10000 1.5 280 15:56 04.11.2019
5050 Clouds 21 1011 100 10000 1.5 280 15:38 04.11.2019
5051 Clouds 21 1011 100 10000 1.5 280 15:19 04.11.2019
5052 Clouds 22 1012 94 10000 0.87 102 14:54 04.11.2019
5053 Clouds 22 1012 94 10000 0.87 102 14:54 04.11.2019
5054 Clouds 22 1012 94 10000 0.87 102 14:36 04.11.2019
5055 Clouds 22 1012 94 10000 1.26 109 14:18 04.11.2019
5056 Clouds 23 1012 83 10000 1.26 109 13:42 04.11.2019
5057 Clouds 23 1012 83 10000 1.26 109 13:22 04.11.2019
5058 Clouds 24 1013 78 10000 1.07 102 12:59 04.11.2019
5059 Clouds 24 1013 78 10000 1.07 102 12:41 04.11.2019
5060 Clouds 24 1013 78 10000 1.07 102 12:22 04.11.2019
5061 Rain 21 1011 93 0 1.07 102 11:57 04.11.2019
5062 Rain 21 1011 93 0 1.07 102 11:38 04.11.2019
5063 Rain 21 1013 93 0 1.61 101 11:20 04.11.2019
5064 Rain 21 1013 93 0 1.61 101 10:42 04.11.2019
5065 Rain 21 1013 93 0 1.61 101 10:24 04.11.2019
5066 Rain 21 1013 93 0 1.61 101 09:47 04.11.2019
5067 Rain 21 1013 93 0 1.61 101 09:28 04.11.2019
5068 Rain 21 1013 93 0 1.61 101 08:59 04.11.2019
5069 Rain 21 1013 93 0 1.61 101 08:40 04.11.2019
5070 Rain 22 1011 90 0 2.39 109 08:21 04.11.2019
5071 Rain 22 1011 90 0 2.39 109 07:44 04.11.2019
5072 Rain 22 1011 90 0 2.39 109 07:24 04.11.2019
5073 Rain 22 1011 90 0 2.39 109 06:58 04.11.2019
5074 Rain 22 1011 90 0 2.39 109 06:35 04.11.2019
5075 Rain 22 1011 90 0 2.39 109 05:57 04.11.2019
5076 Rain 24 1011 81 0 3.46 113 04:45 04.11.2019
5077 Clouds 26 1012 69 10000 4.1 120 04:21 04.11.2019
5078 Rain 24 1013 83 10000 1 180 02:34 04.11.2019
5079 Rain 23 1014 69 10000 4.6 120 01:22 04.11.2019
5080 Clouds 25 1014 69 10000 3.6 140 00:43 04.11.2019
5081 Clouds 25 1014 69 10000 3.6 140 00:21 04.11.2019
5082 Clouds 24 1014 65 10000 4.6 110 23:44 03.11.2019
5083 Clouds 24 1014 65 10000 4.6 110 23:44 03.11.2019
5084 Clouds 23 1014 65 10000 4.6 110 23:22 03.11.2019
5085 Clouds 23 1015 69 10000 4.6 120 22:59 03.11.2019
5086 Clouds 23 1015 69 10000 4.6 120 22:41 03.11.2019
5087 Clouds 22 1015 69 10000 4.6 120 22:21 03.11.2019
5088 Clouds 19 1018 46 0 1.34 290 21:58 03.11.2019
5089 Clouds 25 1014 66 0 2.59 103 21:40 03.11.2019
5090 Clouds 25 1014 66 0 2.59 103 21:20 03.11.2019
5091 Clouds 25 1014 66 0 2.59 103 20:56 03.11.2019
5092 Clouds 25 1014 66 0 2.59 103 20:36 03.11.2019
5093 Rain 18 1020 43 0 0.89 251 20:18 03.11.2019
5094 Rain 18 1020 43 0 1.78 111 19:55 03.11.2019
5095 Rain 17 1020 44 0 0.45 296 19:37 03.11.2019
5096 Rain 18 1020 37 0 1.78 111 19:19 03.11.2019
5097 Rain 17 1020 32 0 1.78 111 18:39 03.11.2019
5098 Rain 17 1020 32 0 1.78 111 18:19 03.11.2019
5099 Rain 16 1021 35 0 1.78 111 17:58 03.11.2019
5100 Rain 20 1013 88 0 1.78 111 17:40 03.11.2019
5101 Rain 15 1021 36 0 2.04 113 17:19 03.11.2019
5102 Rain 21 1012 87 0 2.04 113 16:55 03.11.2019
5103 Rain 21 1012 87 0 2.04 113 16:55 03.11.2019
5104 Rain 21 1012 87 0 2.04 113 16:55 03.11.2019
5105 Rain 21 1012 87 0 2.04 113 16:37 03.11.2019
5106 Rain 21 1012 87 0 2.04 113 16:18 03.11.2019
5107 Rain 21 1012 87 0 2.04 113 15:54 03.11.2019
5108 Rain 21 1012 87 0 2.04 113 15:36 03.11.2019
5109 Rain 21 1012 87 0 2.04 113 15:18 03.11.2019
5110 Rain 21 1012 87 0 2.04 113 14:40 03.11.2019
5111 Rain 21 1014 87 0 2.07 109 14:18 03.11.2019
5112 Rain 21 1014 87 0 2.07 109 13:54 03.11.2019
5113 Rain 21 1014 87 0 2.07 109 13:54 03.11.2019
5114 Rain 21 1014 87 0 2.07 109 13:36 03.11.2019
5115 Rain 21 1014 87 0 2.07 108 13:18 03.11.2019
5116 Rain 21 1014 87 0 2.07 108 12:38 03.11.2019
5117 Clouds 24 1016 73 10000 3.1 130 12:19 03.11.2019
5118 Clouds 24 1016 73 10000 3.1 130 11:55 03.11.2019
5119 Clouds 24 1016 73 10000 3.1 130 11:37 03.11.2019
5120 Clouds 24 1016 73 10000 3.1 130 11:19 03.11.2019
5121 Clouds 24 1016 78 10000 2.1 140 10:40 03.11.2019
5122 Clouds 24 1016 78 10000 2.1 140 10:22 03.11.2019
5123 Clouds 24 1016 69 10000 2.1 130 09:57 03.11.2019
5124 Clouds 24 1016 69 10000 2.1 130 09:39 03.11.2019
5125 Clouds 24 1016 69 10000 2.1 130 09:21 03.11.2019
5126 Rain 24 1015 64 10000 1.5 110 08:41 03.11.2019
5127 Rain 24 1015 64 10000 1.5 110 08:22 03.11.2019
5128 Rain 24 1016 69 10000 2.1 130 07:46 03.11.2019
5129 Rain 24 1016 69 10000 2.1 130 07:28 03.11.2019
5130 Clouds 24 1015 69 10000 3.1 120 06:50 03.11.2019
5131 Clouds 24 1015 69 10000 3.1 120 06:31 03.11.2019
5132 Clouds 19 1015 61 10000 4.1 120 05:39 03.11.2019
5133 Clouds 25 1014 65 10000 5.7 120 04:58 03.11.2019
5134 Clouds 25 1014 65 10000 5.7 120 04:36 03.11.2019
5135 Clouds 26 1015 65 10000 5.7 120 03:31 03.11.2019
5136 Clouds 22 1015 65 10000 4.6 130 02:42 03.11.2019
5137 Clouds 22 1015 65 10000 4.6 130 02:19 03.11.2019
5138 Rain 21 1020 30 0 4.62 117 01:38 03.11.2019
5139 Rain 21 1020 29 0 4.53 117 01:20 03.11.2019
5140 Rain 21 1020 33 0 0.89 259 00:43 03.11.2019
5141 Rain 21 1021 35 0 1.34 300 00:25 03.11.2019
5142 Rain 21 1021 33 0 1.34 243 23:57 02.11.2019
5143 Rain 20 1021 36 0 1.34 284 23:38 02.11.2019
5144 Rain 20 1021 37 0 1.34 300 23:19 02.11.2019
5145 Rain 19 1021 38 0 1.34 270 22:55 02.11.2019
5146 Rain 18 1021 43 0 1.34 307 22:37 02.11.2019
5147 Rain 18 1021 43 0 1.34 307 22:37 02.11.2019
5148 Rain 18 1021 43 0 1.34 307 22:37 02.11.2019
5149 Rain 18 1021 41 0 1.34 252 22:18 02.11.2019
5150 Rain 18 1021 40 0 1.79 263 21:55 02.11.2019
5151 Rain 18 1021 40 0 1.79 263 21:55 02.11.2019
5152 Rain 18 1022 42 0 0.89 271 21:37 02.11.2019
5153 Clouds 21 1015 73 10000 3.1 130 21:18 02.11.2019
5154 Clouds 21 1015 73 10000 3.1 130 20:57 02.11.2019
5155 Clouds 21 1015 73 10000 3.1 130 20:38 02.11.2019
5156 Clouds 21 1015 73 10000 3.1 130 20:19 02.11.2019
5157 Clouds 21 1015 73 10000 3.1 130 19:40 02.11.2019
5158 Clouds 20 1015 73 10000 3.1 130 19:22 02.11.2019
5159 Clouds 20 1014 73 10000 3.1 130 18:56 02.11.2019
5160 Clouds 20 1014 73 10000 3.1 130 18:56 02.11.2019
5161 Clouds 20 1014 73 10000 3.1 130 18:37 02.11.2019
5162 Clouds 24 1014 73 10000 3.1 130 18:19 02.11.2019
5163 Clouds 24 1014 73 10000 3.1 130 17:56 02.11.2019
5164 Clouds 24 1014 73 10000 3.1 130 17:37 02.11.2019
5165 Clouds 24 1014 73 10000 3.1 130 17:19 02.11.2019
5166 Clouds 24 1014 73 10000 4.1 130 16:56 02.11.2019
5167 Clouds 24 1014 73 10000 4.1 130 16:36 02.11.2019
5168 Clouds 24 1014 73 10000 4.1 130 16:18 02.11.2019
5169 Clouds 24 1014 73 10000 3.6 130 15:41 02.11.2019
5170 Clouds 24 1014 73 10000 3.6 130 15:19 02.11.2019
5171 Clouds 24 1015 73 10000 3.6 120 14:42 02.11.2019
5172 Clouds 24 1015 73 10000 3.6 120 14:23 02.11.2019
5173 Clouds 24 1016 73 10000 2.1 120 13:57 02.11.2019
5174 Clouds 24 1016 73 10000 2.1 120 13:57 02.11.2019
5175 Clouds 24 1016 73 10000 2.1 120 13:38 02.11.2019
5176 Clouds 24 1016 73 10000 2.1 120 13:18 02.11.2019
5177 Clouds 24 1016 73 10000 3.1 120 12:41 02.11.2019
5178 Clouds 24 1016 73 10000 3.1 120 12:22 02.11.2019
5179 Rain 21 1015 92 0 2.3 108 11:57 02.11.2019
5180 Rain 21 1015 92 0 2.3 108 11:39 02.11.2019
5181 Rain 21 1016 89 0 2.98 105 11:20 02.11.2019
5182 Rain 21 1016 89 0 2.98 105 10:46 02.11.2019
5183 Rain 21 1016 89 0 2.98 105 10:27 02.11.2019
5184 Rain 21 1016 89 0 2.98 105 09:57 02.11.2019
5185 Rain 21 1016 89 0 2.98 105 09:38 02.11.2019
5186 Rain 21 1016 89 0 2.98 105 09:38 02.11.2019
5187 Rain 21 1016 89 0 2.98 105 09:18 02.11.2019
5188 Rain 21 1016 89 0 2.98 105 08:42 02.11.2019
5189 Rain 21 1014 86 0 3.11 109 08:21 02.11.2019
5190 Rain 21 1014 86 0 3.11 109 07:47 02.11.2019
5191 Rain 21 1014 86 0 3.11 109 07:27 02.11.2019
5192 Rain 21 1014 86 0 3.11 109 06:54 02.11.2019
5193 Rain 21 1014 86 0 3.11 109 06:26 02.11.2019
5194 Rain 21 1014 86 0 3.11 109 05:55 02.11.2019
5195 Rain 24 1013 72 0 4.08 121 04:51 02.11.2019
5196 Clouds 24 1015 73 10000 4.6 120 04:19 02.11.2019
5197 Clouds 24 1015 73 10000 4.6 120 03:45 02.11.2019
5198 Clouds 25 1015 73 10000 3.1 130 02:38 02.11.2019
5199 Clouds 22 1015 73 10000 3.1 130 01:42 02.11.2019
5200 Clouds 22 1015 73 10000 3.1 130 01:20 02.11.2019
5201 Rain 21 1016 83 10000 5.7 90 00:42 02.11.2019
5202 Rain 23 1016 83 10000 5.7 90 00:23 02.11.2019
5203 Rain 23 1016 83 10000 5.7 90 23:42 01.11.2019
5204 Rain 23 1016 83 10000 5.7 90 23:20 01.11.2019
5205 Clouds 25 1016 69 10000 4.1 130 22:43 01.11.2019
5206 Clouds 25 1016 69 10000 4.1 130 22:22 01.11.2019
5207 Clouds 25 1016 69 10000 4.1 130 22:22 01.11.2019
5208 Clouds 25 1015 73 10000 4.1 130 21:56 01.11.2019
5209 Clouds 25 1015 73 10000 4.1 130 21:38 01.11.2019
5210 Clouds 25 1015 73 10000 4.1 130 21:19 01.11.2019
5211 Clouds 24 1015 78 10000 2.6 130 20:42 01.11.2019
5212 Clouds 24 1015 78 10000 2.6 130 20:24 01.11.2019
5213 Clouds 23 1014 78 10000 1 0 19:59 01.11.2019
5214 Clouds 23 1014 78 10000 1 0 19:41 01.11.2019
5215 Clouds 23 1014 78 10000 1 0 19:22 01.11.2019
5216 Clouds 23 1014 78 10000 2.1 140 18:42 01.11.2019
5217 Clouds 23 1014 78 10000 2.1 140 18:21 01.11.2019
5218 Clouds 23 1013 73 10000 2.1 130 17:59 01.11.2019
5219 Clouds 23 1013 73 10000 2.1 130 17:41 01.11.2019
5220 Clouds 23 1013 73 10000 2.1 130 17:23 01.11.2019
5221 Clouds 23 1013 69 10000 2.1 130 16:41 01.11.2019
5222 Clouds 23 1013 69 10000 2.1 130 16:21 01.11.2019
5223 Clouds 23 1013 69 10000 2.6 130 15:59 01.11.2019
5224 Clouds 23 1013 69 10000 2.6 130 15:40 01.11.2019
5225 Clouds 23 1013 69 10000 2.6 130 15:40 01.11.2019
5226 Clouds 23 1013 69 10000 2.6 130 15:22 01.11.2019
5227 Clouds 23 1013 69 10000 2.6 130 15:22 01.11.2019
5228 Clouds 23 1013 69 10000 2.6 130 15:22 01.11.2019
5229 Clouds 24 1013 64 10000 2.1 140 14:55 01.11.2019
5230 Clouds 24 1013 64 10000 2.1 140 14:36 01.11.2019
5231 Clouds 24 1013 64 10000 2.1 140 14:36 01.11.2019
5232 Clouds 24 1013 64 10000 2.1 140 14:18 01.11.2019
5233 Clouds 24 1014 64 10000 3.1 130 13:41 01.11.2019
5234 Clouds 24 1014 64 10000 3.1 130 13:22 01.11.2019
5235 Clouds 24 1014 64 10000 2.6 140 12:56 01.11.2019
5236 Clouds 24 1014 64 10000 2.6 140 12:56 01.11.2019
5237 Clouds 24 1014 64 10000 2.6 140 12:37 01.11.2019
5238 Clouds 24 1014 64 10000 2.6 140 12:19 01.11.2019
5239 Clouds 24 1015 64 10000 3.6 150 11:42 01.11.2019
5240 Rain 19 1013 87 0 1.59 116 11:24 01.11.2019
5241 Rain 20 1014 81 0 2.01 116 10:56 01.11.2019
5242 Rain 20 1014 81 0 2.01 116 10:37 01.11.2019
5243 Rain 20 1014 81 0 2.01 116 10:18 01.11.2019
5244 Rain 20 1014 81 0 2.01 116 09:42 01.11.2019
5245 Rain 20 1014 81 0 2.01 116 09:22 01.11.2019
5246 Rain 20 1014 81 0 2.01 116 08:55 01.11.2019
5247 Rain 20 1014 81 0 2.01 116 08:37 01.11.2019
5248 Rain 20 1014 81 0 2.01 116 08:37 01.11.2019
5249 Clouds 21 1012 76 0 2.37 125 08:18 01.11.2019
5250 Clouds 21 1012 76 0 2.37 125 07:45 01.11.2019
5251 Clouds 21 1012 76 0 2.37 125 07:22 01.11.2019
5252 Clouds 21 1012 76 0 2.37 125 06:54 01.11.2019
5253 Clouds 21 1012 76 0 2.37 125 06:23 01.11.2019
5254 Clouds 21 1012 76 0 2.37 125 05:44 01.11.2019
5255 Clouds 22 1010 72 0 2.91 134 04:55 01.11.2019
5256 Clouds 27 1012 54 10000 5.1 160 03:32 01.11.2019
5257 Clouds 27 1012 44 10000 5.1 140 01:46 01.11.2019
5258 Clouds 27 1012 47 10000 5.1 120 00:58 01.11.2019
5259 Clouds 27 1012 47 10000 5.1 120 00:20 01.11.2019
5260 Clouds 26 1012 54 10000 5.1 120 23:44 31.10.2019
5261 Clouds 26 1012 54 10000 5.1 120 23:23 31.10.2019
5262 Clouds 25 1013 61 10000 4.1 150 22:58 31.10.2019
5263 Clouds 25 1013 61 10000 4.1 150 22:40 31.10.2019
5264 Clouds 25 1013 61 10000 4.1 150 22:21 31.10.2019
5265 Clouds 25 1013 57 10000 3.6 140 21:45 31.10.2019
5266 Clouds 25 1013 57 10000 3.6 140 21:22 31.10.2019
5267 Clouds 24 1012 64 10000 3.6 150 20:58 31.10.2019
5268 Clouds 24 1012 64 10000 3.6 150 20:39 31.10.2019
5269 Clouds 24 1012 64 10000 3.6 150 20:21 31.10.2019
5270 Clouds 19 1012 93 10000 2.1 330 19:43 31.10.2019
5271 Clouds 19 1012 93 10000 2.1 330 19:23 31.10.2019
5272 Clouds 19 1011 93 10000 2.1 300 18:58 31.10.2019
5273 Clouds 19 1011 93 10000 2.1 300 18:39 31.10.2019
5274 Clouds 19 1011 93 10000 2.1 300 18:20 31.10.2019
5275 Clouds 18 1010 93 10000 1.73 125 17:43 31.10.2019
5276 Clouds 18 1010 93 10000 1.73 125 17:43 31.10.2019
5277 Clouds 18 1010 93 10000 1.73 125 17:43 31.10.2019
5278 Clouds 18 1010 93 10000 1.51 120 17:22 31.10.2019
5279 Clouds 18 1010 93 10000 1.51 120 16:59 31.10.2019
5280 Clouds 18 1010 93 10000 1.51 120 16:40 31.10.2019
5281 Clouds 18 1010 93 10000 1.51 120 16:20 31.10.2019
5282 Clouds 18 1010 93 10000 1.51 120 15:56 31.10.2019
5283 Clouds 18 1010 93 10000 1.51 120 15:38 31.10.2019
5284 Clouds 18 1010 93 10000 1.51 120 15:19 31.10.2019
5285 Clouds 20 1010 79 0 1.51 120 14:56 31.10.2019
5286 Clouds 20 1010 79 0 1.51 120 14:38 31.10.2019
5287 Clouds 20 1010 79 0 1.51 120 14:38 31.10.2019
5288 Rain 20 1011 80 0 1.72 120 14:20 31.10.2019
5289 Rain 20 1011 80 0 1.72 120 13:55 31.10.2019
5290 Rain 20 1011 80 0 1.72 120 13:37 31.10.2019
5291 Clouds 21 1012 77 10000 1 0 13:19 31.10.2019
5292 Clouds 21 1012 77 10000 1 0 12:43 31.10.2019
5293 Clouds 22 1012 68 10000 2.1 150 12:23 31.10.2019
5294 Clouds 22 1012 68 10000 2.1 150 11:57 31.10.2019
5295 Clouds 22 1012 68 10000 2.1 150 11:38 31.10.2019
5296 Rain 20 1012 80 0 2.39 137 11:18 31.10.2019
5297 Rain 20 1012 80 0 2.39 137 10:41 31.10.2019
5298 Rain 20 1012 80 0 2.39 137 10:22 31.10.2019
5299 Rain 20 1012 80 0 2.39 137 09:59 31.10.2019
5300 Rain 20 1012 80 0 2.39 137 09:41 31.10.2019
5301 Rain 20 1012 80 0 2.39 137 09:18 31.10.2019
5302 Rain 20 1012 80 0 2.39 137 08:49 31.10.2019
5303 Rain 20 1012 79 0 2.43 131 08:30 31.10.2019
5304 Rain 21 1010 78 0 3.11 150 07:55 31.10.2019
5305 Rain 21 1010 78 0 3.11 150 07:36 31.10.2019
5306 Rain 21 1010 78 0 3.11 150 07:18 31.10.2019
5307 Rain 21 1010 78 0 3.11 150 06:38 31.10.2019
5308 Rain 21 1010 78 0 3.11 150 06:19 31.10.2019
5309 Clouds 24 1009 65 0 4.16 156 03:43 31.10.2019
5310 Clouds 24 1009 65 0 4.16 156 02:41 31.10.2019
5311 Clouds 25 1010 61 0 4 154 01:53 31.10.2019
5312 Clouds 24 1010 66 0 3.9 151 00:37 31.10.2019
5313 Clouds 24 1010 66 0 3.9 151 00:18 31.10.2019
5314 Clouds 24 1010 66 0 3.9 151 23:30 30.10.2019
5315 Clouds 23 1011 65 0 3.53 153 22:43 30.10.2019
5316 Clouds 25 1011 57 10000 3.6 150 22:23 30.10.2019
5317 Clouds 25 1011 57 10000 3.6 150 22:23 30.10.2019
5318 Clouds 25 1011 57 10000 3.6 150 21:56 30.10.2019
5319 Clouds 25 1011 57 10000 3.6 150 21:37 30.10.2019
5320 Clouds 25 1011 57 10000 3.6 150 21:18 30.10.2019
5321 Clouds 24 1011 64 10000 1.5 160 20:59 30.10.2019
5322 Clouds 24 1011 64 10000 1.5 160 20:41 30.10.2019
5323 Clouds 24 1011 64 10000 1.5 160 20:22 30.10.2019
5324 Clouds 22 1010 64 10000 1.5 170 19:58 30.10.2019
5325 Clouds 22 1010 64 10000 1.5 170 19:38 30.10.2019
5326 Clouds 22 1010 64 10000 1.5 170 19:19 30.10.2019
5327 Clouds 19 1010 85 0 2.1 167 18:39 30.10.2019
5328 Clouds 23 1010 69 10000 2.1 160 18:21 30.10.2019
5329 Clouds 23 1010 69 10000 2.1 160 17:59 30.10.2019
5330 Clouds 23 1010 69 10000 2.1 160 17:41 30.10.2019
5331 Clouds 23 1010 69 10000 2.1 160 17:19 30.10.2019
5332 Clouds 23 1009 73 10000 2.6 170 16:55 30.10.2019
5333 Clouds 23 1009 73 10000 2.6 170 16:37 30.10.2019
5334 Clouds 23 1009 73 10000 2.6 170 16:19 30.10.2019
5335 Clouds 23 1010 73 10000 2.1 170 15:56 30.10.2019
5336 Clouds 23 1010 73 10000 2.1 170 15:37 30.10.2019
5337 Clouds 23 1010 73 10000 2.1 170 15:19 30.10.2019
5338 Clouds 24 1010 69 10000 2.6 170 14:42 30.10.2019
5339 Clouds 24 1010 69 10000 2.6 170 14:22 30.10.2019
5340 Clouds 24 1011 69 10000 3.1 170 13:58 30.10.2019
5341 Clouds 24 1011 69 10000 3.1 170 13:40 30.10.2019
5342 Clouds 24 1011 69 10000 3.1 170 13:20 30.10.2019
5343 Clouds 24 1011 78 10000 2.6 170 12:57 30.10.2019
5344 Clouds 24 1011 78 10000 2.6 170 12:38 30.10.2019
5345 Clouds 24 1011 78 10000 2.6 170 12:19 30.10.2019
5346 Rain 21 1010 88 0 2.86 166 11:42 30.10.2019
5347 Rain 21 1010 89 0 3.31 167 11:23 30.10.2019
5348 Rain 21 1010 89 0 3.31 167 11:23 30.10.2019
5349 Rain 21 1010 89 0 3.31 167 10:46 30.10.2019
5350 Rain 21 1010 89 0 3.31 167 10:27 30.10.2019
5351 Rain 21 1010 89 0 3.31 167 09:59 30.10.2019
5352 Rain 21 1010 89 0 3.31 167 09:39 30.10.2019
5353 Rain 21 1010 89 0 3.31 167 09:21 30.10.2019
5354 Rain 21 1010 89 0 3.31 167 08:42 30.10.2019
5355 Rain 21 1010 89 0 3.31 167 08:42 30.10.2019
5356 Rain 22 1008 88 0 4.33 176 08:22 30.10.2019
5357 Rain 22 1008 88 0 4.33 176 07:56 30.10.2019
5358 Rain 22 1008 88 0 4.33 176 07:37 30.10.2019
5359 Rain 22 1008 88 0 4.33 176 06:43 30.10.2019
5360 Rain 22 1008 88 0 4.33 176 06:25 30.10.2019
5361 Rain 22 1008 88 0 4.33 176 05:54 30.10.2019
5362 Rain 22 1008 88 0 4.33 176 05:54 30.10.2019
5363 Rain 22 1008 88 0 4.33 176 05:35 30.10.2019
5364 Clouds 27 1008 74 10000 5.22 180 03:47 30.10.2019
5365 Clouds 27 1008 74 10000 5.22 180 03:20 30.10.2019
5366 Clouds 27 1008 74 10000 4.6 180 02:32 30.10.2019
5367 Clouds 27 1009 78 10000 5.1 170 01:34 30.10.2019
5368 Rain 26 1009 88 10000 2.6 170 00:31 30.10.2019
5369 Rain 25 1009 88 10000 3.1 150 23:47 29.10.2019
5370 Rain 25 1009 88 10000 3.1 150 23:28 29.10.2019
5371 Rain 27 1009 83 10000 3.1 160 22:57 29.10.2019
5372 Rain 27 1009 83 10000 3.1 160 22:39 29.10.2019
5373 Rain 27 1009 83 10000 3.1 160 22:19 29.10.2019
5374 Clouds 26 1009 75 0 2.77 220 21:54 29.10.2019
5375 Clouds 26 1009 75 0 2.77 220 21:36 29.10.2019
5376 Clouds 26 1009 75 0 2.77 220 21:18 29.10.2019
5377 Clouds 26 1009 75 0 2.77 220 20:41 29.10.2019
5378 Rain 21 1008 96 0 0.74 311 20:21 29.10.2019
5379 Rain 21 1008 96 0 0.74 311 19:58 29.10.2019
5380 Rain 21 1008 96 0 0.74 311 19:39 29.10.2019
5381 Clouds 22 1007 100 10000 1.5 330 19:20 29.10.2019
5382 Clouds 22 1007 100 10000 1.5 330 18:57 29.10.2019
5383 Clouds 22 1007 100 10000 1.5 330 18:37 29.10.2019
5384 Clouds 22 1007 100 10000 1.5 330 18:19 29.10.2019
5385 Clouds 22 1007 100 10000 1.5 330 18:19 29.10.2019
5386 Clouds 22 1007 100 10000 1.5 330 17:55 29.10.2019
5387 Clouds 22 1007 100 10000 1.5 330 17:37 29.10.2019
5388 Clouds 23 1007 100 10000 0.95 297 17:18 29.10.2019
5389 Clouds 23 1007 100 10000 0.95 297 16:40 29.10.2019
5390 Clouds 22 1007 96 0 0.95 297 16:21 29.10.2019
5391 Clouds 22 1007 96 0 0.95 297 15:57 29.10.2019
5392 Clouds 22 1007 96 0 0.95 297 15:39 29.10.2019
5393 Clouds 22 1007 96 0 0.95 297 15:20 29.10.2019
5394 Clouds 22 1007 96 0 0.95 297 14:55 29.10.2019
5395 Clouds 22 1007 96 0 0.95 297 14:37 29.10.2019
5396 Rain 22 1009 97 0 1.87 25 14:19 29.10.2019
5397 Rain 22 1009 97 0 1.87 25 13:40 29.10.2019
5398 Clouds 24 1009 94 10000 1.61 7 13:22 29.10.2019
5399 Clouds 24 1009 94 10000 1.61 7 12:55 29.10.2019
5400 Clouds 24 1009 94 10000 1.61 7 12:36 29.10.2019
5401 Clouds 24 1009 94 10000 1.61 7 12:18 29.10.2019
5402 Clouds 24 1010 94 10000 1 120 11:42 29.10.2019
5403 Clouds 24 1010 94 10000 1 120 11:22 29.10.2019
5404 Rain 25 1010 94 10000 1.5 120 10:58 29.10.2019
5405 Rain 25 1010 94 10000 1.5 120 10:39 29.10.2019
5406 Rain 25 1010 94 10000 1.5 120 10:20 29.10.2019
5407 Rain 25 1010 94 10000 1.68 23 09:57 29.10.2019
5408 Rain 25 1010 94 10000 1.68 23 09:39 29.10.2019
5409 Rain 25 1010 94 10000 1.68 23 09:21 29.10.2019
5410 Clouds 25 1009 88 10000 2.6 90 08:44 29.10.2019
5411 Clouds 25 1009 88 10000 2.6 90 08:25 29.10.2019
5412 Clouds 27 1008 78 10000 3.1 100 07:55 29.10.2019
5413 Clouds 27 1008 78 10000 3.1 100 07:36 29.10.2019
5414 Clouds 27 1008 78 10000 3.1 100 07:18 29.10.2019
5415 Clouds 27 1008 78 10000 3.1 100 07:18 29.10.2019
5416 Clouds 27 1008 78 10000 4.6 70 06:43 29.10.2019
5417 Clouds 27 1008 78 10000 4.6 70 06:21 29.10.2019
5418 Clouds 27 1008 78 10000 3.6 110 05:50 29.10.2019
5419 Clouds 27 1008 78 10000 3.6 110 05:19 29.10.2019
5420 Clouds 27 1009 78 10000 6.2 110 03:55 29.10.2019
5421 Rain 25 1008 90 0 1.71 82 02:32 29.10.2019
5422 Rain 25 1010 91 0 2.69 89 01:46 29.10.2019
5423 Clouds 27 1011 74 10000 5.1 110 01:18 29.10.2019
5424 Clouds 27 1012 78 10000 5.1 100 00:31 29.10.2019
5425 Clouds 27 1012 78 10000 5.1 100 23:43 28.10.2019
5426 Clouds 26 1011 88 10000 4.6 100 23:20 28.10.2019
5427 Clouds 26 1011 88 10000 4.6 100 22:57 28.10.2019
5428 Clouds 26 1011 88 10000 4.6 100 22:37 28.10.2019
5429 Rain 25 1012 89 0 2.76 84 22:18 28.10.2019
5430 Rain 25 1012 89 0 2.76 84 21:54 28.10.2019
5431 Rain 25 1012 89 0 2.76 84 21:54 28.10.2019
5432 Rain 25 1012 89 0 2.76 84 21:36 28.10.2019
5433 Rain 25 1012 89 0 2.76 84 21:18 28.10.2019
5434 Rain 25 1012 89 0 2.76 84 20:42 28.10.2019
5435 Rain 25 1012 89 0 2.76 84 20:24 28.10.2019
5436 Rain 24 1011 90 0 2.77 83 20:24 28.10.2019
5437 Rain 22 1010 94 0 1.62 87 19:58 28.10.2019
5438 Rain 22 1010 94 0 1.62 87 19:39 28.10.2019
5439 Clouds 24 1011 88 10000 2.6 120 19:20 28.10.2019
5440 Clouds 24 1011 88 10000 2.6 120 18:58 28.10.2019
5441 Clouds 24 1011 88 10000 2.6 120 18:58 28.10.2019
5442 Clouds 24 1011 88 10000 2.6 120 18:38 28.10.2019
5443 Clouds 25 1010 78 10000 2.6 110 18:20 28.10.2019
5444 Clouds 25 1010 78 10000 2.6 110 17:56 28.10.2019
5445 Clouds 25 1010 78 10000 2.6 110 17:38 28.10.2019
5446 Clouds 25 1010 78 10000 4.6 110 17:18 28.10.2019
5447 Clouds 25 1010 78 10000 4.6 110 16:55 28.10.2019
5448 Clouds 25 1010 78 10000 4.6 110 16:37 28.10.2019
5449 Rain 22 1010 94 0 1.94 95 16:19 28.10.2019
5450 Rain 22 1010 94 0 1.94 95 15:56 28.10.2019
5451 Rain 22 1010 94 0 1.94 95 15:37 28.10.2019
5452 Rain 22 1010 94 0 1.94 95 15:18 28.10.2019
5453 Rain 22 1010 94 0 1.94 95 14:55 28.10.2019
5454 Rain 22 1010 94 0 1.94 95 14:36 28.10.2019
5455 Rain 22 1010 94 0 1.94 95 14:36 28.10.2019
5456 Rain 22 1011 94 0 1.86 101 14:18 28.10.2019
5457 Rain 22 1011 94 0 1.86 101 14:18 28.10.2019
5458 Rain 22 1011 94 0 1.86 101 13:41 28.10.2019
5459 Clouds 25 1013 78 10000 6.2 100 13:19 28.10.2019
5460 Clouds 25 1013 78 10000 6.2 100 12:59 28.10.2019
5461 Clouds 25 1013 78 10000 6.2 100 12:40 28.10.2019
5462 Clouds 25 1013 78 10000 4.1 110 12:19 28.10.2019
5463 Clouds 25 1013 78 10000 4.1 110 11:38 28.10.2019
5464 Clouds 25 1012 78 10000 3.6 110 11:20 28.10.2019
5465 Clouds 25 1012 78 10000 3.6 110 10:42 28.10.2019
5466 Rain 22 1013 92 0 2.34 111 10:24 28.10.2019
5467 Rain 22 1013 92 0 2.34 111 09:58 28.10.2019
5468 Rain 22 1013 92 0 2.34 111 09:39 28.10.2019
5469 Rain 22 1013 92 0 2.34 111 09:20 28.10.2019
5470 Rain 22 1013 92 0 2.34 111 08:57 28.10.2019
5471 Rain 22 1013 92 0 2.34 111 08:39 28.10.2019
5472 Rain 22 1011 91 0 2.47 103 08:19 28.10.2019
5473 Rain 22 1011 91 0 2.47 103 07:57 28.10.2019
5474 Rain 22 1011 91 0 2.47 103 07:38 28.10.2019
5475 Clouds 26 1011 74 10000 5.1 100 07:20 28.10.2019
5476 Clouds 26 1011 74 10000 5.1 100 06:40 28.10.2019
5477 Clouds 27 1010 69 10000 5.1 110 05:57 28.10.2019
5478 Rain 24 1010 83 0 3.31 104 04:25 28.10.2019
5479 Rain 24 1010 83 0 3.31 104 03:40 28.10.2019
5480 Rain 24 1010 83 0 3.31 104 02:45 28.10.2019
5481 Rain 23 1012 94 0 2.41 100 01:19 28.10.2019
5482 Rain 23 1012 94 0 2.41 100 00:42 28.10.2019
5483 Rain 23 1012 94 0 2.41 100 00:20 28.10.2019
5484 Rain 23 1012 94 0 2.41 100 23:42 27.10.2019
5485 Rain 23 1013 93 0 3.45 111 23:19 27.10.2019
5486 Rain 23 1013 93 0 3.45 111 22:43 27.10.2019
5487 Rain 23 1013 93 0 3.45 111 22:23 27.10.2019
5488 Rain 23 1013 93 0 3.45 111 21:58 27.10.2019
5489 Rain 23 1013 93 0 3.45 111 21:39 27.10.2019
5490 Rain 23 1013 93 0 3.45 111 21:21 27.10.2019
5491 Rain 23 1013 93 0 3.45 111 20:58 27.10.2019
5492 Rain 23 1013 93 0 3.45 111 20:39 27.10.2019
5493 Rain 22 1012 94 0 2.61 113 20:21 27.10.2019
5494 Rain 22 1012 94 0 2.61 113 19:55 27.10.2019
5495 Rain 22 1012 94 0 2.61 113 19:36 27.10.2019
5496 Rain 22 1012 94 0 2.61 113 19:18 27.10.2019
5497 Rain 22 1012 94 0 2.61 113 18:55 27.10.2019
5498 Rain 22 1012 94 0 2.61 113 18:55 27.10.2019
5499 Rain 22 1012 94 0 2.61 113 18:36 27.10.2019
5500 Rain 22 1012 94 0 2.61 113 18:18 27.10.2019
5501 Rain 22 1012 94 0 2.61 113 17:40 27.10.2019
5502 Rain 22 1012 94 0 2.61 113 17:40 27.10.2019
5503 Rain 22 1010 95 0 1.9 109 17:21 27.10.2019
5504 Rain 22 1010 95 0 1.9 109 16:58 27.10.2019
5505 Rain 22 1010 95 0 1.9 109 16:40 27.10.2019
5506 Rain 22 1010 95 0 1.9 109 16:22 27.10.2019
5507 Rain 22 1010 95 0 1.9 109 15:56 27.10.2019
5508 Rain 22 1010 95 0 1.9 109 15:56 27.10.2019
5509 Rain 22 1010 95 0 1.9 109 15:38 27.10.2019
5510 Rain 22 1010 95 0 1.9 109 15:19 27.10.2019
5511 Rain 22 1010 95 0 1.9 109 14:43 27.10.2019
5512 Rain 22 1012 94 0 2.3 104 14:23 27.10.2019
5513 Rain 22 1012 94 0 2.3 104 13:58 27.10.2019
5514 Rain 22 1012 94 0 2.3 104 13:39 27.10.2019
5515 Rain 22 1012 94 0 1.95 109 13:21 27.10.2019
5516 Rain 22 1012 94 0 1.95 109 12:58 27.10.2019
5517 Rain 22 1012 94 0 1.95 109 12:38 27.10.2019
5518 Rain 22 1012 94 0 1.95 109 12:19 27.10.2019
5519 Rain 22 1012 94 0 1.95 109 11:41 27.10.2019
5520 Rain 22 1013 93 0 3.47 110 11:21 27.10.2019
5521 Rain 22 1013 93 0 3.47 110 10:45 27.10.2019
5522 Rain 22 1013 93 0 3.47 110 10:26 27.10.2019
5523 Rain 22 1013 93 0 3.47 110 09:58 27.10.2019
5524 Rain 22 1013 93 0 3.47 110 09:39 27.10.2019
5525 Rain 22 1013 93 0 3.47 110 09:18 27.10.2019
5526 Rain 22 1013 93 0 3.47 110 09:18 27.10.2019
5527 Rain 22 1013 93 0 3.47 110 08:56 27.10.2019
5528 Rain 22 1013 93 0 3.47 110 08:37 27.10.2019
5529 Rain 22 1011 90 0 2.92 117 08:18 27.10.2019
5530 Rain 22 1011 90 0 2.92 117 07:43 27.10.2019
5531 Drizzle 24 1011 88 10000 2.6 160 07:24 27.10.2019
5532 Drizzle 24 1011 88 10000 2.6 160 06:49 27.10.2019
5533 Clouds 26 1011 83 10000 2.6 150 06:26 27.10.2019
5534 Clouds 26 1011 83 10000 2.6 150 05:39 27.10.2019
5535 Clouds 25 1011 83 10000 3.1 160 04:54 27.10.2019
5536 Rain 24 1012 91 0 3.44 107 02:55 27.10.2019
5537 Rain 24 1012 91 0 3.44 107 02:55 27.10.2019
5538 Rain 23 1013 94 10000 2.6 120 01:49 27.10.2019
5539 Clouds 24 1013 88 10000 2.6 140 01:20 27.10.2019
5540 Clouds 24 1013 88 10000 2.6 140 00:46 27.10.2019
5541 Rain 22 1013 95 0 2.69 111 00:22 27.10.2019
5542 Rain 22 1013 95 0 2.69 111 23:55 26.10.2019
5543 Rain 22 1013 95 0 2.69 111 23:36 26.10.2019
5544 Rain 23 1013 94 6000 3.1 150 23:18 26.10.2019
5545 Rain 23 1013 94 6000 3.1 150 22:40 26.10.2019
5546 Rain 23 1013 94 6000 3.1 150 22:20 26.10.2019
5547 Rain 22 1013 100 6000 2.6 140 21:59 26.10.2019
5548 Rain 22 1013 100 6000 2.6 140 21:41 26.10.2019
5549 Rain 22 1011 93 0 2.17 121 21:21 26.10.2019
5550 Rain 22 1011 93 0 2.17 121 20:45 26.10.2019
5551 Rain 22 1011 93 0 2.17 121 20:20 26.10.2019
5552 Rain 22 1011 93 0 2.17 121 19:59 26.10.2019
5553 Rain 22 1011 93 0 2.17 121 19:40 26.10.2019
5554 Rain 22 1011 93 0 2.17 121 19:20 26.10.2019
5555 Rain 22 1011 93 0 2.17 121 19:20 26.10.2019
5556 Rain 22 1011 93 0 2.17 121 18:56 26.10.2019
5557 Rain 22 1011 93 0 2.17 121 18:37 26.10.2019
5558 Clouds 22 1010 91 0 2.67 113 18:18 26.10.2019
5559 Clouds 22 1010 91 0 2.67 113 18:18 26.10.2019
5560 Clouds 22 1010 91 0 2.67 113 17:56 26.10.2019
5561 Clouds 22 1010 91 0 2.67 113 17:36 26.10.2019
5562 Clouds 24 1012 78 10000 2.67 113 17:18 26.10.2019
5563 Clouds 24 1012 78 10000 2.67 113 16:42 26.10.2019
5564 Clouds 24 1012 78 10000 2.67 113 16:22 26.10.2019
5565 Clouds 22 1010 91 0 2.67 113 15:41 26.10.2019
5566 Rain 22 1012 93 0 2.31 116 15:20 26.10.2019
5567 Rain 22 1012 93 0 2.31 116 14:41 26.10.2019
5568 Rain 22 1012 93 0 2.25 119 14:22 26.10.2019
5569 Rain 22 1012 93 0 2.25 119 13:59 26.10.2019
5570 Rain 22 1012 93 0 2.25 119 13:41 26.10.2019
5571 Rain 22 1012 93 0 2.25 119 13:21 26.10.2019
5572 Rain 22 1012 93 0 2.25 119 12:48 26.10.2019
5573 Rain 22 1012 93 0 2.25 119 12:25 26.10.2019
5574 Rain 22 1013 93 0 2.8 120 12:24 26.10.2019
5575 Rain 22 1013 93 0 2.8 120 11:50 26.10.2019
5576 Rain 22 1013 93 0 2.8 120 11:29 26.10.2019
5577 Rain 22 1013 93 0 2.8 120 10:55 26.10.2019
5578 Rain 22 1013 93 0 2.8 120 10:36 26.10.2019
5579 Rain 22 1013 93 0 2.8 120 10:18 26.10.2019
5580 Rain 22 1013 93 0 2.8 120 09:43 26.10.2019
5581 Rain 21 1013 94 0 3.08 116 09:25 26.10.2019
5582 Rain 21 1011 95 0 3.05 131 08:43 26.10.2019
5583 Rain 22 1012 24 10000 3.1 170 08:25 26.10.2019
5584 Rain 22 1012 24 10000 3.1 170 07:47 26.10.2019
5585 Rain 22 1011 94 10000 3.6 150 07:28 26.10.2019
5586 Rain 22 1011 94 10000 3.6 150 06:43 26.10.2019
5587 Rain 22 1011 94 6000 3.6 150 06:24 26.10.2019
5588 Rain 22 1011 94 6000 3.6 150 05:19 26.10.2019
5589 Rain 23 1012 94 6000 4.1 160 04:24 26.10.2019
5590 Rain 22 1012 95 0 3.79 135 02:46 26.10.2019
5591 Rain 22 1013 100 6000 3.6 170 01:54 26.10.2019
5592 Rain 22 1013 100 6000 3.6 170 01:22 26.10.2019
5593 Rain 22 1013 100 5000 2.6 190 00:23 26.10.2019
5594 Rain 23 1013 94 5000 3.1 180 23:43 25.10.2019
5595 Rain 23 1013 94 5000 3.1 180 23:20 25.10.2019
5596 Rain 23 1013 94 8000 3.6 170 22:40 25.10.2019
5597 Rain 23 1013 94 8000 3.6 170 22:22 25.10.2019
5598 Rain 22 1012 100 8000 2.6 160 21:58 25.10.2019
5599 Rain 22 1012 100 8000 2.6 160 21:58 25.10.2019
5600 Rain 22 1012 100 8000 2.6 160 21:39 25.10.2019
5601 Rain 22 1012 100 8000 2.6 160 21:19 25.10.2019
5602 Rain 22 1012 100 8000 2.6 160 21:19 25.10.2019
5603 Rain 22 1011 100 8000 2.6 170 20:55 25.10.2019
5604 Rain 22 1011 100 8000 2.6 170 20:37 25.10.2019
5605 Rain 22 1011 100 8000 2.6 170 20:18 25.10.2019
5606 Rain 23 1011 100 8000 2.6 160 19:43 25.10.2019
5607 Rain 23 1011 100 8000 2.6 160 19:23 25.10.2019
5608 Rain 23 1011 94 5000 1.5 200 18:44 25.10.2019
5609 Rain 23 1011 94 5000 1.5 200 18:22 25.10.2019
5610 Rain 23 1010 94 9000 2.6 180 17:41 25.10.2019
5611 Rain 23 1010 94 9000 2.6 180 17:41 25.10.2019
5612 Rain 23 1010 94 9000 2.6 180 17:21 25.10.2019
5613 Rain 23 1010 94 8000 2.6 150 16:54 25.10.2019
5614 Rain 23 1010 94 8000 2.6 150 16:36 25.10.2019
5615 Rain 23 1010 94 8000 2.6 150 16:18 25.10.2019
5616 -273 0 0 0 0 0 15:40 25.10.2019
5617 Rain 23 1011 94 8000 2.71 132 15:21 25.10.2019
5618 Rain 23 1012 94 9000 2.6 150 14:57 25.10.2019
5619 Rain 23 1012 94 9000 2.6 150 14:39 25.10.2019
5620 Rain 23 1012 94 9000 2.6 150 14:20 25.10.2019
5621 Drizzle 24 1013 83 10000 2.6 160 13:41 25.10.2019
5622 Drizzle 24 1013 83 10000 2.6 160 13:23 25.10.2019
5623 Rain 22 1011 96 0 2.3 125 12:55 25.10.2019
5624 Rain 22 1011 96 0 2.3 125 12:37 25.10.2019
5625 Rain 22 1012 96 0 2.58 133 12:19 25.10.2019
5626 Rain 22 1012 96 0 2.58 133 11:40 25.10.2019
5627 Rain 22 1012 96 0 2.58 133 11:22 25.10.2019
5628 Rain 22 1012 96 0 2.58 133 10:57 25.10.2019
5629 Rain 22 1012 96 0 2.58 133 10:38 25.10.2019
5630 Rain 22 1012 96 0 2.58 133 10:19 25.10.2019
5631 Rain 24 1011 83 10000 3.1 140 09:42 25.10.2019
5632 Rain 24 1011 83 10000 3.1 140 09:21 25.10.2019
5633 Rain 24 1011 83 10000 3.1 140 08:57 25.10.2019
5634 Rain 24 1011 83 10000 3.1 140 08:39 25.10.2019
5635 Rain 24 1011 83 10000 3.1 140 08:39 25.10.2019
5636 Rain 24 1011 83 8000 2.6 140 08:20 25.10.2019
5637 Rain 24 1010 88 8000 2.6 150 07:45 25.10.2019
5638 Rain 24 1010 88 8000 2.6 150 07:26 25.10.2019
5639 Rain 24 1010 88 6000 3.1 140 06:38 25.10.2019
5640 Rain 24 1010 94 6000 3.1 140 05:49 25.10.2019
5641 Rain 24 1010 94 6000 3.1 140 05:28 25.10.2019
5642 Rain 24 1011 88 8000 3.1 140 04:30 25.10.2019
5643 Rain 24 1012 94 8000 4.1 130 02:35 25.10.2019
5644 Rain 24 1013 94 10000 4.1 130 01:52 25.10.2019
5645 Rain 23 1013 94 8000 3.6 130 00:34 25.10.2019
5646 Rain 23 1013 94 8000 3.6 130 23:43 24.10.2019
5647 Rain 23 1013 94 8000 3.6 130 23:24 24.10.2019
5648 Rain 23 1013 94 8000 2.6 110 22:57 24.10.2019
5649 Rain 23 1013 94 8000 2.6 110 22:38 24.10.2019
5650 Rain 24 1012 92 0 2.57 128 22:19 24.10.2019
5651 Rain 24 1012 92 0 2.57 128 21:57 24.10.2019
5652 Rain 24 1012 92 0 2.57 128 21:57 24.10.2019
5653 Rain 24 1012 92 0 2.57 128 21:38 24.10.2019
5654 Rain 22 1011 95 0 0.9 118 21:19 24.10.2019
5655 Rain 22 1011 95 0 0.9 118 20:57 24.10.2019
5656 Rain 22 1011 95 0 0.9 118 20:38 24.10.2019
5657 Rain 22 1011 95 0 0.9 118 20:20 24.10.2019
5658 Rain 22 1011 95 0 0.9 118 19:55 24.10.2019
5659 Rain 22 1011 95 0 0.9 118 19:37 24.10.2019
5660 Rain 22 1011 95 0 0.9 118 19:18 24.10.2019
5661 Rain 22 1011 95 0 0.9 118 18:40 24.10.2019
5662 Rain 22 1011 94 0 0.88 117 18:22 24.10.2019
5663 Rain 22 1011 94 0 0.88 117 17:59 24.10.2019
5664 Rain 22 1011 94 0 0.88 117 17:40 24.10.2019
5665 Rain 22 1011 94 0 0.88 117 17:20 24.10.2019
5666 Rain 22 1011 94 0 0.88 117 17:20 24.10.2019
5667 Rain 22 1011 94 0 0.88 117 16:55 24.10.2019
5668 Rain 22 1011 94 0 0.88 117 16:37 24.10.2019
5669 Rain 22 1011 94 0 0.88 117 16:18 24.10.2019
5670 Rain 22 1011 94 0 0.88 117 15:55 24.10.2019
5671 Rain 22 1011 94 0 0.88 117 15:37 24.10.2019
5672 Rain 22 1012 94 0 0.99 111 15:19 24.10.2019
5673 Rain 22 1012 94 0 1.17 104 14:44 24.10.2019
5674 Rain 22 1012 94 0 1.17 104 14:26 24.10.2019
5675 Rain 22 1012 94 0 1.17 104 13:59 24.10.2019
5676 Rain 22 1012 94 0 1.17 104 13:59 24.10.2019
5677 Rain 22 1012 94 0 1.17 104 13:38 24.10.2019
5678 Clouds 23 1014 94 10000 1.17 104 13:19 24.10.2019
5679 Clouds 23 1014 94 10000 1.17 104 13:19 24.10.2019
5680 Clouds 23 1014 94 10000 1.17 104 12:56 24.10.2019
5681 Clouds 23 1014 94 10000 1.17 104 12:38 24.10.2019
5682 Clouds 23 1014 94 10000 1.47 109 12:18 24.10.2019
5683 Clouds 24 1014 83 10000 2.6 110 11:55 24.10.2019
5684 Clouds 24 1014 83 10000 2.6 110 11:36 24.10.2019
5685 Clouds 24 1014 83 10000 2.6 110 11:36 24.10.2019
5686 Clouds 24 1014 83 10000 2.6 110 11:18 24.10.2019
5687 Clouds 24 1013 78 10000 1.5 150 10:42 24.10.2019
5688 Clouds 24 1013 78 10000 1.5 150 10:23 24.10.2019
5689 Clouds 24 1013 88 10000 3.1 110 09:40 24.10.2019
5690 Clouds 24 1013 88 10000 3.1 110 09:19 24.10.2019
5691 Clouds 24 1013 88 10000 1 180 08:59 24.10.2019
5692 Clouds 24 1013 88 10000 1 180 08:41 24.10.2019
5693 Clouds 24 1013 88 10000 1 180 08:20 24.10.2019
5694 Rain 23 1012 94 9000 4.1 130 07:47 24.10.2019
5695 Rain 23 1012 94 9000 4.1 130 07:23 24.10.2019
5696 Rain 23 1012 94 9000 4.1 130 07:23 24.10.2019
5697 Rain 23 1012 94 8000 3.1 170 06:54 24.10.2019
5698 Rain 23 1012 94 8000 3.1 170 06:36 24.10.2019
5699 Clouds 27 1011 69 10000 3.6 130 05:54 24.10.2019
5700 Clouds 27 1011 69 10000 3.6 130 05:31 24.10.2019
5701 Clouds 27 1012 69 10000 3.6 140 04:22 24.10.2019
5702 Clouds 27 1012 69 10000 3.6 140 04:22 24.10.2019
5703 Rain 23 1011 90 0 2.67 140 03:33 24.10.2019
5704 Rain 23 1012 93 0 2.08 124 02:37 24.10.2019
5705 Clouds 27 1013 74 10000 3.6 140 02:18 24.10.2019
5706 Clouds 26 1014 74 10000 2.6 150 01:30 24.10.2019
5707 Clouds 26 1014 74 10000 2.6 150 00:55 24.10.2019
5708 Clouds 26 1014 78 10000 2.6 150 00:25 24.10.2019
5709 Clouds 26 1014 78 10000 2.6 150 23:45 23.10.2019
5710 Rain 22 1013 96 0 2.31 138 23:27 23.10.2019
5711 Rain 22 1013 96 0 2.31 138 23:27 23.10.2019
5712 Rain 22 1013 96 0 2.31 138 22:58 23.10.2019
5713 Rain 22 1013 96 0 2.31 138 22:39 23.10.2019
5714 Rain 22 1013 96 0 2.31 138 22:19 23.10.2019
5715 Rain 22 1013 96 0 2.31 138 21:59 23.10.2019
5716 Rain 22 1013 96 0 2.31 138 21:40 23.10.2019
5717 Rain 22 1012 95 0 3.29 155 21:21 23.10.2019
5718 Rain 22 1012 95 0 3.29 155 20:59 23.10.2019
5719 Rain 22 1012 95 0 3.29 155 20:40 23.10.2019
5720 Rain 22 1012 95 0 3.29 155 20:40 23.10.2019
5721 Rain 23 1012 94 10000 2.6 150 20:21 23.10.2019
5722 Rain 23 1012 94 10000 2.6 150 19:59 23.10.2019
5723 Rain 23 1012 94 10000 2.6 150 19:41 23.10.2019
5724 Rain 22 1012 95 0 3.29 155 19:19 23.10.2019
5725 Rain 22 1012 95 0 3.29 155 18:57 23.10.2019
5726 Rain 22 1012 95 0 3.29 155 18:38 23.10.2019
5727 Rain 22 1011 98 0 2.76 146 18:19 23.10.2019
5728 Rain 22 1011 98 0 2.76 146 17:45 23.10.2019
5729 Rain 22 1011 98 0 2.76 146 17:21 23.10.2019
5730 Rain 22 1011 98 0 2.76 146 16:58 23.10.2019
5731 Rain 22 1011 98 0 2.76 146 16:58 23.10.2019
5732 Rain 22 1011 98 0 2.76 146 16:40 23.10.2019
5733 Rain 22 1011 98 0 2.76 146 16:20 23.10.2019
5734 Rain 22 1011 98 0 2.76 146 15:42 23.10.2019
5735 Rain 24 1013 94 8000 3.1 180 15:23 23.10.2019
5736 Rain 24 1013 94 8000 3.1 180 14:58 23.10.2019
5737 Rain 24 1013 94 8000 3.1 180 14:58 23.10.2019
5738 Rain 24 1013 94 8000 3.1 180 14:39 23.10.2019
5739 Rain 24 1013 94 8000 3.1 180 14:20 23.10.2019
5740 Rain 24 1014 94 5000 2.1 210 13:59 23.10.2019
5741 Rain 24 1014 94 5000 2.1 210 13:41 23.10.2019
5742 Rain 24 1014 94 5000 2.1 210 13:23 23.10.2019
5743 Rain 25 1013 94 10000 2.1 140 12:56 23.10.2019
5744 Rain 25 1013 94 10000 2.1 140 12:37 23.10.2019
5745 Rain 25 1013 94 10000 2.1 140 12:18 23.10.2019
5746 Clouds 24 1013 94 10000 1.5 150 11:57 23.10.2019
5747 Clouds 24 1013 94 10000 1.5 150 11:38 23.10.2019
5748 Clouds 24 1013 94 10000 1.5 150 11:20 23.10.2019
5749 Rain 24 1013 100 10000 1.5 130 10:45 23.10.2019
5750 Rain 24 1013 100 10000 1.5 130 10:26 23.10.2019
5751 Rain 24 1013 100 10000 1.5 130 10:26 23.10.2019
5752 Rain 24 1013 100 10000 3.1 90 09:57 23.10.2019
5753 Rain 24 1013 100 10000 3.1 90 09:38 23.10.2019
5754 Rain 24 1013 100 10000 3.1 90 09:20 23.10.2019
5755 Clouds 26 1012 83 10000 2.6 130 08:42 23.10.2019
5756 Clouds 26 1012 83 10000 2.6 130 08:24 23.10.2019
5757 Rain 26 1011 78 10000 3.6 120 07:46 23.10.2019
5758 Rain 26 1011 78 10000 3.6 120 07:23 23.10.2019
5759 Clouds 27 1011 74 10000 4.1 120 06:47 23.10.2019
5760 Clouds 27 1011 74 10000 4.1 120 06:22 23.10.2019
5761 Clouds 27 1011 78 10000 4.1 100 05:47 23.10.2019
5762 Clouds 28 1012 69 10000 4.6 100 04:57 23.10.2019
5763 Rain 24 1011 92 0 1.67 92 03:35 23.10.2019
5764 Rain 26 1012 86 0 2.54 95 02:41 23.10.2019
5765 Rain 26 1012 86 0 2.54 95 01:33 23.10.2019
5766 Rain 26 1012 86 0 2.54 95 00:56 23.10.2019
5767 Rain 26 1012 86 0 2.54 95 00:28 23.10.2019
5768 Rain 25 1014 90 0 2.04 93 23:40 22.10.2019
5769 Rain 25 1014 90 0 2.04 93 23:18 22.10.2019
5770 Rain 25 1014 90 0 2.04 93 22:57 22.10.2019
5771 Rain 25 1014 90 0 2.04 93 22:39 22.10.2019
5772 Rain 25 1014 90 0 2.04 93 22:20 22.10.2019
5773 Rain 25 1014 90 0 2.04 93 21:56 22.10.2019
5774 Rain 25 1014 88 0 2.29 94 21:37 22.10.2019
5775 Rain 22 1013 93 0 1.24 106 21:18 22.10.2019
5776 Rain 22 1013 93 0 1.24 106 20:56 22.10.2019
5777 Rain 22 1013 93 0 1.24 106 20:56 22.10.2019
5778 Rain 22 1013 93 0 1.24 106 20:38 22.10.2019
5779 Rain 22 1013 93 0 1.24 106 20:20 22.10.2019
5780 Rain 22 1013 93 0 1.24 106 19:54 22.10.2019
5781 Rain 22 1013 93 0 1.24 106 19:54 22.10.2019
5782 Rain 22 1013 93 0 1.24 106 19:36 22.10.2019
5783 Rain 22 1013 93 0 1.24 106 19:18 22.10.2019
5784 Rain 22 1013 93 0 1.24 106 18:40 22.10.2019
5785 Rain 22 1012 94 0 1.34 91 18:22 22.10.2019
5786 Rain 22 1012 94 0 1.34 91 17:58 22.10.2019
5787 Rain 22 1012 94 0 1.34 91 17:38 22.10.2019
5788 Rain 22 1012 94 0 1.34 91 17:20 22.10.2019
5789 Rain 22 1012 94 0 1.34 91 16:57 22.10.2019
5790 Rain 22 1012 94 0 1.34 91 16:38 22.10.2019
5791 Rain 22 1012 94 0 1.34 91 16:19 22.10.2019
5792 Rain 22 1012 94 0 1.34 91 15:56 22.10.2019
5793 Rain 22 1012 94 0 1.34 91 15:38 22.10.2019
5794 Rain 22 1014 94 0 1.84 98 15:18 22.10.2019
5795 Rain 22 1014 93 0 1.54 103 14:43 22.10.2019
5796 Rain 22 1014 93 0 1.54 103 14:19 22.10.2019
5797 Rain 22 1014 93 0 1.54 103 13:42 22.10.2019
5798 Rain 22 1014 93 0 1.54 103 13:21 22.10.2019
5799 Rain 22 1014 93 0 1.54 103 12:58 22.10.2019
5800 Rain 22 1014 93 0 1.54 103 12:58 22.10.2019
5801 Rain 22 1014 93 0 1.54 103 12:40 22.10.2019
5802 Rain 22 1014 93 0 1.54 103 12:40 22.10.2019
5803 Clouds 26 1015 83 10000 3.1 120 12:21 22.10.2019
5804 Clouds 26 1015 83 10000 3.1 120 11:54 22.10.2019
5805 Clouds 26 1015 83 10000 3.1 120 11:54 22.10.2019
5806 Clouds 26 1015 83 10000 3.1 120 11:36 22.10.2019
5807 Rain 25 1014 88 10000 4.1 120 11:18 22.10.2019
5808 Rain 25 1014 88 10000 4.1 120 10:55 22.10.2019
5809 Rain 25 1014 88 10000 4.1 120 10:36 22.10.2019
5810 Rain 23 1014 92 0 2.56 114 10:18 22.10.2019
5811 Rain 23 1014 93 0 2.52 113 09:41 22.10.2019
5812 Rain 23 1013 93 0 2.46 109 09:22 22.10.2019
5813 Rain 23 1013 93 0 2.46 109 08:59 22.10.2019
5814 Rain 23 1013 93 0 2.46 109 08:41 22.10.2019
5815 Clouds 26 1013 83 10000 4.1 120 08:19 22.10.2019
5816 Clouds 26 1013 83 10000 4.1 120 07:44 22.10.2019
5817 Clouds 27 1012 78 10000 4.1 140 07:26 22.10.2019
5818 Clouds 27 1012 78 10000 4.1 140 06:45 22.10.2019
5819 Clouds 28 1012 74 10000 5.1 130 06:27 22.10.2019
5820 Clouds 28 1012 74 10000 5.1 130 05:48 22.10.2019
5821 Clouds 28 1012 74 10000 5.1 130 05:48 22.10.2019
5822 Rain 25 1012 89 0 3.14 110 04:54 22.10.2019
5823 Rain 26 1013 87 0 3.33 106 02:31 22.10.2019
5824 Rain 26 1013 87 0 3.33 106 01:39 22.10.2019
5825 Rain 26 1013 87 0 3.33 106 01:21 22.10.2019
5826 Rain 26 1013 87 0 3.33 106 00:56 22.10.2019
5827 Rain 26 1013 87 0 3.33 106 00:38 22.10.2019
5828 Rain 25 1015 91 0 3.51 107 00:19 22.10.2019
5829 Rain 25 1015 91 0 3.51 107 23:39 21.10.2019
5830 Rain 25 1015 91 0 3.51 107 23:19 21.10.2019
5831 Rain 25 1015 91 0 3.51 107 22:59 21.10.2019
5832 Rain 25 1015 91 0 3.51 107 22:40 21.10.2019
5833 Rain 25 1015 91 0 3.51 107 22:20 21.10.2019
5834 Rain 25 1015 91 0 3.51 107 21:58 21.10.2019
5835 Rain 25 1015 91 0 3.35 109 21:38 21.10.2019
5836 Rain 23 1014 96 0 1.71 109 21:20 21.10.2019
5837 Rain 23 1014 96 0 1.71 109 20:58 21.10.2019
5838 Rain 23 1014 96 0 1.71 109 20:39 21.10.2019
5839 Rain 23 1014 96 0 1.71 109 20:20 21.10.2019
5840 Rain 23 1014 96 0 1.71 109 19:56 21.10.2019
5841 Rain 23 1014 96 0 1.71 109 19:37 21.10.2019
5842 Rain 23 1014 96 0 1.71 109 19:19 21.10.2019
5843 Rain 23 1014 96 0 1.71 109 18:55 21.10.2019
5844 Rain 23 1014 96 0 1.71 109 18:36 21.10.2019
5845 Rain 22 1012 96 0 1.05 105 18:18 21.10.2019
5846 Rain 22 1012 96 0 1.05 105 17:39 21.10.2019
5847 Rain 22 1012 96 0 1.05 105 17:20 21.10.2019
5848 Rain 22 1012 96 0 1.05 105 16:59 21.10.2019
5849 Rain 22 1012 96 0 1.05 105 16:40 21.10.2019
5850 Rain 22 1012 96 0 1.05 105 16:22 21.10.2019
5851 Rain 22 1012 96 0 1.05 105 15:58 21.10.2019
5852 Rain 22 1012 96 0 1.05 105 15:39 21.10.2019
5853 Rain 23 1014 96 0 1.55 110 15:19 21.10.2019
5854 Rain 23 1014 96 0 1.55 110 14:40 21.10.2019
5855 Clouds 25 1016 94 10000 1 140 14:22 21.10.2019
5856 Clouds 25 1016 94 10000 1 140 13:59 21.10.2019
5857 Clouds 25 1016 94 10000 1 140 13:41 21.10.2019
5858 Rain 23 1014 95 0 1.41 111 13:20 21.10.2019
5859 Rain 23 1014 95 0 1.41 111 12:58 21.10.2019
5860 Rain 23 1014 95 0 1.41 111 12:40 21.10.2019
5861 Rain 21 1015 98 0 1.28 80.083 12:20 21.10.2019
5862 Rain 21 1015 98 0 1.28 80.083 11:42 21.10.2019
5863 Rain 21 1015 98 0 1.28 80.083 11:24 21.10.2019
5864 Rain 21 1015 98 0 1.28 80.083 10:59 21.10.2019
5865 Rain 21 1015 98 0 1.28 80.083 10:40 21.10.2019
5866 Rain 21 1015 98 0 1.28 80.083 10:20 21.10.2019
5867 Rain 21 1015 98 0 1.28 80.083 09:58 21.10.2019
5868 Rain 21 1015 98 0 1.28 80.083 09:39 21.10.2019
5869 Rain 22 1013 96 0 1.35 104.232 09:21 21.10.2019
5870 Rain 22 1013 95 0 1.49 104.345 08:41 21.10.2019
5871 Clouds 27 1013 78 10000 4.1 120 08:23 21.10.2019
5872 Clouds 27 1013 78 10000 4.1 120 08:23 21.10.2019
5873 Clouds 27 1013 78 10000 4.1 120 07:55 21.10.2019
5874 Clouds 27 1013 78 10000 4.1 120 07:36 21.10.2019
5875 Clouds 28 1012 74 10000 5.1 120 07:18 21.10.2019
5876 Clouds 28 1012 74 10000 5.1 120 06:42 21.10.2019
5877 Clouds 28 1013 74 10000 5.1 110 06:24 21.10.2019
5878 Clouds 28 1013 69 10000 4.6 110 05:33 21.10.2019
5879 Clouds 29 1014 70 10000 5.1 120 03:41 21.10.2019
5880 Clouds 28 1015 69 10000 4.6 120 02:40 21.10.2019
5881 Clouds 28 1015 69 10000 4.6 120 02:20 21.10.2019
5882 Clouds 28 1015 69 10000 4.6 120 02:20 21.10.2019
5883 Clouds 28 1015 74 10000 4.6 110 01:45 21.10.2019
5884 Clouds 28 1016 69 10000 4.1 120 00:54 21.10.2019
5885 Clouds 28 1016 69 10000 4.1 120 00:28 21.10.2019
5886 Clouds 28 1016 74 10000 4.6 110 23:58 20.10.2019
5887 Clouds 28 1016 74 10000 4.6 110 23:39 20.10.2019
5888 Clouds 28 1016 74 10000 4.6 110 23:21 20.10.2019
5889 Clouds 27 1016 78 10000 4.1 110 22:42 20.10.2019
5890 Clouds 27 1016 78 10000 4.1 110 22:24 20.10.2019
5891 Clouds 27 1016 78 10000 4.1 110 22:24 20.10.2019
5892 Clouds 27 1016 78 10000 4.1 110 22:24 20.10.2019
5893 Clouds 26 1016 83 10000 4.1 110 21:59 20.10.2019
5894 Clouds 26 1016 83 10000 4.1 110 21:40 20.10.2019
5895 Clouds 26 1016 83 10000 4.1 110 21:21 20.10.2019
5896 Clouds 25 1015 88 10000 1.5 120 20:55 20.10.2019
5897 Clouds 25 1015 88 10000 1.5 120 20:37 20.10.2019
5898 Clouds 25 1015 88 10000 1.5 120 20:18 20.10.2019
5899 Clouds 25 1015 88 10000 1.5 130 19:55 20.10.2019
5900 Clouds 25 1015 88 10000 1.5 130 19:36 20.10.2019
5901 Clouds 25 1015 88 10000 1.5 130 19:18 20.10.2019
5902 Clouds 25 1015 88 10000 1.34 60.404 18:40 20.10.2019
5903 Clouds 25 1015 88 10000 1.39 66.079 18:20 20.10.2019
5904 Clouds 25 1014 88 10000 1.39 66.079 17:56 20.10.2019
5905 Clouds 25 1014 88 10000 1.39 66.079 17:38 20.10.2019
5906 Clouds 25 1014 88 10000 1.39 66.079 17:19 20.10.2019
5907 Clouds 25 1015 88 10000 1.5 120 16:43 20.10.2019
5908 Clouds 25 1015 88 10000 1.5 120 16:24 20.10.2019
5909 Clouds 25 1016 88 10000 1.39 66.079 15:59 20.10.2019
5910 Clouds 25 1016 88 10000 1.39 66.079 15:38 20.10.2019
5911 Clouds 25 1016 88 10000 1.14 60.149 15:20 20.10.2019
5912 Clouds 24 1016 94 10000 1.14 60.149 14:58 20.10.2019
5913 Clouds 24 1016 94 10000 1.14 60.149 14:38 20.10.2019
5914 Clouds 24 1016 94 10000 1.14 60.149 14:19 20.10.2019
5915 Clouds 24 1017 94 10000 1.14 60.149 13:55 20.10.2019
5916 Clouds 24 1017 94 10000 1.14 60.149 13:37 20.10.2019
5917 Clouds 24 1017 94 10000 1.15 57.716 13:18 20.10.2019
5918 Clouds 25 1017 88 10000 1.5 100 12:56 20.10.2019
5919 Clouds 25 1017 88 10000 1.5 100 12:37 20.10.2019
5920 Clouds 25 1017 88 10000 1.5 100 12:19 20.10.2019
5921 Clouds 25 1016 88 10000 2.1 110 11:54 20.10.2019
5922 Clouds 25 1016 88 10000 2.1 110 11:36 20.10.2019
5923 Clouds 25 1016 88 10000 2.1 110 11:18 20.10.2019
5924 Clouds 26 1016 83 10000 1.5 130 10:40 20.10.2019
5925 Clouds 26 1016 83 10000 1.5 130 10:22 20.10.2019
5926 Clouds 26 1016 83 10000 2.6 120 09:57 20.10.2019
5927 Clouds 26 1016 83 10000 2.6 120 09:39 20.10.2019
5928 Clouds 26 1016 83 10000 2.6 120 09:20 20.10.2019
5929 Clouds 26 1015 78 10000 3.1 130 08:45 20.10.2019
5930 Clouds 26 1015 78 10000 3.1 130 08:22 20.10.2019
5931 Clouds 28 1014 74 10000 3.1 140 07:50 20.10.2019
5932 Clouds 28 1014 74 10000 3.1 140 07:30 20.10.2019
5933 Clouds 28 1014 74 10000 3.1 140 07:30 20.10.2019
5934 Clouds 28 1014 69 10000 4.1 120 06:32 20.10.2019
5935 Clouds 29 1014 66 10000 4.6 110 04:46 20.10.2019
5936 Clouds 29 1014 66 10000 4.6 110 04:25 20.10.2019
5937 Clouds 28 1015 69 10000 3.6 160 03:41 20.10.2019
5938 Clouds 28 1015 69 10000 3.6 160 03:18 20.10.2019
5939 Clouds 29 1015 70 10000 3.1 130 02:33 20.10.2019
5940 Clouds 29 1016 70 10000 3.1 140 01:55 20.10.2019
5941 Clouds 29 1016 70 10000 3.1 140 01:23 20.10.2019
5942 Clouds 28 1016 69 10000 3.1 130 00:54 20.10.2019
5943 Clouds 28 1016 69 10000 3.1 130 00:21 20.10.2019
5944 Clouds 27 1016 69 10000 3.1 110 23:55 19.10.2019
5945 Clouds 27 1016 69 10000 3.1 110 23:37 19.10.2019
5946 Clouds 27 1016 69 10000 3.1 110 23:19 19.10.2019
5947 Clouds 26 1016 78 10000 2.1 81.955 22:55 19.10.2019
5948 Clouds 26 1016 78 10000 2.1 81.955 22:37 19.10.2019
5949 Clouds 23 1016 76 0 2.1 81.955 22:18 19.10.2019
5950 Clouds 23 1016 76 0 2.1 81.955 21:43 19.10.2019
5951 Rain 19 1015 99 0 1.25 72.248 21:20 19.10.2019
5952 Rain 19 1015 98 0 1.45 76.452 20:44 19.10.2019
5953 Clouds 21 1015 100 10000 1.45 76.452 20:22 19.10.2019
5954 Clouds 21 1015 100 10000 1.45 76.452 19:56 19.10.2019
5955 Clouds 21 1015 100 10000 1.45 76.452 19:38 19.10.2019
5956 Clouds 21 1015 100 10000 1.5 330 19:20 19.10.2019
5957 Clouds 21 1015 100 10000 1.5 330 18:41 19.10.2019
5958 Clouds 19 1014 98 0 0.91 63.661 18:23 19.10.2019
5959 Clouds 19 1014 98 0 0.91 63.661 17:42 19.10.2019
5960 Clouds 19 1014 98 0 0.91 63.661 17:23 19.10.2019
5961 Clouds 19 1014 98 0 0.91 63.661 16:59 19.10.2019
5962 Clouds 19 1014 98 0 0.91 63.661 16:38 19.10.2019
5963 Clouds 19 1014 98 0 0.91 63.661 16:19 19.10.2019
5964 Clouds 19 1014 98 0 0.91 63.661 15:44 19.10.2019
5965 Clouds 19 1014 98 0 0.91 63.661 15:26 19.10.2019
5966 Clouds 19 1015 99 0 1.4 67.093 14:40 19.10.2019
5967 Clouds 19 1015 99 0 1.4 67.093 14:40 19.10.2019
5968 Clouds 23 1017 94 10000 1.4 67.093 14:21 19.10.2019
5969 Clouds 23 1017 94 10000 1.4 67.093 13:59 19.10.2019
5970 Clouds 23 1017 94 10000 1.4 67.093 13:41 19.10.2019
5971 Clouds 24 1017 94 10000 1.32 64.017 13:21 19.10.2019
5972 Clouds 24 1017 94 10000 1.32 64.017 12:58 19.10.2019
5973 Clouds 24 1017 94 10000 1.32 64.017 12:38 19.10.2019
5974 Clouds 24 1017 94 10000 1.02 84.872 12:20 19.10.2019
5975 Clouds 24 1017 94 10000 1.02 84.872 11:42 19.10.2019
5976 Clouds 24 1017 94 10000 1.02 84.872 11:23 19.10.2019
5977 Clouds 24 1017 94 10000 1.02 84.872 11:23 19.10.2019
5978 Clouds 26 1015 78 10000 1.02 84.872 10:58 19.10.2019
5979 Clouds 26 1015 78 10000 1.02 84.872 10:40 19.10.2019
5980 Clouds 26 1015 78 10000 1.02 84.872 10:22 19.10.2019
5981 Clouds 25 1016 83 10000 1 140 09:55 19.10.2019
5982 Clouds 25 1016 83 10000 1 140 09:37 19.10.2019
5983 Clouds 25 1016 83 10000 1 140 09:18 19.10.2019
5984 Clouds 26 1015 78 10000 2.1 130 08:40 19.10.2019
5985 Clouds 26 1015 78 10000 2.1 130 08:21 19.10.2019
5986 Clouds 27 1015 74 10000 3.6 110 07:46 19.10.2019
5987 Clouds 27 1015 74 10000 3.6 110 07:26 19.10.2019
5988 Clouds 27 1015 74 10000 3.6 110 07:26 19.10.2019
5989 Clouds 28 1014 65 10000 4.1 120 06:48 19.10.2019
5990 Clouds 28 1014 65 10000 4.1 120 06:28 19.10.2019
5991 Clouds 28 1014 69 10000 4.6 130 05:35 19.10.2019
5992 Clear 26 1013 66 0 2.88 99.528 04:26 19.10.2019
5993 Clouds 26 1015 63 0 2.64 91.713 02:50 19.10.2019
5994 Clouds 28 1016 65 10000 4.1 110 01:55 19.10.2019
5995 Clouds 28 1016 65 10000 4.1 110 01:36 19.10.2019
5996 Clouds 28 1016 65 10000 4.6 100 00:49 19.10.2019
5997 Clouds 27 1017 69 10000 5.1 100 00:28 19.10.2019
5998 Clouds 27 1017 69 10000 5.1 100 23:56 18.10.2019
5999 Clouds 27 1017 69 10000 5.1 100 23:36 18.10.2019
6000 Clouds 26 1017 78 10000 3.6 130 23:18 18.10.2019
6001 Clouds 26 1017 78 10000 3.6 130 22:43 18.10.2019
6002 Clouds 26 1017 78 10000 3.6 130 22:43 18.10.2019
6003 Clouds 23 1016 81 0 2.37 80.028 22:21 18.10.2019
6004 Clouds 23 1016 81 0 2.37 80.028 22:21 18.10.2019
6005 Clouds 23 1016 81 0 2.37 80.028 21:59 18.10.2019
6006 Clouds 23 1016 81 0 2.37 80.028 21:39 18.10.2019
6007 Clouds 18 1015 99 0 1.49 68.528 21:20 18.10.2019
6008 Clouds 18 1015 99 0 1.49 68.528 20:58 18.10.2019
6009 Clouds 18 1015 99 0 1.49 68.528 20:40 18.10.2019
6010 Clouds 24 1015 83 10000 1.49 68.528 20:21 18.10.2019
6011 Clouds 24 1015 83 10000 1.49 68.528 19:57 18.10.2019
6012 Clouds 24 1015 83 10000 1.49 68.528 19:57 18.10.2019
6013 Clouds 24 1015 83 10000 1.49 68.528 19:38 18.10.2019
6014 Clouds 24 1015 83 10000 1.49 68.528 19:38 18.10.2019
6015 Clouds 24 1015 83 10000 1.5 140 19:20 18.10.2019
6016 Clouds 24 1015 83 10000 1.5 140 18:55 18.10.2019
6017 Clouds 24 1015 83 10000 1.5 140 18:37 18.10.2019
6018 Clouds 24 1015 88 10000 2.6 130 18:19 18.10.2019
6019 Clouds 24 1015 88 10000 2.6 130 17:39 18.10.2019
6020 Clouds 24 1015 88 10000 2.6 130 17:39 18.10.2019
6021 Clouds 24 1016 88 10000 3.1 140 17:20 18.10.2019
6022 Clouds 24 1016 88 10000 3.1 140 16:56 18.10.2019
6023 Clouds 24 1016 88 10000 3.1 140 16:37 18.10.2019
6024 Rain 19 1014 99 0 1.49 73.168 16:19 18.10.2019
6025 Rain 19 1014 99 0 1.49 73.168 16:19 18.10.2019
6026 Rain 19 1014 99 0 1.49 73.168 15:41 18.10.2019
6027 Rain 20 1016 99 0 1.54 86.864 15:21 18.10.2019
6028 Rain 20 1016 99 0 1.54 86.864 15:21 18.10.2019
6029 Rain 20 1016 99 0 1.54 86.864 14:59 18.10.2019
6030 Rain 20 1016 99 0 1.54 86.864 14:40 18.10.2019
6031 Clouds 25 1017 83 10000 2.6 140 14:22 18.10.2019
6032 Clouds 25 1017 83 10000 2.6 140 13:59 18.10.2019
6033 Clouds 25 1017 83 10000 2.6 140 13:40 18.10.2019
6034 Clouds 25 1017 88 10000 2.1 140 13:22 18.10.2019
6035 Clouds 25 1017 88 10000 2.1 140 13:22 18.10.2019
6036 Clouds 25 1017 88 10000 2.1 140 12:56 18.10.2019
6037 Clouds 25 1017 88 10000 2.1 140 12:38 18.10.2019
6038 -273 0 0 0 0 0 12:20 18.10.2019
6039 -273 0 0 0 0 0 11:55 18.10.2019
6040 Clouds 25 1017 88 10000 2.1 140 11:37 18.10.2019
6041 Clouds 25 1016 83 10000 2.1 140 11:18 18.10.2019
6042 Clouds 25 1016 83 10000 2.1 140 11:18 18.10.2019
6043 Clouds 25 1016 83 10000 2.1 140 10:42 18.10.2019
6044 Rain 20 1016 99 0 1.22 99.94 10:22 18.10.2019
6045 Rain 20 1016 99 0 1.22 99.94 09:58 18.10.2019
6046 Rain 20 1016 99 0 1.22 99.94 09:40 18.10.2019
6047 Rain 20 1015 99 0 1.18 111.459 09:20 18.10.2019
6048 Rain 20 1015 99 0 1.18 111.459 08:57 18.10.2019
6049 Rain 20 1015 99 0 1.18 111.459 08:38 18.10.2019
6050 Clouds 27 1015 74 10000 3.6 150 08:20 18.10.2019
6051 Clouds 27 1015 74 10000 3.6 150 07:41 18.10.2019
6052 Clouds 27 1015 74 10000 4.6 140 07:19 18.10.2019
6053 Clouds 27 1015 74 10000 4.6 140 06:38 18.10.2019
6054 Clouds 28 1015 65 10000 5.1 140 06:19 18.10.2019
6055 Clouds 28 1015 65 10000 5.1 140 05:54 18.10.2019
6056 Clouds 28 1015 74 10000 5.1 130 05:20 18.10.2019
6057 Clouds 28 1016 78 10000 5.7 120 03:42 18.10.2019
6058 Rain 23 1015 95 0 1.25 125.718 03:19 18.10.2019
6059 Clouds 27 1017 74 10000 5.1 130 02:32 18.10.2019
6060 Clouds 27 1017 74 10000 5.1 130 01:42 18.10.2019
6061 Clouds 27 1017 74 10000 5.1 130 01:23 18.10.2019
6062 Clouds 27 1017 74 10000 5.1 130 00:43 18.10.2019
6063 Clouds 27 1017 74 10000 6.2 120 00:20 18.10.2019
6064 Clouds 27 1017 74 10000 6.2 120 00:20 18.10.2019
6065 Clouds 27 1017 74 10000 6.2 120 23:41 17.10.2019
6066 Clouds 26 1017 88 10000 3.6 130 23:21 17.10.2019
6067 Clouds 26 1017 88 10000 3.6 130 22:58 17.10.2019
6068 Clouds 26 1017 88 10000 3.6 130 22:58 17.10.2019
6069 Clouds 26 1017 88 10000 3.6 130 22:39 17.10.2019
6070 Rain 25 1016 88 10000 4.1 120 22:19 17.10.2019
6071 Rain 25 1016 88 10000 4.1 120 21:58 17.10.2019
6072 Rain 25 1016 88 10000 4.1 120 21:39 17.10.2019
6073 Rain 20 1015 99 0 0.96 84.266 21:20 17.10.2019
6074 Rain 19 1014 99 0 0.81 84.677 20:58 17.10.2019
6075 Rain 19 1014 99 0 0.81 84.677 20:39 17.10.2019
6076 Clouds 25 1015 88 10000 2.6 140 20:19 17.10.2019
6077 -273 0 0 0 0 0 19:59 17.10.2019
6078 Clouds 25 1015 88 10000 2.6 140 19:39 17.10.2019
6079 Clouds 25 1014 88 10000 3.1 130 19:19 17.10.2019
6080 Clouds 25 1014 88 10000 3.1 130 19:19 17.10.2019
6081 Clouds 25 1014 88 10000 3.1 130 18:58 17.10.2019
6082 Clouds 25 1014 88 10000 3.1 130 18:38 17.10.2019
6083 Clouds 25 1014 88 10000 3.6 120 18:19 17.10.2019
6084 Clouds 25 1014 88 10000 3.6 120 17:42 17.10.2019
6085 Clouds 25 1015 88 10000 2.1 140 17:23 17.10.2019
6086 Clouds 25 1015 88 10000 2.1 140 16:56 17.10.2019
6087 Clouds 25 1015 88 10000 2.1 140 16:38 17.10.2019
6088 Rain 22 1014 96 0 0.552 177 16:18 17.10.2019
6089 -273 0 0 0 0 0 15:55 17.10.2019
6090 Rain 22 1014 96 0 0.552 177 15:55 17.10.2019
6091 Rain 22 1014 96 0 0.552 177 15:37 17.10.2019
6092 Rain 22 1015 97 0 1.404 116 15:19 17.10.2019
6093 Rain 22 1015 97 0 1.404 116 14:42 17.10.2019
6094 Clouds 25 1016 88 10000 4.6 120 14:23 17.10.2019
6095 Clouds 25 1016 88 10000 4.6 120 13:56 17.10.2019
6096 Clouds 25 1016 88 10000 4.6 120 13:38 17.10.2019
6097 Rain 25 1016 94 10000 2.1 140 13:18 17.10.2019
6098 Rain 25 1016 94 10000 2.1 140 13:18 17.10.2019
6099 Rain 25 1016 94 10000 2.1 140 12:41 17.10.2019
6100 Rain 22 1016 97 0 2.03 110 12:20 17.10.2019
6101 Rain 22 1016 97 0 2.03 110 11:59 17.10.2019
6102 Rain 22 1016 97 0 2.03 110 11:40 17.10.2019
6103 Rain 22 1016 97 0 2.03 110 11:19 17.10.2019
6104 Rain 22 1016 97 0 2.03 110 10:55 17.10.2019
6105 Rain 22 1016 97 0 2.03 110 10:36 17.10.2019
6106 Rain 22 1016 97 0 2.03 110 10:18 17.10.2019
6107 Rain 22 1016 97 0 2.03 110 09:42 17.10.2019
6108 Rain 22 1014 98 0 1.297 121 09:22 17.10.2019
6109 Rain 22 1014 98 0 1.297 121 08:58 17.10.2019
6110 Rain 22 1014 98 0 1.297 121 08:39 17.10.2019
6111 Clouds 26 1014 83 10000 4.1 120 08:21 17.10.2019
6112 Clouds 26 1014 83 10000 4.1 120 08:21 17.10.2019
6113 Clouds 26 1014 83 10000 4.1 120 07:55 17.10.2019
6114 Clouds 26 1014 83 10000 4.1 120 07:55 17.10.2019
6115 Clouds 26 1014 83 10000 4.1 120 07:36 17.10.2019
6116 Clouds 26 1014 83 10000 3.6 130 07:18 17.10.2019
6117 Clouds 26 1014 83 10000 3.6 130 06:40 17.10.2019
6118 Drizzle 26 1014 88 10000 3.1 140 06:20 17.10.2019
6119 Drizzle 26 1014 88 10000 3.1 140 05:51 17.10.2019
6120 Clouds 26 1014 88 10000 3.6 130 05:31 17.10.2019
6121 Clouds 26 1014 88 10000 3.6 130 04:52 17.10.2019
6122 Rain 23 1013 98 0 0.581 110 03:55 17.10.2019
6123 Rain 23 1014 98 0 0.443 160 02:36 17.10.2019
6124 Clouds 27 1015 83 10000 4.1 140 00:57 17.10.2019
6125 Clouds 27 1015 83 10000 4.1 140 00:38 17.10.2019
6126 Rain 26 1015 88 10000 2.6 140 00:18 17.10.2019
6127 Rain 26 1015 88 10000 2.6 140 23:42 16.10.2019
6128 Clouds 26 1015 88 10000 2.6 130 23:21 16.10.2019
6129 Clouds 26 1015 88 10000 2.6 130 23:21 16.10.2019
6130 Clouds 26 1015 88 10000 2.6 130 23:21 16.10.2019
6131 Clouds 26 1015 88 10000 2.6 130 22:56 16.10.2019
6132 Clouds 26 1015 88 10000 2.6 130 22:37 16.10.2019
6133 Rain 22 1015 97 0 0.394 187 22:18 16.10.2019
6134 Rain 22 1015 97 0 0.394 187 21:56 16.10.2019
6135 Rain 22 1015 98 0 0.819 50 21:37 16.10.2019
6136 Rain 22 1013 97 0 0.847 111 21:18 16.10.2019
6137 Rain 22 1013 97 0 0.847 111 20:57 16.10.2019
6138 Rain 22 1013 97 0 0.847 111 20:38 16.10.2019
6139 Clouds 25 1013 88 10000 1.5 140 20:20 16.10.2019
6140 Clouds 25 1013 88 10000 1.5 140 19:57 16.10.2019
6141 Clouds 25 1013 88 10000 1.5 140 19:38 16.10.2019
6142 Clouds 25 1013 88 10000 1.5 140 19:38 16.10.2019
6143 Clouds 24 1013 94 10000 1.5 140 19:19 16.10.2019
6144 Clouds 24 1013 94 10000 1.5 140 18:39 16.10.2019
6145 -273 0 0 0 0 0 18:39 16.10.2019
6146 Clouds 24 1013 94 10000 1.5 140 18:19 16.10.2019
6147 Clouds 24 1013 94 10000 1.5 140 17:56 16.10.2019
6148 Clouds 24 1013 94 10000 1.5 140 17:38 16.10.2019
6149 Rain 22 1012 97 0 0.182 307 17:20 16.10.2019
6150 -273 0 0 0 0 0 16:58 16.10.2019
6151 Rain 22 1012 97 0 0.182 307 16:40 16.10.2019
6152 Rain 22 1012 97 0 0.182 307 16:20 16.10.2019
6153 Rain 22 1012 97 0 0.182 307 15:56 16.10.2019
6154 Rain 22 1012 97 0 0.182 307 15:55 16.10.2019
6155 Rain 22 1012 97 0 0.182 307 15:36 16.10.2019
6156 Clouds 22 1013 96 0 0.45 265 15:18 16.10.2019
6157 Clouds 22 1013 96 0 0.45 265 14:55 16.10.2019
6158 Rain 22 1013 97 0 0.411 260 14:36 16.10.2019
6159 Clouds 24 1014 94 10000 2.1 150 14:18 16.10.2019
6160 Clouds 24 1014 94 10000 2.1 150 13:42 16.10.2019
6161 Clouds 24 1014 94 10000 2.1 150 13:23 16.10.2019
6162 Clouds 24 1014 94 10000 2.1 160 12:57 16.10.2019
6163 Clouds 24 1014 94 10000 2.1 160 12:39 16.10.2019
6164 Clouds 24 1014 94 10000 2.1 160 12:18 16.10.2019
6165 Rain 24 1014 94 10000 1 0 11:42 16.10.2019
6166 Rain 24 1014 94 10000 1 0 11:42 16.10.2019
6167 Rain 24 1014 94 10000 1 0 11:18 16.10.2019
6168 Rain 24 1014 94 10000 1 0 11:18 16.10.2019
6169 Clouds 25 1014 88 10000 1 0 10:38 16.10.2019
6170 Clouds 25 1014 88 10000 1 0 10:20 16.10.2019
6171 -273 0 0 0 0 0 09:55 16.10.2019
6172 Rain 23 1014 97 0 1.929 189 09:36 16.10.2019
6173 Rain 23 1012 96 0 0.711 173 09:18 16.10.2019
6174 Rain 23 1012 96 0 0.711 173 08:42 16.10.2019
6175 Clouds 26 1012 88 10000 1 0 08:23 16.10.2019
6176 Clouds 26 1012 88 10000 1 0 07:45 16.10.2019
6177 -273 0 0 0 0 0 07:25 16.10.2019
6178 Clouds 27 1011 78 10000 1 0 06:58 16.10.2019
6179 Clouds 27 1011 78 10000 1 0 06:39 16.10.2019
6180 Clouds 28 1011 69 10000 1 0 05:44 16.10.2019
6181 Clouds 27 1012 83 10000 3.1 60 02:58 16.10.2019
6182 Clouds 27 1012 83 10000 3.1 60 02:38 16.10.2019
6183 Clouds 27 1012 88 10000 3.6 60 01:19 16.10.2019
6184 Clouds 26 1012 94 10000 3.1 60 00:47 16.10.2019
6185 Clouds 26 1012 94 10000 3.1 60 00:27 16.10.2019
6186 Clouds 27 1013 83 10000 2.1 40 23:40 15.10.2019
6187 Clouds 27 1013 83 10000 2.1 40 23:22 15.10.2019
6188 Rain 27 1012 83 10000 1 330 22:56 15.10.2019
6189 Rain 27 1012 83 10000 1 330 22:38 15.10.2019
6190 Rain 27 1012 83 10000 1 330 22:19 15.10.2019
6191 Clouds 25 1012 88 10000 1 290 21:56 15.10.2019
6192 Clouds 25 1012 88 10000 1 290 21:38 15.10.2019
6193 Clouds 25 1012 88 10000 1 290 21:19 15.10.2019
6194 Clouds 23 1011 94 10000 1.533 7 20:57 15.10.2019
6195 Clouds 23 1011 94 10000 1.533 7 20:38 15.10.2019
6196 Clouds 23 1011 94 10000 1.533 7 20:20 15.10.2019
6197 Clouds 23 1011 94 10000 1.533 7 19:56 15.10.2019
6198 Clouds 23 1011 94 10000 1.533 7 19:56 15.10.2019
6199 Clouds 23 1011 94 10000 1.533 7 19:37 15.10.2019
6200 Clouds 23 1011 94 10000 1.533 7 19:37 15.10.2019
6201 Clouds 23 1011 94 10000 1.533 7 19:19 15.10.2019
6202 Clouds 23 1010 94 10000 1.533 7 18:44 15.10.2019
6203 Clouds 23 1010 94 10000 1.5 10 18:26 15.10.2019
6204 Clouds 23 1010 94 10000 1.5 10 17:56 15.10.2019
6205 Clouds 23 1010 94 10000 1.5 10 17:38 15.10.2019
6206 Clouds 23 1010 94 10000 1.5 10 17:19 15.10.2019
6207 Clouds 23 1010 94 10000 0.959 19 16:45 15.10.2019
6208 Clouds 23 1010 94 10000 0.959 19 16:45 15.10.2019
6209 Clouds 23 1010 94 10000 0.959 19 16:22 15.10.2019
6210 Clouds 24 1011 94 10000 0.959 19 15:58 15.10.2019
6211 Clouds 24 1011 94 10000 0.959 19 15:39 15.10.2019
6212 Clouds 24 1011 94 10000 1.266 25 15:20 15.10.2019
6213 Clouds 24 1012 94 10000 1.5 310 14:56 15.10.2019
6214 Clouds 24 1012 94 10000 1.5 310 14:37 15.10.2019
6215 Clouds 24 1012 94 10000 1.5 310 14:37 15.10.2019
6216 Clouds 24 1012 94 10000 1.5 310 14:19 15.10.2019
6217 Clouds 24 1012 94 10000 2.1 310 13:43 15.10.2019
6218 Clouds 24 1012 94 10000 2.1 310 13:43 15.10.2019
6219 Clouds 24 1012 94 10000 2.1 310 13:21 15.10.2019
6220 Clouds 25 1012 88 10000 1 0 12:57 15.10.2019
6221 Clouds 25 1012 88 10000 1 0 12:38 15.10.2019
6222 Clouds 25 1011 94 10000 1 0 12:20 15.10.2019
6223 Clouds 25 1011 94 10000 1 0 11:44 15.10.2019
6224 Clouds 25 1011 94 10000 1 0 11:20 15.10.2019
6225 Clouds 26 1011 88 10000 1.5 210 10:56 15.10.2019
6226 Clouds 26 1011 88 10000 1.5 210 10:38 15.10.2019
6227 Clouds 26 1011 88 10000 1.5 210 10:18 15.10.2019
6228 Clouds 26 1010 83 10000 2.6 230 09:55 15.10.2019
6229 Clouds 26 1010 83 10000 2.6 230 09:55 15.10.2019
6230 Clouds 26 1010 83 10000 2.6 230 09:36 15.10.2019
6231 Clouds 26 1010 83 10000 2.6 230 09:36 15.10.2019
6232 Rain 22 1010 98 0 0.63 170.329 09:18 15.10.2019
6233 Rain 22 1010 97 0 0.41 154.187 08:41 15.10.2019
6234 Clouds 30 1009 70 10000 1 0 08:21 15.10.2019
6235 Clouds 30 1009 70 10000 1 0 07:48 15.10.2019
6236 Clouds 30 1009 70 10000 1 0 07:23 15.10.2019
6237 Clouds 29 1009 70 10000 2.1 350 06:58 15.10.2019
6238 Clouds 29 1009 70 10000 2.1 350 06:40 15.10.2019
6239 Clouds 29 1009 70 10000 3.1 350 05:58 15.10.2019
6240 Clouds 29 1009 70 10000 3.1 350 05:37 15.10.2019
6241 Clouds 28 1010 78 10000 3.6 10 04:53 15.10.2019
6242 Clouds 28 1010 78 10000 3.6 10 04:19 15.10.2019
6243 Clouds 28 1011 78 10000 4.6 350 03:35 15.10.2019
6244 Clouds 28 1011 78 10000 4.6 350 03:35 15.10.2019
6245 Clouds 27 1011 78 10000 3.6 360 01:59 15.10.2019
6246 Clouds 27 1011 78 10000 3.6 360 01:40 15.10.2019
6247 Clouds 27 1012 78 10000 3.1 10 00:59 15.10.2019
6248 Clouds 27 1012 78 10000 3.1 10 00:59 15.10.2019
6249 Clouds 27 1012 78 10000 3.1 10 00:26 15.10.2019
6250 Clouds 27 1012 78 10000 1.5 0 23:59 14.10.2019
6251 Clouds 27 1012 78 10000 1.5 0 23:37 14.10.2019
6252 Clouds 27 1012 78 10000 1.5 0 23:37 14.10.2019
6253 Clouds 27 1012 78 10000 1.5 0 23:18 14.10.2019
6254 Clouds 25 1012 88 10000 3.1 260 22:39 14.10.2019
6255 Clouds 25 1012 88 10000 3.1 260 22:21 14.10.2019
6256 Clouds 24 1012 94 10000 3.6 220 21:58 14.10.2019
6257 Clouds 24 1012 94 10000 3.6 220 21:40 14.10.2019
6258 Clouds 24 1012 94 10000 3.6 220 21:21 14.10.2019
6259 Clouds 24 1012 94 10000 3.6 220 21:21 14.10.2019
6260 Clouds 24 1011 94 10000 1 6.391 20:58 14.10.2019
6261 Clouds 24 1011 94 10000 1 6.391 20:38 14.10.2019
6262 Clouds 24 1011 94 10000 1 6.391 20:38 14.10.2019
6263 Clouds 24 1011 94 10000 1 6.391 20:19 14.10.2019
6264 Clouds 24 1011 94 10000 1.5 330 19:44 14.10.2019
6265 Clouds 24 1011 94 10000 1.5 330 19:26 14.10.2019
6266 Clouds 24 1010 94 10000 1.5 340 18:59 14.10.2019
6267 Clouds 24 1010 94 10000 1.5 340 18:40 14.10.2019
6268 Clouds 24 1010 94 10000 1.5 340 18:21 14.10.2019
6269 Clouds 24 1010 94 10000 3.1 340 17:59 14.10.2019
6270 Clouds 24 1010 94 10000 3.1 340 17:41 14.10.2019
6271 Clouds 24 1010 94 10000 3.1 340 17:22 14.10.2019
6272 Clouds 24 1010 94 10000 2.6 350 16:45 14.10.2019
6273 Clouds 24 1010 94 10000 2.6 350 16:22 14.10.2019
6274 Clouds 24 1011 94 10000 1.5 280 15:58 14.10.2019
6275 Clouds 24 1011 94 10000 1.5 280 15:38 14.10.2019
6276 Clouds 24 1011 94 10000 1.5 280 15:20 14.10.2019
6277 Clouds 24 1011 94 10000 2.1 360 14:43 14.10.2019
6278 Clouds 24 1011 94 10000 2.1 360 14:24 14.10.2019
6279 Clouds 20 1011 98 0 0.98 11.447 13:57 14.10.2019
6280 Clouds 20 1011 98 0 0.98 11.447 13:38 14.10.2019
6281 Clouds 26 1012 83 10000 2.6 50 13:19 14.10.2019
6282 Clouds 26 1012 83 10000 2.6 50 12:40 14.10.2019
6283 Clouds 26 1012 83 10000 2.6 50 12:40 14.10.2019
6284 Clouds 26 1012 83 10000 2.6 50 12:19 14.10.2019
6285 Clouds 26 1012 83 10000 2.6 50 12:19 14.10.2019
6286 Clouds 26 1012 83 10000 2.1 70 11:47 14.10.2019
6287 Clouds 26 1012 83 10000 2.1 70 11:27 14.10.2019
6288 Clouds 26 1012 83 10000 2.6 50 10:59 14.10.2019
6289 Clouds 26 1012 83 10000 2.6 50 10:40 14.10.2019
6290 Clouds 26 1012 83 10000 2.6 50 10:20 14.10.2019
6291 Clouds 26 1011 83 10000 3.1 60 09:56 14.10.2019
6292 Clouds 26 1011 83 10000 3.1 60 09:37 14.10.2019
6293 Clouds 26 1011 83 10000 3.1 60 09:18 14.10.2019
6294 Clouds 27 1011 78 10000 2.6 60 08:44 14.10.2019
6295 Clouds 27 1011 78 10000 2.6 60 08:22 14.10.2019
6296 Clouds 27 1010 78 10000 3.6 60 07:42 14.10.2019
6297 Clouds 27 1010 78 10000 3.6 60 07:19 14.10.2019
6298 Clouds 28 1010 69 10000 4.1 60 06:48 14.10.2019
6299 Clouds 28 1010 69 10000 4.1 60 06:20 14.10.2019
6300 Clouds 29 1011 70 10000 3.6 80 05:49 14.10.2019
6301 Clouds 28 1011 74 10000 4.1 40 04:43 14.10.2019
6302 Rain 26 1009 81 0 0.71 129.261 03:27 14.10.2019
6303 Clouds 29 1012 56 0 1.25 57.853 02:42 14.10.2019
6304 Clouds 27 1013 74 10000 5.1 80 01:23 14.10.2019
6305 Clouds 27 1013 74 10000 5.1 80 00:56 14.10.2019
6306 Clouds 27 1013 74 10000 6.2 80 00:19 14.10.2019
6307 Clouds 27 1013 74 10000 6.2 80 23:45 13.10.2019
6308 Clouds 26 1013 78 10000 5.1 80 23:20 13.10.2019
6309 Clouds 26 1013 78 10000 5.1 80 22:58 13.10.2019
6310 -273 0 0 0 0 0 22:40 13.10.2019
6311 Clouds 26 1013 78 10000 5.1 80 22:21 13.10.2019
6312 Clouds 25 1012 83 10000 3.6 80 21:58 13.10.2019
6313 Clouds 25 1012 83 10000 3.6 80 21:37 13.10.2019
6314 Clouds 25 1012 83 10000 3.6 80 21:19 13.10.2019
6315 Clouds 24 1012 94 10000 2.6 80 20:57 13.10.2019
6316 Clouds 24 1012 94 10000 2.6 80 20:57 13.10.2019
6317 Clouds 24 1012 94 10000 2.6 80 20:57 13.10.2019
6318 Clouds 24 1012 94 10000 2.6 80 20:57 13.10.2019
6319 Clouds 24 1012 94 10000 2.6 80 20:38 13.10.2019
6320 Clouds 24 1012 94 10000 2.6 80 20:20 13.10.2019
6321 Clouds 24 1012 94 10000 3.1 100 19:57 13.10.2019
6322 Clouds 24 1012 94 10000 3.1 100 19:39 13.10.2019
6323 Clouds 24 1012 94 10000 3.1 100 19:39 13.10.2019
6324 Clouds 24 1012 94 10000 3.1 100 19:21 13.10.2019
6325 Clouds 24 1013 94 10000 3.6 100 18:56 13.10.2019
6326 Clouds 24 1013 94 10000 3.6 100 18:36 13.10.2019
6327 Clouds 24 1013 94 10000 3.6 100 18:18 13.10.2019
6328 Clouds 24 1013 94 10000 2.1 100 17:55 13.10.2019
6329 Clouds 24 1013 94 10000 2.1 100 17:36 13.10.2019
6330 Clouds 24 1013 94 10000 2.1 100 17:18 13.10.2019
6331 Clouds 24 1014 94 10000 2.6 110 16:41 13.10.2019
6332 Clouds 24 1014 94 10000 2.6 110 16:18 13.10.2019
6333 Clouds 25 1014 94 10000 3.1 100 15:56 13.10.2019
6334 Clouds 25 1014 94 10000 3.1 100 15:37 13.10.2019
6335 Clouds 25 1014 94 10000 3.1 100 15:37 13.10.2019
6336 Rain 19 1014 98 0 1.19 54.704 15:18 13.10.2019
6337 Rain 19 1014 98 0 1.19 54.704 14:56 13.10.2019
6338 Rain 19 1014 98 0 1.19 54.704 14:38 13.10.2019
6339 Clouds 25 1015 94 10000 4.1 100 14:19 13.10.2019
6340 Clouds 25 1015 94 10000 4.1 100 13:41 13.10.2019
6341 Clouds 25 1016 94 10000 3.6 110 13:22 13.10.2019
6342 Clouds 25 1016 94 10000 3.6 110 12:59 13.10.2019
6343 Clouds 25 1016 94 10000 3.6 110 12:39 13.10.2019
6344 Clouds 25 1015 94 10000 3.6 90 12:20 13.10.2019
6345 Clouds 25 1015 94 10000 3.6 90 11:58 13.10.2019
6346 Clouds 25 1015 94 10000 3.6 90 11:39 13.10.2019
6347 Clouds 25 1015 88 10000 3.6 100 11:20 13.10.2019
6348 Clouds 25 1015 88 10000 3.6 100 10:43 13.10.2019
6349 Clouds 26 1014 83 10000 2.6 100 10:24 13.10.2019
6350 Clouds 26 1014 83 10000 2.6 100 09:59 13.10.2019
6351 Clouds 26 1014 83 10000 2.6 100 09:39 13.10.2019
6352 Rain 22 1013 93 0 1.85 74.807 09:20 13.10.2019
6353 Rain 22 1013 92 0 1.64 82.325 08:43 13.10.2019
6354 Clouds 27 1013 88 10000 5.1 90 08:25 13.10.2019
6355 Clouds 27 1013 88 10000 5.1 90 08:25 13.10.2019
6356 Clouds 27 1013 88 10000 5.1 90 07:51 13.10.2019
6357 Rain 26 1013 88 10000 4.6 110 07:32 13.10.2019
6358 Rain 26 1013 88 10000 4.6 110 06:51 13.10.2019
6359 Clouds 28 1013 74 10000 5.1 90 06:23 13.10.2019
6360 Clouds 29 1014 70 10000 5.7 90 04:59 13.10.2019
6361 Clouds 29 1014 70 10000 5.7 90 04:33 13.10.2019
6362 Clouds 29 1014 74 10000 6.2 80 02:53 13.10.2019
6363 Clouds 29 1014 74 10000 6.2 80 02:27 13.10.2019
6364 Clouds 28 1015 78 10000 4.6 80 01:34 13.10.2019
6365 Clouds 29 1016 74 10000 6.2 90 00:53 13.10.2019
6366 Clouds 29 1016 74 10000 6.2 90 00:23 13.10.2019
6367 Clouds 28 1015 78 10000 5.7 110 23:59 12.10.2019
6368 Clouds 28 1015 78 10000 5.7 110 23:41 12.10.2019
6369 Clouds 28 1015 78 10000 5.7 110 23:22 12.10.2019
6370 Clouds 27 1015 83 10000 4.6 100 22:58 12.10.2019
6371 Clouds 27 1015 83 10000 4.6 100 22:40 12.10.2019
6372 Clouds 26 1015 88 10000 2.6 100 22:21 12.10.2019
6373 Clouds 26 1015 88 10000 2.6 100 21:57 12.10.2019
6374 Clouds 26 1015 88 10000 2.6 100 21:38 12.10.2019
6375 Rain 21 1014 98 0 2.09 74.543 21:20 12.10.2019
6376 Rain 21 1014 98 0 1.69 72.316 20:45 12.10.2019
6377 Clouds 25 1014 94 10000 2.6 80 20:27 12.10.2019
6378 Clouds 25 1014 94 10000 2.6 80 19:42 12.10.2019
6379 Clouds 25 1015 94 10000 3.1 80 19:23 12.10.2019
6380 Clouds 25 1015 94 10000 3.1 80 18:59 12.10.2019
6381 Clouds 25 1015 94 10000 3.1 80 18:41 12.10.2019
6382 Clouds 25 1015 94 10000 3.1 80 18:41 12.10.2019
6383 Clouds 25 1014 94 10000 3.1 80 18:23 12.10.2019
6384 Clouds 25 1014 94 10000 3.1 80 17:45 12.10.2019
6385 Clouds 25 1015 94 10000 2.6 80 17:21 12.10.2019
6386 Clouds 25 1015 94 10000 2.6 80 16:57 12.10.2019
6387 Clouds 25 1015 94 10000 2.6 80 16:38 12.10.2019
6388 Clouds 25 1015 94 10000 3.1 80 16:19 12.10.2019
6389 Clouds 25 1015 94 10000 3.1 80 15:44 12.10.2019
6390 Rain 21 1014 99 0 1.65 62.298 15:25 12.10.2019
6391 Rain 21 1014 99 0 1.65 62.298 15:25 12.10.2019
6392 Rain 21 1014 99 0 1.65 62.298 15:25 12.10.2019
6393 Rain 21 1014 99 0 1.65 62.298 15:25 12.10.2019
6394 Rain 21 1015 99 0 1.35 61.823 14:57 12.10.2019
6395 Rain 21 1015 99 0 1.35 61.823 14:38 12.10.2019
6396 Clouds 26 1016 88 10000 3.1 80 14:19 12.10.2019
6397 Clouds 26 1016 88 10000 3.1 80 13:44 12.10.2019
6398 Clouds 26 1017 88 10000 1.5 60 13:26 12.10.2019
6399 Clouds 26 1017 88 10000 1.5 60 12:40 12.10.2019
6400 Clouds 26 1017 88 10000 1.5 60 12:40 12.10.2019
6401 Clouds 26 1017 88 10000 1.5 60 12:22 12.10.2019
6402 Clouds 25 1017 94 10000 1.5 90 11:59 12.10.2019
6403 Clouds 25 1017 94 10000 1.5 90 11:40 12.10.2019
6404 Clouds 25 1017 94 10000 1.5 90 11:22 12.10.2019
6405 Clouds 25 1016 100 10000 2.6 100 10:56 12.10.2019
6406 Clouds 25 1016 100 10000 2.6 100 10:36 12.10.2019
6407 Clouds 25 1016 100 10000 2.6 100 10:18 12.10.2019
6408 Clouds 26 1015 88 10000 2.6 110 09:55 12.10.2019
6409 Clouds 26 1015 88 10000 2.6 110 09:54 12.10.2019
6410 Clouds 26 1015 88 10000 2.6 110 09:36 12.10.2019
6411 Clouds 26 1015 88 10000 2.6 110 09:18 12.10.2019
6412 Clouds 26 1015 88 10000 2.6 110 09:18 12.10.2019
6413 Clouds 26 1014 83 10000 4.6 100 08:40 12.10.2019
6414 Clouds 26 1014 83 10000 4.6 100 08:20 12.10.2019
6415 Clouds 27 1014 83 10000 4.1 110 07:35 12.10.2019
6416 Clouds 27 1014 83 10000 4.1 110 07:35 12.10.2019
6417 Clouds 28 1014 69 10000 4.1 80 06:57 12.10.2019
6418 Clouds 30 1014 70 10000 5.7 60 05:48 12.10.2019
6419 Clouds 30 1014 70 10000 5.7 60 05:23 12.10.2019
6420 Clouds 29 1014 70 10000 5.1 90 04:24 12.10.2019
6421 Rain 27 1013 71 0 2.36 82.33 03:33 12.10.2019
6422 Clouds 29 1016 70 10000 5.1 80 01:50 12.10.2019
6423 Clouds 29 1016 70 10000 5.1 90 01:21 12.10.2019
6424 Clouds 29 1016 70 10000 5.1 90 00:42 12.10.2019
6425 Clouds 27 1016 83 10000 4.6 110 23:59 11.10.2019
6426 Clouds 27 1016 83 10000 4.6 110 23:40 11.10.2019
6427 Clouds 28 1016 83 10000 4.6 90 23:20 11.10.2019
6428 Clouds 28 1016 83 10000 4.6 90 22:41 11.10.2019
6429 Clouds 27 1015 83 10000 1.94 74.233 22:21 11.10.2019
6430 Clouds 27 1015 83 10000 1.94 74.233 21:57 11.10.2019
6431 Clouds 27 1015 83 10000 1.94 74.233 21:39 11.10.2019
6432 Clouds 20 1014 99 0 1.36 54.075 21:20 11.10.2019
6433 Clouds 20 1014 99 0 1.57 52.991 20:44 11.10.2019
6434 Clouds 25 1014 94 10000 2.1 110 20:26 11.10.2019
6435 Clouds 25 1014 94 10000 2.1 110 19:58 11.10.2019
6436 Clouds 25 1014 94 10000 2.1 110 19:39 11.10.2019
6437 Clouds 20 1014 99 0 1.57 52.991 19:18 11.10.2019
6438 Clouds 20 1014 99 0 1.57 52.991 18:58 11.10.2019
6439 Clouds 20 1014 99 0 1.57 52.991 18:38 11.10.2019
6440 Clouds 20 1014 99 0 1.57 52.991 18:38 11.10.2019
6441 Rain 25 1013 94 10000 1.5 110 18:19 11.10.2019
6442 Rain 25 1013 94 10000 1.5 110 17:58 11.10.2019
6443 Rain 25 1013 94 10000 1.5 110 17:38 11.10.2019
6444 Clouds 25 1013 100 10000 1.28 51.71 17:19 11.10.2019
6445 Clouds 25 1013 100 10000 1.28 51.71 16:56 11.10.2019
6446 Clouds 25 1013 100 10000 1.28 51.71 16:37 11.10.2019
6447 Clouds 25 1014 94 10000 1.28 51.71 16:18 11.10.2019
6448 Clouds 25 1014 94 10000 1.28 51.71 15:41 11.10.2019
6449 Clouds 20 1013 98 0 1.43 43.158 15:20 11.10.2019
6450 Clouds 20 1013 98 0 1.43 43.158 14:58 11.10.2019
6451 Clouds 20 1013 98 0 1.43 43.158 14:58 11.10.2019
6452 Clouds 20 1013 98 0 1.43 43.158 14:37 11.10.2019
6453 Clouds 25 1014 94 10000 1 0 14:19 11.10.2019
6454 Clouds 25 1014 94 10000 1 0 13:40 11.10.2019
6455 Clouds 25 1014 94 10000 1 0 13:22 11.10.2019
6456 Clouds 25 1014 94 10000 1 0 12:56 11.10.2019
6457 Clouds 25 1014 94 10000 1 0 12:38 11.10.2019
6458 Clouds 25 1014 94 10000 1 0 12:20 11.10.2019
6459 Clouds 25 1014 94 10000 1 0 11:55 11.10.2019
6460 Clouds 25 1014 94 10000 1 0 11:36 11.10.2019
6461 Clouds 26 1013 88 10000 1 0 11:18 11.10.2019
6462 Clouds 26 1013 88 10000 1 0 10:41 11.10.2019
6463 Clouds 26 1013 88 10000 2.6 90 10:23 11.10.2019
6464 Clouds 26 1013 88 10000 2.6 90 09:57 11.10.2019
6465 Clouds 26 1013 88 10000 2.6 90 09:38 11.10.2019
6466 Rain 22 1012 95 0 1.41 58.47 09:20 11.10.2019
6467 Rain 22 1012 95 0 1.41 58.47 08:55 11.10.2019
6468 Rain 22 1012 95 0 1.41 58.47 08:37 11.10.2019
6469 Clouds 27 1012 83 10000 5.1 90 08:19 11.10.2019
6470 Clouds 27 1012 83 10000 5.1 90 07:44 11.10.2019
6471 Clouds 27 1012 83 10000 5.1 90 07:44 11.10.2019
6472 Clouds 28 1011 74 10000 5.1 90 07:25 11.10.2019
6473 Clouds 28 1011 74 10000 5.1 90 06:49 11.10.2019
6474 Clouds 29 1011 70 10000 5.1 70 06:24 11.10.2019
6475 Clouds 29 1011 70 10000 5.1 70 05:41 11.10.2019
6476 Clouds 30 1012 70 10000 5.7 60 04:59 11.10.2019
6477 Rain 27 1010 69 0 2.6 77.748 04:25 11.10.2019
6478 Rain 28 1012 59 0 2.25 69.05 02:41 11.10.2019
6479 Clouds 29 1013 74 10000 4.6 60 00:51 11.10.2019
6480 Clouds 28 1014 74 10000 5.1 70 00:29 11.10.2019
6481 Clouds 28 1014 74 10000 5.1 70 23:46 10.10.2019
6482 Clouds 27 1014 78 10000 3.1 70 23:23 10.10.2019
6483 Clouds 27 1014 78 10000 3.1 70 22:58 10.10.2019
6484 Clouds 27 1014 78 10000 3.1 70 22:39 10.10.2019
6485 Clouds 27 1014 78 10000 3.1 70 22:21 10.10.2019
6486 Clouds 25 1013 94 10000 2.16 57.665 21:58 10.10.2019
6487 Clouds 25 1013 94 10000 2.16 57.665 21:58 10.10.2019
6488 Clouds 25 1013 94 10000 2.16 57.665 21:39 10.10.2019
6489 Clouds 25 1013 94 10000 1.36 35.244 21:21 10.10.2019
6490 Clouds 23 1012 100 10000 1.38 39.003 20:43 10.10.2019
6491 Clouds 23 1012 100 10000 1.38 39.003 20:22 10.10.2019
6492 Clouds 23 1012 94 10000 1.38 39.003 19:59 10.10.2019
6493 Clouds 23 1012 94 10000 1.38 39.003 19:41 10.10.2019
6494 Clouds 23 1012 94 10000 1.38 39.003 19:21 10.10.2019
6495 Clouds 23 1011 94 10000 1.38 39.003 18:59 10.10.2019
6496 Clouds 23 1011 94 10000 1.38 39.003 18:40 10.10.2019
6497 Clouds 23 1011 94 10000 1.24 37.156 18:20 10.10.2019
6498 Clouds 23 1011 100 10000 1.24 37.156 17:55 10.10.2019
6499 Clouds 23 1011 100 10000 1.24 37.156 17:55 10.10.2019
6500 Clouds 23 1011 100 10000 1.24 37.156 17:37 10.10.2019
6501 Clouds 23 1011 100 10000 1.24 37.156 17:18 10.10.2019
6502 Clouds 24 1012 94 10000 1.5 100 16:44 10.10.2019
6503 -273 0 0 0 0 0 16:26 10.10.2019
6504 Clouds 24 1013 94 10000 1.24 37.156 15:57 10.10.2019
6505 Clouds 24 1013 94 10000 1.24 37.156 15:37 10.10.2019
6506 Clouds 24 1013 94 10000 1.12 52.403 15:19 10.10.2019
6507 Clouds 25 1013 88 10000 1.5 100 14:54 10.10.2019
6508 Clouds 25 1013 88 10000 1.5 100 14:36 10.10.2019
6509 Clouds 25 1013 88 10000 1.5 100 14:18 10.10.2019
6510 Clouds 25 1013 88 10000 1.5 90 13:41 10.10.2019
6511 Clouds 25 1013 88 10000 1.5 90 13:23 10.10.2019
6512 Clouds 25 1013 88 10000 3.1 110 12:57 10.10.2019
6513 Clouds 25 1013 88 10000 3.1 110 12:39 10.10.2019
6514 Clouds 25 1013 88 10000 2.6 100 12:20 10.10.2019
6515 Clouds 25 1013 88 10000 2.6 100 11:55 10.10.2019
6516 Clouds 25 1013 88 10000 2.6 100 11:37 10.10.2019
6517 Clouds 25 1013 88 10000 2.6 100 11:18 10.10.2019
6518 Clouds 25 1013 88 10000 2.6 100 10:44 10.10.2019
6519 Clouds 25 1012 88 10000 3.1 110 10:26 10.10.2019
6520 Clouds 25 1012 88 10000 3.1 110 09:56 10.10.2019
6521 Clouds 25 1012 88 10000 3.1 110 09:38 10.10.2019
6522 Rain 21 1011 98 0 1.16 91.579 09:19 10.10.2019
6523 Rain 21 1011 98 0 1.16 91.579 08:42 10.10.2019
6524 Clouds 27 1011 78 10000 5.1 110 08:24 10.10.2019
6525 Clouds 27 1011 78 10000 5.1 110 07:59 10.10.2019
6526 Clouds 27 1011 78 10000 5.1 110 07:40 10.10.2019
6527 Clouds 27 1010 78 10000 6.2 100 07:20 10.10.2019
6528 Clouds 27 1010 78 10000 6.2 100 06:45 10.10.2019
6529 Clouds 27 1010 78 10000 5.7 110 06:24 10.10.2019
6530 Clouds 29 1011 74 10000 5.7 90 05:25 10.10.2019
6531 Clouds 29 1011 74 10000 5.7 90 04:37 10.10.2019
6532 Clouds 27 1011 78 10000 5.1 110 03:27 10.10.2019
6533 Clouds 28 1013 74 10000 4.1 80 01:42 10.10.2019
6534 Clouds 28 1013 74 10000 4.1 80 01:24 10.10.2019
6535 Clouds 28 1013 74 10000 4.1 50 00:45 10.10.2019
6536 Clouds 28 1013 74 10000 4.1 50 00:20 10.10.2019
6537 Clouds 27 1013 83 10000 3.6 80 23:39 09.10.2019
6538 Clouds 27 1013 83 10000 3.6 80 23:20 09.10.2019
6539 Clouds 26 1013 88 10000 1.5 110 22:43 09.10.2019
6540 Clouds 24 1013 94 10000 1.62 72.29 22:24 09.10.2019
6541 Clouds 24 1013 94 10000 1.62 72.29 21:59 09.10.2019
6542 Clouds 24 1013 94 10000 1.62 72.29 21:59 09.10.2019
6543 Clouds 24 1013 94 10000 1.62 72.29 21:39 09.10.2019
6544 Clouds 19 1012 99 0 1.05 35.462 21:20 09.10.2019
6545 Clouds 19 1012 99 0 1.19 28.007 20:56 09.10.2019
6546 Clouds 19 1012 99 0 1.19 28.007 20:37 09.10.2019
6547 Clouds 24 1012 94 10000 1.5 120 20:18 09.10.2019
6548 Clouds 24 1012 94 10000 1.5 120 20:18 09.10.2019
6549 Clouds 24 1012 94 10000 1.5 120 19:45 09.10.2019
6550 Clouds 24 1011 94 10000 1.5 140 19:24 09.10.2019
6551 Clouds 24 1011 94 10000 1.5 140 18:58 09.10.2019
6552 Clouds 24 1011 94 10000 1.5 140 18:37 09.10.2019
6553 Clouds 24 1011 94 10000 2.1 100 18:18 09.10.2019
6554 Clouds 24 1011 94 10000 2.1 100 17:55 09.10.2019
6555 Clouds 24 1011 94 10000 2.1 100 17:36 09.10.2019
6556 Clouds 24 1012 94 10000 2.6 120 17:18 09.10.2019
6557 Clouds 24 1012 94 10000 2.6 120 16:41 09.10.2019
6558 Rain 24 1013 100 10000 1.1 42.158 16:22 09.10.2019
6559 Rain 24 1013 100 10000 1.1 42.158 15:58 09.10.2019
6560 Rain 24 1013 100 10000 1.1 42.158 15:39 09.10.2019
6561 Rain 24 1013 100 10000 1.1 42.158 15:39 09.10.2019
6562 Clouds 19 1012 99 0 1.33 39.198 15:20 09.10.2019
6563 Clouds 19 1012 99 0 1.33 39.198 14:56 09.10.2019
6564 Clouds 19 1012 99 0 1.33 39.198 14:37 09.10.2019
6565 Clouds 24 1013 94 10000 1.33 39.198 14:18 09.10.2019
6566 Clouds 24 1013 94 10000 1.33 39.198 13:39 09.10.2019
6567 Rain 24 1014 100 10000 1.2 39.726 13:21 09.10.2019
6568 Rain 24 1014 100 10000 1.2 39.726 12:59 09.10.2019
6569 Rain 24 1014 100 10000 1.2 39.726 12:40 09.10.2019
6570 Rain 24 1014 100 10000 0.82 42.194 12:21 09.10.2019
6571 Clouds 24 1014 100 10000 0.82 42.194 11:55 09.10.2019
6572 Clouds 24 1014 100 10000 0.82 42.194 11:36 09.10.2019
6573 Clouds 24 1014 100 10000 0.82 42.194 11:18 09.10.2019
6574 Clouds 25 1013 94 10000 0.82 42.194 10:43 09.10.2019
6575 Clouds 25 1013 94 10000 0.82 42.194 10:21 09.10.2019
6576 Clouds 25 1012 94 10000 0.82 42.194 09:57 09.10.2019
6577 Clouds 25 1012 94 10000 0.82 42.194 09:57 09.10.2019
6578 Clouds 25 1012 94 10000 0.82 42.194 09:38 09.10.2019
6579 Clouds 25 1012 94 10000 0.77 145.814 09:18 09.10.2019
6580 Clouds 26 1012 83 10000 2.6 70 08:40 09.10.2019
6581 Clouds 26 1012 83 10000 2.6 70 08:21 09.10.2019
6582 Clouds 28 1011 74 10000 3.1 50 07:54 09.10.2019
6583 Clouds 28 1011 74 10000 3.1 50 07:36 09.10.2019
6584 Clouds 28 1011 74 10000 3.1 50 07:18 09.10.2019
6585 Clouds 28 1011 78 10000 3.6 60 06:47 09.10.2019
6586 Clouds 28 1011 78 10000 4.1 60 05:55 09.10.2019
6587 Clouds 28 1011 78 10000 4.1 60 05:23 09.10.2019
6588 Rain 26 1012 94 10000 3.6 50 04:20 09.10.2019
6589 Rain 25 1012 83 0 1.19 189.121 02:45 09.10.2019
6590 Rain 25 1014 94 10000 3.6 110 01:42 09.10.2019
6591 Rain 25 1014 94 10000 3.1 90 01:19 09.10.2019
6592 Rain 25 1014 94 10000 3.1 90 00:56 09.10.2019
6593 Rain 25 1014 94 10000 3.1 90 00:37 09.10.2019
6594 Rain 25 1014 94 10000 3.1 90 00:37 09.10.2019
6595 Clouds 25 1014 94 10000 1.5 80 00:19 09.10.2019
6596 Clouds 25 1014 94 10000 1.5 80 23:39 08.10.2019
6597 Rain 24 1014 94 8000 3.1 30 23:18 08.10.2019
6598 Rain 24 1014 94 8000 3.1 30 22:56 08.10.2019
6599 Rain 24 1014 94 8000 3.1 30 22:37 08.10.2019
6600 Rain 24 1014 94 8000 3.1 30 22:18 08.10.2019
6601 Clouds 24 1013 94 10000 1 320 21:56 08.10.2019
6602 Clouds 24 1013 94 10000 1 320 21:37 08.10.2019
6603 Clouds 24 1013 94 10000 1 320 21:18 08.10.2019
6604 Clouds 24 1013 94 10000 0.68 22.813 20:55 08.10.2019
6605 Clouds 24 1013 94 10000 0.73 344.011 20:37 08.10.2019
6606 Clouds 24 1013 94 10000 0.73 344.011 20:18 08.10.2019
6607 Clouds 23 1012 94 10000 1 0 19:55 08.10.2019
6608 Clouds 23 1012 94 10000 1 0 19:36 08.10.2019
6609 Clouds 23 1012 94 10000 1 0 19:36 08.10.2019
6610 Clouds 23 1012 94 10000 1 0 19:18 08.10.2019
6611 Rain 24 1012 94 10000 2.6 50 18:42 08.10.2019
6612 Rain 24 1012 94 10000 2.6 50 18:24 08.10.2019
6613 Rain 24 1012 94 10000 2.6 50 17:57 08.10.2019
6614 Rain 24 1012 94 10000 2.6 50 17:57 08.10.2019
6615 Rain 24 1012 94 10000 2.6 50 17:57 08.10.2019
6616 Rain 24 1012 94 10000 2.6 50 17:39 08.10.2019
6617 Rain 24 1012 94 10000 2.6 50 17:19 08.10.2019
6618 Rain 24 1012 94 10000 1.5 40 16:56 08.10.2019
6619 Rain 24 1012 94 10000 1.5 40 16:37 08.10.2019
6620 Rain 24 1012 94 10000 1.5 40 16:18 08.10.2019
6621 Rain 24 1013 94 10000 3.6 80 15:38 08.10.2019
6622 Rain 24 1013 94 10000 3.6 80 15:20 08.10.2019
6623 Clouds 24 1013 94 10000 3.6 80 14:55 08.10.2019
6624 Clouds 24 1013 94 10000 3.6 80 14:37 08.10.2019
6625 Clouds 24 1013 94 10000 3.6 80 14:19 08.10.2019
6626 Clouds 24 1014 94 10000 2.6 80 13:54 08.10.2019
6627 -273 0 0 0 0 0 13:54 08.10.2019
6628 Clouds 24 1014 94 10000 2.6 80 13:36 08.10.2019
6629 Clouds 24 1014 94 10000 3.1 90 13:18 08.10.2019
6630 Clouds 24 1014 94 10000 3.1 90 13:18 08.10.2019
6631 Clouds 24 1014 94 10000 3.1 90 13:18 08.10.2019
6632 Clouds 24 1014 94 10000 3.1 90 12:40 08.10.2019
6633 Clouds 24 1013 94 10000 4.6 90 12:20 08.10.2019
6634 Clouds 24 1013 94 10000 4.6 90 11:57 08.10.2019
6635 Clouds 24 1013 94 10000 4.6 90 11:38 08.10.2019
6636 Clouds 24 1013 94 10000 3.6 90 11:20 08.10.2019
6637 Clouds 24 1013 94 10000 3.6 90 10:42 08.10.2019
6638 Clouds 24 1013 94 10000 3.1 90 10:22 08.10.2019
6639 Clouds 24 1013 94 10000 3.1 90 09:59 08.10.2019
6640 Clouds 24 1013 94 10000 3.1 90 09:40 08.10.2019
6641 Clouds 24 1013 94 10000 3.1 90 09:40 08.10.2019
6642 Rain 21 1012 98 0 0.32 16.339 09:22 08.10.2019
6643 Rain 21 1012 98 0 0.32 16.339 08:45 08.10.2019
6644 Clouds 24 1011 94 10000 4.1 80 08:25 08.10.2019
6645 Clouds 24 1011 94 10000 4.1 80 07:48 08.10.2019
6646 Rain 24 1011 94 10000 3.1 80 07:23 08.10.2019
6647 Rain 24 1011 94 10000 3.1 80 06:57 08.10.2019
6648 Rain 24 1011 94 10000 3.1 80 06:39 08.10.2019
6649 Clouds 25 1011 94 10000 4.6 80 06:21 08.10.2019
6650 Clouds 25 1011 94 10000 4.6 80 05:40 08.10.2019
6651 Rain 25 1011 94 10000 6.2 70 04:56 08.10.2019
6652 Rain 24 1012 100 10000 6.2 70 03:30 08.10.2019
6653 Rain 25 1013 94 10000 3.6 60 02:41 08.10.2019
6654 Rain 24 1013 100 10000 3.6 40 01:56 08.10.2019
6655 Rain 24 1013 100 10000 3.6 40 01:38 08.10.2019
6656 Rain 24 1014 94 10000 3.1 10 00:55 08.10.2019
6657 Rain 24 1014 94 10000 3.1 10 00:23 08.10.2019
6658 Clouds 24 1014 94 10000 6.2 50 23:44 07.10.2019
6659 Clouds 24 1014 94 10000 6.2 50 23:21 07.10.2019
6660 Rain 23 1014 100 10000 4.6 90 22:59 07.10.2019
6661 Rain 23 1014 100 10000 4.6 90 22:40 07.10.2019
6662 Rain 23 1014 100 5000 3.6 110 22:21 07.10.2019
6663 Rain 23 1014 94 8000 3.6 110 21:59 07.10.2019
6664 Rain 23 1014 94 8000 3.6 110 21:40 07.10.2019
6665 Rain 23 1014 94 8000 3.6 110 21:20 07.10.2019
6666 Rain 23 1013 94 8000 4.6 110 20:58 07.10.2019
6667 Rain 23 1013 94 8000 4.6 110 20:39 07.10.2019
6668 Rain 23 1013 94 8000 4.6 110 20:21 07.10.2019
6669 Rain 22 1013 94 8000 4.1 120 19:59 07.10.2019
6670 Rain 22 1013 94 8000 4.1 120 19:59 07.10.2019
6671 Rain 22 1013 94 8000 4.1 120 19:40 07.10.2019
6672 Rain 22 1013 94 8000 4.1 120 19:20 07.10.2019
6673 Rain 22 1013 94 8000 4.1 120 19:20 07.10.2019
6674 Rain 22 1013 94 8000 5.7 110 18:58 07.10.2019
6675 Rain 22 1013 94 8000 5.7 110 18:38 07.10.2019
6676 Rain 22 1013 94 8000 5.7 110 18:18 07.10.2019